<?xml version="1.0" encoding="UTF-8"?>
<gpx xmlns="http://www.topografix.com/GPX/1/1" xmlns:xsi="http://www.w3.org/2001/XMLSchema-instance" version="1.1" xsi:schemaLocation="http://www.topografix.com/GPX/1/1 http://www.topografix.com/GPX/1/1/gpx.xsd">
  <metadata>
    <name>Aquabike Long Distance World Championships 2025 Pontevedra - first lap</name>
  </metadata>
  <trk>
    <name>Aquabike Long Distance World Championships 2025 Pontevedra - first lap</name>
    <trkseg>
      <trkpt lat="42.432438" lon="-8.635729">
        <ele>3.326789</ele>
        <time>2025-06-29T09:00:00.000Z</time>
      </trkpt>
      <trkpt lat="42.432636" lon="-8.63585">
        <ele>3.326797</ele>
        <time>2025-06-29T09:00:02.000Z</time>
      </trkpt>
      <trkpt lat="42.43304" lon="-8.636082">
        <ele>3.326794</ele>
        <time>2025-06-29T09:00:07.000Z</time>
      </trkpt>
      <trkpt lat="42.433136" lon="-8.636096">
        <ele>3.3268</ele>
        <time>2025-06-29T09:00:08.000Z</time>
      </trkpt>
      <trkpt lat="42.433209" lon="-8.636118">
        <ele>3.326795</ele>
        <time>2025-06-29T09:00:09.000Z</time>
      </trkpt>
      <trkpt lat="42.433394" lon="-8.636217">
        <ele>3.171985</ele>
        <time>2025-06-29T09:00:11.000Z</time>
      </trkpt>
      <trkpt lat="42.433455" lon="-8.636202">
        <ele>3.101257</ele>
        <time>2025-06-29T09:00:12.000Z</time>
      </trkpt>
      <trkpt lat="42.433619" lon="-8.636229">
        <ele>2.910257</ele>
        <time>2025-06-29T09:00:14.000Z</time>
      </trkpt>
      <trkpt lat="42.433912" lon="-8.636288">
        <ele>2.537949</ele>
        <time>2025-06-29T09:00:17.000Z</time>
      </trkpt>
      <trkpt lat="42.434251" lon="-8.636416">
        <ele>2.10797</ele>
        <time>2025-06-29T09:00:21.000Z</time>
      </trkpt>
      <trkpt lat="42.435063" lon="-8.636604">
        <ele>1.101079</ele>
        <time>2025-06-29T09:00:30.000Z</time>
      </trkpt>
      <trkpt lat="42.43509" lon="-8.636603">
        <ele>1.08801</ele>
        <time>2025-06-29T09:00:30.000Z</time>
      </trkpt>
      <trkpt lat="42.435193" lon="-8.63659">
        <ele>1.048773</ele>
        <time>2025-06-29T09:00:31.000Z</time>
      </trkpt>
      <trkpt lat="42.435256" lon="-8.636515">
        <ele>1.010406</ele>
        <time>2025-06-29T09:00:32.000Z</time>
      </trkpt>
      <trkpt lat="42.435302" lon="-8.636512">
        <ele>0.990519</ele>
        <time>2025-06-29T09:00:33.000Z</time>
      </trkpt>
      <trkpt lat="42.435362" lon="-8.636511">
        <ele>0.970149</ele>
        <time>2025-06-29T09:00:34.000Z</time>
      </trkpt>
      <trkpt lat="42.435438" lon="-8.636585">
        <ele>0.929639</ele>
        <time>2025-06-29T09:00:35.000Z</time>
      </trkpt>
      <trkpt lat="42.435462" lon="-8.636716">
        <ele>0.889031</ele>
        <time>2025-06-29T09:00:36.000Z</time>
      </trkpt>
      <trkpt lat="42.43545" lon="-8.636785">
        <ele>0.86764</ele>
        <time>2025-06-29T09:00:37.000Z</time>
      </trkpt>
      <trkpt lat="42.435403" lon="-8.636882">
        <ele>0.825038</ele>
        <time>2025-06-29T09:00:38.000Z</time>
      </trkpt>
      <trkpt lat="42.435292" lon="-8.636925">
        <ele>0.779706</ele>
        <time>2025-06-29T09:00:39.000Z</time>
      </trkpt>
      <trkpt lat="42.435238" lon="-8.637056">
        <ele>0.729591</ele>
        <time>2025-06-29T09:00:40.000Z</time>
      </trkpt>
      <trkpt lat="42.435204" lon="-8.637203">
        <ele>0.682168</ele>
        <time>2025-06-29T09:00:41.000Z</time>
      </trkpt>
      <trkpt lat="42.435023" lon="-8.637941">
        <ele>0.443146</ele>
        <time>2025-06-29T09:00:47.000Z</time>
      </trkpt>
      <trkpt lat="42.434883" lon="-8.638559">
        <ele>0.448498</ele>
        <time>2025-06-29T09:00:52.000Z</time>
      </trkpt>
      <trkpt lat="42.434842" lon="-8.638908">
        <ele>0.545377</ele>
        <time>2025-06-29T09:00:55.000Z</time>
      </trkpt>
      <trkpt lat="42.434867" lon="-8.639498">
        <ele>0.703934</ele>
        <time>2025-06-29T09:01:00.000Z</time>
      </trkpt>
      <trkpt lat="42.434961" lon="-8.639969">
        <ele>0.838805</ele>
        <time>2025-06-29T09:01:04.000Z</time>
      </trkpt>
      <trkpt lat="42.435181" lon="-8.641099">
        <ele>1.465677</ele>
        <time>2025-06-29T09:01:14.000Z</time>
      </trkpt>
      <trkpt lat="42.435207" lon="-8.641222">
        <ele>1.573086</ele>
        <time>2025-06-29T09:01:15.000Z</time>
      </trkpt>
      <trkpt lat="42.435235" lon="-8.641237">
        <ele>1.608402</ele>
        <time>2025-06-29T09:01:15.000Z</time>
      </trkpt>
      <trkpt lat="42.435323" lon="-8.641315">
        <ele>1.73835</ele>
        <time>2025-06-29T09:01:16.000Z</time>
      </trkpt>
      <trkpt lat="42.435564" lon="-8.641342">
        <ele>2.019128</ele>
        <time>2025-06-29T09:01:19.000Z</time>
      </trkpt>
      <trkpt lat="42.435805" lon="-8.641224">
        <ele>2.30154</ele>
        <time>2025-06-29T09:01:22.000Z</time>
      </trkpt>
      <trkpt lat="42.435938" lon="-8.641153">
        <ele>2.483595</ele>
        <time>2025-06-29T09:01:24.000Z</time>
      </trkpt>
      <trkpt lat="42.435998" lon="-8.641131">
        <ele>2.541885</ele>
        <time>2025-06-29T09:01:25.000Z</time>
      </trkpt>
      <trkpt lat="42.436037" lon="-8.641067">
        <ele>2.610456</ele>
        <time>2025-06-29T09:01:26.000Z</time>
      </trkpt>
      <trkpt lat="42.436075" lon="-8.641041">
        <ele>2.678192</ele>
        <time>2025-06-29T09:01:26.000Z</time>
      </trkpt>
      <trkpt lat="42.436139" lon="-8.641045">
        <ele>2.747018</ele>
        <time>2025-06-29T09:01:27.000Z</time>
      </trkpt>
      <trkpt lat="42.436188" lon="-8.641081">
        <ele>2.814508</ele>
        <time>2025-06-29T09:01:28.000Z</time>
      </trkpt>
      <trkpt lat="42.436438" lon="-8.640956">
        <ele>3.11324</ele>
        <time>2025-06-29T09:01:31.000Z</time>
      </trkpt>
      <trkpt lat="42.436455" lon="-8.640928">
        <ele>3.12341</ele>
        <time>2025-06-29T09:01:31.000Z</time>
      </trkpt>
      <trkpt lat="42.43702" lon="-8.640658">
        <ele>3.287626</ele>
        <time>2025-06-29T09:01:38.000Z</time>
      </trkpt>
      <trkpt lat="42.437151" lon="-8.640601">
        <ele>3.326411</ele>
        <time>2025-06-29T09:01:40.000Z</time>
      </trkpt>
      <trkpt lat="42.437313" lon="-8.640473">
        <ele>3.379606</ele>
        <time>2025-06-29T09:01:42.000Z</time>
      </trkpt>
      <trkpt lat="42.437314" lon="-8.640408">
        <ele>3.394491</ele>
        <time>2025-06-29T09:01:43.000Z</time>
      </trkpt>
      <trkpt lat="42.437348" lon="-8.640368">
        <ele>3.404183</ele>
        <time>2025-06-29T09:01:44.000Z</time>
      </trkpt>
      <trkpt lat="42.437368" lon="-8.640323">
        <ele>3.414172</ele>
        <time>2025-06-29T09:01:44.000Z</time>
      </trkpt>
      <trkpt lat="42.437391" lon="-8.640277">
        <ele>3.427938</ele>
        <time>2025-06-29T09:01:44.000Z</time>
      </trkpt>
      <trkpt lat="42.437471" lon="-8.640098">
        <ele>3.472851</ele>
        <time>2025-06-29T09:01:46.000Z</time>
      </trkpt>
      <trkpt lat="42.437577" lon="-8.639981">
        <ele>3.510116</ele>
        <time>2025-06-29T09:01:48.000Z</time>
      </trkpt>
      <trkpt lat="42.437994" lon="-8.639625">
        <ele>3.617672</ele>
        <time>2025-06-29T09:01:53.000Z</time>
      </trkpt>
      <trkpt lat="42.43878" lon="-8.638793">
        <ele>3.620512</ele>
        <time>2025-06-29T09:02:04.000Z</time>
      </trkpt>
      <trkpt lat="42.438998" lon="-8.638493">
        <ele>3.621354</ele>
        <time>2025-06-29T09:02:07.000Z</time>
      </trkpt>
      <trkpt lat="42.439262" lon="-8.637948">
        <ele>3.58887</ele>
        <time>2025-06-29T09:02:12.000Z</time>
      </trkpt>
      <trkpt lat="42.439384" lon="-8.637627">
        <ele>3.497816</ele>
        <time>2025-06-29T09:02:15.000Z</time>
      </trkpt>
      <trkpt lat="42.439443" lon="-8.637371">
        <ele>3.428276</ele>
        <time>2025-06-29T09:02:17.000Z</time>
      </trkpt>
      <trkpt lat="42.439483" lon="-8.636763">
        <ele>3.273052</ele>
        <time>2025-06-29T09:02:22.000Z</time>
      </trkpt>
      <trkpt lat="42.439447" lon="-8.636357">
        <ele>3.166677</ele>
        <time>2025-06-29T09:02:25.000Z</time>
      </trkpt>
      <trkpt lat="42.439393" lon="-8.636344">
        <ele>3.150333</ele>
        <time>2025-06-29T09:02:26.000Z</time>
      </trkpt>
      <trkpt lat="42.439332" lon="-8.636267">
        <ele>3.119097</ele>
        <time>2025-06-29T09:02:27.000Z</time>
      </trkpt>
      <trkpt lat="42.439345" lon="-8.636206">
        <ele>3.105463</ele>
        <time>2025-06-29T09:02:28.000Z</time>
      </trkpt>
      <trkpt lat="42.439397" lon="-8.636127">
        <ele>3.078963</ele>
        <time>2025-06-29T09:02:29.000Z</time>
      </trkpt>
      <trkpt lat="42.439465" lon="-8.636152">
        <ele>3.053438</ele>
        <time>2025-06-29T09:02:30.000Z</time>
      </trkpt>
      <trkpt lat="42.439496" lon="-8.636235">
        <ele>3.027982</ele>
        <time>2025-06-29T09:02:31.000Z</time>
      </trkpt>
      <trkpt lat="42.439934" lon="-8.63611">
        <ele>3.427288</ele>
        <time>2025-06-29T09:02:36.000Z</time>
      </trkpt>
      <trkpt lat="42.440302" lon="-8.635986">
        <ele>3.900073</ele>
        <time>2025-06-29T09:02:40.000Z</time>
      </trkpt>
      <trkpt lat="42.440475" lon="-8.635947">
        <ele>4.096906</ele>
        <time>2025-06-29T09:02:42.000Z</time>
      </trkpt>
      <trkpt lat="42.440545" lon="-8.636337">
        <ele>4.462538</ele>
        <time>2025-06-29T09:02:45.000Z</time>
      </trkpt>
      <trkpt lat="42.440624" lon="-8.636759">
        <ele>4.84838</ele>
        <time>2025-06-29T09:02:49.000Z</time>
      </trkpt>
      <trkpt lat="42.440642" lon="-8.63695">
        <ele>5.026669</ele>
        <time>2025-06-29T09:02:51.000Z</time>
      </trkpt>
      <trkpt lat="42.440732" lon="-8.636951">
        <ele>5.126028</ele>
        <time>2025-06-29T09:02:52.000Z</time>
      </trkpt>
      <trkpt lat="42.440782" lon="-8.637024">
        <ele>5.223453</ele>
        <time>2025-06-29T09:02:53.000Z</time>
      </trkpt>
      <trkpt lat="42.440801" lon="-8.637188">
        <ele>5.3621</ele>
        <time>2025-06-29T09:02:54.000Z</time>
      </trkpt>
      <trkpt lat="42.440742" lon="-8.63726">
        <ele>5.455609</ele>
        <time>2025-06-29T09:02:55.000Z</time>
      </trkpt>
      <trkpt lat="42.440855" lon="-8.63741">
        <ele>5.646237</ele>
        <time>2025-06-29T09:02:57.000Z</time>
      </trkpt>
      <trkpt lat="42.441131" lon="-8.63792">
        <ele>6.20105</ele>
        <time>2025-06-29T09:03:02.000Z</time>
      </trkpt>
      <trkpt lat="42.440793" lon="-8.63826">
        <ele>6.692116</ele>
        <time>2025-06-29T09:03:07.000Z</time>
      </trkpt>
      <trkpt lat="42.440702" lon="-8.638317">
        <ele>6.810048</ele>
        <time>2025-06-29T09:03:08.000Z</time>
      </trkpt>
      <trkpt lat="42.44011" lon="-8.63875">
        <ele>7.028083</ele>
        <time>2025-06-29T09:03:15.000Z</time>
      </trkpt>
      <trkpt lat="42.439966" lon="-8.638844">
        <ele>6.851752</ele>
        <time>2025-06-29T09:03:17.000Z</time>
      </trkpt>
      <trkpt lat="42.439771" lon="-8.638956">
        <ele>6.628765</ele>
        <time>2025-06-29T09:03:19.000Z</time>
      </trkpt>
      <trkpt lat="42.439704" lon="-8.638954">
        <ele>6.55399</ele>
        <time>2025-06-29T09:03:20.000Z</time>
      </trkpt>
      <trkpt lat="42.43966" lon="-8.638908">
        <ele>6.492524</ele>
        <time>2025-06-29T09:03:21.000Z</time>
      </trkpt>
      <trkpt lat="42.43961" lon="-8.638794">
        <ele>6.374583</ele>
        <time>2025-06-29T09:03:22.000Z</time>
      </trkpt>
      <trkpt lat="42.439533" lon="-8.638496">
        <ele>6.128772</ele>
        <time>2025-06-29T09:03:25.000Z</time>
      </trkpt>
      <trkpt lat="42.439468" lon="-8.638235">
        <ele>5.911787</ele>
        <time>2025-06-29T09:03:27.000Z</time>
      </trkpt>
      <trkpt lat="42.439414" lon="-8.638091">
        <ele>5.771496</ele>
        <time>2025-06-29T09:03:28.000Z</time>
      </trkpt>
      <trkpt lat="42.439423" lon="-8.638086">
        <ele>5.771508</ele>
        <time>2025-06-29T09:03:28.000Z</time>
      </trkpt>
      <trkpt lat="42.439419" lon="-8.638082">
        <ele>5.771499</ele>
        <time>2025-06-29T09:03:28.000Z</time>
      </trkpt>
      <trkpt lat="42.439513" lon="-8.637707">
        <ele>5.446363</ele>
        <time>2025-06-29T09:03:31.000Z</time>
      </trkpt>
      <trkpt lat="42.439887" lon="-8.637534">
        <ele>5.079952</ele>
        <time>2025-06-29T09:03:35.000Z</time>
      </trkpt>
      <trkpt lat="42.440377" lon="-8.637272">
        <ele>4.61908</ele>
        <time>2025-06-29T09:03:41.000Z</time>
      </trkpt>
      <trkpt lat="42.440429" lon="-8.637252">
        <ele>4.575093</ele>
        <time>2025-06-29T09:03:42.000Z</time>
      </trkpt>
      <trkpt lat="42.44058" lon="-8.637179">
        <ele>4.439385</ele>
        <time>2025-06-29T09:03:44.000Z</time>
      </trkpt>
      <trkpt lat="42.44056" lon="-8.637066">
        <ele>4.366434</ele>
        <time>2025-06-29T09:03:45.000Z</time>
      </trkpt>
      <trkpt lat="42.440614" lon="-8.636968">
        <ele>4.293941</ele>
        <time>2025-06-29T09:03:46.000Z</time>
      </trkpt>
      <trkpt lat="42.440641" lon="-8.636949">
        <ele>4.256864</ele>
        <time>2025-06-29T09:03:46.000Z</time>
      </trkpt>
      <trkpt lat="42.440613" lon="-8.636759">
        <ele>4.13015</ele>
        <time>2025-06-29T09:03:48.000Z</time>
      </trkpt>
      <trkpt lat="42.440542" lon="-8.636337">
        <ele>3.85591</ele>
        <time>2025-06-29T09:03:52.000Z</time>
      </trkpt>
      <trkpt lat="42.440464" lon="-8.635936">
        <ele>3.718572</ele>
        <time>2025-06-29T09:03:55.000Z</time>
      </trkpt>
      <trkpt lat="42.440305" lon="-8.635989">
        <ele>3.683588</ele>
        <time>2025-06-29T09:03:57.000Z</time>
      </trkpt>
      <trkpt lat="42.439937" lon="-8.636092">
        <ele>3.599545</ele>
        <time>2025-06-29T09:04:01.000Z</time>
      </trkpt>
      <trkpt lat="42.43951" lon="-8.636226">
        <ele>3.503892</ele>
        <time>2025-06-29T09:04:06.000Z</time>
      </trkpt>
      <trkpt lat="42.439466" lon="-8.636327">
        <ele>3.486552</ele>
        <time>2025-06-29T09:04:07.000Z</time>
      </trkpt>
      <trkpt lat="42.439431" lon="-8.636359">
        <ele>3.477728</ele>
        <time>2025-06-29T09:04:07.000Z</time>
      </trkpt>
      <trkpt lat="42.43948" lon="-8.63677">
        <ele>3.411063</ele>
        <time>2025-06-29T09:04:10.000Z</time>
      </trkpt>
      <trkpt lat="42.439431" lon="-8.637368">
        <ele>3.413938</ele>
        <time>2025-06-29T09:04:15.000Z</time>
      </trkpt>
      <trkpt lat="42.439367" lon="-8.637619">
        <ele>3.451402</ele>
        <time>2025-06-29T09:04:17.000Z</time>
      </trkpt>
      <trkpt lat="42.439259" lon="-8.637935">
        <ele>3.500484</ele>
        <time>2025-06-29T09:04:20.000Z</time>
      </trkpt>
      <trkpt lat="42.438998" lon="-8.638478">
        <ele>3.589843</ele>
        <time>2025-06-29T09:04:25.000Z</time>
      </trkpt>
      <trkpt lat="42.438779" lon="-8.638785">
        <ele>3.646781</ele>
        <time>2025-06-29T09:04:29.000Z</time>
      </trkpt>
      <trkpt lat="42.437981" lon="-8.63962">
        <ele>4.059389</ele>
        <time>2025-06-29T09:04:40.000Z</time>
      </trkpt>
      <trkpt lat="42.43758" lon="-8.639989">
        <ele>4.306334</ele>
        <time>2025-06-29T09:04:45.000Z</time>
      </trkpt>
      <trkpt lat="42.437505" lon="-8.640135">
        <ele>4.371615</ele>
        <time>2025-06-29T09:04:46.000Z</time>
      </trkpt>
      <trkpt lat="42.437506" lon="-8.640315">
        <ele>4.438676</ele>
        <time>2025-06-29T09:04:47.000Z</time>
      </trkpt>
      <trkpt lat="42.437538" lon="-8.640329">
        <ele>4.457764</ele>
        <time>2025-06-29T09:04:47.000Z</time>
      </trkpt>
      <trkpt lat="42.43754" lon="-8.640343">
        <ele>4.457767</ele>
        <time>2025-06-29T09:04:47.000Z</time>
      </trkpt>
      <trkpt lat="42.437713" lon="-8.640308">
        <ele>4.549986</ele>
        <time>2025-06-29T09:04:49.000Z</time>
      </trkpt>
      <trkpt lat="42.437722" lon="-8.640302">
        <ele>4.54997</ele>
        <time>2025-06-29T09:04:49.000Z</time>
      </trkpt>
      <trkpt lat="42.438362" lon="-8.639982">
        <ele>5.658076</ele>
        <time>2025-06-29T09:04:57.000Z</time>
      </trkpt>
      <trkpt lat="42.439018" lon="-8.639661">
        <ele>6.940855</ele>
        <time>2025-06-29T09:05:05.000Z</time>
      </trkpt>
      <trkpt lat="42.439665" lon="-8.63933">
        <ele>8.136501</ele>
        <time>2025-06-29T09:05:13.000Z</time>
      </trkpt>
      <trkpt lat="42.440097" lon="-8.639048">
        <ele>8.748946</ele>
        <time>2025-06-29T09:05:18.000Z</time>
      </trkpt>
      <trkpt lat="42.44053" lon="-8.638758">
        <ele>9.361786</ele>
        <time>2025-06-29T09:05:23.000Z</time>
      </trkpt>
      <trkpt lat="42.441251" lon="-8.638156">
        <ele>10.378707</ele>
        <time>2025-06-29T09:05:32.000Z</time>
      </trkpt>
      <trkpt lat="42.441978" lon="-8.637466">
        <ele>11.122797</ele>
        <time>2025-06-29T09:05:42.000Z</time>
      </trkpt>
      <trkpt lat="42.442716" lon="-8.636773">
        <ele>12.166482</ele>
        <time>2025-06-29T09:05:52.000Z</time>
      </trkpt>
      <trkpt lat="42.443229" lon="-8.636386">
        <ele>13.813241</ele>
        <time>2025-06-29T09:05:59.000Z</time>
      </trkpt>
      <trkpt lat="42.444033" lon="-8.63599">
        <ele>16.231226</ele>
        <time>2025-06-29T09:06:09.000Z</time>
      </trkpt>
      <trkpt lat="42.444559" lon="-8.635831">
        <ele>19.134145</ele>
        <time>2025-06-29T09:06:15.000Z</time>
      </trkpt>
      <trkpt lat="42.445021" lon="-8.635768">
        <ele>22.401026</ele>
        <time>2025-06-29T09:06:20.000Z</time>
      </trkpt>
      <trkpt lat="42.44502" lon="-8.635754">
        <ele>22.401023</ele>
        <time>2025-06-29T09:06:20.000Z</time>
      </trkpt>
      <trkpt lat="42.445662" lon="-8.635851">
        <ele>26.956727</ele>
        <time>2025-06-29T09:06:27.000Z</time>
      </trkpt>
      <trkpt lat="42.446101" lon="-8.636063">
        <ele>29.716809</ele>
        <time>2025-06-29T09:06:32.000Z</time>
      </trkpt>
      <trkpt lat="42.446343" lon="-8.636241">
        <ele>30.256142</ele>
        <time>2025-06-29T09:06:35.000Z</time>
      </trkpt>
      <trkpt lat="42.446903" lon="-8.63659">
        <ele>31.411239</ele>
        <time>2025-06-29T09:06:42.000Z</time>
      </trkpt>
      <trkpt lat="42.447193" lon="-8.636747">
        <ele>31.991225</ele>
        <time>2025-06-29T09:06:45.000Z</time>
      </trkpt>
      <trkpt lat="42.447525" lon="-8.636829">
        <ele>32.658116</ele>
        <time>2025-06-29T09:06:49.000Z</time>
      </trkpt>
      <trkpt lat="42.448131" lon="-8.636734">
        <ele>32.700987</ele>
        <time>2025-06-29T09:06:56.000Z</time>
      </trkpt>
      <trkpt lat="42.449089" lon="-8.636363">
        <ele>32.229742</ele>
        <time>2025-06-29T09:07:07.000Z</time>
      </trkpt>
      <trkpt lat="42.449592" lon="-8.636292">
        <ele>31.741199</ele>
        <time>2025-06-29T09:07:13.000Z</time>
      </trkpt>
      <trkpt lat="42.449881" lon="-8.636319">
        <ele>31.164551</ele>
        <time>2025-06-29T09:07:16.000Z</time>
      </trkpt>
      <trkpt lat="42.450314" lon="-8.636457">
        <ele>30.291181</ele>
        <time>2025-06-29T09:07:21.000Z</time>
      </trkpt>
      <trkpt lat="42.45052" lon="-8.636585">
        <ele>29.866563</ele>
        <time>2025-06-29T09:07:24.000Z</time>
      </trkpt>
      <trkpt lat="42.450835" lon="-8.636884">
        <ele>29.11072</ele>
        <time>2025-06-29T09:07:28.000Z</time>
      </trkpt>
      <trkpt lat="42.450995" lon="-8.637104">
        <ele>28.662159</ele>
        <time>2025-06-29T09:07:31.000Z</time>
      </trkpt>
      <trkpt lat="42.451074" lon="-8.637308">
        <ele>28.532823</ele>
        <time>2025-06-29T09:07:33.000Z</time>
      </trkpt>
      <trkpt lat="42.451145" lon="-8.637385">
        <ele>28.522823</ele>
        <time>2025-06-29T09:07:34.000Z</time>
      </trkpt>
      <trkpt lat="42.451159" lon="-8.637413">
        <ele>28.519718</ele>
        <time>2025-06-29T09:07:34.000Z</time>
      </trkpt>
      <trkpt lat="42.451215" lon="-8.637468">
        <ele>28.51205</ele>
        <time>2025-06-29T09:07:35.000Z</time>
      </trkpt>
      <trkpt lat="42.451276" lon="-8.637639">
        <ele>28.498239</ele>
        <time>2025-06-29T09:07:37.000Z</time>
      </trkpt>
      <trkpt lat="42.451366" lon="-8.637808">
        <ele>28.480923</ele>
        <time>2025-06-29T09:07:39.000Z</time>
      </trkpt>
      <trkpt lat="42.451756" lon="-8.638205">
        <ele>28.428328</ele>
        <time>2025-06-29T09:07:44.000Z</time>
      </trkpt>
      <trkpt lat="42.452311" lon="-8.638538">
        <ele>28.361498</ele>
        <time>2025-06-29T09:07:51.000Z</time>
      </trkpt>
      <trkpt lat="42.452438" lon="-8.638589">
        <ele>28.375267</ele>
        <time>2025-06-29T09:07:52.000Z</time>
      </trkpt>
      <trkpt lat="42.453601" lon="-8.639073">
        <ele>30.298409</ele>
        <time>2025-06-29T09:08:06.000Z</time>
      </trkpt>
      <trkpt lat="42.453695" lon="-8.639103">
        <ele>30.448134</ele>
        <time>2025-06-29T09:08:07.000Z</time>
      </trkpt>
      <trkpt lat="42.45458" lon="-8.639458">
        <ele>30.918266</ele>
        <time>2025-06-29T09:08:17.000Z</time>
      </trkpt>
      <trkpt lat="42.455312" lon="-8.639609">
        <ele>30.506685</ele>
        <time>2025-06-29T09:08:25.000Z</time>
      </trkpt>
      <trkpt lat="42.457662" lon="-8.640039">
        <ele>29.939967</ele>
        <time>2025-06-29T09:08:51.000Z</time>
      </trkpt>
      <trkpt lat="42.458658" lon="-8.64022">
        <ele>31.100067</ele>
        <time>2025-06-29T09:09:02.000Z</time>
      </trkpt>
      <trkpt lat="42.460153" lon="-8.64096">
        <ele>32.821295</ele>
        <time>2025-06-29T09:09:20.000Z</time>
      </trkpt>
      <trkpt lat="42.460176" lon="-8.640973">
        <ele>32.842967</ele>
        <time>2025-06-29T09:09:20.000Z</time>
      </trkpt>
      <trkpt lat="42.461645" lon="-8.641698">
        <ele>35.118847</ele>
        <time>2025-06-29T09:09:37.000Z</time>
      </trkpt>
      <trkpt lat="42.462341" lon="-8.642037">
        <ele>36.789955</ele>
        <time>2025-06-29T09:09:45.000Z</time>
      </trkpt>
      <trkpt lat="42.462557" lon="-8.642102">
        <ele>37.294003</ele>
        <time>2025-06-29T09:09:47.000Z</time>
      </trkpt>
      <trkpt lat="42.4628" lon="-8.642159">
        <ele>37.858988</ele>
        <time>2025-06-29T09:09:50.000Z</time>
      </trkpt>
      <trkpt lat="42.463966" lon="-8.642262">
        <ele>40.331428</ele>
        <time>2025-06-29T09:10:03.000Z</time>
      </trkpt>
      <trkpt lat="42.464479" lon="-8.642345">
        <ele>41.43588</ele>
        <time>2025-06-29T09:10:09.000Z</time>
      </trkpt>
      <trkpt lat="42.465136" lon="-8.642439">
        <ele>43.198956</ele>
        <time>2025-06-29T09:10:16.000Z</time>
      </trkpt>
      <trkpt lat="42.46541" lon="-8.642522">
        <ele>43.98472</ele>
        <time>2025-06-29T09:10:19.000Z</time>
      </trkpt>
      <trkpt lat="42.465437" lon="-8.642557">
        <ele>44.091675</ele>
        <time>2025-06-29T09:10:19.000Z</time>
      </trkpt>
      <trkpt lat="42.465779" lon="-8.64254">
        <ele>45.041054</ele>
        <time>2025-06-29T09:10:23.000Z</time>
      </trkpt>
      <trkpt lat="42.466697" lon="-8.642738">
        <ele>48.01782</ele>
        <time>2025-06-29T09:10:33.000Z</time>
      </trkpt>
      <trkpt lat="42.468015" lon="-8.642953">
        <ele>53.501127</ele>
        <time>2025-06-29T09:10:48.000Z</time>
      </trkpt>
      <trkpt lat="42.468156" lon="-8.642972">
        <ele>54.061064</ele>
        <time>2025-06-29T09:10:50.000Z</time>
      </trkpt>
      <trkpt lat="42.468463" lon="-8.642979">
        <ele>54.54439</ele>
        <time>2025-06-29T09:10:53.000Z</time>
      </trkpt>
      <trkpt lat="42.468575" lon="-8.642962">
        <ele>54.682941</ele>
        <time>2025-06-29T09:10:54.000Z</time>
      </trkpt>
      <trkpt lat="42.468793" lon="-8.642858">
        <ele>55.009332</ele>
        <time>2025-06-29T09:10:57.000Z</time>
      </trkpt>
      <trkpt lat="42.468997" lon="-8.642638">
        <ele>55.347886</ele>
        <time>2025-06-29T09:11:00.000Z</time>
      </trkpt>
      <trkpt lat="42.469173" lon="-8.642365">
        <ele>55.722307</ele>
        <time>2025-06-29T09:11:03.000Z</time>
      </trkpt>
      <trkpt lat="42.469291" lon="-8.64209">
        <ele>56.041311</ele>
        <time>2025-06-29T09:11:06.000Z</time>
      </trkpt>
      <trkpt lat="42.469739" lon="-8.641082">
        <ele>56.501028</ele>
        <time>2025-06-29T09:11:16.000Z</time>
      </trkpt>
      <trkpt lat="42.469868" lon="-8.640833">
        <ele>56.457616</ele>
        <time>2025-06-29T09:11:18.000Z</time>
      </trkpt>
      <trkpt lat="42.470104" lon="-8.640412">
        <ele>56.380769</ele>
        <time>2025-06-29T09:11:22.000Z</time>
      </trkpt>
      <trkpt lat="42.470434" lon="-8.639762">
        <ele>56.268025</ele>
        <time>2025-06-29T09:11:28.000Z</time>
      </trkpt>
      <trkpt lat="42.470679" lon="-8.63925">
        <ele>55.363864</ele>
        <time>2025-06-29T09:11:33.000Z</time>
      </trkpt>
      <trkpt lat="42.470794" lon="-8.638986">
        <ele>54.685735</ele>
        <time>2025-06-29T09:11:36.000Z</time>
      </trkpt>
      <trkpt lat="42.471008" lon="-8.638619">
        <ele>53.718322</ele>
        <time>2025-06-29T09:11:40.000Z</time>
      </trkpt>
      <trkpt lat="42.471131" lon="-8.638514">
        <ele>53.273826</ele>
        <time>2025-06-29T09:11:42.000Z</time>
      </trkpt>
      <trkpt lat="42.471268" lon="-8.638395">
        <ele>52.801845</ele>
        <time>2025-06-29T09:11:44.000Z</time>
      </trkpt>
      <trkpt lat="42.471627" lon="-8.638176">
        <ele>51.687417</ele>
        <time>2025-06-29T09:11:48.000Z</time>
      </trkpt>
      <trkpt lat="42.471858" lon="-8.638131">
        <ele>51.058065</ele>
        <time>2025-06-29T09:11:51.000Z</time>
      </trkpt>
      <trkpt lat="42.471937" lon="-8.638126">
        <ele>51.121524</ele>
        <time>2025-06-29T09:11:52.000Z</time>
      </trkpt>
      <trkpt lat="42.4722" lon="-8.63815">
        <ele>51.313087</ele>
        <time>2025-06-29T09:11:55.000Z</time>
      </trkpt>
      <trkpt lat="42.472537" lon="-8.638284">
        <ele>51.564157</ele>
        <time>2025-06-29T09:11:59.000Z</time>
      </trkpt>
      <trkpt lat="42.47277" lon="-8.638448">
        <ele>51.761587</ele>
        <time>2025-06-29T09:12:02.000Z</time>
      </trkpt>
      <trkpt lat="42.472985" lon="-8.63871">
        <ele>51.972958</ele>
        <time>2025-06-29T09:12:05.000Z</time>
      </trkpt>
      <trkpt lat="42.473146" lon="-8.63894">
        <ele>52.147934</ele>
        <time>2025-06-29T09:12:08.000Z</time>
      </trkpt>
      <trkpt lat="42.473243" lon="-8.639125">
        <ele>52.270238</ele>
        <time>2025-06-29T09:12:10.000Z</time>
      </trkpt>
      <trkpt lat="42.47334" lon="-8.639428">
        <ele>52.960541</ele>
        <time>2025-06-29T09:12:13.000Z</time>
      </trkpt>
      <trkpt lat="42.473434" lon="-8.639973">
        <ele>55.066772</ele>
        <time>2025-06-29T09:12:18.000Z</time>
      </trkpt>
      <trkpt lat="42.473465" lon="-8.6403">
        <ele>56.301146</ele>
        <time>2025-06-29T09:12:21.000Z</time>
      </trkpt>
      <trkpt lat="42.473468" lon="-8.64058">
        <ele>57.372983</ele>
        <time>2025-06-29T09:12:23.000Z</time>
      </trkpt>
      <trkpt lat="42.473581" lon="-8.64192">
        <ele>62.025429</ele>
        <time>2025-06-29T09:12:34.000Z</time>
      </trkpt>
      <trkpt lat="42.473805" lon="-8.642694">
        <ele>63.762774</ele>
        <time>2025-06-29T09:12:41.000Z</time>
      </trkpt>
      <trkpt lat="42.473824" lon="-8.642799">
        <ele>63.997878</ele>
        <time>2025-06-29T09:12:42.000Z</time>
      </trkpt>
      <trkpt lat="42.473858" lon="-8.642964">
        <ele>64.35188</ele>
        <time>2025-06-29T09:12:43.000Z</time>
      </trkpt>
      <trkpt lat="42.474243" lon="-8.644153">
        <ele>67.2045</ele>
        <time>2025-06-29T09:12:54.000Z</time>
      </trkpt>
      <trkpt lat="42.474414" lon="-8.644449">
        <ele>68.272526</ele>
        <time>2025-06-29T09:12:57.000Z</time>
      </trkpt>
      <trkpt lat="42.474452" lon="-8.64456">
        <ele>68.648725</ele>
        <time>2025-06-29T09:12:58.000Z</time>
      </trkpt>
      <trkpt lat="42.474764" lon="-8.644934">
        <ele>70.261426</ele>
        <time>2025-06-29T09:13:03.000Z</time>
      </trkpt>
      <trkpt lat="42.47503" lon="-8.645101">
        <ele>71.374361</ele>
        <time>2025-06-29T09:13:06.000Z</time>
      </trkpt>
      <trkpt lat="42.475293" lon="-8.645235">
        <ele>72.4468</ele>
        <time>2025-06-29T09:13:09.000Z</time>
      </trkpt>
      <trkpt lat="42.475695" lon="-8.645277">
        <ele>74.551712</ele>
        <time>2025-06-29T09:13:13.000Z</time>
      </trkpt>
      <trkpt lat="42.475765" lon="-8.645244">
        <ele>75.121455</ele>
        <time>2025-06-29T09:13:14.000Z</time>
      </trkpt>
      <trkpt lat="42.476082" lon="-8.645118">
        <ele>77.912733</ele>
        <time>2025-06-29T09:13:18.000Z</time>
      </trkpt>
      <trkpt lat="42.476477" lon="-8.644793">
        <ele>81.751187</ele>
        <time>2025-06-29T09:13:23.000Z</time>
      </trkpt>
      <trkpt lat="42.476618" lon="-8.644673">
        <ele>83.042008</ele>
        <time>2025-06-29T09:13:25.000Z</time>
      </trkpt>
      <trkpt lat="42.477471" lon="-8.643798">
        <ele>92.331503</ele>
        <time>2025-06-29T09:13:37.000Z</time>
      </trkpt>
      <trkpt lat="42.477551" lon="-8.643727">
        <ele>93.167054</ele>
        <time>2025-06-29T09:13:38.000Z</time>
      </trkpt>
      <trkpt lat="42.477898" lon="-8.643312">
        <ele>97.315339</ele>
        <time>2025-06-29T09:13:43.000Z</time>
      </trkpt>
      <trkpt lat="42.478255" lon="-8.642943">
        <ele>101.392685</ele>
        <time>2025-06-29T09:13:48.000Z</time>
      </trkpt>
      <trkpt lat="42.478621" lon="-8.642579">
        <ele>105.241159</ele>
        <time>2025-06-29T09:13:53.000Z</time>
      </trkpt>
      <trkpt lat="42.478879" lon="-8.6424">
        <ele>106.824339</ele>
        <time>2025-06-29T09:13:56.000Z</time>
      </trkpt>
      <trkpt lat="42.479192" lon="-8.642304">
        <ele>108.572947</ele>
        <time>2025-06-29T09:14:00.000Z</time>
      </trkpt>
      <trkpt lat="42.479707" lon="-8.642291">
        <ele>111.403918</ele>
        <time>2025-06-29T09:14:06.000Z</time>
      </trkpt>
      <trkpt lat="42.480253" lon="-8.642182">
        <ele>114.408624</ele>
        <time>2025-06-29T09:14:12.000Z</time>
      </trkpt>
      <trkpt lat="42.480638" lon="-8.642002">
        <ele>116.324188</ele>
        <time>2025-06-29T09:14:17.000Z</time>
      </trkpt>
      <trkpt lat="42.481205" lon="-8.641703">
        <ele>119.095928</ele>
        <time>2025-06-29T09:14:24.000Z</time>
      </trkpt>
      <trkpt lat="42.481616" lon="-8.641653">
        <ele>121.032401</ele>
        <time>2025-06-29T09:14:29.000Z</time>
      </trkpt>
      <trkpt lat="42.481876" lon="-8.64159">
        <ele>122.221129</ele>
        <time>2025-06-29T09:14:32.000Z</time>
      </trkpt>
      <trkpt lat="42.482234" lon="-8.641665">
        <ele>123.948202</ele>
        <time>2025-06-29T09:14:36.000Z</time>
      </trkpt>
      <trkpt lat="42.482494" lon="-8.64176">
        <ele>125.252191</ele>
        <time>2025-06-29T09:14:39.000Z</time>
      </trkpt>
      <trkpt lat="42.482695" lon="-8.641888">
        <ele>126.323966</ele>
        <time>2025-06-29T09:14:41.000Z</time>
      </trkpt>
      <trkpt lat="42.482992" lon="-8.642097">
        <ele>127.956777</ele>
        <time>2025-06-29T09:14:45.000Z</time>
      </trkpt>
      <trkpt lat="42.483205" lon="-8.64236">
        <ele>129.414253</ele>
        <time>2025-06-29T09:14:48.000Z</time>
      </trkpt>
      <trkpt lat="42.483273" lon="-8.642485">
        <ele>129.964795</ele>
        <time>2025-06-29T09:14:49.000Z</time>
      </trkpt>
      <trkpt lat="42.483282" lon="-8.64249">
        <ele>130.007397</ele>
        <time>2025-06-29T09:14:49.000Z</time>
      </trkpt>
      <trkpt lat="42.483705" lon="-8.642976">
        <ele>133.197992</ele>
        <time>2025-06-29T09:14:55.000Z</time>
      </trkpt>
      <trkpt lat="42.484111" lon="-8.643251">
        <ele>136.471696</ele>
        <time>2025-06-29T09:15:00.000Z</time>
      </trkpt>
      <trkpt lat="42.484385" lon="-8.643332">
        <ele>138.546778</ele>
        <time>2025-06-29T09:15:03.000Z</time>
      </trkpt>
      <trkpt lat="42.484655" lon="-8.643402">
        <ele>140.621858</ele>
        <time>2025-06-29T09:15:06.000Z</time>
      </trkpt>
      <trkpt lat="42.485311" lon="-8.643376">
        <ele>145.231964</ele>
        <time>2025-06-29T09:15:13.000Z</time>
      </trkpt>
      <trkpt lat="42.485947" lon="-8.643351">
        <ele>149.139646</ele>
        <time>2025-06-29T09:15:20.000Z</time>
      </trkpt>
      <trkpt lat="42.486484" lon="-8.643191">
        <ele>152.503267</ele>
        <time>2025-06-29T09:15:26.000Z</time>
      </trkpt>
      <trkpt lat="42.486861" lon="-8.642957">
        <ele>155.044856</ele>
        <time>2025-06-29T09:15:31.000Z</time>
      </trkpt>
      <trkpt lat="42.487227" lon="-8.64268">
        <ele>156.445803</ele>
        <time>2025-06-29T09:15:36.000Z</time>
      </trkpt>
      <trkpt lat="42.488139" lon="-8.641838">
        <ele>158.873423</ele>
        <time>2025-06-29T09:15:48.000Z</time>
      </trkpt>
      <trkpt lat="42.488844" lon="-8.641108">
        <ele>159.995797</ele>
        <time>2025-06-29T09:15:58.000Z</time>
      </trkpt>
      <trkpt lat="42.489283" lon="-8.640766">
        <ele>160.237913</ele>
        <time>2025-06-29T09:16:04.000Z</time>
      </trkpt>
      <trkpt lat="42.489516" lon="-8.64066">
        <ele>160.354138</ele>
        <time>2025-06-29T09:16:07.000Z</time>
      </trkpt>
      <trkpt lat="42.489792" lon="-8.640559">
        <ele>160.483279</ele>
        <time>2025-06-29T09:16:10.000Z</time>
      </trkpt>
      <trkpt lat="42.489966" lon="-8.640504">
        <ele>160.571341</ele>
        <time>2025-06-29T09:16:12.000Z</time>
      </trkpt>
      <trkpt lat="42.490457" lon="-8.640485">
        <ele>161.137784</ele>
        <time>2025-06-29T09:16:17.000Z</time>
      </trkpt>
      <trkpt lat="42.492048" lon="-8.640607">
        <ele>163.223507</ele>
        <time>2025-06-29T09:16:35.000Z</time>
      </trkpt>
      <trkpt lat="42.494571" lon="-8.640795">
        <ele>166.454468</ele>
        <time>2025-06-29T09:17:03.000Z</time>
      </trkpt>
      <trkpt lat="42.494892" lon="-8.640693">
        <ele>166.96067</ele>
        <time>2025-06-29T09:17:07.000Z</time>
      </trkpt>
      <trkpt lat="42.49521" lon="-8.640475">
        <ele>167.489854</ele>
        <time>2025-06-29T09:17:11.000Z</time>
      </trkpt>
      <trkpt lat="42.495679" lon="-8.639854">
        <ele>167.679067</ele>
        <time>2025-06-29T09:17:18.000Z</time>
      </trkpt>
      <trkpt lat="42.495818" lon="-8.639685">
        <ele>167.625607</ele>
        <time>2025-06-29T09:17:20.000Z</time>
      </trkpt>
      <trkpt lat="42.496174" lon="-8.639396">
        <ele>167.517247</ele>
        <time>2025-06-29T09:17:25.000Z</time>
      </trkpt>
      <trkpt lat="42.496395" lon="-8.639245">
        <ele>167.446528</ele>
        <time>2025-06-29T09:17:28.000Z</time>
      </trkpt>
      <trkpt lat="42.496724" lon="-8.639222">
        <ele>167.356385</ele>
        <time>2025-06-29T09:17:32.000Z</time>
      </trkpt>
      <trkpt lat="42.49711" lon="-8.63928">
        <ele>167.293969</ele>
        <time>2025-06-29T09:17:36.000Z</time>
      </trkpt>
      <trkpt lat="42.497428" lon="-8.639511">
        <ele>167.263889</ele>
        <time>2025-06-29T09:17:40.000Z</time>
      </trkpt>
      <trkpt lat="42.497564" lon="-8.6396">
        <ele>167.2509</ele>
        <time>2025-06-29T09:17:42.000Z</time>
      </trkpt>
      <trkpt lat="42.49767" lon="-8.639708">
        <ele>167.240685</ele>
        <time>2025-06-29T09:17:43.000Z</time>
      </trkpt>
      <trkpt lat="42.498524" lon="-8.640927">
        <ele>166.686535</ele>
        <time>2025-06-29T09:17:57.000Z</time>
      </trkpt>
      <trkpt lat="42.498712" lon="-8.641102">
        <ele>166.351924</ele>
        <time>2025-06-29T09:18:00.000Z</time>
      </trkpt>
      <trkpt lat="42.498895" lon="-8.641278">
        <ele>166.017309</ele>
        <time>2025-06-29T09:18:02.000Z</time>
      </trkpt>
      <trkpt lat="42.499087" lon="-8.64143">
        <ele>165.681624</ele>
        <time>2025-06-29T09:18:04.000Z</time>
      </trkpt>
      <trkpt lat="42.499279" lon="-8.641564">
        <ele>165.347243</ele>
        <time>2025-06-29T09:18:06.000Z</time>
      </trkpt>
      <trkpt lat="42.499727" lon="-8.641755">
        <ele>164.631296</ele>
        <time>2025-06-29T09:18:11.000Z</time>
      </trkpt>
      <trkpt lat="42.500132" lon="-8.641855">
        <ele>163.831608</ele>
        <time>2025-06-29T09:18:16.000Z</time>
      </trkpt>
      <trkpt lat="42.502635" lon="-8.641786">
        <ele>158.90323</ele>
        <time>2025-06-29T09:18:44.000Z</time>
      </trkpt>
      <trkpt lat="42.5029" lon="-8.64185">
        <ele>158.443186</ele>
        <time>2025-06-29T09:18:47.000Z</time>
      </trkpt>
      <trkpt lat="42.503157" lon="-8.641983">
        <ele>157.95129</ele>
        <time>2025-06-29T09:18:50.000Z</time>
      </trkpt>
      <trkpt lat="42.503424" lon="-8.642148">
        <ele>157.490848</ele>
        <time>2025-06-29T09:18:53.000Z</time>
      </trkpt>
      <trkpt lat="42.503611" lon="-8.642333">
        <ele>157.493611</ele>
        <time>2025-06-29T09:18:56.000Z</time>
      </trkpt>
      <trkpt lat="42.504137" lon="-8.642786">
        <ele>157.500896</ele>
        <time>2025-06-29T09:19:03.000Z</time>
      </trkpt>
      <trkpt lat="42.504541" lon="-8.643009">
        <ele>157.506276</ele>
        <time>2025-06-29T09:19:08.000Z</time>
      </trkpt>
      <trkpt lat="42.505281" lon="-8.643298">
        <ele>158.254586</ele>
        <time>2025-06-29T09:19:17.000Z</time>
      </trkpt>
      <trkpt lat="42.505734" lon="-8.643464">
        <ele>159.438848</ele>
        <time>2025-06-29T09:19:22.000Z</time>
      </trkpt>
      <trkpt lat="42.507175" lon="-8.644023">
        <ele>163.686702</ele>
        <time>2025-06-29T09:19:39.000Z</time>
      </trkpt>
      <trkpt lat="42.50719" lon="-8.643816">
        <ele>164.1992</ele>
        <time>2025-06-29T09:19:41.000Z</time>
      </trkpt>
      <trkpt lat="42.507184" lon="-8.643587">
        <ele>164.771763</ele>
        <time>2025-06-29T09:19:43.000Z</time>
      </trkpt>
      <trkpt lat="42.507089" lon="-8.643368">
        <ele>165.427062</ele>
        <time>2025-06-29T09:19:45.000Z</time>
      </trkpt>
      <trkpt lat="42.507005" lon="-8.643282">
        <ele>165.807707</ele>
        <time>2025-06-29T09:19:46.000Z</time>
      </trkpt>
      <trkpt lat="42.506506" lon="-8.643066">
        <ele>167.57257</ele>
        <time>2025-06-29T09:19:52.000Z</time>
      </trkpt>
      <trkpt lat="42.506311" lon="-8.642984">
        <ele>168.264545</ele>
        <time>2025-06-29T09:19:54.000Z</time>
      </trkpt>
      <trkpt lat="42.505852" lon="-8.642912">
        <ele>169.965281</ele>
        <time>2025-06-29T09:19:59.000Z</time>
      </trkpt>
      <trkpt lat="42.505348" lon="-8.64273">
        <ele>171.791679</ele>
        <time>2025-06-29T09:20:05.000Z</time>
      </trkpt>
      <trkpt lat="42.504955" lon="-8.642535">
        <ele>173.301288</ele>
        <time>2025-06-29T09:20:10.000Z</time>
      </trkpt>
      <trkpt lat="42.504731" lon="-8.642385">
        <ele>174.191799</ele>
        <time>2025-06-29T09:20:13.000Z</time>
      </trkpt>
      <trkpt lat="42.504535" lon="-8.642157">
        <ele>175.525021</ele>
        <time>2025-06-29T09:20:16.000Z</time>
      </trkpt>
      <trkpt lat="42.504335" lon="-8.641759">
        <ele>177.986882</ele>
        <time>2025-06-29T09:20:20.000Z</time>
      </trkpt>
      <trkpt lat="42.503997" lon="-8.640758">
        <ele>183.644877</ele>
        <time>2025-06-29T09:20:29.000Z</time>
      </trkpt>
      <trkpt lat="42.503831" lon="-8.640342">
        <ele>186.138591</ele>
        <time>2025-06-29T09:20:33.000Z</time>
      </trkpt>
      <trkpt lat="42.503568" lon="-8.639813">
        <ele>189.711541</ele>
        <time>2025-06-29T09:20:38.000Z</time>
      </trkpt>
      <trkpt lat="42.502905" lon="-8.63864">
        <ele>198.596852</ele>
        <time>2025-06-29T09:20:50.000Z</time>
      </trkpt>
      <trkpt lat="42.502739" lon="-8.638183">
        <ele>201.545835</ele>
        <time>2025-06-29T09:20:54.000Z</time>
      </trkpt>
      <trkpt lat="42.502589" lon="-8.637642">
        <ele>203.962704</ele>
        <time>2025-06-29T09:20:59.000Z</time>
      </trkpt>
      <trkpt lat="42.502501" lon="-8.637463">
        <ele>204.828535</ele>
        <time>2025-06-29T09:21:01.000Z</time>
      </trkpt>
      <trkpt lat="42.501897" lon="-8.636862">
        <ele>208.836774</ele>
        <time>2025-06-29T09:21:09.000Z</time>
      </trkpt>
      <trkpt lat="42.501353" lon="-8.636556">
        <ele>211.541711</ele>
        <time>2025-06-29T09:21:16.000Z</time>
      </trkpt>
      <trkpt lat="42.501289" lon="-8.636505">
        <ele>211.575522</ele>
        <time>2025-06-29T09:21:17.000Z</time>
      </trkpt>
      <trkpt lat="42.501208" lon="-8.636361">
        <ele>211.628376</ele>
        <time>2025-06-29T09:21:18.000Z</time>
      </trkpt>
      <trkpt lat="42.501136" lon="-8.63612">
        <ele>211.713807</ele>
        <time>2025-06-29T09:21:20.000Z</time>
      </trkpt>
      <trkpt lat="42.50085" lon="-8.634228">
        <ele>212.423841</ele>
        <time>2025-06-29T09:21:36.000Z</time>
      </trkpt>
      <trkpt lat="42.500805" lon="-8.634051">
        <ele>212.587461</ele>
        <time>2025-06-29T09:21:38.000Z</time>
      </trkpt>
      <trkpt lat="42.500718" lon="-8.633926">
        <ele>212.727147</ele>
        <time>2025-06-29T09:21:39.000Z</time>
      </trkpt>
      <trkpt lat="42.500553" lon="-8.633752">
        <ele>212.991235</ele>
        <time>2025-06-29T09:21:41.000Z</time>
      </trkpt>
      <trkpt lat="42.50002" lon="-8.633348">
        <ele>213.718237</ele>
        <time>2025-06-29T09:21:48.000Z</time>
      </trkpt>
      <trkpt lat="42.499788" lon="-8.633052">
        <ele>214.120119</ele>
        <time>2025-06-29T09:21:52.000Z</time>
      </trkpt>
      <trkpt lat="42.499507" lon="-8.632807">
        <ele>214.618846</ele>
        <time>2025-06-29T09:21:56.000Z</time>
      </trkpt>
      <trkpt lat="42.499134" lon="-8.632664">
        <ele>215.883051</ele>
        <time>2025-06-29T09:22:00.000Z</time>
      </trkpt>
      <trkpt lat="42.498877" lon="-8.632505">
        <ele>216.757834</ele>
        <time>2025-06-29T09:22:03.000Z</time>
      </trkpt>
      <trkpt lat="42.498498" lon="-8.632108">
        <ele>218.246376</ele>
        <time>2025-06-29T09:22:08.000Z</time>
      </trkpt>
      <trkpt lat="42.498029" lon="-8.63184">
        <ele>219.862414</ele>
        <time>2025-06-29T09:22:14.000Z</time>
      </trkpt>
      <trkpt lat="42.497879" lon="-8.631665">
        <ele>219.973221</ele>
        <time>2025-06-29T09:22:16.000Z</time>
      </trkpt>
      <trkpt lat="42.497729" lon="-8.631257">
        <ele>219.484768</ele>
        <time>2025-06-29T09:22:20.000Z</time>
      </trkpt>
      <trkpt lat="42.497887" lon="-8.631659">
        <ele>218.996328</ele>
        <time>2025-06-29T09:22:24.000Z</time>
      </trkpt>
      <trkpt lat="42.498029" lon="-8.631824">
        <ele>218.704337</ele>
        <time>2025-06-29T09:22:26.000Z</time>
      </trkpt>
      <trkpt lat="42.498498" lon="-8.632105">
        <ele>217.96424</ele>
        <time>2025-06-29T09:22:32.000Z</time>
      </trkpt>
      <trkpt lat="42.498868" lon="-8.632493">
        <ele>217.063908</ele>
        <time>2025-06-29T09:22:37.000Z</time>
      </trkpt>
      <trkpt lat="42.499124" lon="-8.632651">
        <ele>216.31583</ele>
        <time>2025-06-29T09:22:40.000Z</time>
      </trkpt>
      <trkpt lat="42.499514" lon="-8.632809">
        <ele>215.234731</ele>
        <time>2025-06-29T09:22:45.000Z</time>
      </trkpt>
      <trkpt lat="42.499779" lon="-8.633056">
        <ele>214.351453</ele>
        <time>2025-06-29T09:22:49.000Z</time>
      </trkpt>
      <trkpt lat="42.500022" lon="-8.633351">
        <ele>213.455665</ele>
        <time>2025-06-29T09:22:53.000Z</time>
      </trkpt>
      <trkpt lat="42.500558" lon="-8.633753">
        <ele>212.622562</ele>
        <time>2025-06-29T09:23:00.000Z</time>
      </trkpt>
      <trkpt lat="42.50072" lon="-8.63393">
        <ele>212.58773</ele>
        <time>2025-06-29T09:23:02.000Z</time>
      </trkpt>
      <trkpt lat="42.500802" lon="-8.634053">
        <ele>212.569309</ele>
        <time>2025-06-29T09:23:03.000Z</time>
      </trkpt>
      <trkpt lat="42.500835" lon="-8.634227">
        <ele>212.547732</ele>
        <time>2025-06-29T09:23:04.000Z</time>
      </trkpt>
      <trkpt lat="42.501131" lon="-8.636111">
        <ele>211.403622</ele>
        <time>2025-06-29T09:23:20.000Z</time>
      </trkpt>
      <trkpt lat="42.501215" lon="-8.636371">
        <ele>210.91706</ele>
        <time>2025-06-29T09:23:22.000Z</time>
      </trkpt>
      <trkpt lat="42.501286" lon="-8.636496">
        <ele>210.616081</ele>
        <time>2025-06-29T09:23:23.000Z</time>
      </trkpt>
      <trkpt lat="42.501346" lon="-8.63655">
        <ele>210.423419</ele>
        <time>2025-06-29T09:23:24.000Z</time>
      </trkpt>
      <trkpt lat="42.501895" lon="-8.636859">
        <ele>208.965095</ele>
        <time>2025-06-29T09:23:31.000Z</time>
      </trkpt>
      <trkpt lat="42.502496" lon="-8.63746">
        <ele>205.443807</ele>
        <time>2025-06-29T09:23:39.000Z</time>
      </trkpt>
      <trkpt lat="42.50259" lon="-8.637636">
        <ele>204.245971</ele>
        <time>2025-06-29T09:23:41.000Z</time>
      </trkpt>
      <trkpt lat="42.502731" lon="-8.638194">
        <ele>201.009455</ele>
        <time>2025-06-29T09:23:46.000Z</time>
      </trkpt>
      <trkpt lat="42.502897" lon="-8.63863">
        <ele>198.276382</ele>
        <time>2025-06-29T09:23:50.000Z</time>
      </trkpt>
      <trkpt lat="42.503572" lon="-8.63981">
        <ele>189.826088</ele>
        <time>2025-06-29T09:24:02.000Z</time>
      </trkpt>
      <trkpt lat="42.503832" lon="-8.640332">
        <ele>186.184382</ele>
        <time>2025-06-29T09:24:07.000Z</time>
      </trkpt>
      <trkpt lat="42.503991" lon="-8.640761">
        <ele>183.386068</ele>
        <time>2025-06-29T09:24:11.000Z</time>
      </trkpt>
      <trkpt lat="42.50434" lon="-8.641771">
        <ele>178.159484</ele>
        <time>2025-06-29T09:24:20.000Z</time>
      </trkpt>
      <trkpt lat="42.504538" lon="-8.642158">
        <ele>176.306211</ele>
        <time>2025-06-29T09:24:24.000Z</time>
      </trkpt>
      <trkpt lat="42.504735" lon="-8.64238">
        <ele>174.926967</ele>
        <time>2025-06-29T09:24:27.000Z</time>
      </trkpt>
      <trkpt lat="42.504957" lon="-8.642542">
        <ele>173.624356</ele>
        <time>2025-06-29T09:24:30.000Z</time>
      </trkpt>
      <trkpt lat="42.505357" lon="-8.642733">
        <ele>171.416167</ele>
        <time>2025-06-29T09:24:35.000Z</time>
      </trkpt>
      <trkpt lat="42.505843" lon="-8.642906">
        <ele>169.807191</ele>
        <time>2025-06-29T09:24:41.000Z</time>
      </trkpt>
      <trkpt lat="42.506308" lon="-8.642991">
        <ele>168.49341</ele>
        <time>2025-06-29T09:24:46.000Z</time>
      </trkpt>
      <trkpt lat="42.506508" lon="-8.643059">
        <ele>167.932049</ele>
        <time>2025-06-29T09:24:48.000Z</time>
      </trkpt>
      <trkpt lat="42.507008" lon="-8.64328">
        <ele>166.499843</ele>
        <time>2025-06-29T09:24:54.000Z</time>
      </trkpt>
      <trkpt lat="42.507088" lon="-8.643364">
        <ele>166.190946</ele>
        <time>2025-06-29T09:24:55.000Z</time>
      </trkpt>
      <trkpt lat="42.507185" lon="-8.643589">
        <ele>165.723995</ele>
        <time>2025-06-29T09:24:57.000Z</time>
      </trkpt>
      <trkpt lat="42.507202" lon="-8.643824">
        <ele>165.346365</ele>
        <time>2025-06-29T09:24:59.000Z</time>
      </trkpt>
      <trkpt lat="42.507188" lon="-8.644025">
        <ele>165.008359</ele>
        <time>2025-06-29T09:25:01.000Z</time>
      </trkpt>
      <trkpt lat="42.50763" lon="-8.644147">
        <ele>163.980968</ele>
        <time>2025-06-29T09:25:06.000Z</time>
      </trkpt>
      <trkpt lat="42.508072" lon="-8.644184">
        <ele>162.971231</ele>
        <time>2025-06-29T09:25:11.000Z</time>
      </trkpt>
      <trkpt lat="42.508488" lon="-8.644133">
        <ele>162.026554</ele>
        <time>2025-06-29T09:25:16.000Z</time>
      </trkpt>
      <trkpt lat="42.509137" lon="-8.644006">
        <ele>159.909632</ele>
        <time>2025-06-29T09:25:23.000Z</time>
      </trkpt>
      <trkpt lat="42.509405" lon="-8.64389">
        <ele>158.939412</ele>
        <time>2025-06-29T09:25:26.000Z</time>
      </trkpt>
      <trkpt lat="42.509668" lon="-8.643697">
        <ele>157.989101</ele>
        <time>2025-06-29T09:25:29.000Z</time>
      </trkpt>
      <trkpt lat="42.510514" lon="-8.642765">
        <ele>152.587632</ele>
        <time>2025-06-29T09:25:41.000Z</time>
      </trkpt>
      <trkpt lat="42.510926" lon="-8.642534">
        <ele>149.488617</ele>
        <time>2025-06-29T09:25:46.000Z</time>
      </trkpt>
      <trkpt lat="42.511146" lon="-8.642487">
        <ele>148.001176</ele>
        <time>2025-06-29T09:25:48.000Z</time>
      </trkpt>
      <trkpt lat="42.511293" lon="-8.642467">
        <ele>147.002676</ele>
        <time>2025-06-29T09:25:50.000Z</time>
      </trkpt>
      <trkpt lat="42.511843" lon="-8.642542">
        <ele>143.081493</ele>
        <time>2025-06-29T09:25:56.000Z</time>
      </trkpt>
      <trkpt lat="42.512645" lon="-8.642749">
        <ele>137.027988</ele>
        <time>2025-06-29T09:26:05.000Z</time>
      </trkpt>
      <trkpt lat="42.513376" lon="-8.642875">
        <ele>131.619889</ele>
        <time>2025-06-29T09:26:13.000Z</time>
      </trkpt>
      <trkpt lat="42.514198" lon="-8.642801">
        <ele>128.081783</ele>
        <time>2025-06-29T09:26:22.000Z</time>
      </trkpt>
      <trkpt lat="42.514642" lon="-8.642658">
        <ele>126.564756</ele>
        <time>2025-06-29T09:26:27.000Z</time>
      </trkpt>
      <trkpt lat="42.515083" lon="-8.642487">
        <ele>125.057128</ele>
        <time>2025-06-29T09:26:32.000Z</time>
      </trkpt>
      <trkpt lat="42.515533" lon="-8.642225">
        <ele>123.15415</ele>
        <time>2025-06-29T09:26:37.000Z</time>
      </trkpt>
      <trkpt lat="42.515819" lon="-8.642018">
        <ele>121.755908</ele>
        <time>2025-06-29T09:26:41.000Z</time>
      </trkpt>
      <trkpt lat="42.516145" lon="-8.641679">
        <ele>119.92494</ele>
        <time>2025-06-29T09:26:46.000Z</time>
      </trkpt>
      <trkpt lat="42.517877" lon="-8.639627">
        <ele>109.567036</ele>
        <time>2025-06-29T09:27:12.000Z</time>
      </trkpt>
      <trkpt lat="42.518232" lon="-8.639216">
        <ele>108.223078</ele>
        <time>2025-06-29T09:27:17.000Z</time>
      </trkpt>
      <trkpt lat="42.518614" lon="-8.638814">
        <ele>108.725412</ele>
        <time>2025-06-29T09:27:22.000Z</time>
      </trkpt>
      <trkpt lat="42.518229" lon="-8.639219">
        <ele>109.227756</ele>
        <time>2025-06-29T09:27:27.000Z</time>
      </trkpt>
      <trkpt lat="42.517881" lon="-8.639643">
        <ele>109.727782</ele>
        <time>2025-06-29T09:27:32.000Z</time>
      </trkpt>
      <trkpt lat="42.516159" lon="-8.641672">
        <ele>120.171056</ele>
        <time>2025-06-29T09:27:57.000Z</time>
      </trkpt>
      <trkpt lat="42.515801" lon="-8.642007">
        <ele>121.680454</ele>
        <time>2025-06-29T09:28:02.000Z</time>
      </trkpt>
      <trkpt lat="42.515525" lon="-8.642222">
        <ele>122.833119</ele>
        <time>2025-06-29T09:28:06.000Z</time>
      </trkpt>
      <trkpt lat="42.515074" lon="-8.642496">
        <ele>124.607027</ele>
        <time>2025-06-29T09:28:11.000Z</time>
      </trkpt>
      <trkpt lat="42.514643" lon="-8.642662">
        <ele>126.345662</ele>
        <time>2025-06-29T09:28:16.000Z</time>
      </trkpt>
      <trkpt lat="42.51421" lon="-8.64281">
        <ele>128.340883</ele>
        <time>2025-06-29T09:28:21.000Z</time>
      </trkpt>
      <trkpt lat="42.513377" lon="-8.642869">
        <ele>132.011846</ele>
        <time>2025-06-29T09:28:30.000Z</time>
      </trkpt>
      <trkpt lat="42.512647" lon="-8.642755">
        <ele>136.580736</ele>
        <time>2025-06-29T09:28:38.000Z</time>
      </trkpt>
      <trkpt lat="42.511842" lon="-8.642538">
        <ele>143.156971</ele>
        <time>2025-06-29T09:28:47.000Z</time>
      </trkpt>
      <trkpt lat="42.511286" lon="-8.642469">
        <ele>147.675591</ele>
        <time>2025-06-29T09:28:53.000Z</time>
      </trkpt>
      <trkpt lat="42.511137" lon="-8.642497">
        <ele>148.60822</ele>
        <time>2025-06-29T09:28:55.000Z</time>
      </trkpt>
      <trkpt lat="42.510934" lon="-8.642526">
        <ele>149.828453</ele>
        <time>2025-06-29T09:28:57.000Z</time>
      </trkpt>
      <trkpt lat="42.510514" lon="-8.642765">
        <ele>152.370713</ele>
        <time>2025-06-29T09:29:02.000Z</time>
      </trkpt>
      <trkpt lat="42.509673" lon="-8.643691">
        <ele>158.399855</ele>
        <time>2025-06-29T09:29:14.000Z</time>
      </trkpt>
      <trkpt lat="42.509416" lon="-8.643892">
        <ele>159.071572</ele>
        <time>2025-06-29T09:29:17.000Z</time>
      </trkpt>
      <trkpt lat="42.509131" lon="-8.644006">
        <ele>159.757358</ele>
        <time>2025-06-29T09:29:20.000Z</time>
      </trkpt>
      <trkpt lat="42.508489" lon="-8.644142">
        <ele>161.279085</ele>
        <time>2025-06-29T09:29:27.000Z</time>
      </trkpt>
      <trkpt lat="42.508081" lon="-8.64418">
        <ele>162.256787</ele>
        <time>2025-06-29T09:29:32.000Z</time>
      </trkpt>
      <trkpt lat="42.507634" lon="-8.644149">
        <ele>161.992391</ele>
        <time>2025-06-29T09:29:37.000Z</time>
      </trkpt>
      <trkpt lat="42.5076" lon="-8.644137">
        <ele>161.94838</ele>
        <time>2025-06-29T09:29:37.000Z</time>
      </trkpt>
      <trkpt lat="42.507182" lon="-8.644019">
        <ele>161.378867</ele>
        <time>2025-06-29T09:29:42.000Z</time>
      </trkpt>
      <trkpt lat="42.505737" lon="-8.643461">
        <ele>159.159546</ele>
        <time>2025-06-29T09:29:59.000Z</time>
      </trkpt>
      <trkpt lat="42.505277" lon="-8.643289">
        <ele>158.364902</ele>
        <time>2025-06-29T09:30:04.000Z</time>
      </trkpt>
      <trkpt lat="42.504544" lon="-8.643007">
        <ele>157.053766</ele>
        <time>2025-06-29T09:30:12.000Z</time>
      </trkpt>
      <trkpt lat="42.504135" lon="-8.642781">
        <ele>157.257624</ele>
        <time>2025-06-29T09:30:17.000Z</time>
      </trkpt>
      <trkpt lat="42.503618" lon="-8.64233">
        <ele>157.706573</ele>
        <time>2025-06-29T09:30:24.000Z</time>
      </trkpt>
      <trkpt lat="42.503427" lon="-8.642162">
        <ele>157.87659</ele>
        <time>2025-06-29T09:30:27.000Z</time>
      </trkpt>
      <trkpt lat="42.503168" lon="-8.641966">
        <ele>158.088666</ele>
        <time>2025-06-29T09:30:30.000Z</time>
      </trkpt>
      <trkpt lat="42.502903" lon="-8.641851">
        <ele>158.314683</ele>
        <time>2025-06-29T09:30:33.000Z</time>
      </trkpt>
      <trkpt lat="42.502638" lon="-8.641796">
        <ele>158.809578</ele>
        <time>2025-06-29T09:30:36.000Z</time>
      </trkpt>
      <trkpt lat="42.500125" lon="-8.641843">
        <ele>163.862953</ele>
        <time>2025-06-29T09:31:04.000Z</time>
      </trkpt>
      <trkpt lat="42.499731" lon="-8.641755">
        <ele>164.786348</ele>
        <time>2025-06-29T09:31:08.000Z</time>
      </trkpt>
      <trkpt lat="42.499277" lon="-8.641569">
        <ele>165.727014</ele>
        <time>2025-06-29T09:31:13.000Z</time>
      </trkpt>
      <trkpt lat="42.499082" lon="-8.641412">
        <ele>165.895671</ele>
        <time>2025-06-29T09:31:16.000Z</time>
      </trkpt>
      <trkpt lat="42.498889" lon="-8.641272">
        <ele>166.06497</ele>
        <time>2025-06-29T09:31:18.000Z</time>
      </trkpt>
      <trkpt lat="42.498704" lon="-8.641102">
        <ele>166.233731</ele>
        <time>2025-06-29T09:31:20.000Z</time>
      </trkpt>
      <trkpt lat="42.498526" lon="-8.64092">
        <ele>166.402497</ele>
        <time>2025-06-29T09:31:22.000Z</time>
      </trkpt>
      <trkpt lat="42.497665" lon="-8.639706">
        <ele>167.226258</ele>
        <time>2025-06-29T09:31:36.000Z</time>
      </trkpt>
      <trkpt lat="42.497564" lon="-8.639608">
        <ele>167.280411</ele>
        <time>2025-06-29T09:31:37.000Z</time>
      </trkpt>
      <trkpt lat="42.497441" lon="-8.639503">
        <ele>167.349156</ele>
        <time>2025-06-29T09:31:39.000Z</time>
      </trkpt>
      <trkpt lat="42.497112" lon="-8.639294">
        <ele>167.50856</ele>
        <time>2025-06-29T09:31:43.000Z</time>
      </trkpt>
      <trkpt lat="42.49672" lon="-8.639219">
        <ele>167.684063</ele>
        <time>2025-06-29T09:31:47.000Z</time>
      </trkpt>
      <trkpt lat="42.496395" lon="-8.639233">
        <ele>167.832338</ele>
        <time>2025-06-29T09:31:51.000Z</time>
      </trkpt>
      <trkpt lat="42.496172" lon="-8.639391">
        <ele>167.741783</ele>
        <time>2025-06-29T09:31:54.000Z</time>
      </trkpt>
      <trkpt lat="42.495832" lon="-8.639681">
        <ele>167.547119</ele>
        <time>2025-06-29T09:31:58.000Z</time>
      </trkpt>
      <trkpt lat="42.495683" lon="-8.639858">
        <ele>167.451073</ele>
        <time>2025-06-29T09:32:00.000Z</time>
      </trkpt>
      <trkpt lat="42.495198" lon="-8.64048">
        <ele>167.126876</ele>
        <time>2025-06-29T09:32:07.000Z</time>
      </trkpt>
      <trkpt lat="42.494895" lon="-8.640691">
        <ele>166.934206</ele>
        <time>2025-06-29T09:32:11.000Z</time>
      </trkpt>
      <trkpt lat="42.494567" lon="-8.6408">
        <ele>166.481916</ele>
        <time>2025-06-29T09:32:15.000Z</time>
      </trkpt>
      <trkpt lat="42.492053" lon="-8.640608">
        <ele>163.13771</ele>
        <time>2025-06-29T09:32:43.000Z</time>
      </trkpt>
      <trkpt lat="42.490466" lon="-8.640485">
        <ele>161.287049</ele>
        <time>2025-06-29T09:33:01.000Z</time>
      </trkpt>
      <trkpt lat="42.489975" lon="-8.640508">
        <ele>160.759098</ele>
        <time>2025-06-29T09:33:06.000Z</time>
      </trkpt>
      <trkpt lat="42.489782" lon="-8.640558">
        <ele>160.559952</ele>
        <time>2025-06-29T09:33:08.000Z</time>
      </trkpt>
      <trkpt lat="42.489529" lon="-8.640644">
        <ele>160.284056</ele>
        <time>2025-06-29T09:33:11.000Z</time>
      </trkpt>
      <trkpt lat="42.489296" lon="-8.640762">
        <ele>160.133812</ele>
        <time>2025-06-29T09:33:14.000Z</time>
      </trkpt>
      <trkpt lat="42.488851" lon="-8.641102">
        <ele>159.820846</ele>
        <time>2025-06-29T09:33:20.000Z</time>
      </trkpt>
      <trkpt lat="42.488133" lon="-8.641841">
        <ele>159.275987</ele>
        <time>2025-06-29T09:33:30.000Z</time>
      </trkpt>
      <trkpt lat="42.487219" lon="-8.642685">
        <ele>155.952691</ele>
        <time>2025-06-29T09:33:42.000Z</time>
      </trkpt>
      <trkpt lat="42.486863" lon="-8.642965">
        <ele>154.59495</ele>
        <time>2025-06-29T09:33:47.000Z</time>
      </trkpt>
      <trkpt lat="42.486496" lon="-8.643193">
        <ele>153.15158</ele>
        <time>2025-06-29T09:33:51.000Z</time>
      </trkpt>
      <trkpt lat="42.485945" lon="-8.643351">
        <ele>149.341085</ele>
        <time>2025-06-29T09:33:57.000Z</time>
      </trkpt>
      <trkpt lat="42.485314" lon="-8.643375">
        <ele>144.914242</ele>
        <time>2025-06-29T09:34:04.000Z</time>
      </trkpt>
      <trkpt lat="42.484669" lon="-8.643407">
        <ele>140.479917</ele>
        <time>2025-06-29T09:34:11.000Z</time>
      </trkpt>
      <trkpt lat="42.484379" lon="-8.643329">
        <ele>138.480227</ele>
        <time>2025-06-29T09:34:14.000Z</time>
      </trkpt>
      <trkpt lat="42.484095" lon="-8.643254">
        <ele>136.480529</ele>
        <time>2025-06-29T09:34:17.000Z</time>
      </trkpt>
      <trkpt lat="42.483715" lon="-8.642975">
        <ele>133.325755</ele>
        <time>2025-06-29T09:34:22.000Z</time>
      </trkpt>
      <trkpt lat="42.483279" lon="-8.6425">
        <ele>129.42381</ele>
        <time>2025-06-29T09:34:28.000Z</time>
      </trkpt>
      <trkpt lat="42.483266" lon="-8.642494">
        <ele>129.36271</ele>
        <time>2025-06-29T09:34:28.000Z</time>
      </trkpt>
      <trkpt lat="42.482809" lon="-8.642079">
        <ele>126.484648</ele>
        <time>2025-06-29T09:34:34.000Z</time>
      </trkpt>
      <trkpt lat="42.482608" lon="-8.641947">
        <ele>125.520154</ele>
        <time>2025-06-29T09:34:36.000Z</time>
      </trkpt>
      <trkpt lat="42.481972" lon="-8.641687">
        <ele>122.460696</ele>
        <time>2025-06-29T09:34:43.000Z</time>
      </trkpt>
      <trkpt lat="42.481609" lon="-8.64165">
        <ele>120.898647</ele>
        <time>2025-06-29T09:34:47.000Z</time>
      </trkpt>
      <trkpt lat="42.48119" lon="-8.641708">
        <ele>118.970837</ele>
        <time>2025-06-29T09:34:52.000Z</time>
      </trkpt>
      <trkpt lat="42.480626" lon="-8.642">
        <ele>116.183414</ele>
        <time>2025-06-29T09:34:59.000Z</time>
      </trkpt>
      <trkpt lat="42.480251" lon="-8.642171">
        <ele>114.302689</ele>
        <time>2025-06-29T09:35:03.000Z</time>
      </trkpt>
      <trkpt lat="42.479703" lon="-8.642288">
        <ele>111.719371</ele>
        <time>2025-06-29T09:35:09.000Z</time>
      </trkpt>
      <trkpt lat="42.47919" lon="-8.642311">
        <ele>108.379453</ele>
        <time>2025-06-29T09:35:15.000Z</time>
      </trkpt>
      <trkpt lat="42.478868" lon="-8.642402">
        <ele>106.316502</ele>
        <time>2025-06-29T09:35:19.000Z</time>
      </trkpt>
      <trkpt lat="42.478625" lon="-8.642592">
        <ele>104.448718</ele>
        <time>2025-06-29T09:35:22.000Z</time>
      </trkpt>
      <trkpt lat="42.477886" lon="-8.643317">
        <ele>97.86561</ele>
        <time>2025-06-29T09:35:32.000Z</time>
      </trkpt>
      <trkpt lat="42.477542" lon="-8.643718">
        <ele>93.463692</ele>
        <time>2025-06-29T09:35:37.000Z</time>
      </trkpt>
      <trkpt lat="42.477474" lon="-8.643799">
        <ele>92.577075</ele>
        <time>2025-06-29T09:35:38.000Z</time>
      </trkpt>
      <trkpt lat="42.476618" lon="-8.644671">
        <ele>82.384974</ele>
        <time>2025-06-29T09:35:50.000Z</time>
      </trkpt>
      <trkpt lat="42.476487" lon="-8.644788">
        <ele>81.305902</ele>
        <time>2025-06-29T09:35:52.000Z</time>
      </trkpt>
      <trkpt lat="42.476094" lon="-8.645129">
        <ele>78.097155</ele>
        <time>2025-06-29T09:35:57.000Z</time>
      </trkpt>
      <trkpt lat="42.475758" lon="-8.64525">
        <ele>75.763784</ele>
        <time>2025-06-29T09:36:01.000Z</time>
      </trkpt>
      <trkpt lat="42.475699" lon="-8.645286">
        <ele>75.287492</ele>
        <time>2025-06-29T09:36:02.000Z</time>
      </trkpt>
      <trkpt lat="42.475281" lon="-8.645222">
        <ele>72.399898</ele>
        <time>2025-06-29T09:36:07.000Z</time>
      </trkpt>
      <trkpt lat="42.475035" lon="-8.645093">
        <ele>70.499592</ele>
        <time>2025-06-29T09:36:10.000Z</time>
      </trkpt>
      <trkpt lat="42.474772" lon="-8.644926">
        <ele>69.700786</ele>
        <time>2025-06-29T09:36:13.000Z</time>
      </trkpt>
      <trkpt lat="42.474461" lon="-8.644562">
        <ele>68.548853</ele>
        <time>2025-06-29T09:36:18.000Z</time>
      </trkpt>
      <trkpt lat="42.474408" lon="-8.644452">
        <ele>68.280145</ele>
        <time>2025-06-29T09:36:19.000Z</time>
      </trkpt>
      <trkpt lat="42.474246" lon="-8.644154">
        <ele>67.517256</ele>
        <time>2025-06-29T09:36:22.000Z</time>
      </trkpt>
      <trkpt lat="42.47385" lon="-8.642962">
        <ele>64.588725</ele>
        <time>2025-06-29T09:36:33.000Z</time>
      </trkpt>
      <trkpt lat="42.473815" lon="-8.642801">
        <ele>64.091101</ele>
        <time>2025-06-29T09:36:34.000Z</time>
      </trkpt>
      <trkpt lat="42.473793" lon="-8.642697">
        <ele>63.760631</ele>
        <time>2025-06-29T09:36:35.000Z</time>
      </trkpt>
      <trkpt lat="42.473581" lon="-8.641904">
        <ele>61.318531</ele>
        <time>2025-06-29T09:36:42.000Z</time>
      </trkpt>
      <trkpt lat="42.473466" lon="-8.640582">
        <ele>57.256403</ele>
        <time>2025-06-29T09:36:53.000Z</time>
      </trkpt>
      <trkpt lat="42.473321" lon="-8.639661">
        <ele>53.982838</ele>
        <time>2025-06-29T09:37:01.000Z</time>
      </trkpt>
      <trkpt lat="42.473237" lon="-8.639291">
        <ele>52.633618</ele>
        <time>2025-06-29T09:37:04.000Z</time>
      </trkpt>
      <trkpt lat="42.472996" lon="-8.638706">
        <ele>50.295331</ele>
        <time>2025-06-29T09:37:10.000Z</time>
      </trkpt>
      <trkpt lat="42.472777" lon="-8.638441">
        <ele>50.238939</ele>
        <time>2025-06-29T09:37:13.000Z</time>
      </trkpt>
      <trkpt lat="42.472538" lon="-8.638288">
        <ele>50.614449</ele>
        <time>2025-06-29T09:37:16.000Z</time>
      </trkpt>
      <trkpt lat="42.472271" lon="-8.638179">
        <ele>50.999465</ele>
        <time>2025-06-29T09:37:19.000Z</time>
      </trkpt>
      <trkpt lat="42.472208" lon="-8.638151">
        <ele>51.092012</ele>
        <time>2025-06-29T09:37:20.000Z</time>
      </trkpt>
      <trkpt lat="42.471937" lon="-8.638122">
        <ele>51.456368</ele>
        <time>2025-06-29T09:37:23.000Z</time>
      </trkpt>
      <trkpt lat="42.471846" lon="-8.63813">
        <ele>51.577095</ele>
        <time>2025-06-29T09:37:24.000Z</time>
      </trkpt>
      <trkpt lat="42.471613" lon="-8.638178">
        <ele>51.903593</ele>
        <time>2025-06-29T09:37:27.000Z</time>
      </trkpt>
      <trkpt lat="42.47126" lon="-8.638385">
        <ele>52.44168</ele>
        <time>2025-06-29T09:37:31.000Z</time>
      </trkpt>
      <trkpt lat="42.470948" lon="-8.638817">
        <ele>52.974609</ele>
        <time>2025-06-29T09:37:36.000Z</time>
      </trkpt>
      <trkpt lat="42.470884" lon="-8.638971">
        <ele>53.13897</ele>
        <time>2025-06-29T09:37:37.000Z</time>
      </trkpt>
      <trkpt lat="42.470521" lon="-8.639746">
        <ele>53.948855</ele>
        <time>2025-06-29T09:37:45.000Z</time>
      </trkpt>
      <trkpt lat="42.470025" lon="-8.640686">
        <ele>54.833028</ele>
        <time>2025-06-29T09:37:54.000Z</time>
      </trkpt>
      <trkpt lat="42.469978" lon="-8.64077">
        <ele>54.893481</ele>
        <time>2025-06-29T09:37:55.000Z</time>
      </trkpt>
      <trkpt lat="42.469907" lon="-8.640908">
        <ele>54.985546</ele>
        <time>2025-06-29T09:37:56.000Z</time>
      </trkpt>
      <trkpt lat="42.469299" lon="-8.642084">
        <ele>55.783454</ele>
        <time>2025-06-29T09:38:08.000Z</time>
      </trkpt>
      <trkpt lat="42.469161" lon="-8.642352">
        <ele>55.930483</ele>
        <time>2025-06-29T09:38:11.000Z</time>
      </trkpt>
      <trkpt lat="42.468993" lon="-8.642648">
        <ele>55.272064</ele>
        <time>2025-06-29T09:38:14.000Z</time>
      </trkpt>
      <trkpt lat="42.468893" lon="-8.642751">
        <ele>54.973454</ele>
        <time>2025-06-29T09:38:15.000Z</time>
      </trkpt>
      <trkpt lat="42.468794" lon="-8.642856">
        <ele>54.676735</ele>
        <time>2025-06-29T09:38:16.000Z</time>
      </trkpt>
      <trkpt lat="42.468571" lon="-8.642961">
        <ele>54.102765</ele>
        <time>2025-06-29T09:38:19.000Z</time>
      </trkpt>
      <trkpt lat="42.468471" lon="-8.642995">
        <ele>53.85913</ele>
        <time>2025-06-29T09:38:20.000Z</time>
      </trkpt>
      <trkpt lat="42.468157" lon="-8.642969">
        <ele>53.107545</ele>
        <time>2025-06-29T09:38:23.000Z</time>
      </trkpt>
      <trkpt lat="42.468015" lon="-8.64295">
        <ele>52.780488</ele>
        <time>2025-06-29T09:38:25.000Z</time>
      </trkpt>
      <trkpt lat="42.466697" lon="-8.642735">
        <ele>48.151893</ele>
        <time>2025-06-29T09:38:40.000Z</time>
      </trkpt>
      <trkpt lat="42.465822" lon="-8.642615">
        <ele>44.601566</ele>
        <time>2025-06-29T09:38:50.000Z</time>
      </trkpt>
      <trkpt lat="42.465442" lon="-8.642563">
        <ele>43.691832</ele>
        <time>2025-06-29T09:38:54.000Z</time>
      </trkpt>
      <trkpt lat="42.465136" lon="-8.642499">
        <ele>43.035739</ele>
        <time>2025-06-29T09:38:57.000Z</time>
      </trkpt>
      <trkpt lat="42.464483" lon="-8.642349">
        <ele>41.616754</ele>
        <time>2025-06-29T09:39:04.000Z</time>
      </trkpt>
      <trkpt lat="42.463975" lon="-8.642245">
        <ele>40.49575</ele>
        <time>2025-06-29T09:39:10.000Z</time>
      </trkpt>
      <trkpt lat="42.462793" lon="-8.642155">
        <ele>37.64764</ele>
        <time>2025-06-29T09:39:23.000Z</time>
      </trkpt>
      <trkpt lat="42.46256" lon="-8.642118">
        <ele>37.043549</ele>
        <time>2025-06-29T09:39:26.000Z</time>
      </trkpt>
      <trkpt lat="42.462342" lon="-8.642044">
        <ele>36.504593</ele>
        <time>2025-06-29T09:39:28.000Z</time>
      </trkpt>
      <trkpt lat="42.461659" lon="-8.641696">
        <ele>35.171147</ele>
        <time>2025-06-29T09:39:36.000Z</time>
      </trkpt>
      <trkpt lat="42.460178" lon="-8.640982">
        <ele>32.786087</ele>
        <time>2025-06-29T09:39:53.000Z</time>
      </trkpt>
      <trkpt lat="42.460159" lon="-8.640959">
        <ele>32.763526</ele>
        <time>2025-06-29T09:39:53.000Z</time>
      </trkpt>
      <trkpt lat="42.458651" lon="-8.640233">
        <ele>31.169695</ele>
        <time>2025-06-29T09:40:11.000Z</time>
      </trkpt>
      <trkpt lat="42.45766" lon="-8.64004">
        <ele>30.265483</ele>
        <time>2025-06-29T09:40:22.000Z</time>
      </trkpt>
      <trkpt lat="42.455305" lon="-8.63962">
        <ele>30.610067</ele>
        <time>2025-06-29T09:40:48.000Z</time>
      </trkpt>
      <trkpt lat="42.454578" lon="-8.639458">
        <ele>30.620044</ele>
        <time>2025-06-29T09:40:56.000Z</time>
      </trkpt>
      <trkpt lat="42.453699" lon="-8.639113">
        <ele>30.605084</ele>
        <time>2025-06-29T09:41:06.000Z</time>
      </trkpt>
      <trkpt lat="42.453597" lon="-8.639061">
        <ele>30.603532</ele>
        <time>2025-06-29T09:41:07.000Z</time>
      </trkpt>
      <trkpt lat="42.452425" lon="-8.638574">
        <ele>28.370064</ele>
        <time>2025-06-29T09:41:21.000Z</time>
      </trkpt>
      <trkpt lat="42.45232" lon="-8.638532">
        <ele>28.132456</ele>
        <time>2025-06-29T09:41:22.000Z</time>
      </trkpt>
      <trkpt lat="42.451953" lon="-8.638401">
        <ele>27.404545</ele>
        <time>2025-06-29T09:41:26.000Z</time>
      </trkpt>
      <trkpt lat="42.451724" lon="-8.638288">
        <ele>27.1824</ele>
        <time>2025-06-29T09:41:29.000Z</time>
      </trkpt>
      <trkpt lat="42.451155" lon="-8.637948">
        <ele>27.87286</ele>
        <time>2025-06-29T09:41:36.000Z</time>
      </trkpt>
      <trkpt lat="42.451068" lon="-8.637912">
        <ele>27.987249</ele>
        <time>2025-06-29T09:41:37.000Z</time>
      </trkpt>
      <trkpt lat="42.450979" lon="-8.637878">
        <ele>28.095056</ele>
        <time>2025-06-29T09:41:38.000Z</time>
      </trkpt>
      <trkpt lat="42.450904" lon="-8.637782">
        <ele>28.193401</ele>
        <time>2025-06-29T09:41:39.000Z</time>
      </trkpt>
      <trkpt lat="42.450875" lon="-8.637616">
        <ele>28.348551</ele>
        <time>2025-06-29T09:41:40.000Z</time>
      </trkpt>
      <trkpt lat="42.450931" lon="-8.637464">
        <ele>28.478013</ele>
        <time>2025-06-29T09:41:41.000Z</time>
      </trkpt>
      <trkpt lat="42.450933" lon="-8.63729">
        <ele>28.628585</ele>
        <time>2025-06-29T09:41:42.000Z</time>
      </trkpt>
      <trkpt lat="42.450895" lon="-8.637142">
        <ele>28.756408</ele>
        <time>2025-06-29T09:41:43.000Z</time>
      </trkpt>
      <trkpt lat="42.450812" lon="-8.637006">
        <ele>28.896932</ele>
        <time>2025-06-29T09:41:44.000Z</time>
      </trkpt>
      <trkpt lat="42.450597" lon="-8.636763">
        <ele>29.264901</ele>
        <time>2025-06-29T09:41:47.000Z</time>
      </trkpt>
      <trkpt lat="42.450295" lon="-8.636534">
        <ele>29.889462</ele>
        <time>2025-06-29T09:41:51.000Z</time>
      </trkpt>
      <trkpt lat="42.449879" lon="-8.636321">
        <ele>30.679198</ele>
        <time>2025-06-29T09:41:56.000Z</time>
      </trkpt>
      <trkpt lat="42.449602" lon="-8.636293">
        <ele>31.2008</ele>
        <time>2025-06-29T09:41:59.000Z</time>
      </trkpt>
      <trkpt lat="42.449097" lon="-8.63636">
        <ele>32.089018</ele>
        <time>2025-06-29T09:42:05.000Z</time>
      </trkpt>
      <trkpt lat="42.448116" lon="-8.636742">
        <ele>32.66603</ele>
        <time>2025-06-29T09:42:16.000Z</time>
      </trkpt>
      <trkpt lat="42.447529" lon="-8.636831">
        <ele>32.907714</ele>
        <time>2025-06-29T09:42:23.000Z</time>
      </trkpt>
      <trkpt lat="42.447186" lon="-8.636756">
        <ele>32.907578</ele>
        <time>2025-06-29T09:42:27.000Z</time>
      </trkpt>
      <trkpt lat="42.446894" lon="-8.636596">
        <ele>31.858168</ele>
        <time>2025-06-29T09:42:31.000Z</time>
      </trkpt>
      <trkpt lat="42.446344" lon="-8.636243">
        <ele>29.768082</ele>
        <time>2025-06-29T09:42:38.000Z</time>
      </trkpt>
      <trkpt lat="42.446353" lon="-8.636241">
        <ele>29.768066</ele>
        <time>2025-06-29T09:42:38.000Z</time>
      </trkpt>
      <trkpt lat="42.445811" lon="-8.636007">
        <ele>27.812458</ele>
        <time>2025-06-29T09:42:44.000Z</time>
      </trkpt>
      <trkpt lat="42.445388" lon="-8.635883">
        <ele>25.944023</ele>
        <time>2025-06-29T09:42:49.000Z</time>
      </trkpt>
      <trkpt lat="42.445013" lon="-8.635869">
        <ele>23.481049</ele>
        <time>2025-06-29T09:42:53.000Z</time>
      </trkpt>
      <trkpt lat="42.444563" lon="-8.63596">
        <ele>20.665947</ele>
        <time>2025-06-29T09:42:58.000Z</time>
      </trkpt>
      <trkpt lat="42.444055" lon="-8.636145">
        <ele>17.307468</ele>
        <time>2025-06-29T09:43:04.000Z</time>
      </trkpt>
      <trkpt lat="42.443248" lon="-8.636551">
        <ele>14.478676</ele>
        <time>2025-06-29T09:43:14.000Z</time>
      </trkpt>
      <trkpt lat="42.442754" lon="-8.636887">
        <ele>13.472684</ele>
        <time>2025-06-29T09:43:20.000Z</time>
      </trkpt>
      <trkpt lat="42.442033" lon="-8.637573">
        <ele>12.059049</ele>
        <time>2025-06-29T09:43:30.000Z</time>
      </trkpt>
      <trkpt lat="42.441319" lon="-8.638272">
        <ele>11.20591</ele>
        <time>2025-06-29T09:43:40.000Z</time>
      </trkpt>
      <trkpt lat="42.440561" lon="-8.638899">
        <ele>10.233221</ele>
        <time>2025-06-29T09:43:50.000Z</time>
      </trkpt>
      <trkpt lat="42.440145" lon="-8.63917">
        <ele>9.442587</ele>
        <time>2025-06-29T09:43:55.000Z</time>
      </trkpt>
      <trkpt lat="42.439703" lon="-8.639457">
        <ele>8.649928</ele>
        <time>2025-06-29T09:44:00.000Z</time>
      </trkpt>
      <trkpt lat="42.439051" lon="-8.639801">
        <ele>7.445672</ele>
        <time>2025-06-29T09:44:08.000Z</time>
      </trkpt>
      <trkpt lat="42.438384" lon="-8.640141">
        <ele>6.002918</ele>
        <time>2025-06-29T09:44:16.000Z</time>
      </trkpt>
      <trkpt lat="42.437701" lon="-8.640477">
        <ele>4.558259</ele>
        <time>2025-06-29T09:44:24.000Z</time>
      </trkpt>
      <trkpt lat="42.437554" lon="-8.64059">
        <ele>4.221528</ele>
        <time>2025-06-29T09:44:26.000Z</time>
      </trkpt>
      <trkpt lat="42.437525" lon="-8.640651">
        <ele>4.10066</ele>
        <time>2025-06-29T09:44:27.000Z</time>
      </trkpt>
      <trkpt lat="42.43743" lon="-8.640666">
        <ele>3.916173</ele>
        <time>2025-06-29T09:44:28.000Z</time>
      </trkpt>
      <trkpt lat="42.437192" lon="-8.640729">
        <ele>3.678211</ele>
        <time>2025-06-29T09:44:31.000Z</time>
      </trkpt>
      <trkpt lat="42.437011" lon="-8.64083">
        <ele>3.489903</ele>
        <time>2025-06-29T09:44:33.000Z</time>
      </trkpt>
      <trkpt lat="42.436432" lon="-8.641114">
        <ele>2.936403</ele>
        <time>2025-06-29T09:44:40.000Z</time>
      </trkpt>
      <trkpt lat="42.436224" lon="-8.641242">
        <ele>2.735191</ele>
        <time>2025-06-29T09:44:43.000Z</time>
      </trkpt>
      <trkpt lat="42.436223" lon="-8.641295">
        <ele>2.696709</ele>
        <time>2025-06-29T09:44:43.000Z</time>
      </trkpt>
      <trkpt lat="42.43617" lon="-8.641333">
        <ele>2.648168</ele>
        <time>2025-06-29T09:44:44.000Z</time>
      </trkpt>
      <trkpt lat="42.436066" lon="-8.641368">
        <ele>2.552311</ele>
        <time>2025-06-29T09:44:45.000Z</time>
      </trkpt>
      <trkpt lat="42.436039" lon="-8.641343">
        <ele>2.512745</ele>
        <time>2025-06-29T09:44:45.000Z</time>
      </trkpt>
      <trkpt lat="42.435405" lon="-8.641559">
        <ele>2.305124</ele>
        <time>2025-06-29T09:44:52.000Z</time>
      </trkpt>
      <trkpt lat="42.435295" lon="-8.641572">
        <ele>2.328774</ele>
        <time>2025-06-29T09:44:53.000Z</time>
      </trkpt>
      <trkpt lat="42.435224" lon="-8.641572">
        <ele>2.339917</ele>
        <time>2025-06-29T09:44:54.000Z</time>
      </trkpt>
      <trkpt lat="42.4352" lon="-8.641567">
        <ele>2.345402</ele>
        <time>2025-06-29T09:44:54.000Z</time>
      </trkpt>
      <trkpt lat="42.435172" lon="-8.641583">
        <ele>2.351482</ele>
        <time>2025-06-29T09:44:54.000Z</time>
      </trkpt>
      <trkpt lat="42.434364" lon="-8.641771">
        <ele>2.504593</ele>
        <time>2025-06-29T09:45:03.000Z</time>
      </trkpt>
      <trkpt lat="42.434321" lon="-8.641789">
        <ele>2.514386</ele>
        <time>2025-06-29T09:45:04.000Z</time>
      </trkpt>
      <trkpt lat="42.434286" lon="-8.64185">
        <ele>2.524142</ele>
        <time>2025-06-29T09:45:05.000Z</time>
      </trkpt>
      <trkpt lat="42.434292" lon="-8.642085">
        <ele>2.559492</ele>
        <time>2025-06-29T09:45:07.000Z</time>
      </trkpt>
      <trkpt lat="42.434499" lon="-8.643057">
        <ele>2.743441</ele>
        <time>2025-06-29T09:45:15.000Z</time>
      </trkpt>
      <trkpt lat="42.434715" lon="-8.643816">
        <ele>2.896065</ele>
        <time>2025-06-29T09:45:22.000Z</time>
      </trkpt>
      <trkpt lat="42.434861" lon="-8.644177">
        <ele>2.970942</ele>
        <time>2025-06-29T09:45:25.000Z</time>
      </trkpt>
      <trkpt lat="42.435069" lon="-8.644616">
        <ele>3.072165</ele>
        <time>2025-06-29T09:45:29.000Z</time>
      </trkpt>
      <trkpt lat="42.435146" lon="-8.644796">
        <ele>3.116415</ele>
        <time>2025-06-29T09:45:31.000Z</time>
      </trkpt>
      <trkpt lat="42.435275" lon="-8.64511">
        <ele>3.186397</ele>
        <time>2025-06-29T09:45:34.000Z</time>
      </trkpt>
      <trkpt lat="42.435458" lon="-8.64556">
        <ele>3.292103</ele>
        <time>2025-06-29T09:45:38.000Z</time>
      </trkpt>
      <trkpt lat="42.435834" lon="-8.64671">
        <ele>3.516792</ele>
        <time>2025-06-29T09:45:48.000Z</time>
      </trkpt>
      <trkpt lat="42.435905" lon="-8.646789">
        <ele>3.492823</ele>
        <time>2025-06-29T09:45:49.000Z</time>
      </trkpt>
      <trkpt lat="42.435891" lon="-8.646889">
        <ele>3.468854</ele>
        <time>2025-06-29T09:45:50.000Z</time>
      </trkpt>
      <trkpt lat="42.435907" lon="-8.647176">
        <ele>3.403071</ele>
        <time>2025-06-29T09:45:52.000Z</time>
      </trkpt>
      <trkpt lat="42.435951" lon="-8.647783">
        <ele>3.271084</ele>
        <time>2025-06-29T09:45:57.000Z</time>
      </trkpt>
      <trkpt lat="42.435983" lon="-8.647899">
        <ele>3.240111</ele>
        <time>2025-06-29T09:45:58.000Z</time>
      </trkpt>
      <trkpt lat="42.43603" lon="-8.647963">
        <ele>3.219573</ele>
        <time>2025-06-29T09:45:59.000Z</time>
      </trkpt>
      <trkpt lat="42.43605" lon="-8.648062">
        <ele>3.198938</ele>
        <time>2025-06-29T09:46:00.000Z</time>
      </trkpt>
      <trkpt lat="42.436019" lon="-8.648171">
        <ele>3.171621</ele>
        <time>2025-06-29T09:46:01.000Z</time>
      </trkpt>
      <trkpt lat="42.435962" lon="-8.648249">
        <ele>3.148369</ele>
        <time>2025-06-29T09:46:02.000Z</time>
      </trkpt>
      <trkpt lat="42.435881" lon="-8.648244">
        <ele>3.124804</ele>
        <time>2025-06-29T09:46:03.000Z</time>
      </trkpt>
      <trkpt lat="42.435704" lon="-8.648484">
        <ele>3.047812</ele>
        <time>2025-06-29T09:46:06.000Z</time>
      </trkpt>
      <trkpt lat="42.434888" lon="-8.649607">
        <ele>3.578213</ele>
        <time>2025-06-29T09:46:19.000Z</time>
      </trkpt>
      <trkpt lat="42.434524" lon="-8.650129">
        <ele>3.908301</ele>
        <time>2025-06-29T09:46:25.000Z</time>
      </trkpt>
      <trkpt lat="42.434511" lon="-8.650222">
        <ele>3.951781</ele>
        <time>2025-06-29T09:46:26.000Z</time>
      </trkpt>
      <trkpt lat="42.434493" lon="-8.650227">
        <ele>3.961791</ele>
        <time>2025-06-29T09:46:26.000Z</time>
      </trkpt>
      <trkpt lat="42.434444" lon="-8.650258">
        <ele>3.995232</ele>
        <time>2025-06-29T09:46:27.000Z</time>
      </trkpt>
      <trkpt lat="42.433658" lon="-8.651281">
        <ele>5.873588</ele>
        <time>2025-06-29T09:46:39.000Z</time>
      </trkpt>
      <trkpt lat="42.433257" lon="-8.651814">
        <ele>6.976004</ele>
        <time>2025-06-29T09:46:45.000Z</time>
      </trkpt>
      <trkpt lat="42.433153" lon="-8.651959">
        <ele>7.274484</ele>
        <time>2025-06-29T09:46:47.000Z</time>
      </trkpt>
      <trkpt lat="42.433124" lon="-8.652031">
        <ele>7.377143</ele>
        <time>2025-06-29T09:46:48.000Z</time>
      </trkpt>
      <trkpt lat="42.433041" lon="-8.652072">
        <ele>7.527006</ele>
        <time>2025-06-29T09:46:49.000Z</time>
      </trkpt>
      <trkpt lat="42.432897" lon="-8.652258">
        <ele>7.370595</ele>
        <time>2025-06-29T09:46:51.000Z</time>
      </trkpt>
      <trkpt lat="42.432481" lon="-8.652792">
        <ele>6.799275</ele>
        <time>2025-06-29T09:46:57.000Z</time>
      </trkpt>
      <trkpt lat="42.432321" lon="-8.652916">
        <ele>6.608346</ele>
        <time>2025-06-29T09:46:59.000Z</time>
      </trkpt>
      <trkpt lat="42.431613" lon="-8.653266">
        <ele>5.85286</ele>
        <time>2025-06-29T09:47:07.000Z</time>
      </trkpt>
      <trkpt lat="42.430765" lon="-8.653649">
        <ele>4.234679</ele>
        <time>2025-06-29T09:47:17.000Z</time>
      </trkpt>
      <trkpt lat="42.430044" lon="-8.653967">
        <ele>2.803655</ele>
        <time>2025-06-29T09:47:25.000Z</time>
      </trkpt>
      <trkpt lat="42.429864" lon="-8.654057">
        <ele>2.423554</ele>
        <time>2025-06-29T09:47:27.000Z</time>
      </trkpt>
      <trkpt lat="42.429702" lon="-8.654075">
        <ele>2.302131</ele>
        <time>2025-06-29T09:47:29.000Z</time>
      </trkpt>
      <trkpt lat="42.429448" lon="-8.654044">
        <ele>2.238938</ele>
        <time>2025-06-29T09:47:32.000Z</time>
      </trkpt>
      <trkpt lat="42.429208" lon="-8.653922">
        <ele>2.179266</ele>
        <time>2025-06-29T09:47:35.000Z</time>
      </trkpt>
      <trkpt lat="42.428987" lon="-8.653557">
        <ele>2.095631</ele>
        <time>2025-06-29T09:47:39.000Z</time>
      </trkpt>
      <trkpt lat="42.428951" lon="-8.653481">
        <ele>2.079086</ele>
        <time>2025-06-29T09:47:40.000Z</time>
      </trkpt>
      <trkpt lat="42.428944" lon="-8.653385">
        <ele>2.062414</ele>
        <time>2025-06-29T09:47:41.000Z</time>
      </trkpt>
      <trkpt lat="42.428917" lon="-8.653025">
        <ele>1.997998</ele>
        <time>2025-06-29T09:47:44.000Z</time>
      </trkpt>
      <trkpt lat="42.428873" lon="-8.652408">
        <ele>1.929528</ele>
        <time>2025-06-29T09:47:49.000Z</time>
      </trkpt>
      <trkpt lat="42.428793" lon="-8.652158">
        <ele>2.075907</ele>
        <time>2025-06-29T09:47:51.000Z</time>
      </trkpt>
      <trkpt lat="42.428745" lon="-8.652116">
        <ele>2.12188</ele>
        <time>2025-06-29T09:47:52.000Z</time>
      </trkpt>
      <trkpt lat="42.428578" lon="-8.651935">
        <ele>2.284321</ele>
        <time>2025-06-29T09:47:54.000Z</time>
      </trkpt>
      <trkpt lat="42.428503" lon="-8.651916">
        <ele>2.338319</ele>
        <time>2025-06-29T09:47:55.000Z</time>
      </trkpt>
      <trkpt lat="42.428359" lon="-8.651861">
        <ele>2.454723</ele>
        <time>2025-06-29T09:47:57.000Z</time>
      </trkpt>
      <trkpt lat="42.428255" lon="-8.65183">
        <ele>2.527995</ele>
        <time>2025-06-29T09:47:58.000Z</time>
      </trkpt>
      <trkpt lat="42.428116" lon="-8.651848">
        <ele>2.635172</ele>
        <time>2025-06-29T09:48:00.000Z</time>
      </trkpt>
      <trkpt lat="42.427612" lon="-8.652184">
        <ele>3.053222</ele>
        <time>2025-06-29T09:48:06.000Z</time>
      </trkpt>
      <trkpt lat="42.427109" lon="-8.652526">
        <ele>3.29962</ele>
        <time>2025-06-29T09:48:12.000Z</time>
      </trkpt>
      <trkpt lat="42.427011" lon="-8.652566">
        <ele>3.312986</ele>
        <time>2025-06-29T09:48:13.000Z</time>
      </trkpt>
      <trkpt lat="42.426007" lon="-8.653312">
        <ele>3.494648</ele>
        <time>2025-06-29T09:48:26.000Z</time>
      </trkpt>
      <trkpt lat="42.425686" lon="-8.653587">
        <ele>3.514617</ele>
        <time>2025-06-29T09:48:30.000Z</time>
      </trkpt>
      <trkpt lat="42.425039" lon="-8.654246">
        <ele>3.402109</ele>
        <time>2025-06-29T09:48:39.000Z</time>
      </trkpt>
      <trkpt lat="42.424307" lon="-8.655015">
        <ele>3.247598</ele>
        <time>2025-06-29T09:48:49.000Z</time>
      </trkpt>
      <trkpt lat="42.424006" lon="-8.655315">
        <ele>3.069234</ele>
        <time>2025-06-29T09:48:53.000Z</time>
      </trkpt>
      <trkpt lat="42.423595" lon="-8.655837">
        <ele>2.796887</ele>
        <time>2025-06-29T09:48:59.000Z</time>
      </trkpt>
      <trkpt lat="42.42343" lon="-8.656021">
        <ele>2.6955</ele>
        <time>2025-06-29T09:49:01.000Z</time>
      </trkpt>
      <trkpt lat="42.422976" lon="-8.656839">
        <ele>2.4566</ele>
        <time>2025-06-29T09:49:09.000Z</time>
      </trkpt>
      <trkpt lat="42.422787" lon="-8.657294">
        <ele>2.544867</ele>
        <time>2025-06-29T09:49:13.000Z</time>
      </trkpt>
      <trkpt lat="42.422618" lon="-8.657773">
        <ele>2.633684</ele>
        <time>2025-06-29T09:49:17.000Z</time>
      </trkpt>
      <trkpt lat="42.422535" lon="-8.658005">
        <ele>2.679543</ele>
        <time>2025-06-29T09:49:19.000Z</time>
      </trkpt>
      <trkpt lat="42.422472" lon="-8.658287">
        <ele>2.729074</ele>
        <time>2025-06-29T09:49:21.000Z</time>
      </trkpt>
      <trkpt lat="42.422474" lon="-8.658334">
        <ele>2.736096</ele>
        <time>2025-06-29T09:49:21.000Z</time>
      </trkpt>
      <trkpt lat="42.422434" lon="-8.658428">
        <ele>2.75617</ele>
        <time>2025-06-29T09:49:22.000Z</time>
      </trkpt>
      <trkpt lat="42.422411" lon="-8.658653">
        <ele>2.794522</ele>
        <time>2025-06-29T09:49:24.000Z</time>
      </trkpt>
      <trkpt lat="42.421543" lon="-8.662882">
        <ele>3.165004</ele>
        <time>2025-06-29T09:50:00.000Z</time>
      </trkpt>
      <trkpt lat="42.42146" lon="-8.663203">
        <ele>3.11865</ele>
        <time>2025-06-29T09:50:03.000Z</time>
      </trkpt>
      <trkpt lat="42.421399" lon="-8.66348">
        <ele>3.079429</ele>
        <time>2025-06-29T09:50:05.000Z</time>
      </trkpt>
      <trkpt lat="42.421193" lon="-8.663994">
        <ele>2.931805</ele>
        <time>2025-06-29T09:50:10.000Z</time>
      </trkpt>
      <trkpt lat="42.42093" lon="-8.664506">
        <ele>2.767449</ele>
        <time>2025-06-29T09:50:15.000Z</time>
      </trkpt>
      <trkpt lat="42.420895" lon="-8.664569">
        <ele>2.745133</ele>
        <time>2025-06-29T09:50:16.000Z</time>
      </trkpt>
      <trkpt lat="42.420682" lon="-8.664858">
        <ele>2.637038</ele>
        <time>2025-06-29T09:50:19.000Z</time>
      </trkpt>
      <trkpt lat="42.41839" lon="-8.667263">
        <ele>3.969174</ele>
        <time>2025-06-29T09:50:51.000Z</time>
      </trkpt>
      <trkpt lat="42.417988" lon="-8.667734">
        <ele>3.856481</ele>
        <time>2025-06-29T09:50:57.000Z</time>
      </trkpt>
      <trkpt lat="42.417713" lon="-8.668064">
        <ele>3.778282</ele>
        <time>2025-06-29T09:51:01.000Z</time>
      </trkpt>
      <trkpt lat="42.417375" lon="-8.668565">
        <ele>3.573651</ele>
        <time>2025-06-29T09:51:07.000Z</time>
      </trkpt>
      <trkpt lat="42.416395" lon="-8.670308">
        <ele>1.692962</ele>
        <time>2025-06-29T09:51:25.000Z</time>
      </trkpt>
      <trkpt lat="42.415772" lon="-8.671097">
        <ele>1.682574</ele>
        <time>2025-06-29T09:51:34.000Z</time>
      </trkpt>
      <trkpt lat="42.415135" lon="-8.671909">
        <ele>1.777654</ele>
        <time>2025-06-29T09:51:44.000Z</time>
      </trkpt>
      <trkpt lat="42.41451" lon="-8.672717">
        <ele>1.759149</ele>
        <time>2025-06-29T09:51:54.000Z</time>
      </trkpt>
      <trkpt lat="42.413876" lon="-8.673523">
        <ele>1.717086</ele>
        <time>2025-06-29T09:52:04.000Z</time>
      </trkpt>
      <trkpt lat="42.413242" lon="-8.674334">
        <ele>1.448599</ele>
        <time>2025-06-29T09:52:14.000Z</time>
      </trkpt>
      <trkpt lat="42.412627" lon="-8.675137">
        <ele>1.105358</ele>
        <time>2025-06-29T09:52:23.000Z</time>
      </trkpt>
      <trkpt lat="42.411998" lon="-8.675946">
        <ele>1.169064</ele>
        <time>2025-06-29T09:52:33.000Z</time>
      </trkpt>
      <trkpt lat="42.411363" lon="-8.676751">
        <ele>1.427876</ele>
        <time>2025-06-29T09:52:43.000Z</time>
      </trkpt>
      <trkpt lat="42.410725" lon="-8.677556">
        <ele>1.643358</ele>
        <time>2025-06-29T09:52:53.000Z</time>
      </trkpt>
      <trkpt lat="42.410098" lon="-8.678357">
        <ele>1.830168</ele>
        <time>2025-06-29T09:53:03.000Z</time>
      </trkpt>
      <trkpt lat="42.409467" lon="-8.679172">
        <ele>1.819791</ele>
        <time>2025-06-29T09:53:13.000Z</time>
      </trkpt>
      <trkpt lat="42.408847" lon="-8.679973">
        <ele>1.63026</ele>
        <time>2025-06-29T09:53:23.000Z</time>
      </trkpt>
      <trkpt lat="42.408221" lon="-8.680781">
        <ele>1.648501</ele>
        <time>2025-06-29T09:53:33.000Z</time>
      </trkpt>
      <trkpt lat="42.40758" lon="-8.681597">
        <ele>1.923575</ele>
        <time>2025-06-29T09:53:43.000Z</time>
      </trkpt>
      <trkpt lat="42.406958" lon="-8.682387">
        <ele>2.417625</ele>
        <time>2025-06-29T09:53:52.000Z</time>
      </trkpt>
      <trkpt lat="42.406332" lon="-8.683201">
        <ele>3.284168</ele>
        <time>2025-06-29T09:54:02.000Z</time>
      </trkpt>
      <trkpt lat="42.405694" lon="-8.684006">
        <ele>4.000744</ele>
        <time>2025-06-29T09:54:12.000Z</time>
      </trkpt>
      <trkpt lat="42.405598" lon="-8.684123">
        <ele>4.053953</ele>
        <time>2025-06-29T09:54:13.000Z</time>
      </trkpt>
      <trkpt lat="42.40536" lon="-8.684292">
        <ele>4.170845</ele>
        <time>2025-06-29T09:54:16.000Z</time>
      </trkpt>
      <trkpt lat="42.405179" lon="-8.684382">
        <ele>4.252094</ele>
        <time>2025-06-29T09:54:18.000Z</time>
      </trkpt>
      <trkpt lat="42.404908" lon="-8.684448">
        <ele>4.36283</ele>
        <time>2025-06-29T09:54:21.000Z</time>
      </trkpt>
      <trkpt lat="42.404028" lon="-8.684592">
        <ele>4.771708</ele>
        <time>2025-06-29T09:54:31.000Z</time>
      </trkpt>
      <trkpt lat="42.403806" lon="-8.684677">
        <ele>4.906196</ele>
        <time>2025-06-29T09:54:34.000Z</time>
      </trkpt>
      <trkpt lat="42.403664" lon="-8.68478">
        <ele>5.002498</ele>
        <time>2025-06-29T09:54:36.000Z</time>
      </trkpt>
      <trkpt lat="42.403618" lon="-8.684889">
        <ele>5.05265</ele>
        <time>2025-06-29T09:54:37.000Z</time>
      </trkpt>
      <trkpt lat="42.403497" lon="-8.684969">
        <ele>5.126199</ele>
        <time>2025-06-29T09:54:38.000Z</time>
      </trkpt>
      <trkpt lat="42.403442" lon="-8.684999">
        <ele>5.163026</ele>
        <time>2025-06-29T09:54:39.000Z</time>
      </trkpt>
      <trkpt lat="42.403332" lon="-8.68498">
        <ele>5.222776</ele>
        <time>2025-06-29T09:54:40.000Z</time>
      </trkpt>
      <trkpt lat="42.403242" lon="-8.68501">
        <ele>5.283934</ele>
        <time>2025-06-29T09:54:41.000Z</time>
      </trkpt>
      <trkpt lat="42.40312" lon="-8.685088">
        <ele>5.361308</ele>
        <time>2025-06-29T09:54:43.000Z</time>
      </trkpt>
      <trkpt lat="42.402246" lon="-8.686031">
        <ele>6.325796</ele>
        <time>2025-06-29T09:54:55.000Z</time>
      </trkpt>
      <trkpt lat="42.401661" lon="-8.686587">
        <ele>7.150294</ele>
        <time>2025-06-29T09:55:03.000Z</time>
      </trkpt>
      <trkpt lat="42.401223" lon="-8.687117">
        <ele>7.805</ele>
        <time>2025-06-29T09:55:10.000Z</time>
      </trkpt>
      <trkpt lat="42.40096" lon="-8.687468">
        <ele>7.950029</ele>
        <time>2025-06-29T09:55:14.000Z</time>
      </trkpt>
      <trkpt lat="42.400664" lon="-8.687977">
        <ele>8.148615</ele>
        <time>2025-06-29T09:55:19.000Z</time>
      </trkpt>
      <trkpt lat="42.400283" lon="-8.68874">
        <ele>8.421777</ele>
        <time>2025-06-29T09:55:27.000Z</time>
      </trkpt>
      <trkpt lat="42.400118" lon="-8.689165">
        <ele>8.575685</ele>
        <time>2025-06-29T09:55:31.000Z</time>
      </trkpt>
      <trkpt lat="42.399958" lon="-8.689521">
        <ele>8.700961</ele>
        <time>2025-06-29T09:55:34.000Z</time>
      </trkpt>
      <trkpt lat="42.399906" lon="-8.689592">
        <ele>8.732708</ele>
        <time>2025-06-29T09:55:35.000Z</time>
      </trkpt>
      <trkpt lat="42.399917" lon="-8.689591">
        <ele>8.732708</ele>
        <time>2025-06-29T09:55:35.000Z</time>
      </trkpt>
      <trkpt lat="42.399852" lon="-8.68952">
        <ele>8.77057</ele>
        <time>2025-06-29T09:55:36.000Z</time>
      </trkpt>
      <trkpt lat="42.399898" lon="-8.689438">
        <ele>8.798032</ele>
        <time>2025-06-29T09:55:37.000Z</time>
      </trkpt>
      <trkpt lat="42.400013" lon="-8.689182">
        <ele>8.897642</ele>
        <time>2025-06-29T09:55:39.000Z</time>
      </trkpt>
      <trkpt lat="42.40004" lon="-8.689087">
        <ele>8.926778</ele>
        <time>2025-06-29T09:55:40.000Z</time>
      </trkpt>
      <trkpt lat="42.400386" lon="-8.688321">
        <ele>9.212967</ele>
        <time>2025-06-29T09:55:47.000Z</time>
      </trkpt>
      <trkpt lat="42.400826" lon="-8.687529">
        <ele>9.211821</ele>
        <time>2025-06-29T09:55:55.000Z</time>
      </trkpt>
      <trkpt lat="42.401263" lon="-8.686912">
        <ele>9.128101</ele>
        <time>2025-06-29T09:56:02.000Z</time>
      </trkpt>
      <trkpt lat="42.401652" lon="-8.686439">
        <ele>9.059962</ele>
        <time>2025-06-29T09:56:08.000Z</time>
      </trkpt>
      <trkpt lat="42.401899" lon="-8.686066">
        <ele>8.873508</ele>
        <time>2025-06-29T09:56:12.000Z</time>
      </trkpt>
      <trkpt lat="42.402437" lon="-8.685368">
        <ele>8.42413</ele>
        <time>2025-06-29T09:56:20.000Z</time>
      </trkpt>
      <trkpt lat="42.402611" lon="-8.685116">
        <ele>8.270575</ele>
        <time>2025-06-29T09:56:23.000Z</time>
      </trkpt>
      <trkpt lat="42.403061" lon="-8.684715">
        <ele>7.923395</ele>
        <time>2025-06-29T09:56:29.000Z</time>
      </trkpt>
      <trkpt lat="42.403147" lon="-8.684592">
        <ele>7.78414</ele>
        <time>2025-06-29T09:56:30.000Z</time>
      </trkpt>
      <trkpt lat="42.403192" lon="-8.684442">
        <ele>7.658902</ele>
        <time>2025-06-29T09:56:31.000Z</time>
      </trkpt>
      <trkpt lat="42.403244" lon="-8.684375">
        <ele>7.581667</ele>
        <time>2025-06-29T09:56:32.000Z</time>
      </trkpt>
      <trkpt lat="42.403364" lon="-8.684272">
        <ele>7.428213</ele>
        <time>2025-06-29T09:56:34.000Z</time>
      </trkpt>
      <trkpt lat="42.403463" lon="-8.684285">
        <ele>7.318874</ele>
        <time>2025-06-29T09:56:35.000Z</time>
      </trkpt>
      <trkpt lat="42.40356" lon="-8.684337">
        <ele>7.208558</ele>
        <time>2025-06-29T09:56:36.000Z</time>
      </trkpt>
      <trkpt lat="42.404031" lon="-8.684217">
        <ele>6.698142</ele>
        <time>2025-06-29T09:56:41.000Z</time>
      </trkpt>
      <trkpt lat="42.404996" lon="-8.684148">
        <ele>5.781917</ele>
        <time>2025-06-29T09:56:52.000Z</time>
      </trkpt>
      <trkpt lat="42.405235" lon="-8.684083">
        <ele>5.60397</ele>
        <time>2025-06-29T09:56:55.000Z</time>
      </trkpt>
      <trkpt lat="42.405697" lon="-8.683856">
        <ele>5.273784</ele>
        <time>2025-06-29T09:57:00.000Z</time>
      </trkpt>
      <trkpt lat="42.405773" lon="-8.683759">
        <ele>5.199124</ele>
        <time>2025-06-29T09:57:01.000Z</time>
      </trkpt>
      <trkpt lat="42.414568" lon="-8.6726">
        <ele>2.049366</ele>
        <time>2025-06-29T09:59:15.000Z</time>
      </trkpt>
      <trkpt lat="42.41598" lon="-8.670726">
        <ele>1.896573</ele>
        <time>2025-06-29T09:59:37.000Z</time>
      </trkpt>
      <trkpt lat="42.415988" lon="-8.670715">
        <ele>1.896578</ele>
        <time>2025-06-29T09:59:37.000Z</time>
      </trkpt>
      <trkpt lat="42.416346" lon="-8.670196">
        <ele>2.029944</ele>
        <time>2025-06-29T09:59:43.000Z</time>
      </trkpt>
      <trkpt lat="42.416714" lon="-8.66955">
        <ele>2.36378</ele>
        <time>2025-06-29T09:59:50.000Z</time>
      </trkpt>
      <trkpt lat="42.417095" lon="-8.668921">
        <ele>3.204829</ele>
        <time>2025-06-29T09:59:57.000Z</time>
      </trkpt>
      <trkpt lat="42.417463" lon="-8.668281">
        <ele>4.045835</ele>
        <time>2025-06-29T10:00:04.000Z</time>
      </trkpt>
      <trkpt lat="42.417953" lon="-8.667609">
        <ele>4.481945</ele>
        <time>2025-06-29T10:00:12.000Z</time>
      </trkpt>
      <trkpt lat="42.418628" lon="-8.666893">
        <ele>3.882751</ele>
        <time>2025-06-29T10:00:22.000Z</time>
      </trkpt>
      <trkpt lat="42.419304" lon="-8.666163">
        <ele>3.31439</ele>
        <time>2025-06-29T10:00:32.000Z</time>
      </trkpt>
      <trkpt lat="42.419906" lon="-8.665544">
        <ele>2.916559</ele>
        <time>2025-06-29T10:00:40.000Z</time>
      </trkpt>
      <trkpt lat="42.42051" lon="-8.664915">
        <ele>2.518938</ele>
        <time>2025-06-29T10:00:48.000Z</time>
      </trkpt>
      <trkpt lat="42.420772" lon="-8.664576">
        <ele>2.810333</ele>
        <time>2025-06-29T10:00:52.000Z</time>
      </trkpt>
      <trkpt lat="42.420781" lon="-8.664577">
        <ele>2.810332</ele>
        <time>2025-06-29T10:00:52.000Z</time>
      </trkpt>
      <trkpt lat="42.421086" lon="-8.664055">
        <ele>3.447133</ele>
        <time>2025-06-29T10:00:57.000Z</time>
      </trkpt>
      <trkpt lat="42.42143" lon="-8.663087">
        <ele>4.477965</ele>
        <time>2025-06-29T10:01:06.000Z</time>
      </trkpt>
      <trkpt lat="42.42162" lon="-8.662122">
        <ele>4.983737</ele>
        <time>2025-06-29T10:01:14.000Z</time>
      </trkpt>
      <trkpt lat="42.421817" lon="-8.66118">
        <ele>5.264602</ele>
        <time>2025-06-29T10:01:22.000Z</time>
      </trkpt>
      <trkpt lat="42.422018" lon="-8.660227">
        <ele>5.353876</ele>
        <time>2025-06-29T10:01:30.000Z</time>
      </trkpt>
      <trkpt lat="42.422215" lon="-8.65928">
        <ele>4.636076</ele>
        <time>2025-06-29T10:01:38.000Z</time>
      </trkpt>
      <trkpt lat="42.422302" lon="-8.658445">
        <ele>4.023442</ele>
        <time>2025-06-29T10:01:45.000Z</time>
      </trkpt>
      <trkpt lat="42.422248" lon="-8.658305">
        <ele>3.913457</ele>
        <time>2025-06-29T10:01:46.000Z</time>
      </trkpt>
      <trkpt lat="42.422282" lon="-8.65822">
        <ele>3.843873</ele>
        <time>2025-06-29T10:01:47.000Z</time>
      </trkpt>
      <trkpt lat="42.42234" lon="-8.658167">
        <ele>3.774954</ele>
        <time>2025-06-29T10:01:48.000Z</time>
      </trkpt>
      <trkpt lat="42.422708" lon="-8.657286">
        <ele>3.480337</ele>
        <time>2025-06-29T10:01:56.000Z</time>
      </trkpt>
      <trkpt lat="42.423021" lon="-8.656567">
        <ele>3.267021</ele>
        <time>2025-06-29T10:02:03.000Z</time>
      </trkpt>
      <trkpt lat="42.423133" lon="-8.65639">
        <ele>3.211012</ele>
        <time>2025-06-29T10:02:05.000Z</time>
      </trkpt>
      <trkpt lat="42.423358" lon="-8.656006">
        <ele>3.120583</ele>
        <time>2025-06-29T10:02:09.000Z</time>
      </trkpt>
      <trkpt lat="42.423386" lon="-8.655952">
        <ele>3.141849</ele>
        <time>2025-06-29T10:02:10.000Z</time>
      </trkpt>
      <trkpt lat="42.423604" lon="-8.655662">
        <ele>3.273306</ele>
        <time>2025-06-29T10:02:13.000Z</time>
      </trkpt>
      <trkpt lat="42.423968" lon="-8.655243">
        <ele>3.471085</ele>
        <time>2025-06-29T10:02:18.000Z</time>
      </trkpt>
      <trkpt lat="42.424266" lon="-8.654935">
        <ele>3.626573</ele>
        <time>2025-06-29T10:02:22.000Z</time>
      </trkpt>
      <trkpt lat="42.42501" lon="-8.65417">
        <ele>3.895045</ele>
        <time>2025-06-29T10:02:32.000Z</time>
      </trkpt>
      <trkpt lat="42.42521" lon="-8.653972">
        <ele>3.920443</ele>
        <time>2025-06-29T10:02:35.000Z</time>
      </trkpt>
      <trkpt lat="42.425479" lon="-8.653698">
        <ele>3.952793</ele>
        <time>2025-06-29T10:02:39.000Z</time>
      </trkpt>
      <trkpt lat="42.425956" lon="-8.653196">
        <ele>4.012116</ele>
        <time>2025-06-29T10:02:46.000Z</time>
      </trkpt>
      <trkpt lat="42.426018" lon="-8.65313">
        <ele>4.021685</ele>
        <time>2025-06-29T10:02:47.000Z</time>
      </trkpt>
      <trkpt lat="42.426507" lon="-8.652637">
        <ele>4.206442</ele>
        <time>2025-06-29T10:02:54.000Z</time>
      </trkpt>
      <trkpt lat="42.426556" lon="-8.652589">
        <ele>4.228057</ele>
        <time>2025-06-29T10:02:55.000Z</time>
      </trkpt>
      <trkpt lat="42.426911" lon="-8.652329">
        <ele>4.375227</ele>
        <time>2025-06-29T10:02:59.000Z</time>
      </trkpt>
      <trkpt lat="42.426965" lon="-8.652238">
        <ele>4.408215</ele>
        <time>2025-06-29T10:03:00.000Z</time>
      </trkpt>
      <trkpt lat="42.426988" lon="-8.652218">
        <ele>4.42181</ele>
        <time>2025-06-29T10:03:00.000Z</time>
      </trkpt>
      <trkpt lat="42.427026" lon="-8.652214">
        <ele>4.435166</ele>
        <time>2025-06-29T10:03:00.000Z</time>
      </trkpt>
      <trkpt lat="42.427851" lon="-8.651673">
        <ele>4.43752</ele>
        <time>2025-06-29T10:03:10.000Z</time>
      </trkpt>
      <trkpt lat="42.428084" lon="-8.651693">
        <ele>4.14751</ele>
        <time>2025-06-29T10:03:13.000Z</time>
      </trkpt>
      <trkpt lat="42.428358" lon="-8.651764">
        <ele>3.786242</ele>
        <time>2025-06-29T10:03:16.000Z</time>
      </trkpt>
      <trkpt lat="42.428374" lon="-8.651764">
        <ele>3.747815</ele>
        <time>2025-06-29T10:03:16.000Z</time>
      </trkpt>
      <trkpt lat="42.428416" lon="-8.651785">
        <ele>3.700737</ele>
        <time>2025-06-29T10:03:16.000Z</time>
      </trkpt>
      <trkpt lat="42.428563" lon="-8.65184">
        <ele>3.505899</ele>
        <time>2025-06-29T10:03:18.000Z</time>
      </trkpt>
      <trkpt lat="42.428611" lon="-8.651859">
        <ele>3.426599</ele>
        <time>2025-06-29T10:03:19.000Z</time>
      </trkpt>
      <trkpt lat="42.428798" lon="-8.651908">
        <ele>3.196963</ele>
        <time>2025-06-29T10:03:21.000Z</time>
      </trkpt>
      <trkpt lat="42.428837" lon="-8.651897">
        <ele>3.12848</ele>
        <time>2025-06-29T10:03:21.000Z</time>
      </trkpt>
      <trkpt lat="42.428896" lon="-8.651901">
        <ele>3.058246</ele>
        <time>2025-06-29T10:03:22.000Z</time>
      </trkpt>
      <trkpt lat="42.428934" lon="-8.651975">
        <ele>2.978844</ele>
        <time>2025-06-29T10:03:23.000Z</time>
      </trkpt>
      <trkpt lat="42.428947" lon="-8.652059">
        <ele>2.900175</ele>
        <time>2025-06-29T10:03:24.000Z</time>
      </trkpt>
      <trkpt lat="42.428944" lon="-8.65206">
        <ele>2.884565</ele>
        <time>2025-06-29T10:03:24.000Z</time>
      </trkpt>
      <trkpt lat="42.428982" lon="-8.652348">
        <ele>2.610497</ele>
        <time>2025-06-29T10:03:26.000Z</time>
      </trkpt>
      <trkpt lat="42.429018" lon="-8.652872">
        <ele>2.521956</ele>
        <time>2025-06-29T10:03:30.000Z</time>
      </trkpt>
      <trkpt lat="42.429076" lon="-8.653376">
        <ele>2.867366</ele>
        <time>2025-06-29T10:03:34.000Z</time>
      </trkpt>
      <trkpt lat="42.429081" lon="-8.653536">
        <ele>2.963374</ele>
        <time>2025-06-29T10:03:35.000Z</time>
      </trkpt>
      <trkpt lat="42.429239" lon="-8.653761">
        <ele>3.168282</ele>
        <time>2025-06-29T10:03:38.000Z</time>
      </trkpt>
      <trkpt lat="42.429322" lon="-8.653823">
        <ele>3.25665</ele>
        <time>2025-06-29T10:03:39.000Z</time>
      </trkpt>
      <trkpt lat="42.429512" lon="-8.653953">
        <ele>3.439056</ele>
        <time>2025-06-29T10:03:41.000Z</time>
      </trkpt>
      <trkpt lat="42.429841" lon="-8.653958">
        <ele>3.738744</ele>
        <time>2025-06-29T10:03:45.000Z</time>
      </trkpt>
      <trkpt lat="42.430038" lon="-8.653864">
        <ele>3.90875</ele>
        <time>2025-06-29T10:03:47.000Z</time>
      </trkpt>
      <trkpt lat="42.430362" lon="-8.65372">
        <ele>4.605544</ele>
        <time>2025-06-29T10:03:51.000Z</time>
      </trkpt>
      <trkpt lat="42.430777" lon="-8.653531">
        <ele>5.572665</ele>
        <time>2025-06-29T10:03:56.000Z</time>
      </trkpt>
      <trkpt lat="42.431317" lon="-8.653259">
        <ele>6.826693</ele>
        <time>2025-06-29T10:04:02.000Z</time>
      </trkpt>
      <trkpt lat="42.431588" lon="-8.653154">
        <ele>7.441987</ele>
        <time>2025-06-29T10:04:05.000Z</time>
      </trkpt>
      <trkpt lat="42.431781" lon="-8.653068">
        <ele>7.881577</ele>
        <time>2025-06-29T10:04:07.000Z</time>
      </trkpt>
      <trkpt lat="42.432036" lon="-8.652944">
        <ele>8.024267</ele>
        <time>2025-06-29T10:04:10.000Z</time>
      </trkpt>
      <trkpt lat="42.432289" lon="-8.652807">
        <ele>8.139577</ele>
        <time>2025-06-29T10:04:13.000Z</time>
      </trkpt>
      <trkpt lat="42.432461" lon="-8.652673">
        <ele>8.222498</ele>
        <time>2025-06-29T10:04:15.000Z</time>
      </trkpt>
      <trkpt lat="42.432507" lon="-8.652582">
        <ele>8.257512</ele>
        <time>2025-06-29T10:04:16.000Z</time>
      </trkpt>
      <trkpt lat="42.432651" lon="-8.652408">
        <ele>8.342294</ele>
        <time>2025-06-29T10:04:18.000Z</time>
      </trkpt>
      <trkpt lat="42.432845" lon="-8.652182">
        <ele>8.450138</ele>
        <time>2025-06-29T10:04:21.000Z</time>
      </trkpt>
      <trkpt lat="42.432987" lon="-8.651973">
        <ele>8.539161</ele>
        <time>2025-06-29T10:04:23.000Z</time>
      </trkpt>
      <trkpt lat="42.432991" lon="-8.651888">
        <ele>8.561813</ele>
        <time>2025-06-29T10:04:24.000Z</time>
      </trkpt>
      <trkpt lat="42.433016" lon="-8.651839">
        <ele>8.584082</ele>
        <time>2025-06-29T10:04:24.000Z</time>
      </trkpt>
      <trkpt lat="42.433056" lon="-8.651846">
        <ele>8.595722</ele>
        <time>2025-06-29T10:04:24.000Z</time>
      </trkpt>
      <trkpt lat="42.433073" lon="-8.651844">
        <ele>8.60736</ele>
        <time>2025-06-29T10:04:24.000Z</time>
      </trkpt>
      <trkpt lat="42.433598" lon="-8.651196">
        <ele>7.404767</ele>
        <time>2025-06-29T10:04:32.000Z</time>
      </trkpt>
      <trkpt lat="42.433688" lon="-8.651073">
        <ele>7.131634</ele>
        <time>2025-06-29T10:04:33.000Z</time>
      </trkpt>
      <trkpt lat="42.434371" lon="-8.650182">
        <ele>4.897582</ele>
        <time>2025-06-29T10:04:44.000Z</time>
      </trkpt>
      <trkpt lat="42.434379" lon="-8.650109">
        <ele>4.774108</ele>
        <time>2025-06-29T10:04:45.000Z</time>
      </trkpt>
      <trkpt lat="42.434381" lon="-8.650089">
        <ele>4.712492</ele>
        <time>2025-06-29T10:04:45.000Z</time>
      </trkpt>
      <trkpt lat="42.434419" lon="-8.650049">
        <ele>4.601403</ele>
        <time>2025-06-29T10:04:46.000Z</time>
      </trkpt>
      <trkpt lat="42.434477" lon="-8.650054">
        <ele>4.490709</ele>
        <time>2025-06-29T10:04:47.000Z</time>
      </trkpt>
      <trkpt lat="42.434547" lon="-8.64994">
        <ele>4.412045</ele>
        <time>2025-06-29T10:04:48.000Z</time>
      </trkpt>
      <trkpt lat="42.434846" lon="-8.649538">
        <ele>4.258305</ele>
        <time>2025-06-29T10:04:53.000Z</time>
      </trkpt>
      <trkpt lat="42.434925" lon="-8.649426">
        <ele>4.216387</ele>
        <time>2025-06-29T10:04:54.000Z</time>
      </trkpt>
      <trkpt lat="42.434971" lon="-8.649349">
        <ele>4.189207</ele>
        <time>2025-06-29T10:04:55.000Z</time>
      </trkpt>
      <trkpt lat="42.435568" lon="-8.648518">
        <ele>3.873147</ele>
        <time>2025-06-29T10:05:05.000Z</time>
      </trkpt>
      <trkpt lat="42.435624" lon="-8.648407">
        <ele>3.835829</ele>
        <time>2025-06-29T10:05:06.000Z</time>
      </trkpt>
      <trkpt lat="42.435793" lon="-8.648123">
        <ele>3.789976</ele>
        <time>2025-06-29T10:05:09.000Z</time>
      </trkpt>
      <trkpt lat="42.435791" lon="-8.648036">
        <ele>3.792733</ele>
        <time>2025-06-29T10:05:10.000Z</time>
      </trkpt>
      <trkpt lat="42.43579" lon="-8.64803">
        <ele>3.79283</ele>
        <time>2025-06-29T10:05:10.000Z</time>
      </trkpt>
      <trkpt lat="42.435814" lon="-8.647941">
        <ele>3.795625</ele>
        <time>2025-06-29T10:05:11.000Z</time>
      </trkpt>
      <trkpt lat="42.435855" lon="-8.647554">
        <ele>3.807428</ele>
        <time>2025-06-29T10:05:14.000Z</time>
      </trkpt>
      <trkpt lat="42.435841" lon="-8.647189">
        <ele>3.817709</ele>
        <time>2025-06-29T10:05:17.000Z</time>
      </trkpt>
      <trkpt lat="42.435795" lon="-8.646918">
        <ele>3.825746</ele>
        <time>2025-06-29T10:05:19.000Z</time>
      </trkpt>
      <trkpt lat="42.435751" lon="-8.64688">
        <ele>3.828316</ele>
        <time>2025-06-29T10:05:20.000Z</time>
      </trkpt>
      <trkpt lat="42.435737" lon="-8.646806">
        <ele>3.830237</ele>
        <time>2025-06-29T10:05:21.000Z</time>
      </trkpt>
      <trkpt lat="42.435746" lon="-8.646746">
        <ele>3.832148</ele>
        <time>2025-06-29T10:05:22.000Z</time>
      </trkpt>
      <trkpt lat="42.435365" lon="-8.645624">
        <ele>3.870324</ele>
        <time>2025-06-29T10:05:32.000Z</time>
      </trkpt>
      <trkpt lat="42.435018" lon="-8.64466">
        <ele>3.907478</ele>
        <time>2025-06-29T10:05:41.000Z</time>
      </trkpt>
      <trkpt lat="42.43473" lon="-8.644116">
        <ele>3.93091</ele>
        <time>2025-06-29T10:05:46.000Z</time>
      </trkpt>
      <trkpt lat="42.434604" lon="-8.643746">
        <ele>4.018339</ele>
        <time>2025-06-29T10:05:49.000Z</time>
      </trkpt>
      <trkpt lat="42.434427" lon="-8.643093">
        <ele>4.498034</ele>
        <time>2025-06-29T10:05:55.000Z</time>
      </trkpt>
      <trkpt lat="42.434194" lon="-8.642049">
        <ele>5.247918</ele>
        <time>2025-06-29T10:06:04.000Z</time>
      </trkpt>
      <trkpt lat="42.434147" lon="-8.641821">
        <ele>5.414345</ele>
        <time>2025-06-29T10:06:06.000Z</time>
      </trkpt>
      <trkpt lat="42.434097" lon="-8.641691">
        <ele>5.522939</ele>
        <time>2025-06-29T10:06:07.000Z</time>
      </trkpt>
      <trkpt lat="42.434096" lon="-8.64165">
        <ele>5.544799</ele>
        <time>2025-06-29T10:06:07.000Z</time>
      </trkpt>
      <trkpt lat="42.434116" lon="-8.641632">
        <ele>5.565833</ele>
        <time>2025-06-29T10:06:07.000Z</time>
      </trkpt>
      <trkpt lat="42.434075" lon="-8.641488">
        <ele>5.615871</ele>
        <time>2025-06-29T10:06:08.000Z</time>
      </trkpt>
      <trkpt lat="42.434058" lon="-8.64132">
        <ele>5.609951</ele>
        <time>2025-06-29T10:06:09.000Z</time>
      </trkpt>
      <trkpt lat="42.433859" lon="-8.640409">
        <ele>5.573159</ele>
        <time>2025-06-29T10:06:17.000Z</time>
      </trkpt>
      <trkpt lat="42.433819" lon="-8.640209">
        <ele>5.564623</ele>
        <time>2025-06-29T10:06:19.000Z</time>
      </trkpt>
      <trkpt lat="42.4337" lon="-8.639571">
        <ele>5.539756</ele>
        <time>2025-06-29T10:06:24.000Z</time>
      </trkpt>
      <trkpt lat="42.433687" lon="-8.639458">
        <ele>5.534738</ele>
        <time>2025-06-29T10:06:25.000Z</time>
      </trkpt>
      <trkpt lat="42.433406" lon="-8.638011">
        <ele>5.524401</ele>
        <time>2025-06-29T10:06:37.000Z</time>
      </trkpt>
      <trkpt lat="42.433383" lon="-8.637888">
        <ele>5.524406</ele>
        <time>2025-06-29T10:06:38.000Z</time>
      </trkpt>
      <trkpt lat="42.433383" lon="-8.637897">
        <ele>5.524405</ele>
        <time>2025-06-29T10:06:38.000Z</time>
      </trkpt>
      <trkpt lat="42.43338" lon="-8.637556">
        <ele>5.5244</ele>
        <time>2025-06-29T10:06:41.000Z</time>
      </trkpt>
      <trkpt lat="42.433385" lon="-8.637434">
        <ele>5.524409</ele>
        <time>2025-06-29T10:06:42.000Z</time>
      </trkpt>
      <trkpt lat="42.433428" lon="-8.637313">
        <ele>5.524404</ele>
        <time>2025-06-29T10:06:43.000Z</time>
      </trkpt>
      <trkpt lat="42.43342" lon="-8.637325">
        <ele>5.52441</ele>
        <time>2025-06-29T10:06:43.000Z</time>
      </trkpt>
      <trkpt lat="42.433632" lon="-8.636852">
        <ele>5.524411</ele>
        <time>2025-06-29T10:06:48.000Z</time>
      </trkpt>
      <trkpt lat="42.433627" lon="-8.636865">
        <ele>5.524408</ele>
        <time>2025-06-29T10:06:48.000Z</time>
      </trkpt>
      <trkpt lat="42.433634" lon="-8.636858">
        <ele>5.524399</ele>
        <time>2025-06-29T10:06:48.000Z</time>
      </trkpt>
      <trkpt lat="42.433789" lon="-8.636609">
        <ele>5.524397</ele>
        <time>2025-06-29T10:06:51.000Z</time>
      </trkpt>
      <trkpt lat="42.433886" lon="-8.636514">
        <ele>5.524402</ele>
        <time>2025-06-29T10:06:52.000Z</time>
      </trkpt>
      <trkpt lat="42.433955" lon="-8.636511">
        <ele>5.524412</ele>
        <time>2025-06-29T10:06:53.000Z</time>
      </trkpt>
      <trkpt lat="42.434097" lon="-8.636501">
        <ele>0.807901</ele>
        <time>2025-06-29T10:06:55.000Z</time>
      </trkpt>
      <trkpt lat="42.434101" lon="-8.636487">
        <ele>0.807906</ele>
        <time>2025-06-29T10:06:55.000Z</time>
      </trkpt>
      <trkpt lat="42.434566" lon="-8.636605">
        <ele>0.807909</ele>
        <time>2025-06-29T10:07:00.000Z</time>
      </trkpt>
      <trkpt lat="42.435045" lon="-8.636728">
        <ele>0.791338</ele>
        <time>2025-06-29T10:07:05.000Z</time>
      </trkpt>
      <trkpt lat="42.435051" lon="-8.636724">
        <ele>0.791342</ele>
        <time>2025-06-29T10:07:05.000Z</time>
      </trkpt>
      <trkpt lat="42.435056" lon="-8.636728">
        <ele>0.791341</ele>
        <time>2025-06-29T10:07:05.000Z</time>
      </trkpt>
      <trkpt lat="42.435213" lon="-8.636847">
        <ele>0.741577</ele>
        <time>2025-06-29T10:07:07.000Z</time>
      </trkpt>
      <trkpt lat="42.435197" lon="-8.636843">
        <ele>0.741579</ele>
        <time>2025-06-29T10:07:07.000Z</time>
      </trkpt>
      <trkpt lat="42.435235" lon="-8.63706">
        <ele>0.697217</ele>
        <time>2025-06-29T10:07:09.000Z</time>
      </trkpt>
      <trkpt lat="42.435197" lon="-8.637199">
        <ele>0.666584</ele>
        <time>2025-06-29T10:07:10.000Z</time>
      </trkpt>
      <trkpt lat="42.435023" lon="-8.63794">
        <ele>0.512173</ele>
        <time>2025-06-29T10:07:16.000Z</time>
      </trkpt>
      <trkpt lat="42.434876" lon="-8.638544">
        <ele>0.380999</ele>
        <time>2025-06-29T10:07:21.000Z</time>
      </trkpt>
      <trkpt lat="42.434843" lon="-8.638913">
        <ele>0.339276</ele>
        <time>2025-06-29T10:07:24.000Z</time>
      </trkpt>
      <trkpt lat="42.434856" lon="-8.639484">
        <ele>0.644905</ele>
        <time>2025-06-29T10:07:29.000Z</time>
      </trkpt>
      <trkpt lat="42.434948" lon="-8.639976">
        <ele>0.90489</ele>
        <time>2025-06-29T10:07:33.000Z</time>
      </trkpt>
      <trkpt lat="42.435184" lon="-8.641101">
        <ele>1.519148</ele>
        <time>2025-06-29T10:07:43.000Z</time>
      </trkpt>
      <trkpt lat="42.435218" lon="-8.641213">
        <ele>1.584643</ele>
        <time>2025-06-29T10:07:44.000Z</time>
      </trkpt>
      <trkpt lat="42.435235" lon="-8.641238">
        <ele>1.610142</ele>
        <time>2025-06-29T10:07:44.000Z</time>
      </trkpt>
      <trkpt lat="42.435334" lon="-8.641321">
        <ele>1.723335</ele>
        <time>2025-06-29T10:07:45.000Z</time>
      </trkpt>
      <trkpt lat="42.435574" lon="-8.64135">
        <ele>1.967927</ele>
        <time>2025-06-29T10:07:48.000Z</time>
      </trkpt>
      <trkpt lat="42.435804" lon="-8.641239">
        <ele>2.213942</ele>
        <time>2025-06-29T10:07:51.000Z</time>
      </trkpt>
      <trkpt lat="42.435947" lon="-8.641161">
        <ele>2.37252</ele>
        <time>2025-06-29T10:07:53.000Z</time>
      </trkpt>
      <trkpt lat="42.435992" lon="-8.641133">
        <ele>2.423289</ele>
        <time>2025-06-29T10:07:54.000Z</time>
      </trkpt>
      <trkpt lat="42.436026" lon="-8.64107">
        <ele>2.483029</ele>
        <time>2025-06-29T10:07:55.000Z</time>
      </trkpt>
      <trkpt lat="42.436085" lon="-8.641031">
        <ele>2.542043</ele>
        <time>2025-06-29T10:07:56.000Z</time>
      </trkpt>
      <trkpt lat="42.436134" lon="-8.641034">
        <ele>2.60199</ele>
        <time>2025-06-29T10:07:57.000Z</time>
      </trkpt>
      <trkpt lat="42.436199" lon="-8.641083">
        <ele>2.660784</ele>
        <time>2025-06-29T10:07:58.000Z</time>
      </trkpt>
      <trkpt lat="42.436434" lon="-8.640948">
        <ele>2.921526</ele>
        <time>2025-06-29T10:08:01.000Z</time>
      </trkpt>
      <trkpt lat="42.436466" lon="-8.640927">
        <ele>2.958347</ele>
        <time>2025-06-29T10:08:01.000Z</time>
      </trkpt>
      <trkpt lat="42.437021" lon="-8.640666">
        <ele>3.440063</ele>
        <time>2025-06-29T10:08:08.000Z</time>
      </trkpt>
      <trkpt lat="42.437142" lon="-8.640606">
        <ele>3.456898</ele>
        <time>2025-06-29T10:08:09.000Z</time>
      </trkpt>
      <trkpt lat="42.437316" lon="-8.640479">
        <ele>3.480013</ele>
        <time>2025-06-29T10:08:11.000Z</time>
      </trkpt>
      <trkpt lat="42.437321" lon="-8.640413">
        <ele>3.486481</ele>
        <time>2025-06-29T10:08:12.000Z</time>
      </trkpt>
      <trkpt lat="42.43734" lon="-8.640365">
        <ele>3.490694</ele>
        <time>2025-06-29T10:08:12.000Z</time>
      </trkpt>
      <trkpt lat="42.437367" lon="-8.640329">
        <ele>3.495031</ele>
        <time>2025-06-29T10:08:12.000Z</time>
      </trkpt>
      <trkpt lat="42.437394" lon="-8.640283">
        <ele>3.500996</ele>
        <time>2025-06-29T10:08:12.000Z</time>
      </trkpt>
      <trkpt lat="42.437475" lon="-8.640082">
        <ele>3.520524</ele>
        <time>2025-06-29T10:08:14.000Z</time>
      </trkpt>
      <trkpt lat="42.437578" lon="-8.639988">
        <ele>3.536694</ele>
        <time>2025-06-29T10:08:15.000Z</time>
      </trkpt>
      <trkpt lat="42.437989" lon="-8.639622">
        <ele>3.59609</ele>
        <time>2025-06-29T10:08:20.000Z</time>
      </trkpt>
      <trkpt lat="42.438787" lon="-8.638788">
        <ele>3.59021</ele>
        <time>2025-06-29T10:08:31.000Z</time>
      </trkpt>
      <trkpt lat="42.438997" lon="-8.63849">
        <ele>3.563893</ele>
        <time>2025-06-29T10:08:34.000Z</time>
      </trkpt>
      <trkpt lat="42.439251" lon="-8.637952">
        <ele>3.522623</ele>
        <time>2025-06-29T10:08:39.000Z</time>
      </trkpt>
      <trkpt lat="42.43938" lon="-8.637623">
        <ele>3.499963</ele>
        <time>2025-06-29T10:08:42.000Z</time>
      </trkpt>
      <trkpt lat="42.439431" lon="-8.637374">
        <ele>3.476239</ele>
        <time>2025-06-29T10:08:44.000Z</time>
      </trkpt>
      <trkpt lat="42.43948" lon="-8.636766">
        <ele>3.391991</ele>
        <time>2025-06-29T10:08:49.000Z</time>
      </trkpt>
      <trkpt lat="42.439437" lon="-8.63635">
        <ele>3.334257</ele>
        <time>2025-06-29T10:08:52.000Z</time>
      </trkpt>
      <trkpt lat="42.439383" lon="-8.636344">
        <ele>3.325385</ele>
        <time>2025-06-29T10:08:53.000Z</time>
      </trkpt>
      <trkpt lat="42.439336" lon="-8.636259">
        <ele>3.308428</ele>
        <time>2025-06-29T10:08:54.000Z</time>
      </trkpt>
      <trkpt lat="42.439331" lon="-8.636198">
        <ele>3.301036</ele>
        <time>2025-06-29T10:08:55.000Z</time>
      </trkpt>
      <trkpt lat="42.439387" lon="-8.636139">
        <ele>3.286648</ele>
        <time>2025-06-29T10:08:56.000Z</time>
      </trkpt>
      <trkpt lat="42.439462" lon="-8.636149">
        <ele>3.272782</ele>
        <time>2025-06-29T10:08:57.000Z</time>
      </trkpt>
      <trkpt lat="42.439504" lon="-8.636232">
        <ele>3.258973</ele>
        <time>2025-06-29T10:08:58.000Z</time>
      </trkpt>
      <trkpt lat="42.439928" lon="-8.63611">
        <ele>3.17615</ele>
        <time>2025-06-29T10:09:03.000Z</time>
      </trkpt>
      <trkpt lat="42.440317" lon="-8.635989">
        <ele>3.562947</ele>
        <time>2025-06-29T10:09:07.000Z</time>
      </trkpt>
      <trkpt lat="42.440465" lon="-8.635949">
        <ele>3.839072</ele>
        <time>2025-06-29T10:09:09.000Z</time>
      </trkpt>
      <trkpt lat="42.440528" lon="-8.636334">
        <ele>4.35195</ele>
        <time>2025-06-29T10:09:12.000Z</time>
      </trkpt>
      <trkpt lat="42.440607" lon="-8.636757">
        <ele>4.893195</ele>
        <time>2025-06-29T10:09:16.000Z</time>
      </trkpt>
      <trkpt lat="42.440649" lon="-8.636938">
        <ele>5.143276</ele>
        <time>2025-06-29T10:09:18.000Z</time>
      </trkpt>
      <trkpt lat="42.440735" lon="-8.636939">
        <ele>5.282675</ele>
        <time>2025-06-29T10:09:19.000Z</time>
      </trkpt>
      <trkpt lat="42.440782" lon="-8.637019">
        <ele>5.420904</ele>
        <time>2025-06-29T10:09:20.000Z</time>
      </trkpt>
      <trkpt lat="42.440795" lon="-8.637174">
        <ele>5.625212</ele>
        <time>2025-06-29T10:09:21.000Z</time>
      </trkpt>
      <trkpt lat="42.44073" lon="-8.637251">
        <ele>5.763032</ele>
        <time>2025-06-29T10:09:22.000Z</time>
      </trkpt>
      <trkpt lat="42.440844" lon="-8.637411">
        <ele>6.043977</ele>
        <time>2025-06-29T10:09:24.000Z</time>
      </trkpt>
      <trkpt lat="42.441133" lon="-8.637934">
        <ele>6.364244</ele>
        <time>2025-06-29T10:09:29.000Z</time>
      </trkpt>
      <trkpt lat="42.440789" lon="-8.638248">
        <ele>6.508204</ele>
        <time>2025-06-29T10:09:34.000Z</time>
      </trkpt>
      <trkpt lat="42.440695" lon="-8.63832">
        <ele>6.542783</ele>
        <time>2025-06-29T10:09:35.000Z</time>
      </trkpt>
      <trkpt lat="42.440105" lon="-8.638757">
        <ele>6.77085</ele>
        <time>2025-06-29T10:09:42.000Z</time>
      </trkpt>
      <trkpt lat="42.439974" lon="-8.638829">
        <ele>6.825809</ele>
        <time>2025-06-29T10:09:44.000Z</time>
      </trkpt>
      <trkpt lat="42.439775" lon="-8.638941">
        <ele>6.731953</ele>
        <time>2025-06-29T10:09:46.000Z</time>
      </trkpt>
      <trkpt lat="42.43971" lon="-8.638949">
        <ele>6.658899</ele>
        <time>2025-06-29T10:09:47.000Z</time>
      </trkpt>
      <trkpt lat="42.439675" lon="-8.638915">
        <ele>6.598842</ele>
        <time>2025-06-29T10:09:47.000Z</time>
      </trkpt>
      <trkpt lat="42.439611" lon="-8.638795">
        <ele>6.483639</ele>
        <time>2025-06-29T10:09:48.000Z</time>
      </trkpt>
      <trkpt lat="42.439531" lon="-8.638495">
        <ele>6.243496</ele>
        <time>2025-06-29T10:09:51.000Z</time>
      </trkpt>
      <trkpt lat="42.439482" lon="-8.63824">
        <ele>6.031521</ele>
        <time>2025-06-29T10:09:53.000Z</time>
      </trkpt>
      <trkpt lat="42.439412" lon="-8.638092">
        <ele>5.894457</ele>
        <time>2025-06-29T10:09:54.000Z</time>
      </trkpt>
      <trkpt lat="42.439412" lon="-8.638084">
        <ele>5.89446</ele>
        <time>2025-06-29T10:09:54.000Z</time>
      </trkpt>
      <trkpt lat="42.439411" lon="-8.638093">
        <ele>5.894458</ele>
        <time>2025-06-29T10:09:54.000Z</time>
      </trkpt>
      <trkpt lat="42.439525" lon="-8.63772">
        <ele>5.576809</ele>
        <time>2025-06-29T10:09:57.000Z</time>
      </trkpt>
      <trkpt lat="42.439886" lon="-8.637532">
        <ele>5.156423</ele>
        <time>2025-06-29T10:10:01.000Z</time>
      </trkpt>
      <trkpt lat="42.440372" lon="-8.637262">
        <ele>4.65337</ele>
        <time>2025-06-29T10:10:07.000Z</time>
      </trkpt>
      <trkpt lat="42.440418" lon="-8.63725">
        <ele>4.609496</ele>
        <time>2025-06-29T10:10:08.000Z</time>
      </trkpt>
      <trkpt lat="42.440564" lon="-8.637169">
        <ele>4.474135</ele>
        <time>2025-06-29T10:10:10.000Z</time>
      </trkpt>
      <trkpt lat="42.440561" lon="-8.637071">
        <ele>4.401368</ele>
        <time>2025-06-29T10:10:11.000Z</time>
      </trkpt>
      <trkpt lat="42.440613" lon="-8.636966">
        <ele>4.32906</ele>
        <time>2025-06-29T10:10:12.000Z</time>
      </trkpt>
      <trkpt lat="42.440656" lon="-8.636934">
        <ele>4.292075</ele>
        <time>2025-06-29T10:10:13.000Z</time>
      </trkpt>
      <trkpt lat="42.44061" lon="-8.636749">
        <ele>4.165691</ele>
        <time>2025-06-29T10:10:15.000Z</time>
      </trkpt>
      <trkpt lat="42.440529" lon="-8.636345">
        <ele>3.892158</ele>
        <time>2025-06-29T10:10:18.000Z</time>
      </trkpt>
      <trkpt lat="42.440462" lon="-8.635953">
        <ele>3.632959</ele>
        <time>2025-06-29T10:10:21.000Z</time>
      </trkpt>
      <trkpt lat="42.440311" lon="-8.635995">
        <ele>3.493426</ele>
        <time>2025-06-29T10:10:23.000Z</time>
      </trkpt>
      <trkpt lat="42.43994" lon="-8.636099">
        <ele>3.38951</ele>
        <time>2025-06-29T10:10:27.000Z</time>
      </trkpt>
      <trkpt lat="42.439499" lon="-8.636223">
        <ele>3.434266</ele>
        <time>2025-06-29T10:10:32.000Z</time>
      </trkpt>
      <trkpt lat="42.439476" lon="-8.636325">
        <ele>3.442382</ele>
        <time>2025-06-29T10:10:33.000Z</time>
      </trkpt>
      <trkpt lat="42.439438" lon="-8.636359">
        <ele>3.446515</ele>
        <time>2025-06-29T10:10:34.000Z</time>
      </trkpt>
      <trkpt lat="42.439477" lon="-8.636769">
        <ele>3.4777</ele>
        <time>2025-06-29T10:10:37.000Z</time>
      </trkpt>
      <trkpt lat="42.439435" lon="-8.637373">
        <ele>3.523226</ele>
        <time>2025-06-29T10:10:42.000Z</time>
      </trkpt>
      <trkpt lat="42.439376" lon="-8.637627">
        <ele>3.543608</ele>
        <time>2025-06-29T10:10:44.000Z</time>
      </trkpt>
      <trkpt lat="42.439263" lon="-8.637942">
        <ele>3.573574</ele>
        <time>2025-06-29T10:10:47.000Z</time>
      </trkpt>
      <trkpt lat="42.438994" lon="-8.638483">
        <ele>3.629472</ele>
        <time>2025-06-29T10:10:52.000Z</time>
      </trkpt>
      <trkpt lat="42.438783" lon="-8.638792">
        <ele>3.665085</ele>
        <time>2025-06-29T10:10:55.000Z</time>
      </trkpt>
      <trkpt lat="42.437991" lon="-8.63962">
        <ele>3.940653</ele>
        <time>2025-06-29T10:11:06.000Z</time>
      </trkpt>
      <trkpt lat="42.437586" lon="-8.639989">
        <ele>4.372009</ele>
        <time>2025-06-29T10:11:11.000Z</time>
      </trkpt>
      <trkpt lat="42.437516" lon="-8.640139">
        <ele>4.486055</ele>
        <time>2025-06-29T10:11:12.000Z</time>
      </trkpt>
      <trkpt lat="42.437493" lon="-8.640302">
        <ele>4.603197</ele>
        <time>2025-06-29T10:11:13.000Z</time>
      </trkpt>
      <trkpt lat="42.437542" lon="-8.640346">
        <ele>4.636549</ele>
        <time>2025-06-29T10:11:14.000Z</time>
      </trkpt>
      <trkpt lat="42.437526" lon="-8.640343">
        <ele>4.636545</ele>
        <time>2025-06-29T10:11:14.000Z</time>
      </trkpt>
      <trkpt lat="42.437711" lon="-8.640319">
        <ele>4.797624</ele>
        <time>2025-06-29T10:11:16.000Z</time>
      </trkpt>
      <trkpt lat="42.437711" lon="-8.64031">
        <ele>4.797624</ele>
        <time>2025-06-29T10:11:16.000Z</time>
      </trkpt>
      <trkpt lat="42.438361" lon="-8.639975">
        <ele>5.480939</ele>
        <time>2025-06-29T10:11:24.000Z</time>
      </trkpt>
      <trkpt lat="42.439019" lon="-8.639655">
        <ele>6.815412</ele>
        <time>2025-06-29T10:11:32.000Z</time>
      </trkpt>
      <trkpt lat="42.439655" lon="-8.639323">
        <ele>8.149873</ele>
        <time>2025-06-29T10:11:40.000Z</time>
      </trkpt>
      <trkpt lat="42.440096" lon="-8.639056">
        <ele>8.948654</ele>
        <time>2025-06-29T10:11:45.000Z</time>
      </trkpt>
      <trkpt lat="42.440532" lon="-8.638757">
        <ele>9.43088</ele>
        <time>2025-06-29T10:11:50.000Z</time>
      </trkpt>
      <trkpt lat="42.441262" lon="-8.638162">
        <ele>10.289578</ele>
        <time>2025-06-29T10:11:59.000Z</time>
      </trkpt>
      <trkpt lat="42.441986" lon="-8.637471">
        <ele>11.185366</ele>
        <time>2025-06-29T10:12:09.000Z</time>
      </trkpt>
      <trkpt lat="42.442709" lon="-8.636779">
        <ele>12.082318</ele>
        <time>2025-06-29T10:12:19.000Z</time>
      </trkpt>
      <trkpt lat="42.443222" lon="-8.636378">
        <ele>13.443087</ele>
        <time>2025-06-29T10:12:26.000Z</time>
      </trkpt>
      <trkpt lat="42.44403" lon="-8.635994">
        <ele>17.064279</ele>
        <time>2025-06-29T10:12:36.000Z</time>
      </trkpt>
      <trkpt lat="42.444561" lon="-8.635831">
        <ele>19.313439</ele>
        <time>2025-06-29T10:12:42.000Z</time>
      </trkpt>
      <trkpt lat="42.445007" lon="-8.635764">
        <ele>21.948116</ele>
        <time>2025-06-29T10:12:47.000Z</time>
      </trkpt>
      <trkpt lat="42.445017" lon="-8.635769">
        <ele>21.948106</ele>
        <time>2025-06-29T10:12:47.000Z</time>
      </trkpt>
      <trkpt lat="42.445665" lon="-8.635838">
        <ele>26.157114</ele>
        <time>2025-06-29T10:12:54.000Z</time>
      </trkpt>
      <trkpt lat="42.4461" lon="-8.636055">
        <ele>29.225238</ele>
        <time>2025-06-29T10:12:59.000Z</time>
      </trkpt>
      <trkpt lat="42.446358" lon="-8.636237">
        <ele>31.085892</ele>
        <time>2025-06-29T10:13:02.000Z</time>
      </trkpt>
      <trkpt lat="42.446899" lon="-8.636594">
        <ele>32.008415</ele>
        <time>2025-06-29T10:13:09.000Z</time>
      </trkpt>
      <trkpt lat="42.447185" lon="-8.636757">
        <ele>32.162148</ele>
        <time>2025-06-29T10:13:12.000Z</time>
      </trkpt>
      <trkpt lat="42.447535" lon="-8.636819">
        <ele>32.338928</ele>
        <time>2025-06-29T10:13:16.000Z</time>
      </trkpt>
      <trkpt lat="42.448116" lon="-8.636735">
        <ele>32.636772</ele>
        <time>2025-06-29T10:13:22.000Z</time>
      </trkpt>
      <trkpt lat="42.449096" lon="-8.636364">
        <ele>32.0148</ele>
        <time>2025-06-29T10:13:33.000Z</time>
      </trkpt>
      <trkpt lat="42.449594" lon="-8.63629">
        <ele>31.685542</ele>
        <time>2025-06-29T10:13:39.000Z</time>
      </trkpt>
      <trkpt lat="42.449895" lon="-8.636316">
        <ele>31.492185</ele>
        <time>2025-06-29T10:13:42.000Z</time>
      </trkpt>
      <trkpt lat="42.45032" lon="-8.63646">
        <ele>30.603946</ele>
        <time>2025-06-29T10:13:47.000Z</time>
      </trkpt>
      <trkpt lat="42.450522" lon="-8.636578">
        <ele>30.150081</ele>
        <time>2025-06-29T10:13:49.000Z</time>
      </trkpt>
      <trkpt lat="42.450832" lon="-8.636878">
        <ele>29.342204</ele>
        <time>2025-06-29T10:13:53.000Z</time>
      </trkpt>
      <trkpt lat="42.451002" lon="-8.637088">
        <ele>28.862745</ele>
        <time>2025-06-29T10:13:56.000Z</time>
      </trkpt>
      <trkpt lat="42.451066" lon="-8.63731">
        <ele>28.501912</ele>
        <time>2025-06-29T10:13:58.000Z</time>
      </trkpt>
      <trkpt lat="42.451133" lon="-8.637393">
        <ele>28.308315</ele>
        <time>2025-06-29T10:13:59.000Z</time>
      </trkpt>
      <trkpt lat="42.451162" lon="-8.637419">
        <ele>28.24806</ele>
        <time>2025-06-29T10:13:59.000Z</time>
      </trkpt>
      <trkpt lat="42.451227" lon="-8.63747">
        <ele>28.09992</ele>
        <time>2025-06-29T10:14:00.000Z</time>
      </trkpt>
      <trkpt lat="42.451265" lon="-8.637624">
        <ele>27.832489</ele>
        <time>2025-06-29T10:14:01.000Z</time>
      </trkpt>
      <trkpt lat="42.451359" lon="-8.637803">
        <ele>27.786957</ele>
        <time>2025-06-29T10:14:03.000Z</time>
      </trkpt>
      <trkpt lat="42.451752" lon="-8.638205">
        <ele>28.243826</ele>
        <time>2025-06-29T10:14:08.000Z</time>
      </trkpt>
      <trkpt lat="42.452317" lon="-8.638533">
        <ele>28.824335</ele>
        <time>2025-06-29T10:14:15.000Z</time>
      </trkpt>
      <trkpt lat="42.452426" lon="-8.638579">
        <ele>28.938702</ele>
        <time>2025-06-29T10:14:16.000Z</time>
      </trkpt>
      <trkpt lat="42.453608" lon="-8.639077">
        <ele>30.080253</ele>
        <time>2025-06-29T10:14:30.000Z</time>
      </trkpt>
      <trkpt lat="42.453693" lon="-8.639108">
        <ele>30.168626</ele>
        <time>2025-06-29T10:14:31.000Z</time>
      </trkpt>
      <trkpt lat="42.454588" lon="-8.639445">
        <ele>31.029879</ele>
        <time>2025-06-29T10:14:41.000Z</time>
      </trkpt>
      <trkpt lat="42.455317" lon="-8.63961">
        <ele>30.621371</ele>
        <time>2025-06-29T10:14:49.000Z</time>
      </trkpt>
      <trkpt lat="42.457664" lon="-8.640044">
        <ele>30.287018</ele>
        <time>2025-06-29T10:15:15.000Z</time>
      </trkpt>
      <trkpt lat="42.45865" lon="-8.640229">
        <ele>30.997633</ele>
        <time>2025-06-29T10:15:26.000Z</time>
      </trkpt>
      <trkpt lat="42.460156" lon="-8.640958">
        <ele>32.855263</ele>
        <time>2025-06-29T10:15:44.000Z</time>
      </trkpt>
      <trkpt lat="42.460167" lon="-8.640975">
        <ele>32.881088</ele>
        <time>2025-06-29T10:15:44.000Z</time>
      </trkpt>
      <trkpt lat="42.461653" lon="-8.641711">
        <ele>34.806767</ele>
        <time>2025-06-29T10:16:02.000Z</time>
      </trkpt>
      <trkpt lat="42.462345" lon="-8.642028">
        <ele>36.67118</ele>
        <time>2025-06-29T10:16:10.000Z</time>
      </trkpt>
      <trkpt lat="42.462565" lon="-8.642104">
        <ele>37.233565</ele>
        <time>2025-06-29T10:16:13.000Z</time>
      </trkpt>
      <trkpt lat="42.462792" lon="-8.642154">
        <ele>37.863914</ele>
        <time>2025-06-29T10:16:16.000Z</time>
      </trkpt>
      <trkpt lat="42.46397" lon="-8.64226">
        <ele>40.461907</ele>
        <time>2025-06-29T10:16:29.000Z</time>
      </trkpt>
      <trkpt lat="42.46448" lon="-8.642342">
        <ele>41.488587</ele>
        <time>2025-06-29T10:16:35.000Z</time>
      </trkpt>
      <trkpt lat="42.465142" lon="-8.642444">
        <ele>42.829795</ele>
        <time>2025-06-29T10:16:42.000Z</time>
      </trkpt>
      <trkpt lat="42.465415" lon="-8.642515">
        <ele>43.773476</ele>
        <time>2025-06-29T10:16:45.000Z</time>
      </trkpt>
      <trkpt lat="42.465443" lon="-8.642553">
        <ele>43.901951</ele>
        <time>2025-06-29T10:16:45.000Z</time>
      </trkpt>
      <trkpt lat="42.465786" lon="-8.642544">
        <ele>45.042119</ele>
        <time>2025-06-29T10:16:49.000Z</time>
      </trkpt>
      <trkpt lat="42.466688" lon="-8.642729">
        <ele>48.148389</ele>
        <time>2025-06-29T10:16:59.000Z</time>
      </trkpt>
      <trkpt lat="42.468023" lon="-8.642954">
        <ele>53.105028</ele>
        <time>2025-06-29T10:17:14.000Z</time>
      </trkpt>
      <trkpt lat="42.468157" lon="-8.642978">
        <ele>53.61876</ele>
        <time>2025-06-29T10:17:16.000Z</time>
      </trkpt>
      <trkpt lat="42.468474" lon="-8.642986">
        <ele>54.799372</ele>
        <time>2025-06-29T10:17:20.000Z</time>
      </trkpt>
      <trkpt lat="42.468573" lon="-8.642961">
        <ele>55.182066</ele>
        <time>2025-06-29T10:17:21.000Z</time>
      </trkpt>
      <trkpt lat="42.468797" lon="-8.642861">
        <ele>55.630502</ele>
        <time>2025-06-29T10:17:24.000Z</time>
      </trkpt>
      <trkpt lat="42.469002" lon="-8.64265">
        <ele>55.758049</ele>
        <time>2025-06-29T10:17:27.000Z</time>
      </trkpt>
      <trkpt lat="42.469175" lon="-8.642366">
        <ele>55.899112</ele>
        <time>2025-06-29T10:17:30.000Z</time>
      </trkpt>
      <trkpt lat="42.469288" lon="-8.642085">
        <ele>56.019293</ele>
        <time>2025-06-29T10:17:33.000Z</time>
      </trkpt>
      <trkpt lat="42.469735" lon="-8.64107">
        <ele>56.465924</ele>
        <time>2025-06-29T10:17:43.000Z</time>
      </trkpt>
      <trkpt lat="42.469864" lon="-8.640826">
        <ele>56.372354</ele>
        <time>2025-06-29T10:17:45.000Z</time>
      </trkpt>
      <trkpt lat="42.470113" lon="-8.640402">
        <ele>56.150714</ele>
        <time>2025-06-29T10:17:49.000Z</time>
      </trkpt>
      <trkpt lat="42.470439" lon="-8.639762">
        <ele>55.825549</ele>
        <time>2025-06-29T10:17:55.000Z</time>
      </trkpt>
      <trkpt lat="42.470677" lon="-8.639258">
        <ele>55.57484</ele>
        <time>2025-06-29T10:18:00.000Z</time>
      </trkpt>
      <trkpt lat="42.470796" lon="-8.638985">
        <ele>55.333411</ele>
        <time>2025-06-29T10:18:03.000Z</time>
      </trkpt>
      <trkpt lat="42.471006" lon="-8.638629">
        <ele>54.292721</ele>
        <time>2025-06-29T10:18:07.000Z</time>
      </trkpt>
      <trkpt lat="42.471127" lon="-8.638511">
        <ele>53.814539</ele>
        <time>2025-06-29T10:18:09.000Z</time>
      </trkpt>
      <trkpt lat="42.471277" lon="-8.638392">
        <ele>53.306808</ele>
        <time>2025-06-29T10:18:11.000Z</time>
      </trkpt>
      <trkpt lat="42.47163" lon="-8.63817">
        <ele>52.107956</ele>
        <time>2025-06-29T10:18:15.000Z</time>
      </trkpt>
      <trkpt lat="42.47185" lon="-8.638134">
        <ele>51.380505</ele>
        <time>2025-06-29T10:18:17.000Z</time>
      </trkpt>
      <trkpt lat="42.471942" lon="-8.638115">
        <ele>51.111534</ele>
        <time>2025-06-29T10:18:18.000Z</time>
      </trkpt>
      <trkpt lat="42.472206" lon="-8.638166">
        <ele>50.299739</ele>
        <time>2025-06-29T10:18:21.000Z</time>
      </trkpt>
      <trkpt lat="42.472527" lon="-8.638291">
        <ele>50.456971</ele>
        <time>2025-06-29T10:18:25.000Z</time>
      </trkpt>
      <trkpt lat="42.472773" lon="-8.63844">
        <ele>51.203135</ele>
        <time>2025-06-29T10:18:28.000Z</time>
      </trkpt>
      <trkpt lat="42.472986" lon="-8.638695">
        <ele>52.002092</ele>
        <time>2025-06-29T10:18:31.000Z</time>
      </trkpt>
      <trkpt lat="42.47315" lon="-8.638943">
        <ele>52.663383</ele>
        <time>2025-06-29T10:18:34.000Z</time>
      </trkpt>
      <trkpt lat="42.473256" lon="-8.639129">
        <ele>53.12565</ele>
        <time>2025-06-29T10:18:36.000Z</time>
      </trkpt>
      <trkpt lat="42.473348" lon="-8.639429">
        <ele>53.811377</ele>
        <time>2025-06-29T10:18:39.000Z</time>
      </trkpt>
      <trkpt lat="42.473427" lon="-8.639976">
        <ele>55.018911</ele>
        <time>2025-06-29T10:18:44.000Z</time>
      </trkpt>
      <trkpt lat="42.473463" lon="-8.640305">
        <ele>56.18208</ele>
        <time>2025-06-29T10:18:47.000Z</time>
      </trkpt>
      <trkpt lat="42.473474" lon="-8.640586">
        <ele>57.192084</ele>
        <time>2025-06-29T10:18:49.000Z</time>
      </trkpt>
      <trkpt lat="42.47358" lon="-8.641915">
        <ele>61.934092</ele>
        <time>2025-06-29T10:19:00.000Z</time>
      </trkpt>
      <trkpt lat="42.473794" lon="-8.642699">
        <ele>64.209329</ele>
        <time>2025-06-29T10:19:07.000Z</time>
      </trkpt>
      <trkpt lat="42.473825" lon="-8.642816">
        <ele>64.407947</ele>
        <time>2025-06-29T10:19:08.000Z</time>
      </trkpt>
      <trkpt lat="42.473852" lon="-8.642972">
        <ele>64.707048</ele>
        <time>2025-06-29T10:19:09.000Z</time>
      </trkpt>
      <trkpt lat="42.474243" lon="-8.64416">
        <ele>66.977732</ele>
        <time>2025-06-29T10:19:20.000Z</time>
      </trkpt>
      <trkpt lat="42.474413" lon="-8.644464">
        <ele>67.626371</ele>
        <time>2025-06-29T10:19:23.000Z</time>
      </trkpt>
      <trkpt lat="42.474465" lon="-8.644573">
        <ele>67.9191</ele>
        <time>2025-06-29T10:19:24.000Z</time>
      </trkpt>
      <trkpt lat="42.474777" lon="-8.644925">
        <ele>70.023615</ele>
        <time>2025-06-29T10:19:29.000Z</time>
      </trkpt>
      <trkpt lat="42.47503" lon="-8.645095">
        <ele>71.475972</ele>
        <time>2025-06-29T10:19:32.000Z</time>
      </trkpt>
      <trkpt lat="42.475277" lon="-8.645224">
        <ele>72.875489</ele>
        <time>2025-06-29T10:19:35.000Z</time>
      </trkpt>
      <trkpt lat="42.475699" lon="-8.64528">
        <ele>75.002117</ele>
        <time>2025-06-29T10:19:40.000Z</time>
      </trkpt>
      <trkpt lat="42.475771" lon="-8.645244">
        <ele>75.352867</ele>
        <time>2025-06-29T10:19:41.000Z</time>
      </trkpt>
      <trkpt lat="42.476093" lon="-8.645133">
        <ele>77.146424</ele>
        <time>2025-06-29T10:19:45.000Z</time>
      </trkpt>
      <trkpt lat="42.476489" lon="-8.644792">
        <ele>81.416757</ele>
        <time>2025-06-29T10:19:50.000Z</time>
      </trkpt>
      <trkpt lat="42.476623" lon="-8.644686">
        <ele>82.852823</ele>
        <time>2025-06-29T10:19:52.000Z</time>
      </trkpt>
      <trkpt lat="42.477486" lon="-8.643802">
        <ele>92.822756</ele>
        <time>2025-06-29T10:20:04.000Z</time>
      </trkpt>
      <trkpt lat="42.477551" lon="-8.643717">
        <ele>93.65819</ele>
        <time>2025-06-29T10:20:05.000Z</time>
      </trkpt>
      <trkpt lat="42.477898" lon="-8.643311">
        <ele>97.342329</ele>
        <time>2025-06-29T10:20:10.000Z</time>
      </trkpt>
      <trkpt lat="42.478247" lon="-8.642943">
        <ele>100.963453</ele>
        <time>2025-06-29T10:20:15.000Z</time>
      </trkpt>
      <trkpt lat="42.478607" lon="-8.642592">
        <ele>104.587472</ele>
        <time>2025-06-29T10:20:20.000Z</time>
      </trkpt>
      <trkpt lat="42.478881" lon="-8.642407">
        <ele>106.929402</ele>
        <time>2025-06-29T10:20:23.000Z</time>
      </trkpt>
      <trkpt lat="42.479184" lon="-8.642316">
        <ele>108.964121</ele>
        <time>2025-06-29T10:20:26.000Z</time>
      </trkpt>
      <trkpt lat="42.479699" lon="-8.642292">
        <ele>111.554458</ele>
        <time>2025-06-29T10:20:32.000Z</time>
      </trkpt>
      <trkpt lat="42.480253" lon="-8.642183">
        <ele>114.303769</ele>
        <time>2025-06-29T10:20:38.000Z</time>
      </trkpt>
      <trkpt lat="42.480639" lon="-8.642004">
        <ele>116.334975</ele>
        <time>2025-06-29T10:20:43.000Z</time>
      </trkpt>
      <trkpt lat="42.481195" lon="-8.641701">
        <ele>119.106436</ele>
        <time>2025-06-29T10:20:50.000Z</time>
      </trkpt>
      <trkpt lat="42.481623" lon="-8.641647">
        <ele>120.991624</ele>
        <time>2025-06-29T10:20:55.000Z</time>
      </trkpt>
      <trkpt lat="42.481871" lon="-8.641596">
        <ele>122.14889</ele>
        <time>2025-06-29T10:20:58.000Z</time>
      </trkpt>
      <trkpt lat="42.482242" lon="-8.641669">
        <ele>123.769911</ele>
        <time>2025-06-29T10:21:02.000Z</time>
      </trkpt>
      <trkpt lat="42.482491" lon="-8.641773">
        <ele>124.960022</ele>
        <time>2025-06-29T10:21:05.000Z</time>
      </trkpt>
      <trkpt lat="42.482682" lon="-8.641886">
        <ele>126.151608</ele>
        <time>2025-06-29T10:21:07.000Z</time>
      </trkpt>
      <trkpt lat="42.482992" lon="-8.642106">
        <ele>128.012918</ele>
        <time>2025-06-29T10:21:11.000Z</time>
      </trkpt>
      <trkpt lat="42.48321" lon="-8.642361">
        <ele>129.674356</ele>
        <time>2025-06-29T10:21:14.000Z</time>
      </trkpt>
      <trkpt lat="42.483271" lon="-8.642495">
        <ele>130.301937</ele>
        <time>2025-06-29T10:21:15.000Z</time>
      </trkpt>
      <trkpt lat="42.483275" lon="-8.642495">
        <ele>130.35051</ele>
        <time>2025-06-29T10:21:15.000Z</time>
      </trkpt>
      <trkpt lat="42.483716" lon="-8.642963">
        <ele>133.452749</ele>
        <time>2025-06-29T10:21:21.000Z</time>
      </trkpt>
      <trkpt lat="42.484111" lon="-8.643266">
        <ele>136.231787</ele>
        <time>2025-06-29T10:21:26.000Z</time>
      </trkpt>
      <trkpt lat="42.484389" lon="-8.643322">
        <ele>138.336563</ele>
        <time>2025-06-29T10:21:29.000Z</time>
      </trkpt>
      <trkpt lat="42.484664" lon="-8.643394">
        <ele>140.441332</ele>
        <time>2025-06-29T10:21:32.000Z</time>
      </trkpt>
      <trkpt lat="42.485314" lon="-8.64338">
        <ele>145.188805</ele>
        <time>2025-06-29T10:21:39.000Z</time>
      </trkpt>
      <trkpt lat="42.485948" lon="-8.64335">
        <ele>149.465596</ele>
        <time>2025-06-29T10:21:46.000Z</time>
      </trkpt>
      <trkpt lat="42.486485" lon="-8.643198">
        <ele>152.282569</ele>
        <time>2025-06-29T10:21:52.000Z</time>
      </trkpt>
      <trkpt lat="42.486867" lon="-8.642959">
        <ele>154.411103</ele>
        <time>2025-06-29T10:21:57.000Z</time>
      </trkpt>
      <trkpt lat="42.487226" lon="-8.642686">
        <ele>156.513009</ele>
        <time>2025-06-29T10:22:02.000Z</time>
      </trkpt>
      <trkpt lat="42.488141" lon="-8.641835">
        <ele>158.808766</ele>
        <time>2025-06-29T10:22:14.000Z</time>
      </trkpt>
      <trkpt lat="42.488856" lon="-8.641109">
        <ele>160.021758</ele>
        <time>2025-06-29T10:22:24.000Z</time>
      </trkpt>
      <trkpt lat="42.489285" lon="-8.640768">
        <ele>160.340087</ele>
        <time>2025-06-29T10:22:30.000Z</time>
      </trkpt>
      <trkpt lat="42.489524" lon="-8.640659">
        <ele>160.487699</ele>
        <time>2025-06-29T10:22:33.000Z</time>
      </trkpt>
      <trkpt lat="42.489786" lon="-8.640555">
        <ele>160.651727</ele>
        <time>2025-06-29T10:22:36.000Z</time>
      </trkpt>
      <trkpt lat="42.489968" lon="-8.640513">
        <ele>160.76356</ele>
        <time>2025-06-29T10:22:38.000Z</time>
      </trkpt>
      <trkpt lat="42.490467" lon="-8.640473">
        <ele>161.060033</ele>
        <time>2025-06-29T10:22:44.000Z</time>
      </trkpt>
      <trkpt lat="42.492043" lon="-8.640607">
        <ele>163.223367</ele>
        <time>2025-06-29T10:23:02.000Z</time>
      </trkpt>
      <trkpt lat="42.494576" lon="-8.6408">
        <ele>166.279935</ele>
        <time>2025-06-29T10:23:30.000Z</time>
      </trkpt>
      <trkpt lat="42.49489" lon="-8.640705">
        <ele>166.745473</ele>
        <time>2025-06-29T10:23:34.000Z</time>
      </trkpt>
      <trkpt lat="42.495204" lon="-8.640474">
        <ele>167.232161</ele>
        <time>2025-06-29T10:23:38.000Z</time>
      </trkpt>
      <trkpt lat="42.49569" lon="-8.639856">
        <ele>168.162212</ele>
        <time>2025-06-29T10:23:45.000Z</time>
      </trkpt>
      <trkpt lat="42.495828" lon="-8.639678">
        <ele>168.107358</ele>
        <time>2025-06-29T10:23:47.000Z</time>
      </trkpt>
      <trkpt lat="42.496167" lon="-8.639398">
        <ele>167.832926</ele>
        <time>2025-06-29T10:23:51.000Z</time>
      </trkpt>
      <trkpt lat="42.496405" lon="-8.639243">
        <ele>167.653766</ele>
        <time>2025-06-29T10:23:54.000Z</time>
      </trkpt>
      <trkpt lat="42.496731" lon="-8.639225">
        <ele>167.42543</ele>
        <time>2025-06-29T10:23:58.000Z</time>
      </trkpt>
      <trkpt lat="42.497124" lon="-8.639293">
        <ele>167.155181</ele>
        <time>2025-06-29T10:24:02.000Z</time>
      </trkpt>
      <trkpt lat="42.49744" lon="-8.639501">
        <ele>166.973234</ele>
        <time>2025-06-29T10:24:06.000Z</time>
      </trkpt>
      <trkpt lat="42.497571" lon="-8.639595">
        <ele>166.968803</ele>
        <time>2025-06-29T10:24:08.000Z</time>
      </trkpt>
      <trkpt lat="42.49766" lon="-8.639709">
        <ele>166.965303</ele>
        <time>2025-06-29T10:24:09.000Z</time>
      </trkpt>
      <trkpt lat="42.498525" lon="-8.640914">
        <ele>166.929211</ele>
        <time>2025-06-29T10:24:23.000Z</time>
      </trkpt>
      <trkpt lat="42.498711" lon="-8.641103">
        <ele>166.845649</ele>
        <time>2025-06-29T10:24:26.000Z</time>
      </trkpt>
      <trkpt lat="42.498892" lon="-8.641273">
        <ele>166.398866</ele>
        <time>2025-06-29T10:24:28.000Z</time>
      </trkpt>
      <trkpt lat="42.499084" lon="-8.641412">
        <ele>165.950637</ele>
        <time>2025-06-29T10:24:30.000Z</time>
      </trkpt>
      <trkpt lat="42.499282" lon="-8.641563">
        <ele>165.504182</ele>
        <time>2025-06-29T10:24:33.000Z</time>
      </trkpt>
      <trkpt lat="42.499725" lon="-8.641754">
        <ele>164.548218</ele>
        <time>2025-06-29T10:24:38.000Z</time>
      </trkpt>
      <trkpt lat="42.50013" lon="-8.641844">
        <ele>163.707775</ele>
        <time>2025-06-29T10:24:43.000Z</time>
      </trkpt>
      <trkpt lat="42.502636" lon="-8.6418">
        <ele>158.942875</ele>
        <time>2025-06-29T10:25:11.000Z</time>
      </trkpt>
      <trkpt lat="42.502896" lon="-8.641853">
        <ele>158.547917</ele>
        <time>2025-06-29T10:25:14.000Z</time>
      </trkpt>
      <trkpt lat="42.503158" lon="-8.641968">
        <ele>158.125623</ele>
        <time>2025-06-29T10:25:17.000Z</time>
      </trkpt>
      <trkpt lat="42.50342" lon="-8.642154">
        <ele>157.69013</ele>
        <time>2025-06-29T10:25:20.000Z</time>
      </trkpt>
      <trkpt lat="42.503618" lon="-8.642331">
        <ele>157.340972</ele>
        <time>2025-06-29T10:25:23.000Z</time>
      </trkpt>
      <trkpt lat="42.504123" lon="-8.642786">
        <ele>157.286516</ele>
        <time>2025-06-29T10:25:30.000Z</time>
      </trkpt>
      <trkpt lat="42.504546" lon="-8.643022">
        <ele>157.650475</ele>
        <time>2025-06-29T10:25:35.000Z</time>
      </trkpt>
      <trkpt lat="42.505292" lon="-8.643296">
        <ele>158.26456</ele>
        <time>2025-06-29T10:25:44.000Z</time>
      </trkpt>
      <trkpt lat="42.505847" lon="-8.643507">
        <ele>159.568505</ele>
        <time>2025-06-29T10:25:50.000Z</time>
      </trkpt>
      <trkpt lat="42.507174" lon="-8.644011">
        <ele>163.679444</ele>
        <time>2025-06-29T10:26:05.000Z</time>
      </trkpt>
      <trkpt lat="42.507204" lon="-8.643821">
        <ele>164.164917</ele>
        <time>2025-06-29T10:26:07.000Z</time>
      </trkpt>
      <trkpt lat="42.507196" lon="-8.643582">
        <ele>164.720523</ele>
        <time>2025-06-29T10:26:09.000Z</time>
      </trkpt>
      <trkpt lat="42.507093" lon="-8.643357">
        <ele>165.356423</ele>
        <time>2025-06-29T10:26:11.000Z</time>
      </trkpt>
      <trkpt lat="42.507009" lon="-8.64328">
        <ele>165.725805</ele>
        <time>2025-06-29T10:26:12.000Z</time>
      </trkpt>
      <trkpt lat="42.50651" lon="-8.643059">
        <ele>167.438381</ele>
        <time>2025-06-29T10:26:18.000Z</time>
      </trkpt>
      <trkpt lat="42.506314" lon="-8.642984">
        <ele>168.109643</ele>
        <time>2025-06-29T10:26:20.000Z</time>
      </trkpt>
      <trkpt lat="42.505855" lon="-8.642898">
        <ele>169.680632</ele>
        <time>2025-06-29T10:26:25.000Z</time>
      </trkpt>
      <trkpt lat="42.505352" lon="-8.642731">
        <ele>171.888098</ele>
        <time>2025-06-29T10:26:31.000Z</time>
      </trkpt>
      <trkpt lat="42.504958" lon="-8.642548">
        <ele>173.73122</ele>
        <time>2025-06-29T10:26:36.000Z</time>
      </trkpt>
      <trkpt lat="42.504746" lon="-8.642386">
        <ele>174.818457</ele>
        <time>2025-06-29T10:26:39.000Z</time>
      </trkpt>
      <trkpt lat="42.504533" lon="-8.642168">
        <ele>175.969676</ele>
        <time>2025-06-29T10:26:42.000Z</time>
      </trkpt>
      <trkpt lat="42.504334" lon="-8.641769">
        <ele>177.516523</ele>
        <time>2025-06-29T10:26:46.000Z</time>
      </trkpt>
      <trkpt lat="42.503996" lon="-8.640767">
        <ele>183.555671</ele>
        <time>2025-06-29T10:26:55.000Z</time>
      </trkpt>
      <trkpt lat="42.503819" lon="-8.640345">
        <ele>186.256308</ele>
        <time>2025-06-29T10:26:59.000Z</time>
      </trkpt>
      <trkpt lat="42.503576" lon="-8.639802">
        <ele>189.77093</ele>
        <time>2025-06-29T10:27:04.000Z</time>
      </trkpt>
      <trkpt lat="42.502899" lon="-8.638632">
        <ele>198.403225</ele>
        <time>2025-06-29T10:27:16.000Z</time>
      </trkpt>
      <trkpt lat="42.502736" lon="-8.638189">
        <ele>201.289739</ele>
        <time>2025-06-29T10:27:20.000Z</time>
      </trkpt>
      <trkpt lat="42.502586" lon="-8.637635">
        <ele>204.707935</ele>
        <time>2025-06-29T10:27:25.000Z</time>
      </trkpt>
      <trkpt lat="42.502486" lon="-8.63746">
        <ele>205.691022</ele>
        <time>2025-06-29T10:27:27.000Z</time>
      </trkpt>
      <trkpt lat="42.501903" lon="-8.636866">
        <ele>208.490517</ele>
        <time>2025-06-29T10:27:35.000Z</time>
      </trkpt>
      <trkpt lat="42.501339" lon="-8.636563">
        <ele>210.736778</ele>
        <time>2025-06-29T10:27:42.000Z</time>
      </trkpt>
      <trkpt lat="42.501278" lon="-8.636499">
        <ele>211.033529</ele>
        <time>2025-06-29T10:27:43.000Z</time>
      </trkpt>
      <trkpt lat="42.501213" lon="-8.636355">
        <ele>211.497121</ele>
        <time>2025-06-29T10:27:44.000Z</time>
      </trkpt>
      <trkpt lat="42.501141" lon="-8.636107">
        <ele>212.219962</ele>
        <time>2025-06-29T10:27:46.000Z</time>
      </trkpt>
      <trkpt lat="42.500841" lon="-8.634234">
        <ele>212.322287</ele>
        <time>2025-06-29T10:28:02.000Z</time>
      </trkpt>
      <trkpt lat="42.5008" lon="-8.634048">
        <ele>212.331996</ele>
        <time>2025-06-29T10:28:04.000Z</time>
      </trkpt>
      <trkpt lat="42.500718" lon="-8.633932">
        <ele>212.340293</ele>
        <time>2025-06-29T10:28:05.000Z</time>
      </trkpt>
      <trkpt lat="42.500543" lon="-8.633766">
        <ele>212.55089</ele>
        <time>2025-06-29T10:28:07.000Z</time>
      </trkpt>
      <trkpt lat="42.500036" lon="-8.63336">
        <ele>213.786433</ele>
        <time>2025-06-29T10:28:14.000Z</time>
      </trkpt>
      <trkpt lat="42.499779" lon="-8.633058">
        <ele>214.469461</ele>
        <time>2025-06-29T10:28:18.000Z</time>
      </trkpt>
      <trkpt lat="42.499502" lon="-8.632807">
        <ele>215.142927</ele>
        <time>2025-06-29T10:28:22.000Z</time>
      </trkpt>
      <trkpt lat="42.499127" lon="-8.632666">
        <ele>215.967222</ele>
        <time>2025-06-29T10:28:26.000Z</time>
      </trkpt>
      <trkpt lat="42.498869" lon="-8.632502">
        <ele>216.640954</ele>
        <time>2025-06-29T10:28:29.000Z</time>
      </trkpt>
      <trkpt lat="42.498509" lon="-8.632114">
        <ele>217.819981</ele>
        <time>2025-06-29T10:28:34.000Z</time>
      </trkpt>
      <trkpt lat="42.498034" lon="-8.631825">
        <ele>219.099995</ele>
        <time>2025-06-29T10:28:40.000Z</time>
      </trkpt>
      <trkpt lat="42.49788" lon="-8.63165">
        <ele>219.604976</ele>
        <time>2025-06-29T10:28:42.000Z</time>
      </trkpt>
      <trkpt lat="42.497724" lon="-8.631257">
        <ele>220.449726</ele>
        <time>2025-06-29T10:28:46.000Z</time>
      </trkpt>
      <trkpt lat="42.497876" lon="-8.631656">
        <ele>219.775648</ele>
        <time>2025-06-29T10:28:50.000Z</time>
      </trkpt>
      <trkpt lat="42.49804" lon="-8.63183">
        <ele>219.236112</ele>
        <time>2025-06-29T10:28:52.000Z</time>
      </trkpt>
      <trkpt lat="42.498494" lon="-8.632108">
        <ele>217.868578</ele>
        <time>2025-06-29T10:28:58.000Z</time>
      </trkpt>
      <trkpt lat="42.498873" lon="-8.632503">
        <ele>216.608934</ele>
        <time>2025-06-29T10:29:03.000Z</time>
      </trkpt>
      <trkpt lat="42.499124" lon="-8.632652">
        <ele>215.868656</ele>
        <time>2025-06-29T10:29:06.000Z</time>
      </trkpt>
      <trkpt lat="42.499502" lon="-8.632819">
        <ele>215.070971</ele>
        <time>2025-06-29T10:29:10.000Z</time>
      </trkpt>
      <trkpt lat="42.499794" lon="-8.633042">
        <ele>214.447403</ele>
        <time>2025-06-29T10:29:14.000Z</time>
      </trkpt>
      <trkpt lat="42.500034" lon="-8.633355">
        <ele>213.814989</ele>
        <time>2025-06-29T10:29:18.000Z</time>
      </trkpt>
      <trkpt lat="42.500543" lon="-8.633753">
        <ele>212.670982</ele>
        <time>2025-06-29T10:29:25.000Z</time>
      </trkpt>
      <trkpt lat="42.500734" lon="-8.633935">
        <ele>212.312639</ele>
        <time>2025-06-29T10:29:28.000Z</time>
      </trkpt>
      <trkpt lat="42.500792" lon="-8.634063">
        <ele>212.301823</ele>
        <time>2025-06-29T10:29:29.000Z</time>
      </trkpt>
      <trkpt lat="42.500849" lon="-8.634227">
        <ele>212.289169</ele>
        <time>2025-06-29T10:29:30.000Z</time>
      </trkpt>
      <trkpt lat="42.501138" lon="-8.636105">
        <ele>212.155749</ele>
        <time>2025-06-29T10:29:46.000Z</time>
      </trkpt>
      <trkpt lat="42.501201" lon="-8.636359">
        <ele>211.725888</ele>
        <time>2025-06-29T10:29:48.000Z</time>
      </trkpt>
      <trkpt lat="42.501283" lon="-8.636502">
        <ele>211.224869</ele>
        <time>2025-06-29T10:29:49.000Z</time>
      </trkpt>
      <trkpt lat="42.501337" lon="-8.636549">
        <ele>210.904145</ele>
        <time>2025-06-29T10:29:50.000Z</time>
      </trkpt>
      <trkpt lat="42.501901" lon="-8.63686">
        <ele>208.476544</ele>
        <time>2025-06-29T10:29:57.000Z</time>
      </trkpt>
      <trkpt lat="42.502491" lon="-8.637469">
        <ele>205.451051</ele>
        <time>2025-06-29T10:30:05.000Z</time>
      </trkpt>
      <trkpt lat="42.502591" lon="-8.637642">
        <ele>204.783543</ele>
        <time>2025-06-29T10:30:07.000Z</time>
      </trkpt>
      <trkpt lat="42.502729" lon="-8.638194">
        <ele>201.343761</ele>
        <time>2025-06-29T10:30:12.000Z</time>
      </trkpt>
      <trkpt lat="42.502901" lon="-8.638636">
        <ele>198.439045</ele>
        <time>2025-06-29T10:30:16.000Z</time>
      </trkpt>
      <trkpt lat="42.503571" lon="-8.639818">
        <ele>189.736278</ele>
        <time>2025-06-29T10:30:28.000Z</time>
      </trkpt>
      <trkpt lat="42.503829" lon="-8.640347">
        <ele>186.259895</ele>
        <time>2025-06-29T10:30:33.000Z</time>
      </trkpt>
      <trkpt lat="42.504009" lon="-8.640756">
        <ele>183.588643</ele>
        <time>2025-06-29T10:30:37.000Z</time>
      </trkpt>
      <trkpt lat="42.504331" lon="-8.641761">
        <ele>177.527832</ele>
        <time>2025-06-29T10:30:46.000Z</time>
      </trkpt>
      <trkpt lat="42.504543" lon="-8.642153">
        <ele>175.846178</ele>
        <time>2025-06-29T10:30:50.000Z</time>
      </trkpt>
      <trkpt lat="42.50473" lon="-8.642383">
        <ele>174.741502</ele>
        <time>2025-06-29T10:30:53.000Z</time>
      </trkpt>
      <trkpt lat="42.504966" lon="-8.642544">
        <ele>173.698205</ele>
        <time>2025-06-29T10:30:56.000Z</time>
      </trkpt>
      <trkpt lat="42.505345" lon="-8.642739">
        <ele>171.929581</ele>
        <time>2025-06-29T10:31:01.000Z</time>
      </trkpt>
      <trkpt lat="42.505839" lon="-8.642907">
        <ele>169.789813</ele>
        <time>2025-06-29T10:31:07.000Z</time>
      </trkpt>
      <trkpt lat="42.50631" lon="-8.64299">
        <ele>168.447766</ele>
        <time>2025-06-29T10:31:12.000Z</time>
      </trkpt>
      <trkpt lat="42.506512" lon="-8.643064">
        <ele>167.920313</ele>
        <time>2025-06-29T10:31:14.000Z</time>
      </trkpt>
      <trkpt lat="42.507005" lon="-8.643287">
        <ele>166.574609</ele>
        <time>2025-06-29T10:31:20.000Z</time>
      </trkpt>
      <trkpt lat="42.507098" lon="-8.64337">
        <ele>166.284357</ele>
        <time>2025-06-29T10:31:21.000Z</time>
      </trkpt>
      <trkpt lat="42.507182" lon="-8.643591">
        <ele>165.784698</ele>
        <time>2025-06-29T10:31:23.000Z</time>
      </trkpt>
      <trkpt lat="42.507202" lon="-8.643824">
        <ele>165.34812</ele>
        <time>2025-06-29T10:31:25.000Z</time>
      </trkpt>
      <trkpt lat="42.507181" lon="-8.644016">
        <ele>164.957344</ele>
        <time>2025-06-29T10:31:27.000Z</time>
      </trkpt>
      <trkpt lat="42.507631" lon="-8.644141">
        <ele>163.902759</ele>
        <time>2025-06-29T10:31:32.000Z</time>
      </trkpt>
      <trkpt lat="42.508076" lon="-8.64417">
        <ele>162.883735</ele>
        <time>2025-06-29T10:31:37.000Z</time>
      </trkpt>
      <trkpt lat="42.508485" lon="-8.644138">
        <ele>161.930398</ele>
        <time>2025-06-29T10:31:42.000Z</time>
      </trkpt>
      <trkpt lat="42.509135" lon="-8.644004">
        <ele>160.224652</ele>
        <time>2025-06-29T10:31:49.000Z</time>
      </trkpt>
      <trkpt lat="42.509415" lon="-8.643888">
        <ele>159.020939</ele>
        <time>2025-06-29T10:31:52.000Z</time>
      </trkpt>
      <trkpt lat="42.509664" lon="-8.643701">
        <ele>157.841941</ele>
        <time>2025-06-29T10:31:55.000Z</time>
      </trkpt>
      <trkpt lat="42.510516" lon="-8.642761">
        <ele>153.360636</ele>
        <time>2025-06-29T10:32:07.000Z</time>
      </trkpt>
      <trkpt lat="42.510932" lon="-8.642524">
        <ele>149.881993</ele>
        <time>2025-06-29T10:32:12.000Z</time>
      </trkpt>
      <trkpt lat="42.511135" lon="-8.642488">
        <ele>148.21013</ele>
        <time>2025-06-29T10:32:14.000Z</time>
      </trkpt>
      <trkpt lat="42.511291" lon="-8.642464">
        <ele>147.087853</ele>
        <time>2025-06-29T10:32:16.000Z</time>
      </trkpt>
      <trkpt lat="42.511837" lon="-8.642554">
        <ele>142.715514</ele>
        <time>2025-06-29T10:32:22.000Z</time>
      </trkpt>
      <trkpt lat="42.512639" lon="-8.642756">
        <ele>136.920806</ele>
        <time>2025-06-29T10:32:31.000Z</time>
      </trkpt>
      <trkpt lat="42.513374" lon="-8.642875">
        <ele>132.308971</ele>
        <time>2025-06-29T10:32:39.000Z</time>
      </trkpt>
      <trkpt lat="42.514203" lon="-8.642807">
        <ele>127.55594</ele>
        <time>2025-06-29T10:32:48.000Z</time>
      </trkpt>
      <trkpt lat="42.51465" lon="-8.642654">
        <ele>126.182572</ele>
        <time>2025-06-29T10:32:53.000Z</time>
      </trkpt>
      <trkpt lat="42.515081" lon="-8.642488">
        <ele>124.817699</ele>
        <time>2025-06-29T10:32:58.000Z</time>
      </trkpt>
      <trkpt lat="42.515535" lon="-8.642225">
        <ele>123.314119</ele>
        <time>2025-06-29T10:33:03.000Z</time>
      </trkpt>
      <trkpt lat="42.515819" lon="-8.642018">
        <ele>122.206182</ele>
        <time>2025-06-29T10:33:07.000Z</time>
      </trkpt>
      <trkpt lat="42.516155" lon="-8.641673">
        <ele>120.136424</ele>
        <time>2025-06-29T10:33:12.000Z</time>
      </trkpt>
      <trkpt lat="42.517878" lon="-8.639629">
        <ele>110.205327</ele>
        <time>2025-06-29T10:33:37.000Z</time>
      </trkpt>
      <trkpt lat="42.518239" lon="-8.639209">
        <ele>108.507499</ele>
        <time>2025-06-29T10:33:42.000Z</time>
      </trkpt>
      <trkpt lat="42.518605" lon="-8.638813">
        <ele>107.637443</ele>
        <time>2025-06-29T10:33:47.000Z</time>
      </trkpt>
      <trkpt lat="42.518231" lon="-8.639204">
        <ele>108.973313</ele>
        <time>2025-06-29T10:33:52.000Z</time>
      </trkpt>
      <trkpt lat="42.517882" lon="-8.639627">
        <ele>110.302981</ele>
        <time>2025-06-29T10:33:57.000Z</time>
      </trkpt>
      <trkpt lat="42.51615" lon="-8.64167">
        <ele>120.323692</ele>
        <time>2025-06-29T10:34:23.000Z</time>
      </trkpt>
      <trkpt lat="42.515815" lon="-8.642013">
        <ele>122.092006</ele>
        <time>2025-06-29T10:34:28.000Z</time>
      </trkpt>
      <trkpt lat="42.515523" lon="-8.642218">
        <ele>123.096355</ele>
        <time>2025-06-29T10:34:32.000Z</time>
      </trkpt>
      <trkpt lat="42.515074" lon="-8.642486">
        <ele>124.641978</ele>
        <time>2025-06-29T10:34:37.000Z</time>
      </trkpt>
      <trkpt lat="42.514637" lon="-8.642667">
        <ele>126.045017</ele>
        <time>2025-06-29T10:34:42.000Z</time>
      </trkpt>
      <trkpt lat="42.514208" lon="-8.642801">
        <ele>127.73458</ele>
        <time>2025-06-29T10:34:47.000Z</time>
      </trkpt>
      <trkpt lat="42.513376" lon="-8.642871">
        <ele>132.414383</ele>
        <time>2025-06-29T10:34:56.000Z</time>
      </trkpt>
      <trkpt lat="42.512648" lon="-8.642753">
        <ele>136.527638</ele>
        <time>2025-06-29T10:35:04.000Z</time>
      </trkpt>
      <trkpt lat="42.511839" lon="-8.642542">
        <ele>142.80167</ele>
        <time>2025-06-29T10:35:13.000Z</time>
      </trkpt>
      <trkpt lat="42.511294" lon="-8.642469">
        <ele>147.320266</ele>
        <time>2025-06-29T10:35:19.000Z</time>
      </trkpt>
      <trkpt lat="42.511138" lon="-8.642495">
        <ele>148.480067</ele>
        <time>2025-06-29T10:35:21.000Z</time>
      </trkpt>
      <trkpt lat="42.510937" lon="-8.642526">
        <ele>150.207854</ele>
        <time>2025-06-29T10:35:23.000Z</time>
      </trkpt>
      <trkpt lat="42.510526" lon="-8.642775">
        <ele>152.902798</ele>
        <time>2025-06-29T10:35:28.000Z</time>
      </trkpt>
      <trkpt lat="42.509659" lon="-8.643706">
        <ele>157.935561</ele>
        <time>2025-06-29T10:35:40.000Z</time>
      </trkpt>
      <trkpt lat="42.509419" lon="-8.64388">
        <ele>159.259649</ele>
        <time>2025-06-29T10:35:43.000Z</time>
      </trkpt>
      <trkpt lat="42.509136" lon="-8.644014">
        <ele>160.157271</ele>
        <time>2025-06-29T10:35:46.000Z</time>
      </trkpt>
      <trkpt lat="42.508481" lon="-8.644141">
        <ele>161.042288</ele>
        <time>2025-06-29T10:35:53.000Z</time>
      </trkpt>
      <trkpt lat="42.508067" lon="-8.644178">
        <ele>161.610905</ele>
        <time>2025-06-29T10:35:58.000Z</time>
      </trkpt>
      <trkpt lat="42.507617" lon="-8.644141">
        <ele>162.21869</ele>
        <time>2025-06-29T10:36:03.000Z</time>
      </trkpt>
      <trkpt lat="42.507452" lon="-8.644096">
        <ele>162.340142</ele>
        <time>2025-06-29T10:36:05.000Z</time>
      </trkpt>
      <trkpt lat="42.507172" lon="-8.644015">
        <ele>161.800697</ele>
        <time>2025-06-29T10:36:08.000Z</time>
      </trkpt>
      <trkpt lat="42.505852" lon="-8.643508">
        <ele>159.139181</ele>
        <time>2025-06-29T10:36:23.000Z</time>
      </trkpt>
      <trkpt lat="42.505292" lon="-8.643301">
        <ele>158.379939</ele>
        <time>2025-06-29T10:36:29.000Z</time>
      </trkpt>
      <trkpt lat="42.504546" lon="-8.643014">
        <ele>157.494516</ele>
        <time>2025-06-29T10:36:38.000Z</time>
      </trkpt>
      <trkpt lat="42.504137" lon="-8.642775">
        <ele>156.969737</ele>
        <time>2025-06-29T10:36:43.000Z</time>
      </trkpt>
      <trkpt lat="42.503616" lon="-8.642336">
        <ele>157.523812</ele>
        <time>2025-06-29T10:36:50.000Z</time>
      </trkpt>
      <trkpt lat="42.503411" lon="-8.642164">
        <ele>157.821434</ele>
        <time>2025-06-29T10:36:53.000Z</time>
      </trkpt>
      <trkpt lat="42.503159" lon="-8.641969">
        <ele>158.192663</ele>
        <time>2025-06-29T10:36:56.000Z</time>
      </trkpt>
      <trkpt lat="42.5029" lon="-8.641847">
        <ele>158.552625</ele>
        <time>2025-06-29T10:36:59.000Z</time>
      </trkpt>
      <trkpt lat="42.502637" lon="-8.641802">
        <ele>158.889297</ele>
        <time>2025-06-29T10:37:02.000Z</time>
      </trkpt>
      <trkpt lat="42.500126" lon="-8.641855">
        <ele>163.741949</ele>
        <time>2025-06-29T10:37:30.000Z</time>
      </trkpt>
      <trkpt lat="42.499731" lon="-8.641761">
        <ele>164.647598</ele>
        <time>2025-06-29T10:37:34.000Z</time>
      </trkpt>
      <trkpt lat="42.49928" lon="-8.641558">
        <ele>165.677666</ele>
        <time>2025-06-29T10:37:39.000Z</time>
      </trkpt>
      <trkpt lat="42.499087" lon="-8.641417">
        <ele>166.158752</ele>
        <time>2025-06-29T10:37:41.000Z</time>
      </trkpt>
      <trkpt lat="42.498896" lon="-8.641274">
        <ele>166.598798</ele>
        <time>2025-06-29T10:37:43.000Z</time>
      </trkpt>
      <trkpt lat="42.498719" lon="-8.641091">
        <ele>166.639465</ele>
        <time>2025-06-29T10:37:45.000Z</time>
      </trkpt>
      <trkpt lat="42.498534" lon="-8.640925">
        <ele>166.680136</ele>
        <time>2025-06-29T10:37:47.000Z</time>
      </trkpt>
      <trkpt lat="42.497661" lon="-8.639713">
        <ele>166.909671</ele>
        <time>2025-06-29T10:38:01.000Z</time>
      </trkpt>
      <trkpt lat="42.497565" lon="-8.639591">
        <ele>166.948212</ele>
        <time>2025-06-29T10:38:02.000Z</time>
      </trkpt>
      <trkpt lat="42.49743" lon="-8.63951">
        <ele>167.056198</ele>
        <time>2025-06-29T10:38:04.000Z</time>
      </trkpt>
      <trkpt lat="42.497117" lon="-8.639285">
        <ele>167.306612</ele>
        <time>2025-06-29T10:38:08.000Z</time>
      </trkpt>
      <trkpt lat="42.496738" lon="-8.639223">
        <ele>167.582313</ele>
        <time>2025-06-29T10:38:12.000Z</time>
      </trkpt>
      <trkpt lat="42.496398" lon="-8.639243">
        <ele>167.81525</ele>
        <time>2025-06-29T10:38:16.000Z</time>
      </trkpt>
      <trkpt lat="42.496156" lon="-8.639389">
        <ele>167.998034</ele>
        <time>2025-06-29T10:38:19.000Z</time>
      </trkpt>
      <trkpt lat="42.495831" lon="-8.639676">
        <ele>168.051005</ele>
        <time>2025-06-29T10:38:23.000Z</time>
      </trkpt>
      <trkpt lat="42.495685" lon="-8.639853">
        <ele>167.827044</ele>
        <time>2025-06-29T10:38:25.000Z</time>
      </trkpt>
      <trkpt lat="42.495207" lon="-8.64049">
        <ele>167.071105</ele>
        <time>2025-06-29T10:38:32.000Z</time>
      </trkpt>
      <trkpt lat="42.494894" lon="-8.640709">
        <ele>166.675519</ele>
        <time>2025-06-29T10:38:36.000Z</time>
      </trkpt>
      <trkpt lat="42.494574" lon="-8.640791">
        <ele>166.297145</ele>
        <time>2025-06-29T10:38:40.000Z</time>
      </trkpt>
      <trkpt lat="42.492055" lon="-8.640617">
        <ele>163.170054</ele>
        <time>2025-06-29T10:39:08.000Z</time>
      </trkpt>
      <trkpt lat="42.490464" lon="-8.640481">
        <ele>161.197585</ele>
        <time>2025-06-29T10:39:26.000Z</time>
      </trkpt>
      <trkpt lat="42.489958" lon="-8.640508">
        <ele>160.824209</ele>
        <time>2025-06-29T10:39:32.000Z</time>
      </trkpt>
      <trkpt lat="42.48979" lon="-8.640557">
        <ele>160.683381</ele>
        <time>2025-06-29T10:39:34.000Z</time>
      </trkpt>
      <trkpt lat="42.489515" lon="-8.640643">
        <ele>160.476829</ele>
        <time>2025-06-29T10:39:37.000Z</time>
      </trkpt>
      <trkpt lat="42.489291" lon="-8.640765">
        <ele>160.290915</ele>
        <time>2025-06-29T10:39:40.000Z</time>
      </trkpt>
      <trkpt lat="42.488845" lon="-8.641114">
        <ele>159.833108</ele>
        <time>2025-06-29T10:39:46.000Z</time>
      </trkpt>
      <trkpt lat="42.488144" lon="-8.641842">
        <ele>158.946427</ele>
        <time>2025-06-29T10:39:56.000Z</time>
      </trkpt>
      <trkpt lat="42.48723" lon="-8.642692">
        <ele>156.135683</ele>
        <time>2025-06-29T10:40:08.000Z</time>
      </trkpt>
      <trkpt lat="42.486858" lon="-8.642962">
        <ele>154.292089</ele>
        <time>2025-06-29T10:40:13.000Z</time>
      </trkpt>
      <trkpt lat="42.486489" lon="-8.643207">
        <ele>152.425116</ele>
        <time>2025-06-29T10:40:18.000Z</time>
      </trkpt>
      <trkpt lat="42.485954" lon="-8.643352">
        <ele>149.735455</ele>
        <time>2025-06-29T10:40:24.000Z</time>
      </trkpt>
      <trkpt lat="42.485301" lon="-8.643382">
        <ele>145.016319</ele>
        <time>2025-06-29T10:40:31.000Z</time>
      </trkpt>
      <trkpt lat="42.484659" lon="-8.643403">
        <ele>140.297185</ele>
        <time>2025-06-29T10:40:38.000Z</time>
      </trkpt>
      <trkpt lat="42.484383" lon="-8.643323">
        <ele>138.204991</ele>
        <time>2025-06-29T10:40:41.000Z</time>
      </trkpt>
      <trkpt lat="42.4841" lon="-8.643259">
        <ele>136.248086</ele>
        <time>2025-06-29T10:40:44.000Z</time>
      </trkpt>
      <trkpt lat="42.483701" lon="-8.642968">
        <ele>133.410477</ele>
        <time>2025-06-29T10:40:49.000Z</time>
      </trkpt>
      <trkpt lat="42.483269" lon="-8.642493">
        <ele>129.90082</ele>
        <time>2025-06-29T10:40:55.000Z</time>
      </trkpt>
      <trkpt lat="42.483272" lon="-8.642486">
        <ele>129.845865</ele>
        <time>2025-06-29T10:40:55.000Z</time>
      </trkpt>
      <trkpt lat="42.482802" lon="-8.642084">
        <ele>126.365411</ele>
        <time>2025-06-29T10:41:01.000Z</time>
      </trkpt>
      <trkpt lat="42.482621" lon="-8.641953">
        <ele>125.235952</ele>
        <time>2025-06-29T10:41:03.000Z</time>
      </trkpt>
      <trkpt lat="42.481963" lon="-8.641685">
        <ele>122.312958</ele>
        <time>2025-06-29T10:41:11.000Z</time>
      </trkpt>
      <trkpt lat="42.481613" lon="-8.641649">
        <ele>120.820595</ele>
        <time>2025-06-29T10:41:15.000Z</time>
      </trkpt>
      <trkpt lat="42.481199" lon="-8.641701">
        <ele>119.008063</ele>
        <time>2025-06-29T10:41:20.000Z</time>
      </trkpt>
      <trkpt lat="42.480628" lon="-8.641995">
        <ele>116.224682</ele>
        <time>2025-06-29T10:41:27.000Z</time>
      </trkpt>
      <trkpt lat="42.480244" lon="-8.642172">
        <ele>114.263443</ele>
        <time>2025-06-29T10:41:32.000Z</time>
      </trkpt>
      <trkpt lat="42.479697" lon="-8.642288">
        <ele>111.608809</ele>
        <time>2025-06-29T10:41:38.000Z</time>
      </trkpt>
      <trkpt lat="42.479191" lon="-8.642315">
        <ele>108.985772</ele>
        <time>2025-06-29T10:41:44.000Z</time>
      </trkpt>
      <trkpt lat="42.478881" lon="-8.642398">
        <ele>106.559591</ele>
        <time>2025-06-29T10:41:48.000Z</time>
      </trkpt>
      <trkpt lat="42.478619" lon="-8.642586">
        <ele>104.362949</ele>
        <time>2025-06-29T10:41:51.000Z</time>
      </trkpt>
      <trkpt lat="42.477891" lon="-8.643311">
        <ele>97.567271</ele>
        <time>2025-06-29T10:42:01.000Z</time>
      </trkpt>
      <trkpt lat="42.477556" lon="-8.643727">
        <ele>93.709268</ele>
        <time>2025-06-29T10:42:06.000Z</time>
      </trkpt>
      <trkpt lat="42.477469" lon="-8.643803">
        <ele>92.838882</ele>
        <time>2025-06-29T10:42:07.000Z</time>
      </trkpt>
      <trkpt lat="42.476605" lon="-8.644679">
        <ele>82.614037</ele>
        <time>2025-06-29T10:42:19.000Z</time>
      </trkpt>
      <trkpt lat="42.476476" lon="-8.644783">
        <ele>81.141252</ele>
        <time>2025-06-29T10:42:21.000Z</time>
      </trkpt>
      <trkpt lat="42.47609" lon="-8.64513">
        <ele>77.538741</ele>
        <time>2025-06-29T10:42:26.000Z</time>
      </trkpt>
      <trkpt lat="42.475763" lon="-8.645257">
        <ele>75.626629</ele>
        <time>2025-06-29T10:42:30.000Z</time>
      </trkpt>
      <trkpt lat="42.475697" lon="-8.645282">
        <ele>75.236332</ele>
        <time>2025-06-29T10:42:31.000Z</time>
      </trkpt>
      <trkpt lat="42.475281" lon="-8.645221">
        <ele>72.870059</ele>
        <time>2025-06-29T10:42:36.000Z</time>
      </trkpt>
      <trkpt lat="42.475021" lon="-8.645106">
        <ele>71.312832</ele>
        <time>2025-06-29T10:42:39.000Z</time>
      </trkpt>
      <trkpt lat="42.474781" lon="-8.644925">
        <ele>69.696816</ele>
        <time>2025-06-29T10:42:42.000Z</time>
      </trkpt>
      <trkpt lat="42.474454" lon="-8.644563">
        <ele>68.017535</ele>
        <time>2025-06-29T10:42:47.000Z</time>
      </trkpt>
      <trkpt lat="42.474398" lon="-8.64446">
        <ele>67.78944</ele>
        <time>2025-06-29T10:42:48.000Z</time>
      </trkpt>
      <trkpt lat="42.474252" lon="-8.64416">
        <ele>67.141895</ele>
        <time>2025-06-29T10:42:51.000Z</time>
      </trkpt>
      <trkpt lat="42.473857" lon="-8.64297">
        <ele>64.875052</ele>
        <time>2025-06-29T10:43:02.000Z</time>
      </trkpt>
      <trkpt lat="42.473815" lon="-8.642799">
        <ele>64.576469</ele>
        <time>2025-06-29T10:43:03.000Z</time>
      </trkpt>
      <trkpt lat="42.473801" lon="-8.6427">
        <ele>64.378195</ele>
        <time>2025-06-29T10:43:04.000Z</time>
      </trkpt>
      <trkpt lat="42.473588" lon="-8.641909">
        <ele>61.549979</ele>
        <time>2025-06-29T10:43:11.000Z</time>
      </trkpt>
      <trkpt lat="42.473471" lon="-8.640582">
        <ele>56.7961</ele>
        <time>2025-06-29T10:43:22.000Z</time>
      </trkpt>
      <trkpt lat="42.473319" lon="-8.639662">
        <ele>54.073061</ele>
        <time>2025-06-29T10:43:30.000Z</time>
      </trkpt>
      <trkpt lat="42.473242" lon="-8.639281">
        <ele>53.110126</ele>
        <time>2025-06-29T10:43:33.000Z</time>
      </trkpt>
      <trkpt lat="42.47299" lon="-8.638694">
        <ele>51.441285</ele>
        <time>2025-06-29T10:43:39.000Z</time>
      </trkpt>
      <trkpt lat="42.472764" lon="-8.638439">
        <ele>50.477575</ele>
        <time>2025-06-29T10:43:42.000Z</time>
      </trkpt>
      <trkpt lat="42.472534" lon="-8.638287">
        <ele>49.577517</ele>
        <time>2025-06-29T10:43:45.000Z</time>
      </trkpt>
      <trkpt lat="42.472256" lon="-8.638178">
        <ele>50.125492</ele>
        <time>2025-06-29T10:43:48.000Z</time>
      </trkpt>
      <trkpt lat="42.472191" lon="-8.63815">
        <ele>50.275109</ele>
        <time>2025-06-29T10:43:49.000Z</time>
      </trkpt>
      <trkpt lat="42.471944" lon="-8.638118">
        <ele>50.864212</ele>
        <time>2025-06-29T10:43:52.000Z</time>
      </trkpt>
      <trkpt lat="42.471857" lon="-8.638135">
        <ele>51.059395</ele>
        <time>2025-06-29T10:43:53.000Z</time>
      </trkpt>
      <trkpt lat="42.471613" lon="-8.638179">
        <ele>51.587268</ele>
        <time>2025-06-29T10:43:56.000Z</time>
      </trkpt>
      <trkpt lat="42.471269" lon="-8.638398">
        <ele>52.457246</ele>
        <time>2025-06-29T10:44:00.000Z</time>
      </trkpt>
      <trkpt lat="42.470953" lon="-8.638803">
        <ele>53.45626</ele>
        <time>2025-06-29T10:44:05.000Z</time>
      </trkpt>
      <trkpt lat="42.470883" lon="-8.63897">
        <ele>53.643779</ele>
        <time>2025-06-29T10:44:07.000Z</time>
      </trkpt>
      <trkpt lat="42.470518" lon="-8.639741">
        <ele>54.134583</ele>
        <time>2025-06-29T10:44:15.000Z</time>
      </trkpt>
      <trkpt lat="42.470037" lon="-8.640683">
        <ele>54.753217</ele>
        <time>2025-06-29T10:44:24.000Z</time>
      </trkpt>
      <trkpt lat="42.469985" lon="-8.640764">
        <ele>54.811988</ele>
        <time>2025-06-29T10:44:25.000Z</time>
      </trkpt>
      <trkpt lat="42.469915" lon="-8.640918">
        <ele>54.898338</ele>
        <time>2025-06-29T10:44:26.000Z</time>
      </trkpt>
      <trkpt lat="42.469292" lon="-8.642085">
        <ele>55.357053</ele>
        <time>2025-06-29T10:44:38.000Z</time>
      </trkpt>
      <trkpt lat="42.469175" lon="-8.642362">
        <ele>55.457853</ele>
        <time>2025-06-29T10:44:41.000Z</time>
      </trkpt>
      <trkpt lat="42.468991" lon="-8.642641">
        <ele>55.57615</ele>
        <time>2025-06-29T10:44:44.000Z</time>
      </trkpt>
      <trkpt lat="42.468899" lon="-8.642746">
        <ele>55.6298</ele>
        <time>2025-06-29T10:44:45.000Z</time>
      </trkpt>
      <trkpt lat="42.468803" lon="-8.642846">
        <ele>55.538898</ele>
        <time>2025-06-29T10:44:46.000Z</time>
      </trkpt>
      <trkpt lat="42.468572" lon="-8.642966">
        <ele>54.712607</ele>
        <time>2025-06-29T10:44:49.000Z</time>
      </trkpt>
      <trkpt lat="42.468473" lon="-8.642983">
        <ele>54.361866</ele>
        <time>2025-06-29T10:44:50.000Z</time>
      </trkpt>
      <trkpt lat="42.468158" lon="-8.642969">
        <ele>53.279872</ele>
        <time>2025-06-29T10:44:54.000Z</time>
      </trkpt>
      <trkpt lat="42.468014" lon="-8.642952">
        <ele>52.809048</ele>
        <time>2025-06-29T10:44:56.000Z</time>
      </trkpt>
      <trkpt lat="42.466686" lon="-8.642733">
        <ele>48.142999</ele>
        <time>2025-06-29T10:45:11.000Z</time>
      </trkpt>
      <trkpt lat="42.465808" lon="-8.642626">
        <ele>44.984731</ele>
        <time>2025-06-29T10:45:21.000Z</time>
      </trkpt>
      <trkpt lat="42.465445" lon="-8.642547">
        <ele>43.628776</ele>
        <time>2025-06-29T10:45:25.000Z</time>
      </trkpt>
      <trkpt lat="42.46513" lon="-8.64249">
        <ele>42.750657</ele>
        <time>2025-06-29T10:45:29.000Z</time>
      </trkpt>
      <trkpt lat="42.46449" lon="-8.64235">
        <ele>41.482887</ele>
        <time>2025-06-29T10:45:36.000Z</time>
      </trkpt>
      <trkpt lat="42.463975" lon="-8.64225">
        <ele>40.486199</ele>
        <time>2025-06-29T10:45:42.000Z</time>
      </trkpt>
      <trkpt lat="42.462806" lon="-8.642167">
        <ele>37.802023</ele>
        <time>2025-06-29T10:45:55.000Z</time>
      </trkpt>
      <trkpt lat="42.462559" lon="-8.642108">
        <ele>37.165483</ele>
        <time>2025-06-29T10:45:58.000Z</time>
      </trkpt>
      <trkpt lat="42.462338" lon="-8.64204">
        <ele>36.597581</ele>
        <time>2025-06-29T10:46:01.000Z</time>
      </trkpt>
      <trkpt lat="42.461649" lon="-8.641713">
        <ele>34.834592</ele>
        <time>2025-06-29T10:46:09.000Z</time>
      </trkpt>
      <trkpt lat="42.460168" lon="-8.640986">
        <ele>32.857318</ele>
        <time>2025-06-29T10:46:27.000Z</time>
      </trkpt>
      <trkpt lat="42.460146" lon="-8.64097">
        <ele>32.829308</ele>
        <time>2025-06-29T10:46:27.000Z</time>
      </trkpt>
      <trkpt lat="42.458668" lon="-8.640238">
        <ele>31.001362</ele>
        <time>2025-06-29T10:46:44.000Z</time>
      </trkpt>
      <trkpt lat="42.457664" lon="-8.64004">
        <ele>30.343179</ele>
        <time>2025-06-29T10:46:55.000Z</time>
      </trkpt>
      <trkpt lat="42.455316" lon="-8.639618">
        <ele>30.637077</ele>
        <time>2025-06-29T10:47:21.000Z</time>
      </trkpt>
      <trkpt lat="42.454589" lon="-8.639462">
        <ele>30.827185</ele>
        <time>2025-06-29T10:47:29.000Z</time>
      </trkpt>
      <trkpt lat="42.4537" lon="-8.639105">
        <ele>30.184751</ele>
        <time>2025-06-29T10:47:39.000Z</time>
      </trkpt>
      <trkpt lat="42.453591" lon="-8.63906">
        <ele>30.118819</ele>
        <time>2025-06-29T10:47:40.000Z</time>
      </trkpt>
      <trkpt lat="42.452433" lon="-8.638577">
        <ele>28.677986</ele>
        <time>2025-06-29T10:47:53.000Z</time>
      </trkpt>
      <trkpt lat="42.45232" lon="-8.638536">
        <ele>28.482081</ele>
        <time>2025-06-29T10:47:54.000Z</time>
      </trkpt>
      <trkpt lat="42.451955" lon="-8.638407">
        <ele>27.881938</ele>
        <time>2025-06-29T10:47:58.000Z</time>
      </trkpt>
      <trkpt lat="42.451712" lon="-8.638292">
        <ele>27.478801</ele>
        <time>2025-06-29T10:48:01.000Z</time>
      </trkpt>
      <trkpt lat="42.45117" lon="-8.637934">
        <ele>27.229707</ele>
        <time>2025-06-29T10:48:08.000Z</time>
      </trkpt>
      <trkpt lat="42.451072" lon="-8.637918">
        <ele>27.434066</ele>
        <time>2025-06-29T10:48:09.000Z</time>
      </trkpt>
      <trkpt lat="42.450963" lon="-8.637868">
        <ele>27.62665</ele>
        <time>2025-06-29T10:48:10.000Z</time>
      </trkpt>
      <trkpt lat="42.450904" lon="-8.637796">
        <ele>27.80233</ele>
        <time>2025-06-29T10:48:11.000Z</time>
      </trkpt>
      <trkpt lat="42.450884" lon="-8.63761">
        <ele>28.079508</ele>
        <time>2025-06-29T10:48:13.000Z</time>
      </trkpt>
      <trkpt lat="42.45092" lon="-8.63747">
        <ele>28.310788</ele>
        <time>2025-06-29T10:48:14.000Z</time>
      </trkpt>
      <trkpt lat="42.450943" lon="-8.637295">
        <ele>28.579753</ele>
        <time>2025-06-29T10:48:15.000Z</time>
      </trkpt>
      <trkpt lat="42.450895" lon="-8.637142">
        <ele>28.808089</ele>
        <time>2025-06-29T10:48:16.000Z</time>
      </trkpt>
      <trkpt lat="42.450819" lon="-8.63702">
        <ele>29.059172</ele>
        <time>2025-06-29T10:48:17.000Z</time>
      </trkpt>
      <trkpt lat="42.450599" lon="-8.636762">
        <ele>29.615091</ele>
        <time>2025-06-29T10:48:20.000Z</time>
      </trkpt>
      <trkpt lat="42.450296" lon="-8.636523">
        <ele>30.322403</ele>
        <time>2025-06-29T10:48:24.000Z</time>
      </trkpt>
      <trkpt lat="42.449884" lon="-8.636321">
        <ele>30.88218</ele>
        <time>2025-06-29T10:48:29.000Z</time>
      </trkpt>
      <trkpt lat="42.449592" lon="-8.636294">
        <ele>31.219586</ele>
        <time>2025-06-29T10:48:32.000Z</time>
      </trkpt>
      <trkpt lat="42.449089" lon="-8.636368">
        <ele>31.794124</ele>
        <time>2025-06-29T10:48:38.000Z</time>
      </trkpt>
      <trkpt lat="42.448131" lon="-8.636726">
        <ele>32.538612</ele>
        <time>2025-06-29T10:48:49.000Z</time>
      </trkpt>
      <trkpt lat="42.447532" lon="-8.636833">
        <ele>32.592833</ele>
        <time>2025-06-29T10:48:56.000Z</time>
      </trkpt>
      <trkpt lat="42.447191" lon="-8.63675">
        <ele>32.625014</ele>
        <time>2025-06-29T10:49:00.000Z</time>
      </trkpt>
      <trkpt lat="42.446895" lon="-8.636603">
        <ele>32.652993</ele>
        <time>2025-06-29T10:49:04.000Z</time>
      </trkpt>
      <trkpt lat="42.446356" lon="-8.636237">
        <ele>30.26</ele>
        <time>2025-06-29T10:49:11.000Z</time>
      </trkpt>
      <trkpt lat="42.446352" lon="-8.636225">
        <ele>30.259988</ele>
        <time>2025-06-29T10:49:11.000Z</time>
      </trkpt>
      <trkpt lat="42.44581" lon="-8.636004">
        <ele>27.263301</ele>
        <time>2025-06-29T10:49:17.000Z</time>
      </trkpt>
      <trkpt lat="42.445402" lon="-8.635885">
        <ele>25.057802</ele>
        <time>2025-06-29T10:49:22.000Z</time>
      </trkpt>
      <trkpt lat="42.445014" lon="-8.635866">
        <ele>23.022889</ele>
        <time>2025-06-29T10:49:26.000Z</time>
      </trkpt>
      <trkpt lat="42.444571" lon="-8.635962">
        <ele>20.755566</ele>
        <time>2025-06-29T10:49:31.000Z</time>
      </trkpt>
      <trkpt lat="42.44406" lon="-8.636139">
        <ele>18.050594</ele>
        <time>2025-06-29T10:49:37.000Z</time>
      </trkpt>
      <trkpt lat="42.44326" lon="-8.636549">
        <ele>13.973181</ele>
        <time>2025-06-29T10:49:47.000Z</time>
      </trkpt>
      <trkpt lat="42.442749" lon="-8.636894">
        <ele>13.258472</ele>
        <time>2025-06-29T10:49:53.000Z</time>
      </trkpt>
      <trkpt lat="42.442036" lon="-8.637572">
        <ele>12.129696</ele>
        <time>2025-06-29T10:50:03.000Z</time>
      </trkpt>
      <trkpt lat="42.441311" lon="-8.638278">
        <ele>11.156995</ele>
        <time>2025-06-29T10:50:13.000Z</time>
      </trkpt>
      <trkpt lat="42.440552" lon="-8.638901">
        <ele>10.264328</ele>
        <time>2025-06-29T10:50:23.000Z</time>
      </trkpt>
      <trkpt lat="42.440144" lon="-8.63917">
        <ele>9.636549</ele>
        <time>2025-06-29T10:50:28.000Z</time>
      </trkpt>
      <trkpt lat="42.439707" lon="-8.639464">
        <ele>8.700888</ele>
        <time>2025-06-29T10:50:33.000Z</time>
      </trkpt>
      <trkpt lat="42.439034" lon="-8.639801">
        <ele>7.295489</ele>
        <time>2025-06-29T10:50:41.000Z</time>
      </trkpt>
      <trkpt lat="42.438372" lon="-8.640133">
        <ele>5.948708</ele>
        <time>2025-06-29T10:50:49.000Z</time>
      </trkpt>
      <trkpt lat="42.437716" lon="-8.640488">
        <ele>4.703299</ele>
        <time>2025-06-29T10:50:57.000Z</time>
      </trkpt>
      <trkpt lat="42.437571" lon="-8.640588">
        <ele>4.412991</ele>
        <time>2025-06-29T10:50:59.000Z</time>
      </trkpt>
      <trkpt lat="42.437519" lon="-8.640645">
        <ele>4.308803</ele>
        <time>2025-06-29T10:51:00.000Z</time>
      </trkpt>
      <trkpt lat="42.43744" lon="-8.640665">
        <ele>4.149759</ele>
        <time>2025-06-29T10:51:01.000Z</time>
      </trkpt>
      <trkpt lat="42.437192" lon="-8.640736">
        <ele>3.733106</ele>
        <time>2025-06-29T10:51:04.000Z</time>
      </trkpt>
      <trkpt lat="42.437013" lon="-8.640841">
        <ele>3.371848</ele>
        <time>2025-06-29T10:51:06.000Z</time>
      </trkpt>
      <trkpt lat="42.436429" lon="-8.641123">
        <ele>2.912303</ele>
        <time>2025-06-29T10:51:13.000Z</time>
      </trkpt>
      <trkpt lat="42.436222" lon="-8.641229">
        <ele>2.773339</ele>
        <time>2025-06-29T10:51:15.000Z</time>
      </trkpt>
      <trkpt lat="42.436215" lon="-8.641291">
        <ele>2.746763</ele>
        <time>2025-06-29T10:51:16.000Z</time>
      </trkpt>
      <trkpt lat="42.436177" lon="-8.641345">
        <ele>2.713235</ele>
        <time>2025-06-29T10:51:17.000Z</time>
      </trkpt>
      <trkpt lat="42.436069" lon="-8.641358">
        <ele>2.647025</ele>
        <time>2025-06-29T10:51:18.000Z</time>
      </trkpt>
      <trkpt lat="42.436026" lon="-8.641333">
        <ele>2.619699</ele>
        <time>2025-06-29T10:51:19.000Z</time>
      </trkpt>
      <trkpt lat="42.435422" lon="-8.641563">
        <ele>2.216468</ele>
        <time>2025-06-29T10:51:26.000Z</time>
      </trkpt>
      <trkpt lat="42.435285" lon="-8.641566">
        <ele>2.137728</ele>
        <time>2025-06-29T10:51:28.000Z</time>
      </trkpt>
      <trkpt lat="42.435226" lon="-8.641581">
        <ele>2.131479</ele>
        <time>2025-06-29T10:51:29.000Z</time>
      </trkpt>
      <trkpt lat="42.435206" lon="-8.641583">
        <ele>2.142439</ele>
        <time>2025-06-29T10:51:29.000Z</time>
      </trkpt>
      <trkpt lat="42.435171" lon="-8.641575">
        <ele>2.154595</ele>
        <time>2025-06-29T10:51:29.000Z</time>
      </trkpt>
      <trkpt lat="42.434363" lon="-8.641771">
        <ele>2.460716</ele>
        <time>2025-06-29T10:51:38.000Z</time>
      </trkpt>
      <trkpt lat="42.43432" lon="-8.641792">
        <ele>2.480288</ele>
        <time>2025-06-29T10:51:39.000Z</time>
      </trkpt>
      <trkpt lat="42.434278" lon="-8.641843">
        <ele>2.499818</ele>
        <time>2025-06-29T10:51:40.000Z</time>
      </trkpt>
      <trkpt lat="42.434297" lon="-8.642099">
        <ele>2.570486</ele>
        <time>2025-06-29T10:51:42.000Z</time>
      </trkpt>
      <trkpt lat="42.434511" lon="-8.643059">
        <ele>2.827473</ele>
        <time>2025-06-29T10:51:50.000Z</time>
      </trkpt>
      <trkpt lat="42.434716" lon="-8.643808">
        <ele>2.94866</ele>
        <time>2025-06-29T10:51:57.000Z</time>
      </trkpt>
      <trkpt lat="42.434857" lon="-8.644163">
        <ele>3.00814</ele>
        <time>2025-06-29T10:52:00.000Z</time>
      </trkpt>
      <trkpt lat="42.43507" lon="-8.644604">
        <ele>3.087047</ele>
        <time>2025-06-29T10:52:04.000Z</time>
      </trkpt>
      <trkpt lat="42.435144" lon="-8.644802">
        <ele>3.12008</ele>
        <time>2025-06-29T10:52:06.000Z</time>
      </trkpt>
      <trkpt lat="42.435264" lon="-8.645106">
        <ele>3.171302</ele>
        <time>2025-06-29T10:52:09.000Z</time>
      </trkpt>
      <trkpt lat="42.435453" lon="-8.645554">
        <ele>3.239073</ele>
        <time>2025-06-29T10:52:13.000Z</time>
      </trkpt>
      <trkpt lat="42.435848" lon="-8.646714">
        <ele>3.401344</ele>
        <time>2025-06-29T10:52:23.000Z</time>
      </trkpt>
      <trkpt lat="42.435901" lon="-8.646784">
        <ele>3.415283</ele>
        <time>2025-06-29T10:52:24.000Z</time>
      </trkpt>
      <trkpt lat="42.435892" lon="-8.64689">
        <ele>3.429215</ele>
        <time>2025-06-29T10:52:25.000Z</time>
      </trkpt>
      <trkpt lat="42.435909" lon="-8.647188">
        <ele>3.467441</ele>
        <time>2025-06-29T10:52:27.000Z</time>
      </trkpt>
      <trkpt lat="42.43594" lon="-8.647775">
        <ele>3.357006</ele>
        <time>2025-06-29T10:52:32.000Z</time>
      </trkpt>
      <trkpt lat="42.435976" lon="-8.647917">
        <ele>3.322974</ele>
        <time>2025-06-29T10:52:33.000Z</time>
      </trkpt>
      <trkpt lat="42.436029" lon="-8.647964">
        <ele>3.300394</ele>
        <time>2025-06-29T10:52:34.000Z</time>
      </trkpt>
      <trkpt lat="42.436052" lon="-8.648056">
        <ele>3.277722</ele>
        <time>2025-06-29T10:52:35.000Z</time>
      </trkpt>
      <trkpt lat="42.436027" lon="-8.648168">
        <ele>3.247705</ele>
        <time>2025-06-29T10:52:36.000Z</time>
      </trkpt>
      <trkpt lat="42.435967" lon="-8.648236">
        <ele>3.222152</ele>
        <time>2025-06-29T10:52:37.000Z</time>
      </trkpt>
      <trkpt lat="42.435889" lon="-8.648247">
        <ele>3.196249</ele>
        <time>2025-06-29T10:52:38.000Z</time>
      </trkpt>
      <trkpt lat="42.435703" lon="-8.648493">
        <ele>3.11167</ele>
        <time>2025-06-29T10:52:41.000Z</time>
      </trkpt>
      <trkpt lat="42.434899" lon="-8.649599">
        <ele>3.482704</ele>
        <time>2025-06-29T10:52:54.000Z</time>
      </trkpt>
      <trkpt lat="42.434528" lon="-8.650136">
        <ele>4.175131</ele>
        <time>2025-06-29T10:53:00.000Z</time>
      </trkpt>
      <trkpt lat="42.434498" lon="-8.65022">
        <ele>4.266346</ele>
        <time>2025-06-29T10:53:01.000Z</time>
      </trkpt>
      <trkpt lat="42.434494" lon="-8.650239">
        <ele>4.287361</ele>
        <time>2025-06-29T10:53:01.000Z</time>
      </trkpt>
      <trkpt lat="42.434444" lon="-8.650267">
        <ele>4.357495</ele>
        <time>2025-06-29T10:53:02.000Z</time>
      </trkpt>
      <trkpt lat="42.433657" lon="-8.651287">
        <ele>5.768411</ele>
        <time>2025-06-29T10:53:14.000Z</time>
      </trkpt>
      <trkpt lat="42.433251" lon="-8.651826">
        <ele>6.540074</ele>
        <time>2025-06-29T10:53:20.000Z</time>
      </trkpt>
      <trkpt lat="42.433142" lon="-8.651971">
        <ele>6.748989</ele>
        <time>2025-06-29T10:53:22.000Z</time>
      </trkpt>
      <trkpt lat="42.433118" lon="-8.652029">
        <ele>6.820847</ele>
        <time>2025-06-29T10:53:23.000Z</time>
      </trkpt>
      <trkpt lat="42.433049" lon="-8.652073">
        <ele>6.925751</ele>
        <time>2025-06-29T10:53:24.000Z</time>
      </trkpt>
      <trkpt lat="42.4329" lon="-8.652264">
        <ele>7.202111</ele>
        <time>2025-06-29T10:53:26.000Z</time>
      </trkpt>
      <trkpt lat="42.432485" lon="-8.652788">
        <ele>7.199965</ele>
        <time>2025-06-29T10:53:32.000Z</time>
      </trkpt>
      <trkpt lat="42.432329" lon="-8.65293">
        <ele>6.897014</ele>
        <time>2025-06-29T10:53:34.000Z</time>
      </trkpt>
      <trkpt lat="42.43161" lon="-8.653263">
        <ele>5.69829</ele>
        <time>2025-06-29T10:53:42.000Z</time>
      </trkpt>
      <trkpt lat="42.43077" lon="-8.653639">
        <ele>4.246577</ele>
        <time>2025-06-29T10:53:52.000Z</time>
      </trkpt>
      <trkpt lat="42.430053" lon="-8.653963">
        <ele>2.976185</ele>
        <time>2025-06-29T10:54:00.000Z</time>
      </trkpt>
      <trkpt lat="42.429872" lon="-8.654044">
        <ele>2.638739</ele>
        <time>2025-06-29T10:54:02.000Z</time>
      </trkpt>
      <trkpt lat="42.429695" lon="-8.654068">
        <ele>2.366009</ele>
        <time>2025-06-29T10:54:04.000Z</time>
      </trkpt>
      <trkpt lat="42.429444" lon="-8.654049">
        <ele>1.918278</ele>
        <time>2025-06-29T10:54:07.000Z</time>
      </trkpt>
      <trkpt lat="42.429201" lon="-8.653925">
        <ele>1.765779</ele>
        <time>2025-06-29T10:54:10.000Z</time>
      </trkpt>
      <trkpt lat="42.428974" lon="-8.653555">
        <ele>1.901146</ele>
        <time>2025-06-29T10:54:14.000Z</time>
      </trkpt>
      <trkpt lat="42.428959" lon="-8.653465">
        <ele>1.92792</ele>
        <time>2025-06-29T10:54:15.000Z</time>
      </trkpt>
      <trkpt lat="42.42894" lon="-8.653372">
        <ele>1.9549</ele>
        <time>2025-06-29T10:54:16.000Z</time>
      </trkpt>
      <trkpt lat="42.428908" lon="-8.653013">
        <ele>2.059165</ele>
        <time>2025-06-29T10:54:19.000Z</time>
      </trkpt>
      <trkpt lat="42.428875" lon="-8.652405">
        <ele>2.234885</ele>
        <time>2025-06-29T10:54:24.000Z</time>
      </trkpt>
      <trkpt lat="42.428798" lon="-8.652162">
        <ele>2.310151</ele>
        <time>2025-06-29T10:54:26.000Z</time>
      </trkpt>
      <trkpt lat="42.428755" lon="-8.652112">
        <ele>2.333792</ele>
        <time>2025-06-29T10:54:27.000Z</time>
      </trkpt>
      <trkpt lat="42.428584" lon="-8.651933">
        <ele>2.419541</ele>
        <time>2025-06-29T10:54:29.000Z</time>
      </trkpt>
      <trkpt lat="42.428508" lon="-8.651909">
        <ele>2.456838</ele>
        <time>2025-06-29T10:54:30.000Z</time>
      </trkpt>
      <trkpt lat="42.428355" lon="-8.651861">
        <ele>2.537259</ele>
        <time>2025-06-29T10:54:32.000Z</time>
      </trkpt>
      <trkpt lat="42.428263" lon="-8.65183">
        <ele>2.58787</ele>
        <time>2025-06-29T10:54:33.000Z</time>
      </trkpt>
      <trkpt lat="42.428118" lon="-8.651847">
        <ele>2.66191</ele>
        <time>2025-06-29T10:54:35.000Z</time>
      </trkpt>
      <trkpt lat="42.427621" lon="-8.652192">
        <ele>2.950699</ele>
        <time>2025-06-29T10:54:41.000Z</time>
      </trkpt>
      <trkpt lat="42.427107" lon="-8.652527">
        <ele>3.248172</ele>
        <time>2025-06-29T10:54:47.000Z</time>
      </trkpt>
      <trkpt lat="42.427026" lon="-8.652551">
        <ele>3.292552</ele>
        <time>2025-06-29T10:54:48.000Z</time>
      </trkpt>
      <trkpt lat="42.425993" lon="-8.653317">
        <ele>3.475853</ele>
        <time>2025-06-29T10:55:01.000Z</time>
      </trkpt>
      <trkpt lat="42.425696" lon="-8.653592">
        <ele>3.521551</ele>
        <time>2025-06-29T10:55:05.000Z</time>
      </trkpt>
      <trkpt lat="42.425039" lon="-8.654233">
        <ele>3.435026</ele>
        <time>2025-06-29T10:55:14.000Z</time>
      </trkpt>
      <trkpt lat="42.424305" lon="-8.655006">
        <ele>3.1549</ele>
        <time>2025-06-29T10:55:24.000Z</time>
      </trkpt>
      <trkpt lat="42.424014" lon="-8.65532">
        <ele>3.043984</ele>
        <time>2025-06-29T10:55:28.000Z</time>
      </trkpt>
      <trkpt lat="42.423596" lon="-8.655838">
        <ele>2.851074</ele>
        <time>2025-06-29T10:55:34.000Z</time>
      </trkpt>
      <trkpt lat="42.423439" lon="-8.656013">
        <ele>2.778305</ele>
        <time>2025-06-29T10:55:36.000Z</time>
      </trkpt>
      <trkpt lat="42.422964" lon="-8.656849">
        <ele>2.513544</ele>
        <time>2025-06-29T10:55:45.000Z</time>
      </trkpt>
      <trkpt lat="42.422779" lon="-8.657291">
        <ele>2.427425</ele>
        <time>2025-06-29T10:55:49.000Z</time>
      </trkpt>
      <trkpt lat="42.422626" lon="-8.657763">
        <ele>2.553825</ele>
        <time>2025-06-29T10:55:53.000Z</time>
      </trkpt>
      <trkpt lat="42.422536" lon="-8.658019">
        <ele>2.619096</ele>
        <time>2025-06-29T10:55:55.000Z</time>
      </trkpt>
      <trkpt lat="42.422475" lon="-8.658296">
        <ele>2.689568</ele>
        <time>2025-06-29T10:55:57.000Z</time>
      </trkpt>
      <trkpt lat="42.422472" lon="-8.658337">
        <ele>2.699546</ele>
        <time>2025-06-29T10:55:57.000Z</time>
      </trkpt>
      <trkpt lat="42.422447" lon="-8.658438">
        <ele>2.728104</ele>
        <time>2025-06-29T10:55:58.000Z</time>
      </trkpt>
      <trkpt lat="42.422411" lon="-8.65866">
        <ele>2.782681</ele>
        <time>2025-06-29T10:56:00.000Z</time>
      </trkpt>
      <trkpt lat="42.421539" lon="-8.662892">
        <ele>3.116637</ele>
        <time>2025-06-29T10:56:36.000Z</time>
      </trkpt>
      <trkpt lat="42.421473" lon="-8.663198">
        <ele>2.979025</ele>
        <time>2025-06-29T10:56:39.000Z</time>
      </trkpt>
      <trkpt lat="42.421386" lon="-8.663466">
        <ele>2.862579</ele>
        <time>2025-06-29T10:56:41.000Z</time>
      </trkpt>
      <trkpt lat="42.421188" lon="-8.664009">
        <ele>2.624664</ele>
        <time>2025-06-29T10:56:46.000Z</time>
      </trkpt>
      <trkpt lat="42.420932" lon="-8.664495">
        <ele>2.619075</ele>
        <time>2025-06-29T10:56:51.000Z</time>
      </trkpt>
      <trkpt lat="42.420886" lon="-8.664565">
        <ele>2.629236</ele>
        <time>2025-06-29T10:56:52.000Z</time>
      </trkpt>
      <trkpt lat="42.420679" lon="-8.664858">
        <ele>2.678473</ele>
        <time>2025-06-29T10:56:55.000Z</time>
      </trkpt>
      <trkpt lat="42.418403" lon="-8.667264">
        <ele>4.342607</ele>
        <time>2025-06-29T10:57:27.000Z</time>
      </trkpt>
      <trkpt lat="42.418045" lon="-8.667677">
        <ele>3.990702</ele>
        <time>2025-06-29T10:57:32.000Z</time>
      </trkpt>
      <trkpt lat="42.417725" lon="-8.66807">
        <ele>3.647205</ele>
        <time>2025-06-29T10:57:37.000Z</time>
      </trkpt>
      <trkpt lat="42.417721" lon="-8.668068">
        <ele>3.646251</ele>
        <time>2025-06-29T10:57:37.000Z</time>
      </trkpt>
      <trkpt lat="42.417388" lon="-8.668581">
        <ele>3.259852</ele>
        <time>2025-06-29T10:57:43.000Z</time>
      </trkpt>
      <trkpt lat="42.417116" lon="-8.669029">
        <ele>2.925462</ele>
        <time>2025-06-29T10:57:48.000Z</time>
      </trkpt>
      <trkpt lat="42.416504" lon="-8.670111">
        <ele>2.131625</ele>
        <time>2025-06-29T10:57:59.000Z</time>
      </trkpt>
      <trkpt lat="42.416491" lon="-8.670111">
        <ele>2.131619</ele>
        <time>2025-06-29T10:57:59.000Z</time>
      </trkpt>
      <trkpt lat="42.416006" lon="-8.670846">
        <ele>1.555995</ele>
        <time>2025-06-29T10:58:07.000Z</time>
      </trkpt>
      <trkpt lat="42.41536" lon="-8.671667">
        <ele>1.71391</ele>
        <time>2025-06-29T10:58:17.000Z</time>
      </trkpt>
      <trkpt lat="42.414713" lon="-8.672493">
        <ele>1.888938</ele>
        <time>2025-06-29T10:58:27.000Z</time>
      </trkpt>
      <trkpt lat="42.41408" lon="-8.67332">
        <ele>1.636417</ele>
        <time>2025-06-29T10:58:37.000Z</time>
      </trkpt>
      <trkpt lat="42.413421" lon="-8.67414">
        <ele>1.361035</ele>
        <time>2025-06-29T10:58:47.000Z</time>
      </trkpt>
      <trkpt lat="42.412786" lon="-8.674968">
        <ele>1.161295</ele>
        <time>2025-06-29T10:58:57.000Z</time>
      </trkpt>
      <trkpt lat="42.412137" lon="-8.675782">
        <ele>0.968432</ele>
        <time>2025-06-29T10:59:07.000Z</time>
      </trkpt>
      <trkpt lat="42.411494" lon="-8.676616">
        <ele>1.312087</ele>
        <time>2025-06-29T10:59:17.000Z</time>
      </trkpt>
      <trkpt lat="42.410858" lon="-8.677438">
        <ele>1.724398</ele>
        <time>2025-06-29T10:59:27.000Z</time>
      </trkpt>
      <trkpt lat="42.410214" lon="-8.678258">
        <ele>1.804288</ele>
        <time>2025-06-29T10:59:37.000Z</time>
      </trkpt>
      <trkpt lat="42.409564" lon="-8.679067">
        <ele>1.827408</ele>
        <time>2025-06-29T10:59:47.000Z</time>
      </trkpt>
      <trkpt lat="42.408921" lon="-8.679903">
        <ele>1.721554</ele>
        <time>2025-06-29T10:59:57.000Z</time>
      </trkpt>
      <trkpt lat="42.408281" lon="-8.680711">
        <ele>1.588051</ele>
        <time>2025-06-29T11:00:07.000Z</time>
      </trkpt>
      <trkpt lat="42.407631" lon="-8.681533">
        <ele>1.944957</ele>
        <time>2025-06-29T11:00:17.000Z</time>
      </trkpt>
      <trkpt lat="42.406992" lon="-8.682371">
        <ele>2.430237</ele>
        <time>2025-06-29T11:00:27.000Z</time>
      </trkpt>
      <trkpt lat="42.406349" lon="-8.683182">
        <ele>3.194466</ele>
        <time>2025-06-29T11:00:37.000Z</time>
      </trkpt>
      <trkpt lat="42.405687" lon="-8.684">
        <ele>4.045131</ele>
        <time>2025-06-29T11:00:47.000Z</time>
      </trkpt>
      <trkpt lat="42.4056" lon="-8.684138">
        <ele>4.167549</ele>
        <time>2025-06-29T11:00:48.000Z</time>
      </trkpt>
      <trkpt lat="42.405358" lon="-8.684299">
        <ele>4.315183</ele>
        <time>2025-06-29T11:00:51.000Z</time>
      </trkpt>
      <trkpt lat="42.405163" lon="-8.684373">
        <ele>4.361211</ele>
        <time>2025-06-29T11:00:53.000Z</time>
      </trkpt>
      <trkpt lat="42.404912" lon="-8.684451">
        <ele>4.423936</ele>
        <time>2025-06-29T11:00:56.000Z</time>
      </trkpt>
      <trkpt lat="42.404015" lon="-8.684587">
        <ele>4.635393</ele>
        <time>2025-06-29T11:01:06.000Z</time>
      </trkpt>
      <trkpt lat="42.403798" lon="-8.684679">
        <ele>4.690104</ele>
        <time>2025-06-29T11:01:09.000Z</time>
      </trkpt>
      <trkpt lat="42.403664" lon="-8.684788">
        <ele>4.808913</ele>
        <time>2025-06-29T11:01:11.000Z</time>
      </trkpt>
      <trkpt lat="42.403609" lon="-8.684889">
        <ele>4.887639</ele>
        <time>2025-06-29T11:01:12.000Z</time>
      </trkpt>
      <trkpt lat="42.403498" lon="-8.684967">
        <ele>5.003042</ele>
        <time>2025-06-29T11:01:13.000Z</time>
      </trkpt>
      <trkpt lat="42.403435" lon="-8.684991">
        <ele>5.060829</ele>
        <time>2025-06-29T11:01:14.000Z</time>
      </trkpt>
      <trkpt lat="42.403345" lon="-8.684983">
        <ele>5.154622</ele>
        <time>2025-06-29T11:01:15.000Z</time>
      </trkpt>
      <trkpt lat="42.403234" lon="-8.685012">
        <ele>5.250573</ele>
        <time>2025-06-29T11:01:16.000Z</time>
      </trkpt>
      <trkpt lat="42.403119" lon="-8.685088">
        <ele>5.37203</ele>
        <time>2025-06-29T11:01:17.000Z</time>
      </trkpt>
      <trkpt lat="42.402235" lon="-8.686029">
        <ele>6.391434</ele>
        <time>2025-06-29T11:01:30.000Z</time>
      </trkpt>
      <trkpt lat="42.401675" lon="-8.686587">
        <ele>7.071137</ele>
        <time>2025-06-29T11:01:38.000Z</time>
      </trkpt>
      <trkpt lat="42.401222" lon="-8.687113">
        <ele>7.643029</ele>
        <time>2025-06-29T11:01:45.000Z</time>
      </trkpt>
      <trkpt lat="42.400962" lon="-8.687468">
        <ele>7.984877</ele>
        <time>2025-06-29T11:01:49.000Z</time>
      </trkpt>
      <trkpt lat="42.400661" lon="-8.687971">
        <ele>8.215333</ele>
        <time>2025-06-29T11:01:54.000Z</time>
      </trkpt>
      <trkpt lat="42.400284" lon="-8.688733">
        <ele>8.461047</ele>
        <time>2025-06-29T11:02:02.000Z</time>
      </trkpt>
      <trkpt lat="42.400106" lon="-8.689177">
        <ele>8.596898</ele>
        <time>2025-06-29T11:02:06.000Z</time>
      </trkpt>
      <trkpt lat="42.399965" lon="-8.68952">
        <ele>8.704134</ele>
        <time>2025-06-29T11:02:09.000Z</time>
      </trkpt>
      <trkpt lat="42.399915" lon="-8.689597">
        <ele>8.731105</ele>
        <time>2025-06-29T11:02:10.000Z</time>
      </trkpt>
      <trkpt lat="42.399913" lon="-8.689588">
        <ele>8.7311</ele>
        <time>2025-06-29T11:02:10.000Z</time>
      </trkpt>
      <trkpt lat="42.399841" lon="-8.689509">
        <ele>8.762048</ele>
        <time>2025-06-29T11:02:11.000Z</time>
      </trkpt>
      <trkpt lat="42.399883" lon="-8.689452">
        <ele>8.784501</ele>
        <time>2025-06-29T11:02:12.000Z</time>
      </trkpt>
      <trkpt lat="42.400009" lon="-8.689176">
        <ele>8.865926</ele>
        <time>2025-06-29T11:02:15.000Z</time>
      </trkpt>
      <trkpt lat="42.400038" lon="-8.689095">
        <ele>8.889742</ele>
        <time>2025-06-29T11:02:16.000Z</time>
      </trkpt>
      <trkpt lat="42.400397" lon="-8.68833">
        <ele>9.123687</ele>
        <time>2025-06-29T11:02:23.000Z</time>
      </trkpt>
      <trkpt lat="42.400814" lon="-8.687531">
        <ele>9.338824</ele>
        <time>2025-06-29T11:02:31.000Z</time>
      </trkpt>
      <trkpt lat="42.401268" lon="-8.686921">
        <ele>9.160876</ele>
        <time>2025-06-29T11:02:38.000Z</time>
      </trkpt>
      <trkpt lat="42.401661" lon="-8.68644">
        <ele>9.016036</ele>
        <time>2025-06-29T11:02:44.000Z</time>
      </trkpt>
      <trkpt lat="42.401908" lon="-8.686072">
        <ele>8.912531</ele>
        <time>2025-06-29T11:02:48.000Z</time>
      </trkpt>
      <trkpt lat="42.402442" lon="-8.685366">
        <ele>8.435876</ele>
        <time>2025-06-29T11:02:56.000Z</time>
      </trkpt>
      <trkpt lat="42.4026" lon="-8.685124">
        <ele>8.23726</ele>
        <time>2025-06-29T11:02:59.000Z</time>
      </trkpt>
      <trkpt lat="42.40305" lon="-8.684716">
        <ele>7.80756</ele>
        <time>2025-06-29T11:03:05.000Z</time>
      </trkpt>
      <trkpt lat="42.40316" lon="-8.684596">
        <ele>7.706575</ele>
        <time>2025-06-29T11:03:07.000Z</time>
      </trkpt>
      <trkpt lat="42.403195" lon="-8.684448">
        <ele>7.615733</ele>
        <time>2025-06-29T11:03:08.000Z</time>
      </trkpt>
      <trkpt lat="42.403242" lon="-8.68436">
        <ele>7.559719</ele>
        <time>2025-06-29T11:03:09.000Z</time>
      </trkpt>
      <trkpt lat="42.403372" lon="-8.684272">
        <ele>7.448436</ele>
        <time>2025-06-29T11:03:11.000Z</time>
      </trkpt>
      <trkpt lat="42.403459" lon="-8.684284">
        <ele>7.342455</ele>
        <time>2025-06-29T11:03:12.000Z</time>
      </trkpt>
      <trkpt lat="42.403561" lon="-8.684321">
        <ele>7.233622</ele>
        <time>2025-06-29T11:03:13.000Z</time>
      </trkpt>
      <trkpt lat="42.404032" lon="-8.684213">
        <ele>6.730123</ele>
        <time>2025-06-29T11:03:18.000Z</time>
      </trkpt>
      <trkpt lat="42.40498" lon="-8.684141">
        <ele>5.698081</ele>
        <time>2025-06-29T11:03:29.000Z</time>
      </trkpt>
      <trkpt lat="42.405236" lon="-8.684085">
        <ele>5.497018</ele>
        <time>2025-06-29T11:03:32.000Z</time>
      </trkpt>
      <trkpt lat="42.405702" lon="-8.683857">
        <ele>5.365261</ele>
        <time>2025-06-29T11:03:38.000Z</time>
      </trkpt>
      <trkpt lat="42.405771" lon="-8.683761">
        <ele>5.33545</ele>
        <time>2025-06-29T11:03:39.000Z</time>
      </trkpt>
      <trkpt lat="42.414556" lon="-8.672603">
        <ele>2.092151</ele>
        <time>2025-06-29T11:05:53.000Z</time>
      </trkpt>
      <trkpt lat="42.41617" lon="-8.670471">
        <ele>2.023049</ele>
        <time>2025-06-29T11:06:18.000Z</time>
      </trkpt>
      <trkpt lat="42.416169" lon="-8.670459">
        <ele>2.023052</ele>
        <time>2025-06-29T11:06:18.000Z</time>
      </trkpt>
      <trkpt lat="42.416642" lon="-8.669678">
        <ele>2.458991</ele>
        <time>2025-06-29T11:06:26.000Z</time>
      </trkpt>
      <trkpt lat="42.417117" lon="-8.668874">
        <ele>3.045036</ele>
        <time>2025-06-29T11:06:34.000Z</time>
      </trkpt>
      <trkpt lat="42.417583" lon="-8.668078">
        <ele>3.858234</ele>
        <time>2025-06-29T11:06:42.000Z</time>
      </trkpt>
      <trkpt lat="42.417988" lon="-8.667567">
        <ele>4.462805</ele>
        <time>2025-06-29T11:06:48.000Z</time>
      </trkpt>
      <trkpt lat="42.418626" lon="-8.666904">
        <ele>4.068245</ele>
        <time>2025-06-29T11:06:57.000Z</time>
      </trkpt>
      <trkpt lat="42.419256" lon="-8.666232">
        <ele>3.286196</ele>
        <time>2025-06-29T11:07:06.000Z</time>
      </trkpt>
      <trkpt lat="42.41989" lon="-8.665569">
        <ele>2.9196</ele>
        <time>2025-06-29T11:07:15.000Z</time>
      </trkpt>
      <trkpt lat="42.420527" lon="-8.664893">
        <ele>2.935986</ele>
        <time>2025-06-29T11:07:24.000Z</time>
      </trkpt>
      <trkpt lat="42.420784" lon="-8.664576">
        <ele>2.943213</ele>
        <time>2025-06-29T11:07:28.000Z</time>
      </trkpt>
      <trkpt lat="42.420783" lon="-8.664568">
        <ele>2.943208</ele>
        <time>2025-06-29T11:07:28.000Z</time>
      </trkpt>
      <trkpt lat="42.421084" lon="-8.664058">
        <ele>3.296214</ele>
        <time>2025-06-29T11:07:33.000Z</time>
      </trkpt>
      <trkpt lat="42.421435" lon="-8.663075">
        <ele>4.347642</ele>
        <time>2025-06-29T11:07:42.000Z</time>
      </trkpt>
      <trkpt lat="42.421628" lon="-8.662122">
        <ele>5.310905</ele>
        <time>2025-06-29T11:07:50.000Z</time>
      </trkpt>
      <trkpt lat="42.421818" lon="-8.661189">
        <ele>5.248308</ele>
        <time>2025-06-29T11:07:58.000Z</time>
      </trkpt>
      <trkpt lat="42.422015" lon="-8.660231">
        <ele>5.168321</ele>
        <time>2025-06-29T11:08:06.000Z</time>
      </trkpt>
      <trkpt lat="42.422221" lon="-8.659283">
        <ele>4.748636</ele>
        <time>2025-06-29T11:08:14.000Z</time>
      </trkpt>
      <trkpt lat="42.422302" lon="-8.658446">
        <ele>4.117522</ele>
        <time>2025-06-29T11:08:21.000Z</time>
      </trkpt>
      <trkpt lat="42.422251" lon="-8.658311">
        <ele>4.004187</ele>
        <time>2025-06-29T11:08:22.000Z</time>
      </trkpt>
      <trkpt lat="42.422277" lon="-8.658222">
        <ele>3.932519</ele>
        <time>2025-06-29T11:08:23.000Z</time>
      </trkpt>
      <trkpt lat="42.422338" lon="-8.658161">
        <ele>3.861523</ele>
        <time>2025-06-29T11:08:24.000Z</time>
      </trkpt>
      <trkpt lat="42.422713" lon="-8.657279">
        <ele>3.308035</ele>
        <time>2025-06-29T11:08:32.000Z</time>
      </trkpt>
      <trkpt lat="42.423037" lon="-8.656568">
        <ele>3.317186</ele>
        <time>2025-06-29T11:08:39.000Z</time>
      </trkpt>
      <trkpt lat="42.423132" lon="-8.656398">
        <ele>3.319607</ele>
        <time>2025-06-29T11:08:41.000Z</time>
      </trkpt>
      <trkpt lat="42.423353" lon="-8.655998">
        <ele>3.32495</ele>
        <time>2025-06-29T11:08:45.000Z</time>
      </trkpt>
      <trkpt lat="42.423395" lon="-8.655962">
        <ele>3.325688</ele>
        <time>2025-06-29T11:08:46.000Z</time>
      </trkpt>
      <trkpt lat="42.423605" lon="-8.655663">
        <ele>3.330312</ele>
        <time>2025-06-29T11:08:49.000Z</time>
      </trkpt>
      <trkpt lat="42.423981" lon="-8.655256">
        <ele>3.444556</ele>
        <time>2025-06-29T11:08:54.000Z</time>
      </trkpt>
      <trkpt lat="42.424257" lon="-8.654939">
        <ele>3.553007</ele>
        <time>2025-06-29T11:08:58.000Z</time>
      </trkpt>
      <trkpt lat="42.425006" lon="-8.654183">
        <ele>3.825664</ele>
        <time>2025-06-29T11:09:08.000Z</time>
      </trkpt>
      <trkpt lat="42.425211" lon="-8.653963">
        <ele>3.898649</ele>
        <time>2025-06-29T11:09:11.000Z</time>
      </trkpt>
      <trkpt lat="42.425471" lon="-8.653698">
        <ele>3.989206</ele>
        <time>2025-06-29T11:09:15.000Z</time>
      </trkpt>
      <trkpt lat="42.425944" lon="-8.653204">
        <ele>4.155223</ele>
        <time>2025-06-29T11:09:22.000Z</time>
      </trkpt>
      <trkpt lat="42.426027" lon="-8.653123">
        <ele>4.182024</ele>
        <time>2025-06-29T11:09:23.000Z</time>
      </trkpt>
      <trkpt lat="42.426513" lon="-8.652642">
        <ele>4.347282</ele>
        <time>2025-06-29T11:09:30.000Z</time>
      </trkpt>
      <trkpt lat="42.42655" lon="-8.652603">
        <ele>4.353963</ele>
        <time>2025-06-29T11:09:31.000Z</time>
      </trkpt>
      <trkpt lat="42.426899" lon="-8.652335">
        <ele>4.33181</ele>
        <time>2025-06-29T11:09:35.000Z</time>
      </trkpt>
      <trkpt lat="42.426961" lon="-8.652251">
        <ele>4.326859</ele>
        <time>2025-06-29T11:09:36.000Z</time>
      </trkpt>
      <trkpt lat="42.426998" lon="-8.652217">
        <ele>4.3248</ele>
        <time>2025-06-29T11:09:36.000Z</time>
      </trkpt>
      <trkpt lat="42.427024" lon="-8.65221">
        <ele>4.322786</ele>
        <time>2025-06-29T11:09:36.000Z</time>
      </trkpt>
      <trkpt lat="42.427852" lon="-8.651672">
        <ele>4.2717</ele>
        <time>2025-06-29T11:09:46.000Z</time>
      </trkpt>
      <trkpt lat="42.428081" lon="-8.651691">
        <ele>4.25932</ele>
        <time>2025-06-29T11:09:49.000Z</time>
      </trkpt>
      <trkpt lat="42.428356" lon="-8.651765">
        <ele>4.00659</ele>
        <time>2025-06-29T11:09:52.000Z</time>
      </trkpt>
      <trkpt lat="42.428385" lon="-8.651768">
        <ele>3.971255</ele>
        <time>2025-06-29T11:09:52.000Z</time>
      </trkpt>
      <trkpt lat="42.428419" lon="-8.651786">
        <ele>3.927934</ele>
        <time>2025-06-29T11:09:52.000Z</time>
      </trkpt>
      <trkpt lat="42.428559" lon="-8.651828">
        <ele>3.748661</ele>
        <time>2025-06-29T11:09:54.000Z</time>
      </trkpt>
      <trkpt lat="42.428617" lon="-8.651856">
        <ele>3.675693</ele>
        <time>2025-06-29T11:09:55.000Z</time>
      </trkpt>
      <trkpt lat="42.42878" lon="-8.651912">
        <ele>3.464399</ele>
        <time>2025-06-29T11:09:57.000Z</time>
      </trkpt>
      <trkpt lat="42.428846" lon="-8.651894">
        <ele>3.401392</ele>
        <time>2025-06-29T11:09:58.000Z</time>
      </trkpt>
      <trkpt lat="42.428896" lon="-8.651907">
        <ele>3.336765</ele>
        <time>2025-06-29T11:09:59.000Z</time>
      </trkpt>
      <trkpt lat="42.428931" lon="-8.651965">
        <ele>3.263703</ele>
        <time>2025-06-29T11:10:00.000Z</time>
      </trkpt>
      <trkpt lat="42.428936" lon="-8.652061">
        <ele>3.191341</ele>
        <time>2025-06-29T11:10:01.000Z</time>
      </trkpt>
      <trkpt lat="42.428932" lon="-8.652069">
        <ele>3.176977</ele>
        <time>2025-06-29T11:10:01.000Z</time>
      </trkpt>
      <trkpt lat="42.428977" lon="-8.652355">
        <ele>2.924805</ele>
        <time>2025-06-29T11:10:03.000Z</time>
      </trkpt>
      <trkpt lat="42.429018" lon="-8.652858">
        <ele>2.464663</ele>
        <time>2025-06-29T11:10:07.000Z</time>
      </trkpt>
      <trkpt lat="42.429075" lon="-8.653382">
        <ele>2.234478</ele>
        <time>2025-06-29T11:10:11.000Z</time>
      </trkpt>
      <trkpt lat="42.429094" lon="-8.653533">
        <ele>2.416122</ele>
        <time>2025-06-29T11:10:12.000Z</time>
      </trkpt>
      <trkpt lat="42.429236" lon="-8.653757">
        <ele>2.803831</ele>
        <time>2025-06-29T11:10:14.000Z</time>
      </trkpt>
      <trkpt lat="42.429336" lon="-8.653829">
        <ele>2.971038</ele>
        <time>2025-06-29T11:10:15.000Z</time>
      </trkpt>
      <trkpt lat="42.429517" lon="-8.653955">
        <ele>3.316183</ele>
        <time>2025-06-29T11:10:17.000Z</time>
      </trkpt>
      <trkpt lat="42.429851" lon="-8.653963">
        <ele>3.883208</ele>
        <time>2025-06-29T11:10:21.000Z</time>
      </trkpt>
      <trkpt lat="42.43002" lon="-8.653877">
        <ele>4.204861</ele>
        <time>2025-06-29T11:10:23.000Z</time>
      </trkpt>
      <trkpt lat="42.430361" lon="-8.653731">
        <ele>4.797031</ele>
        <time>2025-06-29T11:10:27.000Z</time>
      </trkpt>
      <trkpt lat="42.430785" lon="-8.653523">
        <ele>5.61491</ele>
        <time>2025-06-29T11:10:32.000Z</time>
      </trkpt>
      <trkpt lat="42.431324" lon="-8.653259">
        <ele>6.754458</ele>
        <time>2025-06-29T11:10:38.000Z</time>
      </trkpt>
      <trkpt lat="42.431584" lon="-8.653152">
        <ele>7.31358</ele>
        <time>2025-06-29T11:10:41.000Z</time>
      </trkpt>
      <trkpt lat="42.431763" lon="-8.653068">
        <ele>7.713058</ele>
        <time>2025-06-29T11:10:43.000Z</time>
      </trkpt>
      <trkpt lat="42.432047" lon="-8.652928">
        <ele>8.283442</ele>
        <time>2025-06-29T11:10:46.000Z</time>
      </trkpt>
      <trkpt lat="42.432301" lon="-8.652817">
        <ele>8.689127</ele>
        <time>2025-06-29T11:10:49.000Z</time>
      </trkpt>
      <trkpt lat="42.432466" lon="-8.652676">
        <ele>8.571378</ele>
        <time>2025-06-29T11:10:51.000Z</time>
      </trkpt>
      <trkpt lat="42.432516" lon="-8.652591">
        <ele>8.521654</ele>
        <time>2025-06-29T11:10:52.000Z</time>
      </trkpt>
      <trkpt lat="42.432657" lon="-8.652399">
        <ele>8.401253</ele>
        <time>2025-06-29T11:10:54.000Z</time>
      </trkpt>
      <trkpt lat="42.432844" lon="-8.65218">
        <ele>8.248119</ele>
        <time>2025-06-29T11:10:57.000Z</time>
      </trkpt>
      <trkpt lat="42.43298" lon="-8.651973">
        <ele>8.121708</ele>
        <time>2025-06-29T11:10:59.000Z</time>
      </trkpt>
      <trkpt lat="42.432988" lon="-8.651898">
        <ele>8.08954</ele>
        <time>2025-06-29T11:11:00.000Z</time>
      </trkpt>
      <trkpt lat="42.433033" lon="-8.651856">
        <ele>8.057925</ele>
        <time>2025-06-29T11:11:01.000Z</time>
      </trkpt>
      <trkpt lat="42.433042" lon="-8.651832">
        <ele>8.041406</ele>
        <time>2025-06-29T11:11:01.000Z</time>
      </trkpt>
      <trkpt lat="42.43308" lon="-8.651849">
        <ele>8.024886</ele>
        <time>2025-06-29T11:11:01.000Z</time>
      </trkpt>
      <trkpt lat="42.433602" lon="-8.651183">
        <ele>7.518834</ele>
        <time>2025-06-29T11:11:09.000Z</time>
      </trkpt>
      <trkpt lat="42.43368" lon="-8.651076">
        <ele>7.276798</ele>
        <time>2025-06-29T11:11:10.000Z</time>
      </trkpt>
      <trkpt lat="42.434359" lon="-8.650191">
        <ele>5.297113</ele>
        <time>2025-06-29T11:11:20.000Z</time>
      </trkpt>
      <trkpt lat="42.434369" lon="-8.650106">
        <ele>5.1877</ele>
        <time>2025-06-29T11:11:21.000Z</time>
      </trkpt>
      <trkpt lat="42.434382" lon="-8.650084">
        <ele>5.133094</ele>
        <time>2025-06-29T11:11:21.000Z</time>
      </trkpt>
      <trkpt lat="42.434428" lon="-8.650057">
        <ele>5.034658</ele>
        <time>2025-06-29T11:11:22.000Z</time>
      </trkpt>
      <trkpt lat="42.434469" lon="-8.650054">
        <ele>4.936566</ele>
        <time>2025-06-29T11:11:22.000Z</time>
      </trkpt>
      <trkpt lat="42.434561" lon="-8.649943">
        <ele>4.691995</ele>
        <time>2025-06-29T11:11:23.000Z</time>
      </trkpt>
      <trkpt lat="42.434845" lon="-8.649532">
        <ele>3.870708</ele>
        <time>2025-06-29T11:11:28.000Z</time>
      </trkpt>
      <trkpt lat="42.434927" lon="-8.649409">
        <ele>3.871171</ele>
        <time>2025-06-29T11:11:29.000Z</time>
      </trkpt>
      <trkpt lat="42.434968" lon="-8.649344">
        <ele>3.871486</ele>
        <time>2025-06-29T11:11:30.000Z</time>
      </trkpt>
      <trkpt lat="42.435563" lon="-8.648506">
        <ele>3.874999</ele>
        <time>2025-06-29T11:11:40.000Z</time>
      </trkpt>
      <trkpt lat="42.435637" lon="-8.648405">
        <ele>3.875411</ele>
        <time>2025-06-29T11:11:41.000Z</time>
      </trkpt>
      <trkpt lat="42.435796" lon="-8.648124">
        <ele>3.876495</ele>
        <time>2025-06-29T11:11:44.000Z</time>
      </trkpt>
      <trkpt lat="42.43578" lon="-8.648027">
        <ele>3.876768</ele>
        <time>2025-06-29T11:11:45.000Z</time>
      </trkpt>
      <trkpt lat="42.435782" lon="-8.648027">
        <ele>3.876789</ele>
        <time>2025-06-29T11:11:45.000Z</time>
      </trkpt>
      <trkpt lat="42.435823" lon="-8.64794">
        <ele>3.877071</ele>
        <time>2025-06-29T11:11:46.000Z</time>
      </trkpt>
      <trkpt lat="42.435855" lon="-8.647554">
        <ele>3.873462</ele>
        <time>2025-06-29T11:11:49.000Z</time>
      </trkpt>
      <trkpt lat="42.435823" lon="-8.647206">
        <ele>3.856071</ele>
        <time>2025-06-29T11:11:52.000Z</time>
      </trkpt>
      <trkpt lat="42.435796" lon="-8.646936">
        <ele>3.842474</ele>
        <time>2025-06-29T11:11:54.000Z</time>
      </trkpt>
      <trkpt lat="42.435745" lon="-8.64688">
        <ele>3.838154</ele>
        <time>2025-06-29T11:11:55.000Z</time>
      </trkpt>
      <trkpt lat="42.435733" lon="-8.646814">
        <ele>3.834903</ele>
        <time>2025-06-29T11:11:56.000Z</time>
      </trkpt>
      <trkpt lat="42.43576" lon="-8.646753">
        <ele>3.831666</ele>
        <time>2025-06-29T11:11:57.000Z</time>
      </trkpt>
      <trkpt lat="42.43538" lon="-8.64562">
        <ele>3.770526</ele>
        <time>2025-06-29T11:12:07.000Z</time>
      </trkpt>
      <trkpt lat="42.435011" lon="-8.644659">
        <ele>3.941529</ele>
        <time>2025-06-29T11:12:16.000Z</time>
      </trkpt>
      <trkpt lat="42.434722" lon="-8.644107">
        <ele>4.096603</ele>
        <time>2025-06-29T11:12:22.000Z</time>
      </trkpt>
      <trkpt lat="42.43461" lon="-8.643753">
        <ele>4.185661</ele>
        <time>2025-06-29T11:12:25.000Z</time>
      </trkpt>
      <trkpt lat="42.434416" lon="-8.6431">
        <ele>4.406216</ele>
        <time>2025-06-29T11:12:31.000Z</time>
      </trkpt>
      <trkpt lat="42.434201" lon="-8.642058">
        <ele>5.132438</ele>
        <time>2025-06-29T11:12:40.000Z</time>
      </trkpt>
      <trkpt lat="42.434146" lon="-8.641837">
        <ele>5.293607</ele>
        <time>2025-06-29T11:12:42.000Z</time>
      </trkpt>
      <trkpt lat="42.434099" lon="-8.641677">
        <ele>5.398792</ele>
        <time>2025-06-29T11:12:43.000Z</time>
      </trkpt>
      <trkpt lat="42.434099" lon="-8.641657">
        <ele>5.419956</ele>
        <time>2025-06-29T11:12:43.000Z</time>
      </trkpt>
      <trkpt lat="42.434105" lon="-8.641631">
        <ele>5.440322</ele>
        <time>2025-06-29T11:12:43.000Z</time>
      </trkpt>
      <trkpt lat="42.434074" lon="-8.641472">
        <ele>5.540357</ele>
        <time>2025-06-29T11:12:44.000Z</time>
      </trkpt>
      <trkpt lat="42.434057" lon="-8.641337">
        <ele>5.642347</ele>
        <time>2025-06-29T11:12:45.000Z</time>
      </trkpt>
      <trkpt lat="42.433858" lon="-8.640422">
        <ele>5.73125</ele>
        <time>2025-06-29T11:12:53.000Z</time>
      </trkpt>
      <trkpt lat="42.433831" lon="-8.640209">
        <ele>5.641667</ele>
        <time>2025-06-29T11:12:55.000Z</time>
      </trkpt>
      <trkpt lat="42.433701" lon="-8.639576">
        <ele>5.380803</ele>
        <time>2025-06-29T11:13:00.000Z</time>
      </trkpt>
      <trkpt lat="42.433683" lon="-8.63945">
        <ele>5.328231</ele>
        <time>2025-06-29T11:13:01.000Z</time>
      </trkpt>
      <trkpt lat="42.433409" lon="-8.637996">
        <ele>4.948537</ele>
        <time>2025-06-29T11:13:13.000Z</time>
      </trkpt>
      <trkpt lat="42.433387" lon="-8.63788">
        <ele>4.948552</ele>
        <time>2025-06-29T11:13:14.000Z</time>
      </trkpt>
      <trkpt lat="42.43337" lon="-8.637885">
        <ele>4.948548</ele>
        <time>2025-06-29T11:13:14.000Z</time>
      </trkpt>
      <trkpt lat="42.43338" lon="-8.637554">
        <ele>4.948551</ele>
        <time>2025-06-29T11:13:17.000Z</time>
      </trkpt>
      <trkpt lat="42.433384" lon="-8.637426">
        <ele>4.948538</ele>
        <time>2025-06-29T11:13:18.000Z</time>
      </trkpt>
      <trkpt lat="42.433424" lon="-8.637323">
        <ele>4.948539</ele>
        <time>2025-06-29T11:13:19.000Z</time>
      </trkpt>
      <trkpt lat="42.433415" lon="-8.637325">
        <ele>4.948549</ele>
        <time>2025-06-29T11:13:19.000Z</time>
      </trkpt>
      <trkpt lat="42.433628" lon="-8.63686">
        <ele>4.948551</ele>
        <time>2025-06-29T11:13:23.000Z</time>
      </trkpt>
      <trkpt lat="42.433631" lon="-8.636861">
        <ele>4.948549</ele>
        <time>2025-06-29T11:13:23.000Z</time>
      </trkpt>
      <trkpt lat="42.433632" lon="-8.636865">
        <ele>4.94855</ele>
        <time>2025-06-29T11:13:23.000Z</time>
      </trkpt>
      <trkpt lat="42.4338" lon="-8.636611">
        <ele>4.948554</ele>
        <time>2025-06-29T11:13:26.000Z</time>
      </trkpt>
      <trkpt lat="42.433891" lon="-8.636504">
        <ele>4.948543</ele>
        <time>2025-06-29T11:13:27.000Z</time>
      </trkpt>
      <trkpt lat="42.433953" lon="-8.636507">
        <ele>4.948536</ele>
        <time>2025-06-29T11:13:28.000Z</time>
      </trkpt>
      <trkpt lat="42.434002" lon="-8.636503">
        <ele>0.730965</ele>
        <time>2025-06-29T11:13:29.000Z</time>
      </trkpt>
      <trkpt lat="42.434013" lon="-8.636492">
        <ele>0.730958</ele>
        <time>2025-06-29T11:13:29.000Z</time>
      </trkpt>
      <trkpt lat="42.434531" lon="-8.636613">
        <ele>0.730975</ele>
        <time>2025-06-29T11:13:35.000Z</time>
      </trkpt>
      <trkpt lat="42.435043" lon="-8.636723">
        <ele>0.691981</ele>
        <time>2025-06-29T11:13:41.000Z</time>
      </trkpt>
      <trkpt lat="42.435049" lon="-8.636731">
        <ele>0.691992</ele>
        <time>2025-06-29T11:13:41.000Z</time>
      </trkpt>
      <trkpt lat="42.43521" lon="-8.636848">
        <ele>0.646219</ele>
        <time>2025-06-29T11:13:43.000Z</time>
      </trkpt>
      <trkpt lat="42.435205" lon="-8.636847">
        <ele>0.646207</ele>
        <time>2025-06-29T11:13:43.000Z</time>
      </trkpt>
      <trkpt lat="42.435249" lon="-8.637071">
        <ele>0.605419</ele>
        <time>2025-06-29T11:13:45.000Z</time>
      </trkpt>
      <trkpt lat="42.435187" lon="-8.63721">
        <ele>0.577244</ele>
        <time>2025-06-29T11:13:46.000Z</time>
      </trkpt>
      <trkpt lat="42.435032" lon="-8.637927">
        <ele>0.435193</ele>
        <time>2025-06-29T11:13:52.000Z</time>
      </trkpt>
      <trkpt lat="42.434875" lon="-8.638544">
        <ele>0.314533</ele>
        <time>2025-06-29T11:13:57.000Z</time>
      </trkpt>
      <trkpt lat="42.434858" lon="-8.638909">
        <ele>0.363051</ele>
        <time>2025-06-29T11:14:00.000Z</time>
      </trkpt>
      <trkpt lat="42.434867" lon="-8.639495">
        <ele>0.648325</ele>
        <time>2025-06-29T11:14:05.000Z</time>
      </trkpt>
      <trkpt lat="42.434964" lon="-8.639959">
        <ele>0.891009</ele>
        <time>2025-06-29T11:14:09.000Z</time>
      </trkpt>
      <trkpt lat="42.435182" lon="-8.641101">
        <ele>1.464358</ele>
        <time>2025-06-29T11:14:19.000Z</time>
      </trkpt>
      <trkpt lat="42.435214" lon="-8.641216">
        <ele>1.556163</ele>
        <time>2025-06-29T11:14:20.000Z</time>
      </trkpt>
      <trkpt lat="42.435239" lon="-8.641233">
        <ele>1.58825</ele>
        <time>2025-06-29T11:14:20.000Z</time>
      </trkpt>
      <trkpt lat="42.435332" lon="-8.641324">
        <ele>1.706328</ele>
        <time>2025-06-29T11:14:21.000Z</time>
      </trkpt>
      <trkpt lat="42.435575" lon="-8.641346">
        <ele>1.961492</ele>
        <time>2025-06-29T11:14:24.000Z</time>
      </trkpt>
      <trkpt lat="42.435791" lon="-8.641237">
        <ele>2.218108</ele>
        <time>2025-06-29T11:14:27.000Z</time>
      </trkpt>
      <trkpt lat="42.43595" lon="-8.641152">
        <ele>2.383543</ele>
        <time>2025-06-29T11:14:29.000Z</time>
      </trkpt>
      <trkpt lat="42.435989" lon="-8.641144">
        <ele>2.436525</ele>
        <time>2025-06-29T11:14:29.000Z</time>
      </trkpt>
      <trkpt lat="42.43603" lon="-8.641078">
        <ele>2.498829</ele>
        <time>2025-06-29T11:14:30.000Z</time>
      </trkpt>
      <trkpt lat="42.436087" lon="-8.641041">
        <ele>2.56038</ele>
        <time>2025-06-29T11:14:31.000Z</time>
      </trkpt>
      <trkpt lat="42.436147" lon="-8.641046">
        <ele>2.622922</ele>
        <time>2025-06-29T11:14:32.000Z</time>
      </trkpt>
      <trkpt lat="42.436196" lon="-8.641068">
        <ele>2.684247</ele>
        <time>2025-06-29T11:14:33.000Z</time>
      </trkpt>
      <trkpt lat="42.436424" lon="-8.640951">
        <ele>2.956254</ele>
        <time>2025-06-29T11:14:36.000Z</time>
      </trkpt>
      <trkpt lat="42.436469" lon="-8.640934">
        <ele>2.994669</ele>
        <time>2025-06-29T11:14:37.000Z</time>
      </trkpt>
      <trkpt lat="42.437023" lon="-8.640661">
        <ele>3.412435</ele>
        <time>2025-06-29T11:14:44.000Z</time>
      </trkpt>
      <trkpt lat="42.437147" lon="-8.640598">
        <ele>3.432268</ele>
        <time>2025-06-29T11:14:45.000Z</time>
      </trkpt>
      <trkpt lat="42.437314" lon="-8.640478">
        <ele>3.459446</ele>
        <time>2025-06-29T11:14:47.000Z</time>
      </trkpt>
      <trkpt lat="42.437327" lon="-8.640397">
        <ele>3.467044</ele>
        <time>2025-06-29T11:14:48.000Z</time>
      </trkpt>
      <trkpt lat="42.437348" lon="-8.640357">
        <ele>3.472006</ele>
        <time>2025-06-29T11:14:48.000Z</time>
      </trkpt>
      <trkpt lat="42.437374" lon="-8.640334">
        <ele>3.477107</ele>
        <time>2025-06-29T11:14:48.000Z</time>
      </trkpt>
      <trkpt lat="42.437394" lon="-8.640281">
        <ele>3.484132</ele>
        <time>2025-06-29T11:14:48.000Z</time>
      </trkpt>
      <trkpt lat="42.437483" lon="-8.640094">
        <ele>3.507093</ele>
        <time>2025-06-29T11:14:50.000Z</time>
      </trkpt>
      <trkpt lat="42.437578" lon="-8.63998">
        <ele>3.526121</ele>
        <time>2025-06-29T11:14:51.000Z</time>
      </trkpt>
      <trkpt lat="42.437994" lon="-8.639626">
        <ele>3.596004</ele>
        <time>2025-06-29T11:14:56.000Z</time>
      </trkpt>
      <trkpt lat="42.438792" lon="-8.638776">
        <ele>3.591515</ele>
        <time>2025-06-29T11:15:07.000Z</time>
      </trkpt>
      <trkpt lat="42.439004" lon="-8.638489">
        <ele>3.571501</ele>
        <time>2025-06-29T11:15:10.000Z</time>
      </trkpt>
      <trkpt lat="42.439249" lon="-8.637942">
        <ele>3.540107</ele>
        <time>2025-06-29T11:15:15.000Z</time>
      </trkpt>
      <trkpt lat="42.439372" lon="-8.637635">
        <ele>3.522864</ele>
        <time>2025-06-29T11:15:18.000Z</time>
      </trkpt>
      <trkpt lat="42.439437" lon="-8.637366">
        <ele>3.482953</ele>
        <time>2025-06-29T11:15:20.000Z</time>
      </trkpt>
      <trkpt lat="42.439485" lon="-8.636756">
        <ele>3.377734</ele>
        <time>2025-06-29T11:15:25.000Z</time>
      </trkpt>
      <trkpt lat="42.439433" lon="-8.636363">
        <ele>3.305611</ele>
        <time>2025-06-29T11:15:28.000Z</time>
      </trkpt>
      <trkpt lat="42.439395" lon="-8.636361">
        <ele>3.294543</ele>
        <time>2025-06-29T11:15:28.000Z</time>
      </trkpt>
      <trkpt lat="42.43934" lon="-8.636262">
        <ele>3.273374</ele>
        <time>2025-06-29T11:15:29.000Z</time>
      </trkpt>
      <trkpt lat="42.439344" lon="-8.6362">
        <ele>3.264133</ele>
        <time>2025-06-29T11:15:30.000Z</time>
      </trkpt>
      <trkpt lat="42.439391" lon="-8.636136">
        <ele>3.246164</ele>
        <time>2025-06-29T11:15:31.000Z</time>
      </trkpt>
      <trkpt lat="42.439468" lon="-8.636145">
        <ele>3.228854</ele>
        <time>2025-06-29T11:15:32.000Z</time>
      </trkpt>
      <trkpt lat="42.439506" lon="-8.636227">
        <ele>3.211603</ele>
        <time>2025-06-29T11:15:33.000Z</time>
      </trkpt>
      <trkpt lat="42.439924" lon="-8.636097">
        <ele>3.108134</ele>
        <time>2025-06-29T11:15:38.000Z</time>
      </trkpt>
      <trkpt lat="42.440317" lon="-8.635989">
        <ele>3.647554</ele>
        <time>2025-06-29T11:15:42.000Z</time>
      </trkpt>
      <trkpt lat="42.440471" lon="-8.635941">
        <ele>3.911387</ele>
        <time>2025-06-29T11:15:44.000Z</time>
      </trkpt>
      <trkpt lat="42.440544" lon="-8.636341">
        <ele>4.40145</ele>
        <time>2025-06-29T11:15:47.000Z</time>
      </trkpt>
      <trkpt lat="42.440616" lon="-8.636747">
        <ele>4.918633</ele>
        <time>2025-06-29T11:15:50.000Z</time>
      </trkpt>
      <trkpt lat="42.440639" lon="-8.636939">
        <ele>5.157595</ele>
        <time>2025-06-29T11:15:52.000Z</time>
      </trkpt>
      <trkpt lat="42.440734" lon="-8.636949">
        <ele>5.290797</ele>
        <time>2025-06-29T11:15:53.000Z</time>
      </trkpt>
      <trkpt lat="42.440794" lon="-8.63702">
        <ele>5.422885</ele>
        <time>2025-06-29T11:15:54.000Z</time>
      </trkpt>
      <trkpt lat="42.440797" lon="-8.637183">
        <ele>5.618091</ele>
        <time>2025-06-29T11:15:55.000Z</time>
      </trkpt>
      <trkpt lat="42.440736" lon="-8.63725">
        <ele>5.749783</ele>
        <time>2025-06-29T11:15:56.000Z</time>
      </trkpt>
      <trkpt lat="42.440841" lon="-8.637422">
        <ele>6.018248</ele>
        <time>2025-06-29T11:15:58.000Z</time>
      </trkpt>
      <trkpt lat="42.441133" lon="-8.637933">
        <ele>6.267132</ele>
        <time>2025-06-29T11:16:03.000Z</time>
      </trkpt>
      <trkpt lat="42.440794" lon="-8.638253">
        <ele>6.467007</ele>
        <time>2025-06-29T11:16:08.000Z</time>
      </trkpt>
      <trkpt lat="42.44069" lon="-8.638327">
        <ele>6.515004</ele>
        <time>2025-06-29T11:16:09.000Z</time>
      </trkpt>
      <trkpt lat="42.440112" lon="-8.638754">
        <ele>6.831624</ele>
        <time>2025-06-29T11:16:16.000Z</time>
      </trkpt>
      <trkpt lat="42.439962" lon="-8.638838">
        <ele>6.897014</ele>
        <time>2025-06-29T11:16:18.000Z</time>
      </trkpt>
      <trkpt lat="42.439785" lon="-8.638948">
        <ele>6.675602</ele>
        <time>2025-06-29T11:16:20.000Z</time>
      </trkpt>
      <trkpt lat="42.439718" lon="-8.638947">
        <ele>6.601377</ele>
        <time>2025-06-29T11:16:21.000Z</time>
      </trkpt>
      <trkpt lat="42.439669" lon="-8.638913">
        <ele>6.540338</ele>
        <time>2025-06-29T11:16:22.000Z</time>
      </trkpt>
      <trkpt lat="42.439609" lon="-8.638786">
        <ele>6.423242</ele>
        <time>2025-06-29T11:16:23.000Z</time>
      </trkpt>
      <trkpt lat="42.439528" lon="-8.638509">
        <ele>6.179191</ele>
        <time>2025-06-29T11:16:25.000Z</time>
      </trkpt>
      <trkpt lat="42.439468" lon="-8.638236">
        <ele>5.963773</ele>
        <time>2025-06-29T11:16:27.000Z</time>
      </trkpt>
      <trkpt lat="42.439424" lon="-8.638087">
        <ele>5.824466</ele>
        <time>2025-06-29T11:16:28.000Z</time>
      </trkpt>
      <trkpt lat="42.439423" lon="-8.638096">
        <ele>5.824481</ele>
        <time>2025-06-29T11:16:28.000Z</time>
      </trkpt>
      <trkpt lat="42.439508" lon="-8.637708">
        <ele>5.501651</ele>
        <time>2025-06-29T11:16:31.000Z</time>
      </trkpt>
      <trkpt lat="42.439885" lon="-8.637538">
        <ele>5.074422</ele>
        <time>2025-06-29T11:16:35.000Z</time>
      </trkpt>
      <trkpt lat="42.440372" lon="-8.637261">
        <ele>4.597782</ele>
        <time>2025-06-29T11:16:41.000Z</time>
      </trkpt>
      <trkpt lat="42.440432" lon="-8.637251">
        <ele>4.55505</ele>
        <time>2025-06-29T11:16:42.000Z</time>
      </trkpt>
      <trkpt lat="42.44057" lon="-8.63718">
        <ele>4.423203</ele>
        <time>2025-06-29T11:16:44.000Z</time>
      </trkpt>
      <trkpt lat="42.440565" lon="-8.637057">
        <ele>4.352311</ele>
        <time>2025-06-29T11:16:45.000Z</time>
      </trkpt>
      <trkpt lat="42.440617" lon="-8.636976">
        <ele>4.281875</ele>
        <time>2025-06-29T11:16:46.000Z</time>
      </trkpt>
      <trkpt lat="42.440645" lon="-8.636944">
        <ele>4.245844</ele>
        <time>2025-06-29T11:16:46.000Z</time>
      </trkpt>
      <trkpt lat="42.440611" lon="-8.636758">
        <ele>4.122746</ele>
        <time>2025-06-29T11:16:48.000Z</time>
      </trkpt>
      <trkpt lat="42.440531" lon="-8.636342">
        <ele>3.856303</ele>
        <time>2025-06-29T11:16:52.000Z</time>
      </trkpt>
      <trkpt lat="42.440464" lon="-8.635953">
        <ele>3.603821</ele>
        <time>2025-06-29T11:16:55.000Z</time>
      </trkpt>
      <trkpt lat="42.440301" lon="-8.635989">
        <ele>3.467891</ele>
        <time>2025-06-29T11:16:57.000Z</time>
      </trkpt>
      <trkpt lat="42.439935" lon="-8.636105">
        <ele>3.440864</ele>
        <time>2025-06-29T11:17:01.000Z</time>
      </trkpt>
      <trkpt lat="42.439507" lon="-8.63623">
        <ele>3.464225</ele>
        <time>2025-06-29T11:17:06.000Z</time>
      </trkpt>
      <trkpt lat="42.439471" lon="-8.636322">
        <ele>3.468449</ele>
        <time>2025-06-29T11:17:07.000Z</time>
      </trkpt>
      <trkpt lat="42.439436" lon="-8.636363">
        <ele>3.47061</ele>
        <time>2025-06-29T11:17:08.000Z</time>
      </trkpt>
      <trkpt lat="42.439483" lon="-8.636763">
        <ele>3.486899</ele>
        <time>2025-06-29T11:17:11.000Z</time>
      </trkpt>
      <trkpt lat="42.43944" lon="-8.637369">
        <ele>3.510657</ele>
        <time>2025-06-29T11:17:16.000Z</time>
      </trkpt>
      <trkpt lat="42.43938" lon="-8.637625">
        <ele>3.524091</ele>
        <time>2025-06-29T11:17:18.000Z</time>
      </trkpt>
      <trkpt lat="42.439251" lon="-8.637943">
        <ele>3.553752</ele>
        <time>2025-06-29T11:17:21.000Z</time>
      </trkpt>
      <trkpt lat="42.439005" lon="-8.638478">
        <ele>3.607774</ele>
        <time>2025-06-29T11:17:26.000Z</time>
      </trkpt>
      <trkpt lat="42.438797" lon="-8.638789">
        <ele>3.642191</ele>
        <time>2025-06-29T11:17:29.000Z</time>
      </trkpt>
      <trkpt lat="42.437985" lon="-8.63961">
        <ele>3.966008</ele>
        <time>2025-06-29T11:17:40.000Z</time>
      </trkpt>
      <trkpt lat="42.437579" lon="-8.639987">
        <ele>4.362178</ele>
        <time>2025-06-29T11:17:45.000Z</time>
      </trkpt>
      <trkpt lat="42.43752" lon="-8.640128">
        <ele>4.466921</ele>
        <time>2025-06-29T11:17:46.000Z</time>
      </trkpt>
      <trkpt lat="42.437505" lon="-8.640313">
        <ele>4.574493</ele>
        <time>2025-06-29T11:17:48.000Z</time>
      </trkpt>
      <trkpt lat="42.437534" lon="-8.64034">
        <ele>4.605122</ele>
        <time>2025-06-29T11:17:48.000Z</time>
      </trkpt>
      <trkpt lat="42.437531" lon="-8.640336">
        <ele>4.605124</ele>
        <time>2025-06-29T11:17:48.000Z</time>
      </trkpt>
      <trkpt lat="42.437715" lon="-8.640301">
        <ele>4.753069</ele>
        <time>2025-06-29T11:17:50.000Z</time>
      </trkpt>
      <trkpt lat="42.437712" lon="-8.640303">
        <ele>4.753061</ele>
        <time>2025-06-29T11:17:50.000Z</time>
      </trkpt>
      <trkpt lat="42.438369" lon="-8.639974">
        <ele>5.497927</ele>
        <time>2025-06-29T11:17:58.000Z</time>
      </trkpt>
      <trkpt lat="42.439008" lon="-8.639663">
        <ele>6.83811</ele>
        <time>2025-06-29T11:18:06.000Z</time>
      </trkpt>
      <trkpt lat="42.439672" lon="-8.639333">
        <ele>8.178292</ele>
        <time>2025-06-29T11:18:14.000Z</time>
      </trkpt>
      <trkpt lat="42.440104" lon="-8.639038">
        <ele>8.901935</ele>
        <time>2025-06-29T11:18:19.000Z</time>
      </trkpt>
      <trkpt lat="42.440528" lon="-8.638763">
        <ele>9.405035</ele>
        <time>2025-06-29T11:18:24.000Z</time>
      </trkpt>
      <trkpt lat="42.441257" lon="-8.638153">
        <ele>10.300902</ele>
        <time>2025-06-29T11:18:34.000Z</time>
      </trkpt>
      <trkpt lat="42.441979" lon="-8.637472">
        <ele>11.178399</ele>
        <time>2025-06-29T11:18:44.000Z</time>
      </trkpt>
      <trkpt lat="42.442708" lon="-8.636765">
        <ele>12.036506</ele>
        <time>2025-06-29T11:18:54.000Z</time>
      </trkpt>
      <trkpt lat="42.443219" lon="-8.63638">
        <ele>13.592757</ele>
        <time>2025-06-29T11:19:01.000Z</time>
      </trkpt>
      <trkpt lat="42.444033" lon="-8.635979">
        <ele>16.964074</ele>
        <time>2025-06-29T11:19:11.000Z</time>
      </trkpt>
      <trkpt lat="42.444551" lon="-8.635832">
        <ele>19.058042</ele>
        <time>2025-06-29T11:19:17.000Z</time>
      </trkpt>
      <trkpt lat="42.44502" lon="-8.635758">
        <ele>21.964908</ele>
        <time>2025-06-29T11:19:22.000Z</time>
      </trkpt>
      <trkpt lat="42.445016" lon="-8.635769">
        <ele>21.964915</ele>
        <time>2025-06-29T11:19:22.000Z</time>
      </trkpt>
      <trkpt lat="42.445655" lon="-8.635851">
        <ele>26.296281</ele>
        <time>2025-06-29T11:19:29.000Z</time>
      </trkpt>
      <trkpt lat="42.446101" lon="-8.636048">
        <ele>29.453614</ele>
        <time>2025-06-29T11:19:34.000Z</time>
      </trkpt>
      <trkpt lat="42.446345" lon="-8.636234">
        <ele>31.368363</ele>
        <time>2025-06-29T11:19:37.000Z</time>
      </trkpt>
      <trkpt lat="42.446896" lon="-8.636604">
        <ele>31.850492</ele>
        <time>2025-06-29T11:19:44.000Z</time>
      </trkpt>
      <trkpt lat="42.447183" lon="-8.636758">
        <ele>32.069654</ele>
        <time>2025-06-29T11:19:47.000Z</time>
      </trkpt>
      <trkpt lat="42.447541" lon="-8.636819">
        <ele>32.321639</ele>
        <time>2025-06-29T11:19:51.000Z</time>
      </trkpt>
      <trkpt lat="42.448121" lon="-8.636727">
        <ele>32.670761</ele>
        <time>2025-06-29T11:19:57.000Z</time>
      </trkpt>
      <trkpt lat="42.4491" lon="-8.636367">
        <ele>32.060353</ele>
        <time>2025-06-29T11:20:08.000Z</time>
      </trkpt>
      <trkpt lat="42.449603" lon="-8.636277">
        <ele>31.758317</ele>
        <time>2025-06-29T11:20:14.000Z</time>
      </trkpt>
      <trkpt lat="42.449887" lon="-8.636308">
        <ele>31.485343</ele>
        <time>2025-06-29T11:20:17.000Z</time>
      </trkpt>
      <trkpt lat="42.450327" lon="-8.636461">
        <ele>30.54408</ele>
        <time>2025-06-29T11:20:22.000Z</time>
      </trkpt>
      <trkpt lat="42.450509" lon="-8.636587">
        <ele>30.086477</ele>
        <time>2025-06-29T11:20:24.000Z</time>
      </trkpt>
      <trkpt lat="42.450829" lon="-8.636881">
        <ele>29.271909</ele>
        <time>2025-06-29T11:20:28.000Z</time>
      </trkpt>
      <trkpt lat="42.451003" lon="-8.637088">
        <ele>28.788473</ele>
        <time>2025-06-29T11:20:31.000Z</time>
      </trkpt>
      <trkpt lat="42.451081" lon="-8.637306">
        <ele>28.424646</ele>
        <time>2025-06-29T11:20:33.000Z</time>
      </trkpt>
      <trkpt lat="42.451144" lon="-8.637381">
        <ele>28.229464</ele>
        <time>2025-06-29T11:20:34.000Z</time>
      </trkpt>
      <trkpt lat="42.451166" lon="-8.637418">
        <ele>28.168715</ele>
        <time>2025-06-29T11:20:34.000Z</time>
      </trkpt>
      <trkpt lat="42.451214" lon="-8.637471">
        <ele>28.019321</ele>
        <time>2025-06-29T11:20:35.000Z</time>
      </trkpt>
      <trkpt lat="42.45126" lon="-8.637624">
        <ele>27.83663</ele>
        <time>2025-06-29T11:20:36.000Z</time>
      </trkpt>
      <trkpt lat="42.451352" lon="-8.637809">
        <ele>27.958494</ele>
        <time>2025-06-29T11:20:38.000Z</time>
      </trkpt>
      <trkpt lat="42.451747" lon="-8.638191">
        <ele>28.328567</ele>
        <time>2025-06-29T11:20:43.000Z</time>
      </trkpt>
      <trkpt lat="42.452313" lon="-8.63854">
        <ele>28.798781</ele>
        <time>2025-06-29T11:20:50.000Z</time>
      </trkpt>
      <trkpt lat="42.452425" lon="-8.638575">
        <ele>28.891416</ele>
        <time>2025-06-29T11:20:51.000Z</time>
      </trkpt>
      <trkpt lat="42.453605" lon="-8.639064">
        <ele>30.082013</ele>
        <time>2025-06-29T11:21:05.000Z</time>
      </trkpt>
      <trkpt lat="42.453683" lon="-8.639099">
        <ele>30.183917</ele>
        <time>2025-06-29T11:21:06.000Z</time>
      </trkpt>
      <trkpt lat="42.454585" lon="-8.639453">
        <ele>31.070503</ele>
        <time>2025-06-29T11:21:16.000Z</time>
      </trkpt>
      <trkpt lat="42.455309" lon="-8.639622">
        <ele>30.608132</ele>
        <time>2025-06-29T11:21:24.000Z</time>
      </trkpt>
      <trkpt lat="42.457664" lon="-8.640042">
        <ele>30.239257</ele>
        <time>2025-06-29T11:21:50.000Z</time>
      </trkpt>
      <trkpt lat="42.458653" lon="-8.640235">
        <ele>31.006127</ele>
        <time>2025-06-29T11:22:01.000Z</time>
      </trkpt>
      <trkpt lat="42.460155" lon="-8.64096">
        <ele>32.858655</ele>
        <time>2025-06-29T11:22:19.000Z</time>
      </trkpt>
      <trkpt lat="42.460178" lon="-8.640983">
        <ele>32.883408</ele>
        <time>2025-06-29T11:22:19.000Z</time>
      </trkpt>
      <trkpt lat="42.461653" lon="-8.64171">
        <ele>34.868123</ele>
        <time>2025-06-29T11:22:36.000Z</time>
      </trkpt>
      <trkpt lat="42.462344" lon="-8.642036">
        <ele>36.710751</ele>
        <time>2025-06-29T11:22:44.000Z</time>
      </trkpt>
      <trkpt lat="42.462552" lon="-8.64212">
        <ele>37.266556</ele>
        <time>2025-06-29T11:22:46.000Z</time>
      </trkpt>
      <trkpt lat="42.462803" lon="-8.642166">
        <ele>37.889522</ele>
        <time>2025-06-29T11:22:49.000Z</time>
      </trkpt>
      <trkpt lat="42.463972" lon="-8.642255">
        <ele>40.426211</ele>
        <time>2025-06-29T11:23:02.000Z</time>
      </trkpt>
      <trkpt lat="42.464489" lon="-8.642342">
        <ele>41.457451</ele>
        <time>2025-06-29T11:23:08.000Z</time>
      </trkpt>
      <trkpt lat="42.465142" lon="-8.642447">
        <ele>42.923912</ele>
        <time>2025-06-29T11:23:15.000Z</time>
      </trkpt>
      <trkpt lat="42.465409" lon="-8.642527">
        <ele>43.838874</ele>
        <time>2025-06-29T11:23:18.000Z</time>
      </trkpt>
      <trkpt lat="42.465441" lon="-8.642555">
        <ele>43.963426</ele>
        <time>2025-06-29T11:23:18.000Z</time>
      </trkpt>
      <trkpt lat="42.465788" lon="-8.642542">
        <ele>45.068906</ele>
        <time>2025-06-29T11:23:22.000Z</time>
      </trkpt>
      <trkpt lat="42.4667" lon="-8.642741">
        <ele>48.080664</ele>
        <time>2025-06-29T11:23:32.000Z</time>
      </trkpt>
      <trkpt lat="42.468017" lon="-8.642956">
        <ele>53.18595</ele>
        <time>2025-06-29T11:23:47.000Z</time>
      </trkpt>
      <trkpt lat="42.468165" lon="-8.642975">
        <ele>53.713166</ele>
        <time>2025-06-29T11:23:49.000Z</time>
      </trkpt>
      <trkpt lat="42.468477" lon="-8.642988">
        <ele>54.924712</ele>
        <time>2025-06-29T11:23:52.000Z</time>
      </trkpt>
      <trkpt lat="42.468574" lon="-8.642961">
        <ele>55.317449</ele>
        <time>2025-06-29T11:23:53.000Z</time>
      </trkpt>
      <trkpt lat="42.468804" lon="-8.642853">
        <ele>55.490401</ele>
        <time>2025-06-29T11:23:56.000Z</time>
      </trkpt>
      <trkpt lat="42.468989" lon="-8.642644">
        <ele>55.651161</ele>
        <time>2025-06-29T11:23:59.000Z</time>
      </trkpt>
      <trkpt lat="42.469176" lon="-8.642358">
        <ele>55.828976</ele>
        <time>2025-06-29T11:24:02.000Z</time>
      </trkpt>
      <trkpt lat="42.469297" lon="-8.642082">
        <ele>55.98047</ele>
        <time>2025-06-29T11:24:05.000Z</time>
      </trkpt>
      <trkpt lat="42.469733" lon="-8.641084">
        <ele>56.470841</ele>
        <time>2025-06-29T11:24:15.000Z</time>
      </trkpt>
      <trkpt lat="42.469882" lon="-8.640843">
        <ele>56.367305</ele>
        <time>2025-06-29T11:24:18.000Z</time>
      </trkpt>
      <trkpt lat="42.470097" lon="-8.640399">
        <ele>56.184053</ele>
        <time>2025-06-29T11:24:22.000Z</time>
      </trkpt>
      <trkpt lat="42.470444" lon="-8.639769">
        <ele>55.915215</ele>
        <time>2025-06-29T11:24:28.000Z</time>
      </trkpt>
      <trkpt lat="42.470662" lon="-8.639261">
        <ele>55.707945</ele>
        <time>2025-06-29T11:24:33.000Z</time>
      </trkpt>
      <trkpt lat="42.470785" lon="-8.638982">
        <ele>55.231043</ele>
        <time>2025-06-29T11:24:36.000Z</time>
      </trkpt>
      <trkpt lat="42.471003" lon="-8.638625">
        <ele>54.179638</ele>
        <time>2025-06-29T11:24:40.000Z</time>
      </trkpt>
      <trkpt lat="42.47114" lon="-8.638519">
        <ele>53.696561</ele>
        <time>2025-06-29T11:24:42.000Z</time>
      </trkpt>
      <trkpt lat="42.471277" lon="-8.638393">
        <ele>53.183596</ele>
        <time>2025-06-29T11:24:44.000Z</time>
      </trkpt>
      <trkpt lat="42.471617" lon="-8.638174">
        <ele>51.972407</ele>
        <time>2025-06-29T11:24:48.000Z</time>
      </trkpt>
      <trkpt lat="42.471856" lon="-8.638133">
        <ele>51.237497</ele>
        <time>2025-06-29T11:24:51.000Z</time>
      </trkpt>
      <trkpt lat="42.471937" lon="-8.638116">
        <ele>50.965756</ele>
        <time>2025-06-29T11:24:52.000Z</time>
      </trkpt>
      <trkpt lat="42.472199" lon="-8.638162">
        <ele>50.145604</ele>
        <time>2025-06-29T11:24:55.000Z</time>
      </trkpt>
      <trkpt lat="42.47252" lon="-8.638282">
        <ele>50.750787</ele>
        <time>2025-06-29T11:24:59.000Z</time>
      </trkpt>
      <trkpt lat="42.472763" lon="-8.638451">
        <ele>51.401703</ele>
        <time>2025-06-29T11:25:02.000Z</time>
      </trkpt>
      <trkpt lat="42.472987" lon="-8.638695">
        <ele>52.098643</ele>
        <time>2025-06-29T11:25:05.000Z</time>
      </trkpt>
      <trkpt lat="42.47316" lon="-8.638936">
        <ele>52.675516</ele>
        <time>2025-06-29T11:25:08.000Z</time>
      </trkpt>
      <trkpt lat="42.473251" lon="-8.63912">
        <ele>53.078764</ele>
        <time>2025-06-29T11:25:10.000Z</time>
      </trkpt>
      <trkpt lat="42.473343" lon="-8.639437">
        <ele>53.676946</ele>
        <time>2025-06-29T11:25:13.000Z</time>
      </trkpt>
      <trkpt lat="42.47343" lon="-8.639983">
        <ele>54.989052</ele>
        <time>2025-06-29T11:25:18.000Z</time>
      </trkpt>
      <trkpt lat="42.473454" lon="-8.640311">
        <ele>56.17395</ele>
        <time>2025-06-29T11:25:21.000Z</time>
      </trkpt>
      <trkpt lat="42.473464" lon="-8.64058">
        <ele>57.202818</ele>
        <time>2025-06-29T11:25:23.000Z</time>
      </trkpt>
      <trkpt lat="42.473593" lon="-8.641918">
        <ele>62.033421</ele>
        <time>2025-06-29T11:25:34.000Z</time>
      </trkpt>
      <trkpt lat="42.4738" lon="-8.642702">
        <ele>64.114597</ele>
        <time>2025-06-29T11:25:41.000Z</time>
      </trkpt>
      <trkpt lat="42.473823" lon="-8.642801">
        <ele>64.316698</ele>
        <time>2025-06-29T11:25:42.000Z</time>
      </trkpt>
      <trkpt lat="42.47385" lon="-8.642971">
        <ele>64.621024</ele>
        <time>2025-06-29T11:25:43.000Z</time>
      </trkpt>
      <trkpt lat="42.47424" lon="-8.644146">
        <ele>66.931521</ele>
        <time>2025-06-29T11:25:54.000Z</time>
      </trkpt>
      <trkpt lat="42.474412" lon="-8.644458">
        <ele>67.645493</ele>
        <time>2025-06-29T11:25:57.000Z</time>
      </trkpt>
      <trkpt lat="42.474467" lon="-8.644556">
        <ele>68.113546</ele>
        <time>2025-06-29T11:25:58.000Z</time>
      </trkpt>
      <trkpt lat="42.474767" lon="-8.644924">
        <ele>70.120013</ele>
        <time>2025-06-29T11:26:03.000Z</time>
      </trkpt>
      <trkpt lat="42.475036" lon="-8.645094">
        <ele>71.504701</ele>
        <time>2025-06-29T11:26:06.000Z</time>
      </trkpt>
      <trkpt lat="42.475287" lon="-8.645234">
        <ele>72.839026</ele>
        <time>2025-06-29T11:26:09.000Z</time>
      </trkpt>
      <trkpt lat="42.475703" lon="-8.64527">
        <ele>74.86657</ele>
        <time>2025-06-29T11:26:14.000Z</time>
      </trkpt>
      <trkpt lat="42.475767" lon="-8.645253">
        <ele>75.200987</ele>
        <time>2025-06-29T11:26:15.000Z</time>
      </trkpt>
      <trkpt lat="42.476081" lon="-8.64512">
        <ele>77.315101</ele>
        <time>2025-06-29T11:26:19.000Z</time>
      </trkpt>
      <trkpt lat="42.476476" lon="-8.644796">
        <ele>81.519118</ele>
        <time>2025-06-29T11:26:24.000Z</time>
      </trkpt>
      <trkpt lat="42.476619" lon="-8.644681">
        <ele>82.932879</ele>
        <time>2025-06-29T11:26:26.000Z</time>
      </trkpt>
      <trkpt lat="42.477471" lon="-8.643807">
        <ele>92.736652</ele>
        <time>2025-06-29T11:26:38.000Z</time>
      </trkpt>
      <trkpt lat="42.477546" lon="-8.643721">
        <ele>93.498269</ele>
        <time>2025-06-29T11:26:39.000Z</time>
      </trkpt>
      <trkpt lat="42.477891" lon="-8.643309">
        <ele>97.27954</ele>
        <time>2025-06-29T11:26:44.000Z</time>
      </trkpt>
      <trkpt lat="42.478258" lon="-8.64296">
        <ele>100.996139</ele>
        <time>2025-06-29T11:26:49.000Z</time>
      </trkpt>
      <trkpt lat="42.478611" lon="-8.64259">
        <ele>104.715718</ele>
        <time>2025-06-29T11:26:54.000Z</time>
      </trkpt>
      <trkpt lat="42.478881" lon="-8.642411">
        <ele>107.119392</ele>
        <time>2025-06-29T11:26:57.000Z</time>
      </trkpt>
      <trkpt lat="42.479178" lon="-8.642312">
        <ele>108.891037</ele>
        <time>2025-06-29T11:27:00.000Z</time>
      </trkpt>
      <trkpt lat="42.479706" lon="-8.642282">
        <ele>111.51591</ele>
        <time>2025-06-29T11:27:06.000Z</time>
      </trkpt>
      <trkpt lat="42.480241" lon="-8.642166">
        <ele>114.301852</ele>
        <time>2025-06-29T11:27:12.000Z</time>
      </trkpt>
      <trkpt lat="42.480634" lon="-8.641991">
        <ele>116.360109</ele>
        <time>2025-06-29T11:27:17.000Z</time>
      </trkpt>
      <trkpt lat="42.481203" lon="-8.641709">
        <ele>119.095623</ele>
        <time>2025-06-29T11:27:24.000Z</time>
      </trkpt>
      <trkpt lat="42.481625" lon="-8.641641">
        <ele>120.988282</ele>
        <time>2025-06-29T11:27:29.000Z</time>
      </trkpt>
      <trkpt lat="42.48187" lon="-8.641592">
        <ele>122.150131</ele>
        <time>2025-06-29T11:27:32.000Z</time>
      </trkpt>
      <trkpt lat="42.482228" lon="-8.641673">
        <ele>123.777581</ele>
        <time>2025-06-29T11:27:36.000Z</time>
      </trkpt>
      <trkpt lat="42.482488" lon="-8.641757">
        <ele>125.036722</ele>
        <time>2025-06-29T11:27:39.000Z</time>
      </trkpt>
      <trkpt lat="42.482688" lon="-8.641883">
        <ele>126.226961</ele>
        <time>2025-06-29T11:27:41.000Z</time>
      </trkpt>
      <trkpt lat="42.482989" lon="-8.642102">
        <ele>128.040275</ele>
        <time>2025-06-29T11:27:45.000Z</time>
      </trkpt>
      <trkpt lat="42.48321" lon="-8.642358">
        <ele>129.65888</ele>
        <time>2025-06-29T11:27:48.000Z</time>
      </trkpt>
      <trkpt lat="42.483268" lon="-8.64248">
        <ele>130.270293</ele>
        <time>2025-06-29T11:27:49.000Z</time>
      </trkpt>
      <trkpt lat="42.483281" lon="-8.6425">
        <ele>130.317611</ele>
        <time>2025-06-29T11:27:49.000Z</time>
      </trkpt>
      <trkpt lat="42.483703" lon="-8.642965">
        <ele>133.339846</ele>
        <time>2025-06-29T11:27:55.000Z</time>
      </trkpt>
      <trkpt lat="42.484107" lon="-8.643256">
        <ele>136.262665</ele>
        <time>2025-06-29T11:28:00.000Z</time>
      </trkpt>
      <trkpt lat="42.484384" lon="-8.643321">
        <ele>138.36983</ele>
        <time>2025-06-29T11:28:03.000Z</time>
      </trkpt>
      <trkpt lat="42.484658" lon="-8.643393">
        <ele>140.476983</ele>
        <time>2025-06-29T11:28:06.000Z</time>
      </trkpt>
      <trkpt lat="42.485298" lon="-8.643373">
        <ele>145.229848</ele>
        <time>2025-06-29T11:28:13.000Z</time>
      </trkpt>
      <trkpt lat="42.485939" lon="-8.643349">
        <ele>149.352091</ele>
        <time>2025-06-29T11:28:20.000Z</time>
      </trkpt>
      <trkpt lat="42.486495" lon="-8.643194">
        <ele>152.279813</ele>
        <time>2025-06-29T11:28:26.000Z</time>
      </trkpt>
      <trkpt lat="42.486875" lon="-8.642961">
        <ele>154.492019</ele>
        <time>2025-06-29T11:28:31.000Z</time>
      </trkpt>
      <trkpt lat="42.487231" lon="-8.64269">
        <ele>156.676553</ele>
        <time>2025-06-29T11:28:36.000Z</time>
      </trkpt>
      <trkpt lat="42.488133" lon="-8.641844">
        <ele>158.786881</ele>
        <time>2025-06-29T11:28:48.000Z</time>
      </trkpt>
      <trkpt lat="42.488847" lon="-8.641102">
        <ele>160.053068</ele>
        <time>2025-06-29T11:28:58.000Z</time>
      </trkpt>
      <trkpt lat="42.489288" lon="-8.640765">
        <ele>160.338228</ele>
        <time>2025-06-29T11:29:04.000Z</time>
      </trkpt>
      <trkpt lat="42.489523" lon="-8.640642">
        <ele>160.47512</ele>
        <time>2025-06-29T11:29:07.000Z</time>
      </trkpt>
      <trkpt lat="42.489781" lon="-8.640557">
        <ele>160.627205</ele>
        <time>2025-06-29T11:29:10.000Z</time>
      </trkpt>
      <trkpt lat="42.48997" lon="-8.640507">
        <ele>160.730913</ele>
        <time>2025-06-29T11:29:12.000Z</time>
      </trkpt>
      <trkpt lat="42.490466" lon="-8.640473">
        <ele>161.005841</ele>
        <time>2025-06-29T11:29:18.000Z</time>
      </trkpt>
      <trkpt lat="42.492052" lon="-8.640618">
        <ele>163.240083</ele>
        <time>2025-06-29T11:29:36.000Z</time>
      </trkpt>
      <trkpt lat="42.494581" lon="-8.64079">
        <ele>166.304508</ele>
        <time>2025-06-29T11:30:04.000Z</time>
      </trkpt>
      <trkpt lat="42.494905" lon="-8.640692">
        <ele>166.789835</ele>
        <time>2025-06-29T11:30:08.000Z</time>
      </trkpt>
      <trkpt lat="42.495203" lon="-8.640484">
        <ele>167.297234</ele>
        <time>2025-06-29T11:30:12.000Z</time>
      </trkpt>
      <trkpt lat="42.495681" lon="-8.639862">
        <ele>168.148136</ele>
        <time>2025-06-29T11:30:19.000Z</time>
      </trkpt>
      <trkpt lat="42.495823" lon="-8.639678">
        <ele>168.02056</ele>
        <time>2025-06-29T11:30:21.000Z</time>
      </trkpt>
      <trkpt lat="42.496166" lon="-8.639395">
        <ele>167.762034</ele>
        <time>2025-06-29T11:30:25.000Z</time>
      </trkpt>
      <trkpt lat="42.496401" lon="-8.639245">
        <ele>167.593233</ele>
        <time>2025-06-29T11:30:28.000Z</time>
      </trkpt>
      <trkpt lat="42.496734" lon="-8.639218">
        <ele>167.378128</ele>
        <time>2025-06-29T11:30:32.000Z</time>
      </trkpt>
      <trkpt lat="42.49711" lon="-8.639297">
        <ele>167.123515</ele>
        <time>2025-06-29T11:30:36.000Z</time>
      </trkpt>
      <trkpt lat="42.497441" lon="-8.639508">
        <ele>167.014735</ele>
        <time>2025-06-29T11:30:40.000Z</time>
      </trkpt>
      <trkpt lat="42.497571" lon="-8.639604">
        <ele>167.013529</ele>
        <time>2025-06-29T11:30:42.000Z</time>
      </trkpt>
      <trkpt lat="42.497664" lon="-8.639698">
        <ele>167.012573</ele>
        <time>2025-06-29T11:30:43.000Z</time>
      </trkpt>
      <trkpt lat="42.498536" lon="-8.640915">
        <ele>167.002751</ele>
        <time>2025-06-29T11:30:57.000Z</time>
      </trkpt>
      <trkpt lat="42.498702" lon="-8.641099">
        <ele>166.742251</ele>
        <time>2025-06-29T11:30:59.000Z</time>
      </trkpt>
      <trkpt lat="42.498881" lon="-8.641275">
        <ele>166.312138</ele>
        <time>2025-06-29T11:31:01.000Z</time>
      </trkpt>
      <trkpt lat="42.49908" lon="-8.641414">
        <ele>165.880615</ele>
        <time>2025-06-29T11:31:03.000Z</time>
      </trkpt>
      <trkpt lat="42.49928" lon="-8.641571">
        <ele>165.450812</ele>
        <time>2025-06-29T11:31:06.000Z</time>
      </trkpt>
      <trkpt lat="42.499728" lon="-8.641764">
        <ele>164.53051</ele>
        <time>2025-06-29T11:31:11.000Z</time>
      </trkpt>
      <trkpt lat="42.500125" lon="-8.641859">
        <ele>163.721385</ele>
        <time>2025-06-29T11:31:15.000Z</time>
      </trkpt>
      <trkpt lat="42.502637" lon="-8.641786">
        <ele>158.944458</ele>
        <time>2025-06-29T11:31:43.000Z</time>
      </trkpt>
      <trkpt lat="42.502904" lon="-8.641858">
        <ele>158.534179</ele>
        <time>2025-06-29T11:31:46.000Z</time>
      </trkpt>
      <trkpt lat="42.503168" lon="-8.641969">
        <ele>158.095544</ele>
        <time>2025-06-29T11:31:49.000Z</time>
      </trkpt>
      <trkpt lat="42.503418" lon="-8.642158">
        <ele>157.643178</ele>
        <time>2025-06-29T11:31:52.000Z</time>
      </trkpt>
      <trkpt lat="42.503605" lon="-8.642322">
        <ele>157.280478</ele>
        <time>2025-06-29T11:31:54.000Z</time>
      </trkpt>
      <trkpt lat="42.504131" lon="-8.642775">
        <ele>157.370585</ele>
        <time>2025-06-29T11:32:01.000Z</time>
      </trkpt>
      <trkpt lat="42.504542" lon="-8.643013">
        <ele>157.671385</ele>
        <time>2025-06-29T11:32:06.000Z</time>
      </trkpt>
      <trkpt lat="42.50528" lon="-8.643298">
        <ele>158.178918</ele>
        <time>2025-06-29T11:32:15.000Z</time>
      </trkpt>
      <trkpt lat="42.505643" lon="-8.643438">
        <ele>159.044618</ele>
        <time>2025-06-29T11:32:19.000Z</time>
      </trkpt>
      <trkpt lat="42.507183" lon="-8.644021">
        <ele>163.676246</ele>
        <time>2025-06-29T11:32:37.000Z</time>
      </trkpt>
      <trkpt lat="42.507187" lon="-8.64382">
        <ele>164.175683</ele>
        <time>2025-06-29T11:32:39.000Z</time>
      </trkpt>
      <trkpt lat="42.507182" lon="-8.643588">
        <ele>164.733683</ele>
        <time>2025-06-29T11:32:41.000Z</time>
      </trkpt>
      <trkpt lat="42.507098" lon="-8.643355">
        <ele>165.372292</ele>
        <time>2025-06-29T11:32:43.000Z</time>
      </trkpt>
      <trkpt lat="42.506992" lon="-8.643286">
        <ele>165.743257</ele>
        <time>2025-06-29T11:32:44.000Z</time>
      </trkpt>
      <trkpt lat="42.506511" lon="-8.643054">
        <ele>167.463182</ele>
        <time>2025-06-29T11:32:50.000Z</time>
      </trkpt>
      <trkpt lat="42.506311" lon="-8.643">
        <ele>168.137313</ele>
        <time>2025-06-29T11:32:52.000Z</time>
      </trkpt>
      <trkpt lat="42.505842" lon="-8.642904">
        <ele>169.779457</ele>
        <time>2025-06-29T11:32:57.000Z</time>
      </trkpt>
      <trkpt lat="42.505355" lon="-8.642734">
        <ele>171.918396</ele>
        <time>2025-06-29T11:33:03.000Z</time>
      </trkpt>
      <trkpt lat="42.504963" lon="-8.642545">
        <ele>173.686324</ele>
        <time>2025-06-29T11:33:08.000Z</time>
      </trkpt>
      <trkpt lat="42.504732" lon="-8.642398">
        <ele>174.729207</ele>
        <time>2025-06-29T11:33:11.000Z</time>
      </trkpt>
      <trkpt lat="42.504538" lon="-8.642169">
        <ele>175.833459</ele>
        <time>2025-06-29T11:33:14.000Z</time>
      </trkpt>
      <trkpt lat="42.504334" lon="-8.641774">
        <ele>177.535352</ele>
        <time>2025-06-29T11:33:18.000Z</time>
      </trkpt>
      <trkpt lat="42.504004" lon="-8.640768">
        <ele>183.590903</ele>
        <time>2025-06-29T11:33:27.000Z</time>
      </trkpt>
      <trkpt lat="42.503831" lon="-8.64034">
        <ele>186.259851</ele>
        <time>2025-06-29T11:33:31.000Z</time>
      </trkpt>
      <trkpt lat="42.503574" lon="-8.639815">
        <ele>189.733215</ele>
        <time>2025-06-29T11:33:36.000Z</time>
      </trkpt>
      <trkpt lat="42.50289" lon="-8.638638">
        <ele>198.441505</ele>
        <time>2025-06-29T11:33:48.000Z</time>
      </trkpt>
      <trkpt lat="42.502738" lon="-8.638196">
        <ele>201.347391</ele>
        <time>2025-06-29T11:33:52.000Z</time>
      </trkpt>
      <trkpt lat="42.502579" lon="-8.637635">
        <ele>204.777555</ele>
        <time>2025-06-29T11:33:57.000Z</time>
      </trkpt>
      <trkpt lat="42.502487" lon="-8.637469">
        <ele>205.434698</ele>
        <time>2025-06-29T11:33:59.000Z</time>
      </trkpt>
      <trkpt lat="42.501897" lon="-8.636859">
        <ele>208.476905</ele>
        <time>2025-06-29T11:34:07.000Z</time>
      </trkpt>
      <trkpt lat="42.501339" lon="-8.636562">
        <ele>210.91792</ele>
        <time>2025-06-29T11:34:14.000Z</time>
      </trkpt>
      <trkpt lat="42.501274" lon="-8.636494">
        <ele>211.240407</ele>
        <time>2025-06-29T11:34:15.000Z</time>
      </trkpt>
      <trkpt lat="42.50121" lon="-8.63637">
        <ele>211.744205</ele>
        <time>2025-06-29T11:34:16.000Z</time>
      </trkpt>
      <trkpt lat="42.501138" lon="-8.636107">
        <ele>212.15072</ele>
        <time>2025-06-29T11:34:18.000Z</time>
      </trkpt>
      <trkpt lat="42.500849" lon="-8.634224">
        <ele>212.287209</ele>
        <time>2025-06-29T11:34:34.000Z</time>
      </trkpt>
      <trkpt lat="42.500803" lon="-8.634045">
        <ele>212.300153</ele>
        <time>2025-06-29T11:34:36.000Z</time>
      </trkpt>
      <trkpt lat="42.500735" lon="-8.633934">
        <ele>212.311212</ele>
        <time>2025-06-29T11:34:37.000Z</time>
      </trkpt>
      <trkpt lat="42.500544" lon="-8.633758">
        <ele>212.679158</ele>
        <time>2025-06-29T11:34:40.000Z</time>
      </trkpt>
      <trkpt lat="42.500031" lon="-8.63336">
        <ele>213.816381</ele>
        <time>2025-06-29T11:34:47.000Z</time>
      </trkpt>
      <trkpt lat="42.499789" lon="-8.633052">
        <ele>214.445032</ele>
        <time>2025-06-29T11:34:51.000Z</time>
      </trkpt>
      <trkpt lat="42.499514" lon="-8.632814">
        <ele>215.064912</ele>
        <time>2025-06-29T11:34:55.000Z</time>
      </trkpt>
      <trkpt lat="42.499118" lon="-8.632666">
        <ele>215.864208</ele>
        <time>2025-06-29T11:35:00.000Z</time>
      </trkpt>
      <trkpt lat="42.498875" lon="-8.632499">
        <ele>216.607718</ele>
        <time>2025-06-29T11:35:03.000Z</time>
      </trkpt>
      <trkpt lat="42.498496" lon="-8.632119">
        <ele>217.872882</ele>
        <time>2025-06-29T11:35:08.000Z</time>
      </trkpt>
      <trkpt lat="42.498038" lon="-8.631823">
        <ele>219.246427</ele>
        <time>2025-06-29T11:35:14.000Z</time>
      </trkpt>
      <trkpt lat="42.497872" lon="-8.631657">
        <ele>219.788319</ele>
        <time>2025-06-29T11:35:16.000Z</time>
      </trkpt>
      <trkpt lat="42.497713" lon="-8.631259">
        <ele>220.432958</ele>
        <time>2025-06-29T11:35:20.000Z</time>
      </trkpt>
      <trkpt lat="42.497882" lon="-8.631664">
        <ele>219.592705</ele>
        <time>2025-06-29T11:35:24.000Z</time>
      </trkpt>
      <trkpt lat="42.49804" lon="-8.631832">
        <ele>219.090423</ele>
        <time>2025-06-29T11:35:26.000Z</time>
      </trkpt>
      <trkpt lat="42.498503" lon="-8.632117">
        <ele>217.817259</ele>
        <time>2025-06-29T11:35:32.000Z</time>
      </trkpt>
      <trkpt lat="42.498875" lon="-8.6325">
        <ele>216.644522</ele>
        <time>2025-06-29T11:35:37.000Z</time>
      </trkpt>
      <trkpt lat="42.499129" lon="-8.63266">
        <ele>215.976148</ele>
        <time>2025-06-29T11:35:40.000Z</time>
      </trkpt>
      <trkpt lat="42.499503" lon="-8.632808">
        <ele>215.147424</ele>
        <time>2025-06-29T11:35:44.000Z</time>
      </trkpt>
      <trkpt lat="42.499792" lon="-8.633045">
        <ele>214.470341</ele>
        <time>2025-06-29T11:35:48.000Z</time>
      </trkpt>
      <trkpt lat="42.500027" lon="-8.633356">
        <ele>213.78366</ele>
        <time>2025-06-29T11:35:52.000Z</time>
      </trkpt>
      <trkpt lat="42.500555" lon="-8.633757">
        <ele>212.541492</ele>
        <time>2025-06-29T11:35:59.000Z</time>
      </trkpt>
      <trkpt lat="42.500734" lon="-8.633931">
        <ele>212.342864</ele>
        <time>2025-06-29T11:36:01.000Z</time>
      </trkpt>
      <trkpt lat="42.500802" lon="-8.634053">
        <ele>212.334701</ele>
        <time>2025-06-29T11:36:02.000Z</time>
      </trkpt>
      <trkpt lat="42.500835" lon="-8.634221">
        <ele>212.325144</ele>
        <time>2025-06-29T11:36:03.000Z</time>
      </trkpt>
      <trkpt lat="42.501135" lon="-8.636108">
        <ele>212.224312</ele>
        <time>2025-06-29T11:36:19.000Z</time>
      </trkpt>
      <trkpt lat="42.50121" lon="-8.63636">
        <ele>211.481915</ele>
        <time>2025-06-29T11:36:21.000Z</time>
      </trkpt>
      <trkpt lat="42.501274" lon="-8.636493">
        <ele>211.021029</ele>
        <time>2025-06-29T11:36:22.000Z</time>
      </trkpt>
      <trkpt lat="42.501352" lon="-8.636561">
        <ele>210.726006</ele>
        <time>2025-06-29T11:36:23.000Z</time>
      </trkpt>
      <trkpt lat="42.501894" lon="-8.636865">
        <ele>208.492907</ele>
        <time>2025-06-29T11:36:30.000Z</time>
      </trkpt>
      <trkpt lat="42.50249" lon="-8.63746">
        <ele>205.709796</ele>
        <time>2025-06-29T11:36:38.000Z</time>
      </trkpt>
      <trkpt lat="42.50259" lon="-8.637643">
        <ele>204.701855</ele>
        <time>2025-06-29T11:36:40.000Z</time>
      </trkpt>
      <trkpt lat="42.502726" lon="-8.638186">
        <ele>201.285469</ele>
        <time>2025-06-29T11:36:45.000Z</time>
      </trkpt>
      <trkpt lat="42.502904" lon="-8.638627">
        <ele>198.400478</ele>
        <time>2025-06-29T11:36:49.000Z</time>
      </trkpt>
      <trkpt lat="42.503569" lon="-8.639818">
        <ele>189.773006</ele>
        <time>2025-06-29T11:37:01.000Z</time>
      </trkpt>
      <trkpt lat="42.503833" lon="-8.64035">
        <ele>186.255768</ele>
        <time>2025-06-29T11:37:06.000Z</time>
      </trkpt>
      <trkpt lat="42.503992" lon="-8.640756">
        <ele>183.55314</ele>
        <time>2025-06-29T11:37:10.000Z</time>
      </trkpt>
      <trkpt lat="42.504334" lon="-8.641764">
        <ele>177.529924</ele>
        <time>2025-06-29T11:37:19.000Z</time>
      </trkpt>
      <trkpt lat="42.504535" lon="-8.642156">
        <ele>175.980194</ele>
        <time>2025-06-29T11:37:23.000Z</time>
      </trkpt>
      <trkpt lat="42.50474" lon="-8.642389">
        <ele>174.826841</ele>
        <time>2025-06-29T11:37:26.000Z</time>
      </trkpt>
      <trkpt lat="42.504948" lon="-8.642543">
        <ele>173.737576</ele>
        <time>2025-06-29T11:37:29.000Z</time>
      </trkpt>
      <trkpt lat="42.505349" lon="-8.642733">
        <ele>171.891057</ele>
        <time>2025-06-29T11:37:34.000Z</time>
      </trkpt>
      <trkpt lat="42.505847" lon="-8.6429">
        <ele>169.705331</ele>
        <time>2025-06-29T11:37:40.000Z</time>
      </trkpt>
      <trkpt lat="42.50632" lon="-8.642992">
        <ele>168.457661</ele>
        <time>2025-06-29T11:37:45.000Z</time>
      </trkpt>
      <trkpt lat="42.506513" lon="-8.643059">
        <ele>167.924536</ele>
        <time>2025-06-29T11:37:47.000Z</time>
      </trkpt>
      <trkpt lat="42.506998" lon="-8.643283">
        <ele>166.56441</ele>
        <time>2025-06-29T11:37:53.000Z</time>
      </trkpt>
      <trkpt lat="42.507092" lon="-8.643359">
        <ele>166.271046</ele>
        <time>2025-06-29T11:37:54.000Z</time>
      </trkpt>
      <trkpt lat="42.507181" lon="-8.643598">
        <ele>165.766026</ele>
        <time>2025-06-29T11:37:56.000Z</time>
      </trkpt>
      <trkpt lat="42.507205" lon="-8.643809">
        <ele>165.32476</ele>
        <time>2025-06-29T11:37:58.000Z</time>
      </trkpt>
      <trkpt lat="42.507173" lon="-8.64402">
        <ele>164.945139</ele>
        <time>2025-06-29T11:38:00.000Z</time>
      </trkpt>
      <trkpt lat="42.50763" lon="-8.644142">
        <ele>163.914925</ele>
        <time>2025-06-29T11:38:05.000Z</time>
      </trkpt>
      <trkpt lat="42.508075" lon="-8.644187">
        <ele>162.902411</ele>
        <time>2025-06-29T11:38:10.000Z</time>
      </trkpt>
      <trkpt lat="42.508487" lon="-8.644137">
        <ele>161.955131</ele>
        <time>2025-06-29T11:38:15.000Z</time>
      </trkpt>
      <trkpt lat="42.509127" lon="-8.644007">
        <ele>160.120534</ele>
        <time>2025-06-29T11:38:22.000Z</time>
      </trkpt>
      <trkpt lat="42.509417" lon="-8.64388">
        <ele>158.967346</ele>
        <time>2025-06-29T11:38:25.000Z</time>
      </trkpt>
      <trkpt lat="42.50967" lon="-8.64369">
        <ele>157.837808</ele>
        <time>2025-06-29T11:38:28.000Z</time>
      </trkpt>
      <trkpt lat="42.510509" lon="-8.642763">
        <ele>153.196716</ele>
        <time>2025-06-29T11:38:40.000Z</time>
      </trkpt>
      <trkpt lat="42.510938" lon="-8.64253">
        <ele>149.772147</ele>
        <time>2025-06-29T11:38:45.000Z</time>
      </trkpt>
      <trkpt lat="42.511134" lon="-8.6425">
        <ele>148.128466</ele>
        <time>2025-06-29T11:38:47.000Z</time>
      </trkpt>
      <trkpt lat="42.511285" lon="-8.642465">
        <ele>147.025091</ele>
        <time>2025-06-29T11:38:49.000Z</time>
      </trkpt>
      <trkpt lat="42.511851" lon="-8.642547">
        <ele>142.726387</ele>
        <time>2025-06-29T11:38:55.000Z</time>
      </trkpt>
      <trkpt lat="42.512642" lon="-8.642755">
        <ele>137.002598</ele>
        <time>2025-06-29T11:39:04.000Z</time>
      </trkpt>
      <trkpt lat="42.513366" lon="-8.642875">
        <ele>132.220739</ele>
        <time>2025-06-29T11:39:12.000Z</time>
      </trkpt>
      <trkpt lat="42.514206" lon="-8.642799">
        <ele>127.638407</ele>
        <time>2025-06-29T11:39:21.000Z</time>
      </trkpt>
      <trkpt lat="42.514646" lon="-8.64266">
        <ele>126.260032</ele>
        <time>2025-06-29T11:39:26.000Z</time>
      </trkpt>
      <trkpt lat="42.515083" lon="-8.642478">
        <ele>124.890155</ele>
        <time>2025-06-29T11:39:31.000Z</time>
      </trkpt>
      <trkpt lat="42.515527" lon="-8.642221">
        <ele>123.381087</ele>
        <time>2025-06-29T11:39:36.000Z</time>
      </trkpt>
      <trkpt lat="42.515808" lon="-8.642017">
        <ele>122.108333</ele>
        <time>2025-06-29T11:39:40.000Z</time>
      </trkpt>
      <trkpt lat="42.516153" lon="-8.641666">
        <ele>120.076162</ele>
        <time>2025-06-29T11:39:45.000Z</time>
      </trkpt>
      <trkpt lat="42.517877" lon="-8.63964">
        <ele>110.114998</ele>
        <time>2025-06-29T11:40:10.000Z</time>
      </trkpt>
      <trkpt lat="42.518231" lon="-8.639204">
        <ele>108.299989</ele>
        <time>2025-06-29T11:40:15.000Z</time>
      </trkpt>
      <trkpt lat="42.518607" lon="-8.63882">
        <ele>107.90305</ele>
        <time>2025-06-29T11:40:20.000Z</time>
      </trkpt>
      <trkpt lat="42.51823" lon="-8.63922">
        <ele>109.093078</ele>
        <time>2025-06-29T11:40:25.000Z</time>
      </trkpt>
      <trkpt lat="42.517874" lon="-8.639637">
        <ele>110.277578</ele>
        <time>2025-06-29T11:40:30.000Z</time>
      </trkpt>
      <trkpt lat="42.516155" lon="-8.641673">
        <ele>120.393531</ele>
        <time>2025-06-29T11:40:55.000Z</time>
      </trkpt>
      <trkpt lat="42.515806" lon="-8.642005">
        <ele>121.997698</ele>
        <time>2025-06-29T11:41:00.000Z</time>
      </trkpt>
      <trkpt lat="42.515527" lon="-8.64221">
        <ele>123.022102</ele>
        <time>2025-06-29T11:41:04.000Z</time>
      </trkpt>
      <trkpt lat="42.515072" lon="-8.642494">
        <ele>124.598587</ele>
        <time>2025-06-29T11:41:10.000Z</time>
      </trkpt>
      <trkpt lat="42.514645" lon="-8.64267">
        <ele>126.029653</ele>
        <time>2025-06-29T11:41:15.000Z</time>
      </trkpt>
      <trkpt lat="42.514199" lon="-8.642796">
        <ele>127.921091</ele>
        <time>2025-06-29T11:41:20.000Z</time>
      </trkpt>
      <trkpt lat="42.513366" lon="-8.64288">
        <ele>132.396295</ele>
        <time>2025-06-29T11:41:29.000Z</time>
      </trkpt>
      <trkpt lat="42.512651" lon="-8.642762">
        <ele>136.32974</ele>
        <time>2025-06-29T11:41:37.000Z</time>
      </trkpt>
      <trkpt lat="42.511846" lon="-8.642553">
        <ele>142.864453</ele>
        <time>2025-06-29T11:41:46.000Z</time>
      </trkpt>
      <trkpt lat="42.511291" lon="-8.642461">
        <ele>147.411625</ele>
        <time>2025-06-29T11:41:52.000Z</time>
      </trkpt>
      <trkpt lat="42.511138" lon="-8.642496">
        <ele>148.578761</ele>
        <time>2025-06-29T11:41:54.000Z</time>
      </trkpt>
      <trkpt lat="42.510924" lon="-8.642529">
        <ele>150.317461</ele>
        <time>2025-06-29T11:41:56.000Z</time>
      </trkpt>
      <trkpt lat="42.510513" lon="-8.64277">
        <ele>152.760556</ele>
        <time>2025-06-29T11:42:01.000Z</time>
      </trkpt>
      <trkpt lat="42.50966" lon="-8.643697">
        <ele>158.004446</ele>
        <time>2025-06-29T11:42:13.000Z</time>
      </trkpt>
      <trkpt lat="42.509407" lon="-8.643896">
        <ele>159.384079</ele>
        <time>2025-06-29T11:42:16.000Z</time>
      </trkpt>
      <trkpt lat="42.509126" lon="-8.644007">
        <ele>160.033298</ele>
        <time>2025-06-29T11:42:19.000Z</time>
      </trkpt>
      <trkpt lat="42.508487" lon="-8.644149">
        <ele>161.049563</ele>
        <time>2025-06-29T11:42:26.000Z</time>
      </trkpt>
      <trkpt lat="42.508077" lon="-8.644179">
        <ele>161.7025</ele>
        <time>2025-06-29T11:42:31.000Z</time>
      </trkpt>
      <trkpt lat="42.507616" lon="-8.644145">
        <ele>162.400427</ele>
        <time>2025-06-29T11:42:36.000Z</time>
      </trkpt>
      <trkpt lat="42.507443" lon="-8.6441">
        <ele>162.214276</ele>
        <time>2025-06-29T11:42:38.000Z</time>
      </trkpt>
      <trkpt lat="42.50718" lon="-8.644027">
        <ele>161.70991</ele>
        <time>2025-06-29T11:42:41.000Z</time>
      </trkpt>
      <trkpt lat="42.505654" lon="-8.643437">
        <ele>158.882985</ele>
        <time>2025-06-29T11:42:59.000Z</time>
      </trkpt>
      <trkpt lat="42.505284" lon="-8.643287">
        <ele>158.396</ele>
        <time>2025-06-29T11:43:03.000Z</time>
      </trkpt>
      <trkpt lat="42.504545" lon="-8.643009">
        <ele>157.424977</ele>
        <time>2025-06-29T11:43:12.000Z</time>
      </trkpt>
      <trkpt lat="42.504125" lon="-8.642779">
        <ele>156.849467</ele>
        <time>2025-06-29T11:43:17.000Z</time>
      </trkpt>
      <trkpt lat="42.503614" lon="-8.642333">
        <ele>157.578775</ele>
        <time>2025-06-29T11:43:24.000Z</time>
      </trkpt>
      <trkpt lat="42.503428" lon="-8.642153">
        <ele>157.855253</ele>
        <time>2025-06-29T11:43:27.000Z</time>
      </trkpt>
      <trkpt lat="42.503161" lon="-8.64197">
        <ele>158.200128</ele>
        <time>2025-06-29T11:43:30.000Z</time>
      </trkpt>
      <trkpt lat="42.502898" lon="-8.641852">
        <ele>158.534516</ele>
        <time>2025-06-29T11:43:33.000Z</time>
      </trkpt>
      <trkpt lat="42.502646" lon="-8.641787">
        <ele>158.847286</ele>
        <time>2025-06-29T11:43:36.000Z</time>
      </trkpt>
      <trkpt lat="42.500143" lon="-8.641842">
        <ele>163.767888</ele>
        <time>2025-06-29T11:44:04.000Z</time>
      </trkpt>
      <trkpt lat="42.49972" lon="-8.641769">
        <ele>164.686227</ele>
        <time>2025-06-29T11:44:09.000Z</time>
      </trkpt>
      <trkpt lat="42.499266" lon="-8.64157">
        <ele>165.730772</ele>
        <time>2025-06-29T11:44:14.000Z</time>
      </trkpt>
      <trkpt lat="42.499078" lon="-8.641429">
        <ele>166.218613</ele>
        <time>2025-06-29T11:44:16.000Z</time>
      </trkpt>
      <trkpt lat="42.498883" lon="-8.641284">
        <ele>166.482426</ele>
        <time>2025-06-29T11:44:18.000Z</time>
      </trkpt>
      <trkpt lat="42.49871" lon="-8.641092">
        <ele>166.54123</ele>
        <time>2025-06-29T11:44:20.000Z</time>
      </trkpt>
      <trkpt lat="42.498524" lon="-8.640917">
        <ele>166.600058</ele>
        <time>2025-06-29T11:44:23.000Z</time>
      </trkpt>
      <trkpt lat="42.497663" lon="-8.639716">
        <ele>166.934064</ele>
        <time>2025-06-29T11:44:37.000Z</time>
      </trkpt>
      <trkpt lat="42.497579" lon="-8.639591">
        <ele>167.01614</ele>
        <time>2025-06-29T11:44:38.000Z</time>
      </trkpt>
      <trkpt lat="42.497428" lon="-8.639503">
        <ele>167.120341</ele>
        <time>2025-06-29T11:44:40.000Z</time>
      </trkpt>
      <trkpt lat="42.497116" lon="-8.639286">
        <ele>167.36195</ele>
        <time>2025-06-29T11:44:44.000Z</time>
      </trkpt>
      <trkpt lat="42.496732" lon="-8.639223">
        <ele>167.62795</ele>
        <time>2025-06-29T11:44:48.000Z</time>
      </trkpt>
      <trkpt lat="42.496405" lon="-8.639242">
        <ele>167.8527</ele>
        <time>2025-06-29T11:44:52.000Z</time>
      </trkpt>
      <trkpt lat="42.49617" lon="-8.639385">
        <ele>168.029046</ele>
        <time>2025-06-29T11:44:55.000Z</time>
      </trkpt>
      <trkpt lat="42.495826" lon="-8.639676">
        <ele>167.926822</ele>
        <time>2025-06-29T11:45:00.000Z</time>
      </trkpt>
      <trkpt lat="42.495692" lon="-8.639869">
        <ele>167.724326</ele>
        <time>2025-06-29T11:45:02.000Z</time>
      </trkpt>
      <trkpt lat="42.495201" lon="-8.640482">
        <ele>167.040854</ele>
        <time>2025-06-29T11:45:09.000Z</time>
      </trkpt>
      <trkpt lat="42.494896" lon="-8.640698">
        <ele>166.683202</ele>
        <time>2025-06-29T11:45:13.000Z</time>
      </trkpt>
      <trkpt lat="42.494574" lon="-8.640791">
        <ele>166.341092</ele>
        <time>2025-06-29T11:45:17.000Z</time>
      </trkpt>
      <trkpt lat="42.492055" lon="-8.640609">
        <ele>163.154994</ele>
        <time>2025-06-29T11:45:45.000Z</time>
      </trkpt>
      <trkpt lat="42.490452" lon="-8.640478">
        <ele>161.232194</ele>
        <time>2025-06-29T11:46:03.000Z</time>
      </trkpt>
      <trkpt lat="42.489974" lon="-8.64051">
        <ele>160.830318</ele>
        <time>2025-06-29T11:46:08.000Z</time>
      </trkpt>
      <trkpt lat="42.489792" lon="-8.640564">
        <ele>160.678734</ele>
        <time>2025-06-29T11:46:10.000Z</time>
      </trkpt>
      <trkpt lat="42.489527" lon="-8.640645">
        <ele>160.456408</ele>
        <time>2025-06-29T11:46:13.000Z</time>
      </trkpt>
      <trkpt lat="42.489295" lon="-8.640759">
        <ele>160.256308</ele>
        <time>2025-06-29T11:46:16.000Z</time>
      </trkpt>
      <trkpt lat="42.488847" lon="-8.641116">
        <ele>159.807061</ele>
        <time>2025-06-29T11:46:22.000Z</time>
      </trkpt>
      <trkpt lat="42.488145" lon="-8.64184">
        <ele>159.0075</ele>
        <time>2025-06-29T11:46:32.000Z</time>
      </trkpt>
      <trkpt lat="42.487225" lon="-8.642678">
        <ele>156.048457</ele>
        <time>2025-06-29T11:46:44.000Z</time>
      </trkpt>
      <trkpt lat="42.486858" lon="-8.642963">
        <ele>154.295961</ele>
        <time>2025-06-29T11:46:49.000Z</time>
      </trkpt>
      <trkpt lat="42.486489" lon="-8.643193">
        <ele>152.521256</ele>
        <time>2025-06-29T11:46:54.000Z</time>
      </trkpt>
      <trkpt lat="42.485956" lon="-8.643358">
        <ele>149.654664</ele>
        <time>2025-06-29T11:47:00.000Z</time>
      </trkpt>
      <trkpt lat="42.485303" lon="-8.643371">
        <ele>144.977765</ele>
        <time>2025-06-29T11:47:07.000Z</time>
      </trkpt>
      <trkpt lat="42.484658" lon="-8.643392">
        <ele>140.30087</ele>
        <time>2025-06-29T11:47:14.000Z</time>
      </trkpt>
      <trkpt lat="42.484378" lon="-8.643321">
        <ele>138.227389</ele>
        <time>2025-06-29T11:47:17.000Z</time>
      </trkpt>
      <trkpt lat="42.4841" lon="-8.643264">
        <ele>136.338298</ele>
        <time>2025-06-29T11:47:20.000Z</time>
      </trkpt>
      <trkpt lat="42.483711" lon="-8.642962">
        <ele>133.433726</ele>
        <time>2025-06-29T11:47:25.000Z</time>
      </trkpt>
      <trkpt lat="42.483268" lon="-8.642488">
        <ele>129.841224</ele>
        <time>2025-06-29T11:47:31.000Z</time>
      </trkpt>
      <trkpt lat="42.483274" lon="-8.642491">
        <ele>129.784972</ele>
        <time>2025-06-29T11:47:31.000Z</time>
      </trkpt>
      <trkpt lat="42.482804" lon="-8.642085">
        <ele>126.222377</ele>
        <time>2025-06-29T11:47:37.000Z</time>
      </trkpt>
      <trkpt lat="42.482614" lon="-8.641948">
        <ele>125.279656</ele>
        <time>2025-06-29T11:47:39.000Z</time>
      </trkpt>
      <trkpt lat="42.481973" lon="-8.641692">
        <ele>122.346192</ele>
        <time>2025-06-29T11:47:46.000Z</time>
      </trkpt>
      <trkpt lat="42.481624" lon="-8.641642">
        <ele>120.848488</ele>
        <time>2025-06-29T11:47:50.000Z</time>
      </trkpt>
      <trkpt lat="42.481192" lon="-8.641693">
        <ele>119.029478</ele>
        <time>2025-06-29T11:47:55.000Z</time>
      </trkpt>
      <trkpt lat="42.480626" lon="-8.641998">
        <ele>116.216293</ele>
        <time>2025-06-29T11:48:02.000Z</time>
      </trkpt>
      <trkpt lat="42.480258" lon="-8.642171">
        <ele>114.273997</ele>
        <time>2025-06-29T11:48:06.000Z</time>
      </trkpt>
      <trkpt lat="42.479713" lon="-8.642294">
        <ele>111.645007</ele>
        <time>2025-06-29T11:48:12.000Z</time>
      </trkpt>
      <trkpt lat="42.479194" lon="-8.64231">
        <ele>108.809976</ele>
        <time>2025-06-29T11:48:18.000Z</time>
      </trkpt>
      <trkpt lat="42.478874" lon="-8.642396">
        <ele>106.45399</ele>
        <time>2025-06-29T11:48:22.000Z</time>
      </trkpt>
      <trkpt lat="42.47861" lon="-8.64259">
        <ele>104.320909</ele>
        <time>2025-06-29T11:48:25.000Z</time>
      </trkpt>
      <trkpt lat="42.477892" lon="-8.643321">
        <ele>97.721833</ele>
        <time>2025-06-29T11:48:35.000Z</time>
      </trkpt>
      <trkpt lat="42.477549" lon="-8.643721">
        <ele>93.694007</ele>
        <time>2025-06-29T11:48:40.000Z</time>
      </trkpt>
      <trkpt lat="42.477478" lon="-8.643804">
        <ele>92.816641</ele>
        <time>2025-06-29T11:48:41.000Z</time>
      </trkpt>
      <trkpt lat="42.476612" lon="-8.644677">
        <ele>82.510082</ele>
        <time>2025-06-29T11:48:53.000Z</time>
      </trkpt>
      <trkpt lat="42.476491" lon="-8.644789">
        <ele>81.02554</ele>
        <time>2025-06-29T11:48:55.000Z</time>
      </trkpt>
      <trkpt lat="42.476084" lon="-8.645123">
        <ele>77.695891</ele>
        <time>2025-06-29T11:49:00.000Z</time>
      </trkpt>
      <trkpt lat="42.475764" lon="-8.645249">
        <ele>75.702295</ele>
        <time>2025-06-29T11:49:04.000Z</time>
      </trkpt>
      <trkpt lat="42.475696" lon="-8.645281">
        <ele>75.295365</ele>
        <time>2025-06-29T11:49:05.000Z</time>
      </trkpt>
      <trkpt lat="42.475285" lon="-8.645221">
        <ele>72.828245</ele>
        <time>2025-06-29T11:49:10.000Z</time>
      </trkpt>
      <trkpt lat="42.47503" lon="-8.645108">
        <ele>71.204654</ele>
        <time>2025-06-29T11:49:13.000Z</time>
      </trkpt>
      <trkpt lat="42.474765" lon="-8.644933">
        <ele>69.519753</ele>
        <time>2025-06-29T11:49:16.000Z</time>
      </trkpt>
      <trkpt lat="42.474469" lon="-8.644572">
        <ele>68.116546</ele>
        <time>2025-06-29T11:49:20.000Z</time>
      </trkpt>
      <trkpt lat="42.474401" lon="-8.644461">
        <ele>67.885645</ele>
        <time>2025-06-29T11:49:21.000Z</time>
      </trkpt>
      <trkpt lat="42.474239" lon="-8.644149">
        <ele>67.230101</ele>
        <time>2025-06-29T11:49:24.000Z</time>
      </trkpt>
      <trkpt lat="42.473866" lon="-8.64298">
        <ele>64.935243</ele>
        <time>2025-06-29T11:49:34.000Z</time>
      </trkpt>
      <trkpt lat="42.473815" lon="-8.642805">
        <ele>64.63297</ele>
        <time>2025-06-29T11:49:36.000Z</time>
      </trkpt>
      <trkpt lat="42.473808" lon="-8.642691">
        <ele>64.360949</ele>
        <time>2025-06-29T11:49:37.000Z</time>
      </trkpt>
      <trkpt lat="42.473592" lon="-8.641916">
        <ele>61.463686</ele>
        <time>2025-06-29T11:49:44.000Z</time>
      </trkpt>
      <trkpt lat="42.473465" lon="-8.640578">
        <ele>56.848523</ele>
        <time>2025-06-29T11:49:55.000Z</time>
      </trkpt>
      <trkpt lat="42.473324" lon="-8.639662">
        <ele>54.130318</ele>
        <time>2025-06-29T11:50:03.000Z</time>
      </trkpt>
      <trkpt lat="42.473239" lon="-8.639282">
        <ele>53.081399</ele>
        <time>2025-06-29T11:50:06.000Z</time>
      </trkpt>
      <trkpt lat="42.472983" lon="-8.638707">
        <ele>51.26355</ele>
        <time>2025-06-29T11:50:12.000Z</time>
      </trkpt>
      <trkpt lat="42.472774" lon="-8.638445">
        <ele>50.213777</ele>
        <time>2025-06-29T11:50:15.000Z</time>
      </trkpt>
      <trkpt lat="42.472525" lon="-8.638287">
        <ele>49.704411</ele>
        <time>2025-06-29T11:50:18.000Z</time>
      </trkpt>
      <trkpt lat="42.472262" lon="-8.638189">
        <ele>50.298495</ele>
        <time>2025-06-29T11:50:21.000Z</time>
      </trkpt>
      <trkpt lat="42.472191" lon="-8.638156">
        <ele>50.4413</ele>
        <time>2025-06-29T11:50:22.000Z</time>
      </trkpt>
      <trkpt lat="42.471941" lon="-8.638123">
        <ele>51.003549</ele>
        <time>2025-06-29T11:50:25.000Z</time>
      </trkpt>
      <trkpt lat="42.471851" lon="-8.638132">
        <ele>51.189829</ele>
        <time>2025-06-29T11:50:26.000Z</time>
      </trkpt>
      <trkpt lat="42.471626" lon="-8.63817">
        <ele>51.693652</ele>
        <time>2025-06-29T11:50:29.000Z</time>
      </trkpt>
      <trkpt lat="42.471271" lon="-8.638392">
        <ele>52.523953</ele>
        <time>2025-06-29T11:50:33.000Z</time>
      </trkpt>
      <trkpt lat="42.470952" lon="-8.638813">
        <ele>53.42713</ele>
        <time>2025-06-29T11:50:38.000Z</time>
      </trkpt>
      <trkpt lat="42.470883" lon="-8.638967">
        <ele>53.53584</ele>
        <time>2025-06-29T11:50:39.000Z</time>
      </trkpt>
      <trkpt lat="42.470509" lon="-8.639745">
        <ele>54.071581</ele>
        <time>2025-06-29T11:50:47.000Z</time>
      </trkpt>
      <trkpt lat="42.470021" lon="-8.640694">
        <ele>54.746831</ele>
        <time>2025-06-29T11:50:56.000Z</time>
      </trkpt>
      <trkpt lat="42.469968" lon="-8.640765">
        <ele>54.810984</ele>
        <time>2025-06-29T11:50:57.000Z</time>
      </trkpt>
      <trkpt lat="42.469905" lon="-8.640911">
        <ele>54.880612</ele>
        <time>2025-06-29T11:50:58.000Z</time>
      </trkpt>
      <trkpt lat="42.469301" lon="-8.642095">
        <ele>55.442821</ele>
        <time>2025-06-29T11:51:10.000Z</time>
      </trkpt>
      <trkpt lat="42.469162" lon="-8.64236">
        <ele>55.566353</ele>
        <time>2025-06-29T11:51:13.000Z</time>
      </trkpt>
      <trkpt lat="42.468999" lon="-8.642652">
        <ele>55.71136</ele>
        <time>2025-06-29T11:51:16.000Z</time>
      </trkpt>
      <trkpt lat="42.468893" lon="-8.642754">
        <ele>55.747118</ele>
        <time>2025-06-29T11:51:17.000Z</time>
      </trkpt>
      <trkpt lat="42.468804" lon="-8.642858">
        <ele>55.341555</ele>
        <time>2025-06-29T11:51:18.000Z</time>
      </trkpt>
      <trkpt lat="42.46857" lon="-8.642955">
        <ele>54.557044</ele>
        <time>2025-06-29T11:51:21.000Z</time>
      </trkpt>
      <trkpt lat="42.468469" lon="-8.64299">
        <ele>54.224025</ele>
        <time>2025-06-29T11:51:22.000Z</time>
      </trkpt>
      <trkpt lat="42.468152" lon="-8.642986">
        <ele>53.196725</ele>
        <time>2025-06-29T11:51:26.000Z</time>
      </trkpt>
      <trkpt lat="42.468012" lon="-8.642955">
        <ele>52.749708</ele>
        <time>2025-06-29T11:51:28.000Z</time>
      </trkpt>
      <trkpt lat="42.466692" lon="-8.642732">
        <ele>48.174764</ele>
        <time>2025-06-29T11:51:43.000Z</time>
      </trkpt>
      <trkpt lat="42.465812" lon="-8.642617">
        <ele>44.927643</ele>
        <time>2025-06-29T11:51:53.000Z</time>
      </trkpt>
      <trkpt lat="42.465451" lon="-8.642547">
        <ele>43.533529</ele>
        <time>2025-06-29T11:51:57.000Z</time>
      </trkpt>
      <trkpt lat="42.465132" lon="-8.642503">
        <ele>42.802561</ele>
        <time>2025-06-29T11:52:01.000Z</time>
      </trkpt>
      <trkpt lat="42.464476" lon="-8.642344">
        <ele>41.521448</ele>
        <time>2025-06-29T11:52:08.000Z</time>
      </trkpt>
      <trkpt lat="42.463959" lon="-8.642254">
        <ele>40.514283</ele>
        <time>2025-06-29T11:52:14.000Z</time>
      </trkpt>
      <trkpt lat="42.462794" lon="-8.642153">
        <ele>37.762284</ele>
        <time>2025-06-29T11:52:27.000Z</time>
      </trkpt>
      <trkpt lat="42.462555" lon="-8.642103">
        <ele>37.126586</ele>
        <time>2025-06-29T11:52:30.000Z</time>
      </trkpt>
      <trkpt lat="42.462341" lon="-8.642041">
        <ele>36.559421</ele>
        <time>2025-06-29T11:52:32.000Z</time>
      </trkpt>
      <trkpt lat="42.461648" lon="-8.641713">
        <ele>34.910297</ele>
        <time>2025-06-29T11:52:40.000Z</time>
      </trkpt>
      <trkpt lat="42.460173" lon="-8.640984">
        <ele>32.829556</ele>
        <time>2025-06-29T11:52:57.000Z</time>
      </trkpt>
      <trkpt lat="42.460159" lon="-8.640968">
        <ele>32.80007</ele>
        <time>2025-06-29T11:52:57.000Z</time>
      </trkpt>
      <trkpt lat="42.458657" lon="-8.640232">
        <ele>31.015947</ele>
        <time>2025-06-29T11:53:15.000Z</time>
      </trkpt>
      <trkpt lat="42.457662" lon="-8.640035">
        <ele>30.357626</ele>
        <time>2025-06-29T11:53:26.000Z</time>
      </trkpt>
      <trkpt lat="42.455299" lon="-8.639609">
        <ele>30.641182</ele>
        <time>2025-06-29T11:53:53.000Z</time>
      </trkpt>
      <trkpt lat="42.45458" lon="-8.639457">
        <ele>30.745052</ele>
        <time>2025-06-29T11:54:01.000Z</time>
      </trkpt>
      <trkpt lat="42.453699" lon="-8.639099">
        <ele>30.23396</ele>
        <time>2025-06-29T11:54:11.000Z</time>
      </trkpt>
      <trkpt lat="42.453598" lon="-8.639074">
        <ele>30.181525</ele>
        <time>2025-06-29T11:54:12.000Z</time>
      </trkpt>
      <trkpt lat="42.452435" lon="-8.638582">
        <ele>28.640261</ele>
        <time>2025-06-29T11:54:26.000Z</time>
      </trkpt>
      <trkpt lat="42.452321" lon="-8.638537">
        <ele>28.43097</ele>
        <time>2025-06-29T11:54:27.000Z</time>
      </trkpt>
      <trkpt lat="42.451955" lon="-8.638416">
        <ele>27.789779</ele>
        <time>2025-06-29T11:54:31.000Z</time>
      </trkpt>
      <trkpt lat="42.451722" lon="-8.638276">
        <ele>27.359038</ele>
        <time>2025-06-29T11:54:34.000Z</time>
      </trkpt>
      <trkpt lat="42.451165" lon="-8.637944">
        <ele>27.378656</ele>
        <time>2025-06-29T11:54:41.000Z</time>
      </trkpt>
      <trkpt lat="42.451067" lon="-8.637915">
        <ele>27.56951</ele>
        <time>2025-06-29T11:54:42.000Z</time>
      </trkpt>
      <trkpt lat="42.450975" lon="-8.637877">
        <ele>27.749366</ele>
        <time>2025-06-29T11:54:43.000Z</time>
      </trkpt>
      <trkpt lat="42.45091" lon="-8.63779">
        <ele>27.913438</ele>
        <time>2025-06-29T11:54:44.000Z</time>
      </trkpt>
      <trkpt lat="42.450883" lon="-8.637614">
        <ele>28.1723</ele>
        <time>2025-06-29T11:54:45.000Z</time>
      </trkpt>
      <trkpt lat="42.450923" lon="-8.63746">
        <ele>28.388315</ele>
        <time>2025-06-29T11:54:46.000Z</time>
      </trkpt>
      <trkpt lat="42.450939" lon="-8.637279">
        <ele>28.639515</ele>
        <time>2025-06-29T11:54:47.000Z</time>
      </trkpt>
      <trkpt lat="42.450895" lon="-8.63715">
        <ele>28.85276</ele>
        <time>2025-06-29T11:54:48.000Z</time>
      </trkpt>
      <trkpt lat="42.450826" lon="-8.637011">
        <ele>29.087255</ele>
        <time>2025-06-29T11:54:49.000Z</time>
      </trkpt>
      <trkpt lat="42.450607" lon="-8.636763">
        <ele>29.606451</ele>
        <time>2025-06-29T11:54:52.000Z</time>
      </trkpt>
      <trkpt lat="42.450311" lon="-8.636524">
        <ele>30.243681</ele>
        <time>2025-06-29T11:54:56.000Z</time>
      </trkpt>
      <trkpt lat="42.449885" lon="-8.636314">
        <ele>30.805139</ele>
        <time>2025-06-29T11:55:01.000Z</time>
      </trkpt>
      <trkpt lat="42.449593" lon="-8.636295">
        <ele>31.176003</ele>
        <time>2025-06-29T11:55:04.000Z</time>
      </trkpt>
      <trkpt lat="42.44909" lon="-8.636368">
        <ele>31.807465</ele>
        <time>2025-06-29T11:55:10.000Z</time>
      </trkpt>
      <trkpt lat="42.448132" lon="-8.63673">
        <ele>32.557535</ele>
        <time>2025-06-29T11:55:21.000Z</time>
      </trkpt>
      <trkpt lat="42.44754" lon="-8.636821">
        <ele>32.667961</ele>
        <time>2025-06-29T11:55:28.000Z</time>
      </trkpt>
      <trkpt lat="42.447195" lon="-8.636756">
        <ele>32.733503</ele>
        <time>2025-06-29T11:55:32.000Z</time>
      </trkpt>
      <trkpt lat="42.446898" lon="-8.636591">
        <ele>32.790492</ele>
        <time>2025-06-29T11:55:36.000Z</time>
      </trkpt>
      <trkpt lat="42.446355" lon="-8.636239">
        <ele>30.072944</ele>
        <time>2025-06-29T11:55:43.000Z</time>
      </trkpt>
      <trkpt lat="42.446353" lon="-8.636234">
        <ele>30.072947</ele>
        <time>2025-06-29T11:55:43.000Z</time>
      </trkpt>
      <trkpt lat="42.445806" lon="-8.635998">
        <ele>27.257225</ele>
        <time>2025-06-29T11:55:49.000Z</time>
      </trkpt>
      <trkpt lat="42.44539" lon="-8.63588">
        <ele>25.184933</ele>
        <time>2025-06-29T11:55:54.000Z</time>
      </trkpt>
      <trkpt lat="42.445009" lon="-8.63588">
        <ele>23.207896</ele>
        <time>2025-06-29T11:55:58.000Z</time>
      </trkpt>
      <trkpt lat="42.444561" lon="-8.635978">
        <ele>20.821293</ele>
        <time>2025-06-29T11:56:03.000Z</time>
      </trkpt>
      <trkpt lat="42.444044" lon="-8.636132">
        <ele>17.974012</ele>
        <time>2025-06-29T11:56:09.000Z</time>
      </trkpt>
      <trkpt lat="42.443262" lon="-8.636539">
        <ele>14.06245</ele>
        <time>2025-06-29T11:56:18.000Z</time>
      </trkpt>
      <trkpt lat="42.44275" lon="-8.636886">
        <ele>13.307822</ele>
        <time>2025-06-29T11:56:24.000Z</time>
      </trkpt>
      <trkpt lat="42.442031" lon="-8.637577">
        <ele>12.116012</ele>
        <time>2025-06-29T11:56:34.000Z</time>
      </trkpt>
      <trkpt lat="42.441302" lon="-8.638263">
        <ele>11.166556</ele>
        <time>2025-06-29T11:56:44.000Z</time>
      </trkpt>
      <trkpt lat="42.440553" lon="-8.638887">
        <ele>10.289209</ele>
        <time>2025-06-29T11:56:54.000Z</time>
      </trkpt>
      <trkpt lat="42.440144" lon="-8.639186">
        <ele>9.587089</ele>
        <time>2025-06-29T11:56:59.000Z</time>
      </trkpt>
      <trkpt lat="42.439719" lon="-8.639459">
        <ele>8.675016</ele>
        <time>2025-06-29T11:57:04.000Z</time>
      </trkpt>
      <trkpt lat="42.439041" lon="-8.639802">
        <ele>7.305055</ele>
        <time>2025-06-29T11:57:12.000Z</time>
      </trkpt>
      <trkpt lat="42.438369" lon="-8.640143">
        <ele>5.977596</ele>
        <time>2025-06-29T11:57:20.000Z</time>
      </trkpt>
      <trkpt lat="42.437716" lon="-8.64049">
        <ele>4.691286</ele>
        <time>2025-06-29T11:57:28.000Z</time>
      </trkpt>
      <trkpt lat="42.437563" lon="-8.640596">
        <ele>4.391436</ele>
        <time>2025-06-29T11:57:30.000Z</time>
      </trkpt>
      <trkpt lat="42.437518" lon="-8.640652">
        <ele>4.283823</ele>
        <time>2025-06-29T11:57:31.000Z</time>
      </trkpt>
      <trkpt lat="42.437435" lon="-8.640665">
        <ele>4.119547</ele>
        <time>2025-06-29T11:57:32.000Z</time>
      </trkpt>
      <trkpt lat="42.437196" lon="-8.640732">
        <ele>3.689209</ele>
        <time>2025-06-29T11:57:35.000Z</time>
      </trkpt>
      <trkpt lat="42.436997" lon="-8.640831">
        <ele>3.344687</ele>
        <time>2025-06-29T11:57:37.000Z</time>
      </trkpt>
      <trkpt lat="42.436438" lon="-8.641125">
        <ele>2.92724</ele>
        <time>2025-06-29T11:57:44.000Z</time>
      </trkpt>
      <trkpt lat="42.436232" lon="-8.641238">
        <ele>2.775496</ele>
        <time>2025-06-29T11:57:46.000Z</time>
      </trkpt>
      <trkpt lat="42.436213" lon="-8.641281">
        <ele>2.746475</ele>
        <time>2025-06-29T11:57:46.000Z</time>
      </trkpt>
      <trkpt lat="42.436184" lon="-8.641336">
        <ele>2.709866</ele>
        <time>2025-06-29T11:57:47.000Z</time>
      </trkpt>
      <trkpt lat="42.436077" lon="-8.641371">
        <ele>2.637563</ele>
        <time>2025-06-29T11:57:48.000Z</time>
      </trkpt>
      <trkpt lat="42.436028" lon="-8.641343">
        <ele>2.607707</ele>
        <time>2025-06-29T11:57:49.000Z</time>
      </trkpt>
      <trkpt lat="42.435415" lon="-8.641558">
        <ele>2.167409</ele>
        <time>2025-06-29T11:57:56.000Z</time>
      </trkpt>
      <trkpt lat="42.435281" lon="-8.641559">
        <ele>2.150339</ele>
        <time>2025-06-29T11:57:57.000Z</time>
      </trkpt>
      <trkpt lat="42.435238" lon="-8.64157">
        <ele>2.171156</ele>
        <time>2025-06-29T11:57:57.000Z</time>
      </trkpt>
      <trkpt lat="42.435202" lon="-8.641573">
        <ele>2.181391</ele>
        <time>2025-06-29T11:57:57.000Z</time>
      </trkpt>
      <trkpt lat="42.435175" lon="-8.641584">
        <ele>2.192743</ele>
        <time>2025-06-29T11:57:57.000Z</time>
      </trkpt>
      <trkpt lat="42.434379" lon="-8.641764">
        <ele>2.478603</ele>
        <time>2025-06-29T11:58:06.000Z</time>
      </trkpt>
      <trkpt lat="42.43432" lon="-8.64179">
        <ele>2.496882</ele>
        <time>2025-06-29T11:58:07.000Z</time>
      </trkpt>
      <trkpt lat="42.434288" lon="-8.64184">
        <ele>2.515113</ele>
        <time>2025-06-29T11:58:08.000Z</time>
      </trkpt>
      <trkpt lat="42.434291" lon="-8.64209">
        <ele>2.5811</ele>
        <time>2025-06-29T11:58:10.000Z</time>
      </trkpt>
      <trkpt lat="42.434513" lon="-8.643061">
        <ele>2.810467</ele>
        <time>2025-06-29T11:58:18.000Z</time>
      </trkpt>
      <trkpt lat="42.434718" lon="-8.643815">
        <ele>2.935625</ele>
        <time>2025-06-29T11:58:25.000Z</time>
      </trkpt>
      <trkpt lat="42.434847" lon="-8.64417">
        <ele>2.997013</ele>
        <time>2025-06-29T11:58:28.000Z</time>
      </trkpt>
      <trkpt lat="42.435074" lon="-8.644605">
        <ele>3.078504</ele>
        <time>2025-06-29T11:58:32.000Z</time>
      </trkpt>
      <trkpt lat="42.435149" lon="-8.6448">
        <ele>3.112624</ele>
        <time>2025-06-29T11:58:34.000Z</time>
      </trkpt>
      <trkpt lat="42.435271" lon="-8.645106">
        <ele>3.165282</ele>
        <time>2025-06-29T11:58:37.000Z</time>
      </trkpt>
      <trkpt lat="42.43546" lon="-8.645557">
        <ele>3.242956</ele>
        <time>2025-06-29T11:58:41.000Z</time>
      </trkpt>
      <trkpt lat="42.435842" lon="-8.646715">
        <ele>3.428852</ele>
        <time>2025-06-29T11:58:51.000Z</time>
      </trkpt>
      <trkpt lat="42.435894" lon="-8.646792">
        <ele>3.444815</ele>
        <time>2025-06-29T11:58:52.000Z</time>
      </trkpt>
      <trkpt lat="42.435887" lon="-8.646893">
        <ele>3.460774</ele>
        <time>2025-06-29T11:58:53.000Z</time>
      </trkpt>
      <trkpt lat="42.435919" lon="-8.64718">
        <ele>3.490376</ele>
        <time>2025-06-29T11:58:55.000Z</time>
      </trkpt>
      <trkpt lat="42.435951" lon="-8.647774">
        <ele>3.341255</ele>
        <time>2025-06-29T11:59:00.000Z</time>
      </trkpt>
      <trkpt lat="42.435971" lon="-8.64791">
        <ele>3.306251</ele>
        <time>2025-06-29T11:59:01.000Z</time>
      </trkpt>
      <trkpt lat="42.436027" lon="-8.647973">
        <ele>3.283024</ele>
        <time>2025-06-29T11:59:02.000Z</time>
      </trkpt>
      <trkpt lat="42.43605" lon="-8.648055">
        <ele>3.259714</ele>
        <time>2025-06-29T11:59:03.000Z</time>
      </trkpt>
      <trkpt lat="42.436033" lon="-8.648165">
        <ele>3.228858</ele>
        <time>2025-06-29T11:59:04.000Z</time>
      </trkpt>
      <trkpt lat="42.435961" lon="-8.648233">
        <ele>3.202575</ele>
        <time>2025-06-29T11:59:05.000Z</time>
      </trkpt>
      <trkpt lat="42.435886" lon="-8.648241">
        <ele>3.17594</ele>
        <time>2025-06-29T11:59:06.000Z</time>
      </trkpt>
      <trkpt lat="42.435713" lon="-8.648487">
        <ele>3.088945</ele>
        <time>2025-06-29T11:59:09.000Z</time>
      </trkpt>
      <trkpt lat="42.434886" lon="-8.649601">
        <ele>3.536535</ele>
        <time>2025-06-29T11:59:22.000Z</time>
      </trkpt>
      <trkpt lat="42.434526" lon="-8.650135">
        <ele>4.161092</ele>
        <time>2025-06-29T11:59:28.000Z</time>
      </trkpt>
      <trkpt lat="42.434507" lon="-8.650221">
        <ele>4.243383</ele>
        <time>2025-06-29T11:59:29.000Z</time>
      </trkpt>
      <trkpt lat="42.434485" lon="-8.650237">
        <ele>4.262328</ele>
        <time>2025-06-29T11:59:29.000Z</time>
      </trkpt>
      <trkpt lat="42.434429" lon="-8.650269">
        <ele>4.325589</ele>
        <time>2025-06-29T11:59:30.000Z</time>
      </trkpt>
      <trkpt lat="42.433669" lon="-8.651288">
        <ele>5.748133</ele>
        <time>2025-06-29T11:59:42.000Z</time>
      </trkpt>
      <trkpt lat="42.433248" lon="-8.651829">
        <ele>6.601134</ele>
        <time>2025-06-29T11:59:48.000Z</time>
      </trkpt>
      <trkpt lat="42.433148" lon="-8.651964">
        <ele>6.832084</ele>
        <time>2025-06-29T11:59:50.000Z</time>
      </trkpt>
      <trkpt lat="42.433125" lon="-8.652028">
        <ele>6.911514</ele>
        <time>2025-06-29T11:59:51.000Z</time>
      </trkpt>
      <trkpt lat="42.433039" lon="-8.652073">
        <ele>7.027469</ele>
        <time>2025-06-29T11:59:52.000Z</time>
      </trkpt>
      <trkpt lat="42.432907" lon="-8.652258">
        <ele>7.332952</ele>
        <time>2025-06-29T11:59:54.000Z</time>
      </trkpt>
      <trkpt lat="42.43248" lon="-8.652783">
        <ele>7.114132</ele>
        <time>2025-06-29T12:00:00.000Z</time>
      </trkpt>
      <trkpt lat="42.432323" lon="-8.652927">
        <ele>6.827881</ele>
        <time>2025-06-29T12:00:02.000Z</time>
      </trkpt>
      <trkpt lat="42.431615" lon="-8.653261">
        <ele>5.695205</ele>
        <time>2025-06-29T12:00:10.000Z</time>
      </trkpt>
      <trkpt lat="42.430769" lon="-8.653643">
        <ele>4.255226</ele>
        <time>2025-06-29T12:00:20.000Z</time>
      </trkpt>
      <trkpt lat="42.430056" lon="-8.65397">
        <ele>2.943513</ele>
        <time>2025-06-29T12:00:28.000Z</time>
      </trkpt>
      <trkpt lat="42.429862" lon="-8.654058">
        <ele>2.595089</ele>
        <time>2025-06-29T12:00:30.000Z</time>
      </trkpt>
      <trkpt lat="42.4297" lon="-8.654077">
        <ele>2.313485</ele>
        <time>2025-06-29T12:00:32.000Z</time>
      </trkpt>
      <trkpt lat="42.429434" lon="-8.65406">
        <ele>1.851189</ele>
        <time>2025-06-29T12:00:35.000Z</time>
      </trkpt>
      <trkpt lat="42.429217" lon="-8.653922">
        <ele>1.870105</ele>
        <time>2025-06-29T12:00:38.000Z</time>
      </trkpt>
      <trkpt lat="42.428988" lon="-8.653564">
        <ele>1.968018</ele>
        <time>2025-06-29T12:00:42.000Z</time>
      </trkpt>
      <trkpt lat="42.42896" lon="-8.653466">
        <ele>1.987385</ele>
        <time>2025-06-29T12:00:43.000Z</time>
      </trkpt>
      <trkpt lat="42.428938" lon="-8.65338">
        <ele>2.006907</ele>
        <time>2025-06-29T12:00:44.000Z</time>
      </trkpt>
      <trkpt lat="42.428915" lon="-8.65301">
        <ele>2.082317</ele>
        <time>2025-06-29T12:00:47.000Z</time>
      </trkpt>
      <trkpt lat="42.428875" lon="-8.652411">
        <ele>2.209401</ele>
        <time>2025-06-29T12:00:52.000Z</time>
      </trkpt>
      <trkpt lat="42.428807" lon="-8.652155">
        <ele>2.263849</ele>
        <time>2025-06-29T12:00:54.000Z</time>
      </trkpt>
      <trkpt lat="42.428746" lon="-8.65211">
        <ele>2.280951</ele>
        <time>2025-06-29T12:00:55.000Z</time>
      </trkpt>
      <trkpt lat="42.428568" lon="-8.651939">
        <ele>2.373444</ele>
        <time>2025-06-29T12:00:57.000Z</time>
      </trkpt>
      <trkpt lat="42.428499" lon="-8.651917">
        <ele>2.41419</ele>
        <time>2025-06-29T12:00:58.000Z</time>
      </trkpt>
      <trkpt lat="42.428353" lon="-8.651858">
        <ele>2.502064</ele>
        <time>2025-06-29T12:01:00.000Z</time>
      </trkpt>
      <trkpt lat="42.428254" lon="-8.651839">
        <ele>2.557388</ele>
        <time>2025-06-29T12:01:01.000Z</time>
      </trkpt>
      <trkpt lat="42.428115" lon="-8.651849">
        <ele>2.638286</ele>
        <time>2025-06-29T12:01:03.000Z</time>
      </trkpt>
      <trkpt lat="42.427613" lon="-8.652186">
        <ele>2.953869</ele>
        <time>2025-06-29T12:01:09.000Z</time>
      </trkpt>
      <trkpt lat="42.427096" lon="-8.652514">
        <ele>3.278961</ele>
        <time>2025-06-29T12:01:15.000Z</time>
      </trkpt>
      <trkpt lat="42.427013" lon="-8.652561">
        <ele>3.32746</ele>
        <time>2025-06-29T12:01:16.000Z</time>
      </trkpt>
      <trkpt lat="42.426003" lon="-8.653319">
        <ele>3.480943</ele>
        <time>2025-06-29T12:01:29.000Z</time>
      </trkpt>
      <trkpt lat="42.425684" lon="-8.653581">
        <ele>3.528982</ele>
        <time>2025-06-29T12:01:33.000Z</time>
      </trkpt>
      <trkpt lat="42.42505" lon="-8.654242">
        <ele>3.420217</ele>
        <time>2025-06-29T12:01:42.000Z</time>
      </trkpt>
      <trkpt lat="42.424298" lon="-8.655009">
        <ele>3.168203</ele>
        <time>2025-06-29T12:01:52.000Z</time>
      </trkpt>
      <trkpt lat="42.424012" lon="-8.655312">
        <ele>3.064048</ele>
        <time>2025-06-29T12:01:56.000Z</time>
      </trkpt>
      <trkpt lat="42.42359" lon="-8.655827">
        <ele>2.849756</ele>
        <time>2025-06-29T12:02:02.000Z</time>
      </trkpt>
      <trkpt lat="42.423443" lon="-8.656027">
        <ele>2.769962</ele>
        <time>2025-06-29T12:02:04.000Z</time>
      </trkpt>
      <trkpt lat="42.422964" lon="-8.656847">
        <ele>2.479661</ele>
        <time>2025-06-29T12:02:13.000Z</time>
      </trkpt>
      <trkpt lat="42.422783" lon="-8.657288">
        <ele>2.448209</ele>
        <time>2025-06-29T12:02:17.000Z</time>
      </trkpt>
      <trkpt lat="42.422622" lon="-8.657765">
        <ele>2.569972</ele>
        <time>2025-06-29T12:02:21.000Z</time>
      </trkpt>
      <trkpt lat="42.422534" lon="-8.658006">
        <ele>2.632838</ele>
        <time>2025-06-29T12:02:23.000Z</time>
      </trkpt>
      <trkpt lat="42.422474" lon="-8.658289">
        <ele>2.700728</ele>
        <time>2025-06-29T12:02:25.000Z</time>
      </trkpt>
      <trkpt lat="42.422471" lon="-8.658337">
        <ele>2.710339</ele>
        <time>2025-06-29T12:02:25.000Z</time>
      </trkpt>
      <trkpt lat="42.422436" lon="-8.658428">
        <ele>2.737858</ele>
        <time>2025-06-29T12:02:26.000Z</time>
      </trkpt>
      <trkpt lat="42.422406" lon="-8.65865">
        <ele>2.790424</ele>
        <time>2025-06-29T12:02:28.000Z</time>
      </trkpt>
      <trkpt lat="42.421552" lon="-8.662884">
        <ele>3.096435</ele>
        <time>2025-06-29T12:03:04.000Z</time>
      </trkpt>
      <trkpt lat="42.421463" lon="-8.663201">
        <ele>2.97472</ele>
        <time>2025-06-29T12:03:07.000Z</time>
      </trkpt>
      <trkpt lat="42.421399" lon="-8.663468">
        <ele>2.871718</ele>
        <time>2025-06-29T12:03:09.000Z</time>
      </trkpt>
      <trkpt lat="42.42119" lon="-8.664006">
        <ele>2.661279</ele>
        <time>2025-06-29T12:03:14.000Z</time>
      </trkpt>
      <trkpt lat="42.420903" lon="-8.664574">
        <ele>2.684337</ele>
        <time>2025-06-29T12:03:20.000Z</time>
      </trkpt>
      <trkpt lat="42.420693" lon="-8.664855">
        <ele>2.703415</ele>
        <time>2025-06-29T12:03:23.000Z</time>
      </trkpt>
      <trkpt lat="42.418402" lon="-8.667256">
        <ele>4.214816</ele>
        <time>2025-06-29T12:03:55.000Z</time>
      </trkpt>
      <trkpt lat="42.417714" lon="-8.668073">
        <ele>3.673892</ele>
        <time>2025-06-29T12:04:05.000Z</time>
      </trkpt>
      <trkpt lat="42.417385" lon="-8.668579">
        <ele>3.372591</ele>
        <time>2025-06-29T12:04:11.000Z</time>
      </trkpt>
      <trkpt lat="42.416387" lon="-8.670291">
        <ele>1.964466</ele>
        <time>2025-06-29T12:04:29.000Z</time>
      </trkpt>
      <trkpt lat="42.41592" lon="-8.670959">
        <ele>1.543175</ele>
        <time>2025-06-29T12:04:37.000Z</time>
      </trkpt>
      <trkpt lat="42.415278" lon="-8.671771">
        <ele>1.680408</ele>
        <time>2025-06-29T12:04:47.000Z</time>
      </trkpt>
      <trkpt lat="42.414641" lon="-8.672595">
        <ele>1.761371</ele>
        <time>2025-06-29T12:04:57.000Z</time>
      </trkpt>
      <trkpt lat="42.414014" lon="-8.673419">
        <ele>1.578116</ele>
        <time>2025-06-29T12:05:07.000Z</time>
      </trkpt>
      <trkpt lat="42.413374" lon="-8.674218">
        <ele>1.393059</ele>
        <time>2025-06-29T12:05:17.000Z</time>
      </trkpt>
      <trkpt lat="42.412721" lon="-8.675044">
        <ele>1.197773</ele>
        <time>2025-06-29T12:05:27.000Z</time>
      </trkpt>
      <trkpt lat="42.412082" lon="-8.675847">
        <ele>1.047247</ele>
        <time>2025-06-29T12:05:37.000Z</time>
      </trkpt>
      <trkpt lat="42.411448" lon="-8.67667">
        <ele>1.421866</ele>
        <time>2025-06-29T12:05:47.000Z</time>
      </trkpt>
      <trkpt lat="42.410808" lon="-8.677489">
        <ele>1.78568</ele>
        <time>2025-06-29T12:05:57.000Z</time>
      </trkpt>
      <trkpt lat="42.410174" lon="-8.678296">
        <ele>1.790088</ele>
        <time>2025-06-29T12:06:07.000Z</time>
      </trkpt>
      <trkpt lat="42.409525" lon="-8.679116">
        <ele>1.794492</ele>
        <time>2025-06-29T12:06:17.000Z</time>
      </trkpt>
      <trkpt lat="42.408898" lon="-8.679934">
        <ele>1.667984</ele>
        <time>2025-06-29T12:06:27.000Z</time>
      </trkpt>
      <trkpt lat="42.408262" lon="-8.680741">
        <ele>1.538998</ele>
        <time>2025-06-29T12:06:37.000Z</time>
      </trkpt>
      <trkpt lat="42.407608" lon="-8.681569">
        <ele>1.946952</ele>
        <time>2025-06-29T12:06:47.000Z</time>
      </trkpt>
      <trkpt lat="42.40697" lon="-8.682377">
        <ele>2.393184</ele>
        <time>2025-06-29T12:06:57.000Z</time>
      </trkpt>
      <trkpt lat="42.406333" lon="-8.683186">
        <ele>3.205288</ele>
        <time>2025-06-29T12:07:07.000Z</time>
      </trkpt>
      <trkpt lat="42.405697" lon="-8.684">
        <ele>4.065122</ele>
        <time>2025-06-29T12:07:17.000Z</time>
      </trkpt>
      <trkpt lat="42.405611" lon="-8.684122">
        <ele>4.189868</ele>
        <time>2025-06-29T12:07:18.000Z</time>
      </trkpt>
      <trkpt lat="42.405354" lon="-8.684295">
        <ele>4.27587</ele>
        <time>2025-06-29T12:07:21.000Z</time>
      </trkpt>
      <trkpt lat="42.405179" lon="-8.684377">
        <ele>4.327172</ele>
        <time>2025-06-29T12:07:23.000Z</time>
      </trkpt>
      <trkpt lat="42.404906" lon="-8.684455">
        <ele>4.397061</ele>
        <time>2025-06-29T12:07:26.000Z</time>
      </trkpt>
      <trkpt lat="42.404016" lon="-8.684589">
        <ele>4.632665</ele>
        <time>2025-06-29T12:07:36.000Z</time>
      </trkpt>
      <trkpt lat="42.403809" lon="-8.684678">
        <ele>4.721637</ele>
        <time>2025-06-29T12:07:38.000Z</time>
      </trkpt>
      <trkpt lat="42.403652" lon="-8.684792">
        <ele>4.862781</ele>
        <time>2025-06-29T12:07:40.000Z</time>
      </trkpt>
      <trkpt lat="42.40361" lon="-8.684887">
        <ele>4.93628</ele>
        <time>2025-06-29T12:07:41.000Z</time>
      </trkpt>
      <trkpt lat="42.403499" lon="-8.684969">
        <ele>5.04406</ele>
        <time>2025-06-29T12:07:42.000Z</time>
      </trkpt>
      <trkpt lat="42.403434" lon="-8.684994">
        <ele>5.098022</ele>
        <time>2025-06-29T12:07:43.000Z</time>
      </trkpt>
      <trkpt lat="42.403334" lon="-8.684977">
        <ele>5.185603</ele>
        <time>2025-06-29T12:07:44.000Z</time>
      </trkpt>
      <trkpt lat="42.403231" lon="-8.685013">
        <ele>5.275195</ele>
        <time>2025-06-29T12:07:45.000Z</time>
      </trkpt>
      <trkpt lat="42.40312" lon="-8.685095">
        <ele>5.388622</ele>
        <time>2025-06-29T12:07:46.000Z</time>
      </trkpt>
      <trkpt lat="42.402246" lon="-8.686022">
        <ele>6.360506</ele>
        <time>2025-06-29T12:07:58.000Z</time>
      </trkpt>
      <trkpt lat="42.40166" lon="-8.68659">
        <ele>7.073549</ele>
        <time>2025-06-29T12:08:06.000Z</time>
      </trkpt>
      <trkpt lat="42.401226" lon="-8.687114">
        <ele>7.673491</ele>
        <time>2025-06-29T12:08:12.000Z</time>
      </trkpt>
      <trkpt lat="42.400978" lon="-8.687468">
        <ele>8.027052</ele>
        <time>2025-06-29T12:08:16.000Z</time>
      </trkpt>
      <trkpt lat="42.40066" lon="-8.687966">
        <ele>8.206673</ele>
        <time>2025-06-29T12:08:21.000Z</time>
      </trkpt>
      <trkpt lat="42.400291" lon="-8.688733">
        <ele>8.453712</ele>
        <time>2025-06-29T12:08:29.000Z</time>
      </trkpt>
      <trkpt lat="42.400107" lon="-8.689178">
        <ele>8.590288</ele>
        <time>2025-06-29T12:08:33.000Z</time>
      </trkpt>
      <trkpt lat="42.39995" lon="-8.689515">
        <ele>8.698199</ele>
        <time>2025-06-29T12:08:36.000Z</time>
      </trkpt>
      <trkpt lat="42.399918" lon="-8.689587">
        <ele>8.725708</ele>
        <time>2025-06-29T12:08:37.000Z</time>
      </trkpt>
      <trkpt lat="42.399905" lon="-8.689589">
        <ele>8.725715</ele>
        <time>2025-06-29T12:08:37.000Z</time>
      </trkpt>
      <trkpt lat="42.399851" lon="-8.689521">
        <ele>8.758538</ele>
        <time>2025-06-29T12:08:38.000Z</time>
      </trkpt>
      <trkpt lat="42.399895" lon="-8.689445">
        <ele>8.782357</ele>
        <time>2025-06-29T12:08:39.000Z</time>
      </trkpt>
      <trkpt lat="42.4" lon="-8.689181">
        <ele>8.868728</ele>
        <time>2025-06-29T12:08:41.000Z</time>
      </trkpt>
      <trkpt lat="42.400033" lon="-8.689096">
        <ele>8.893976</ele>
        <time>2025-06-29T12:08:42.000Z</time>
      </trkpt>
      <trkpt lat="42.400387" lon="-8.688313">
        <ele>9.142107</ele>
        <time>2025-06-29T12:08:50.000Z</time>
      </trkpt>
      <trkpt lat="42.400827" lon="-8.687534">
        <ele>9.313399</ele>
        <time>2025-06-29T12:08:58.000Z</time>
      </trkpt>
      <trkpt lat="42.401275" lon="-8.686917">
        <ele>9.151781</ele>
        <time>2025-06-29T12:09:05.000Z</time>
      </trkpt>
      <trkpt lat="42.401647" lon="-8.686439">
        <ele>9.020241</ele>
        <time>2025-06-29T12:09:11.000Z</time>
      </trkpt>
      <trkpt lat="42.401899" lon="-8.68607">
        <ele>8.926236</ele>
        <time>2025-06-29T12:09:15.000Z</time>
      </trkpt>
      <trkpt lat="42.402431" lon="-8.68537">
        <ele>8.424971</ele>
        <time>2025-06-29T12:09:23.000Z</time>
      </trkpt>
      <trkpt lat="42.40261" lon="-8.685113">
        <ele>8.234755</ele>
        <time>2025-06-29T12:09:26.000Z</time>
      </trkpt>
      <trkpt lat="42.403068" lon="-8.684701">
        <ele>7.823227</ele>
        <time>2025-06-29T12:09:32.000Z</time>
      </trkpt>
      <trkpt lat="42.403158" lon="-8.684591">
        <ele>7.726498</ele>
        <time>2025-06-29T12:09:33.000Z</time>
      </trkpt>
      <trkpt lat="42.403189" lon="-8.684441">
        <ele>7.639511</ele>
        <time>2025-06-29T12:09:34.000Z</time>
      </trkpt>
      <trkpt lat="42.403238" lon="-8.684359">
        <ele>7.585854</ele>
        <time>2025-06-29T12:09:35.000Z</time>
      </trkpt>
      <trkpt lat="42.403366" lon="-8.684288">
        <ele>7.450456</ele>
        <time>2025-06-29T12:09:37.000Z</time>
      </trkpt>
      <trkpt lat="42.403467" lon="-8.684269">
        <ele>7.341681</ele>
        <time>2025-06-29T12:09:38.000Z</time>
      </trkpt>
      <trkpt lat="42.403556" lon="-8.684327">
        <ele>7.231933</ele>
        <time>2025-06-29T12:09:39.000Z</time>
      </trkpt>
      <trkpt lat="42.404016" lon="-8.684219">
        <ele>6.724153</ele>
        <time>2025-06-29T12:09:44.000Z</time>
      </trkpt>
      <trkpt lat="42.404991" lon="-8.684136">
        <ele>5.683344</ele>
        <time>2025-06-29T12:09:55.000Z</time>
      </trkpt>
      <trkpt lat="42.405247" lon="-8.684073">
        <ele>5.556039</ele>
        <time>2025-06-29T12:09:58.000Z</time>
      </trkpt>
      <trkpt lat="42.4057" lon="-8.683865">
        <ele>5.421438</ele>
        <time>2025-06-29T12:10:03.000Z</time>
      </trkpt>
      <trkpt lat="42.405768" lon="-8.683772">
        <ele>5.390989</ele>
        <time>2025-06-29T12:10:04.000Z</time>
      </trkpt>
      <trkpt lat="42.414555" lon="-8.672598">
        <ele>2.090304</ele>
        <time>2025-06-29T12:12:18.000Z</time>
      </trkpt>
      <trkpt lat="42.416174" lon="-8.670461">
        <ele>2.094554</ele>
        <time>2025-06-29T12:12:43.000Z</time>
      </trkpt>
      <trkpt lat="42.416174" lon="-8.670461">
        <ele>2.09456</ele>
        <time>2025-06-29T12:12:43.000Z</time>
      </trkpt>
      <trkpt lat="42.41637" lon="-8.670154">
        <ele>2.27259</ele>
        <time>2025-06-29T12:12:46.000Z</time>
      </trkpt>
      <trkpt lat="42.416725" lon="-8.669521">
        <ele>2.61625</ele>
        <time>2025-06-29T12:12:53.000Z</time>
      </trkpt>
      <trkpt lat="42.417084" lon="-8.668907">
        <ele>3.167556</ele>
        <time>2025-06-29T12:12:59.000Z</time>
      </trkpt>
      <trkpt lat="42.417472" lon="-8.668259">
        <ele>3.87201</ele>
        <time>2025-06-29T12:13:06.000Z</time>
      </trkpt>
      <trkpt lat="42.417965" lon="-8.6676">
        <ele>4.676856</ele>
        <time>2025-06-29T12:13:14.000Z</time>
      </trkpt>
      <trkpt lat="42.418609" lon="-8.666928">
        <ele>4.134307</ele>
        <time>2025-06-29T12:13:23.000Z</time>
      </trkpt>
      <trkpt lat="42.419237" lon="-8.66625">
        <ele>3.311644</ele>
        <time>2025-06-29T12:13:32.000Z</time>
      </trkpt>
      <trkpt lat="42.419868" lon="-8.665587">
        <ele>2.945622</ele>
        <time>2025-06-29T12:13:41.000Z</time>
      </trkpt>
      <trkpt lat="42.420519" lon="-8.66492">
        <ele>2.869211</ele>
        <time>2025-06-29T12:13:50.000Z</time>
      </trkpt>
      <trkpt lat="42.420771" lon="-8.664566">
        <ele>2.834584</ele>
        <time>2025-06-29T12:13:54.000Z</time>
      </trkpt>
      <trkpt lat="42.420776" lon="-8.664574">
        <ele>2.834581</ele>
        <time>2025-06-29T12:13:54.000Z</time>
      </trkpt>
      <trkpt lat="42.421078" lon="-8.664053">
        <ele>3.302473</ele>
        <time>2025-06-29T12:13:59.000Z</time>
      </trkpt>
      <trkpt lat="42.421422" lon="-8.66307">
        <ele>4.372821</ele>
        <time>2025-06-29T12:14:08.000Z</time>
      </trkpt>
      <trkpt lat="42.421629" lon="-8.662128">
        <ele>5.242248</ele>
        <time>2025-06-29T12:14:16.000Z</time>
      </trkpt>
      <trkpt lat="42.421824" lon="-8.661175">
        <ele>5.229215</ele>
        <time>2025-06-29T12:14:24.000Z</time>
      </trkpt>
      <trkpt lat="42.422028" lon="-8.660236">
        <ele>5.216163</ele>
        <time>2025-06-29T12:14:32.000Z</time>
      </trkpt>
      <trkpt lat="42.42222" lon="-8.659281">
        <ele>4.731788</ele>
        <time>2025-06-29T12:14:40.000Z</time>
      </trkpt>
      <trkpt lat="42.422296" lon="-8.658449">
        <ele>4.095452</ele>
        <time>2025-06-29T12:14:47.000Z</time>
      </trkpt>
      <trkpt lat="42.422251" lon="-8.65831">
        <ele>3.981186</ele>
        <time>2025-06-29T12:14:48.000Z</time>
      </trkpt>
      <trkpt lat="42.422279" lon="-8.658226">
        <ele>3.908918</ele>
        <time>2025-06-29T12:14:49.000Z</time>
      </trkpt>
      <trkpt lat="42.422332" lon="-8.658164">
        <ele>3.837345</ele>
        <time>2025-06-29T12:14:50.000Z</time>
      </trkpt>
      <trkpt lat="42.422712" lon="-8.65727">
        <ele>3.356586</ele>
        <time>2025-06-29T12:14:58.000Z</time>
      </trkpt>
      <trkpt lat="42.423027" lon="-8.656554">
        <ele>3.324761</ele>
        <time>2025-06-29T12:15:05.000Z</time>
      </trkpt>
      <trkpt lat="42.42313" lon="-8.656385">
        <ele>3.316393</ele>
        <time>2025-06-29T12:15:07.000Z</time>
      </trkpt>
      <trkpt lat="42.423357" lon="-8.656002">
        <ele>3.297816</ele>
        <time>2025-06-29T12:15:11.000Z</time>
      </trkpt>
      <trkpt lat="42.423393" lon="-8.655947">
        <ele>3.295224</ele>
        <time>2025-06-29T12:15:12.000Z</time>
      </trkpt>
      <trkpt lat="42.42361" lon="-8.655658">
        <ele>3.28227</ele>
        <time>2025-06-29T12:15:15.000Z</time>
      </trkpt>
      <trkpt lat="42.423966" lon="-8.655253">
        <ele>3.436075</ele>
        <time>2025-06-29T12:15:20.000Z</time>
      </trkpt>
      <trkpt lat="42.424262" lon="-8.654946">
        <ele>3.556989</ele>
        <time>2025-06-29T12:15:24.000Z</time>
      </trkpt>
      <trkpt lat="42.425011" lon="-8.654171">
        <ele>3.86093</ele>
        <time>2025-06-29T12:15:34.000Z</time>
      </trkpt>
      <trkpt lat="42.425221" lon="-8.653967">
        <ele>3.92355</ele>
        <time>2025-06-29T12:15:37.000Z</time>
      </trkpt>
      <trkpt lat="42.425471" lon="-8.653695">
        <ele>4.001139</ele>
        <time>2025-06-29T12:15:41.000Z</time>
      </trkpt>
      <trkpt lat="42.425941" lon="-8.653202">
        <ele>4.143355</ele>
        <time>2025-06-29T12:15:48.000Z</time>
      </trkpt>
      <trkpt lat="42.426035" lon="-8.653119">
        <ele>4.166316</ele>
        <time>2025-06-29T12:15:49.000Z</time>
      </trkpt>
      <trkpt lat="42.426517" lon="-8.652649">
        <ele>4.29533</ele>
        <time>2025-06-29T12:15:56.000Z</time>
      </trkpt>
      <trkpt lat="42.426555" lon="-8.652594">
        <ele>4.297636</ele>
        <time>2025-06-29T12:15:57.000Z</time>
      </trkpt>
      <trkpt lat="42.426903" lon="-8.652344">
        <ele>4.313303</ele>
        <time>2025-06-29T12:16:01.000Z</time>
      </trkpt>
      <trkpt lat="42.426957" lon="-8.652236">
        <ele>4.316814</ele>
        <time>2025-06-29T12:16:02.000Z</time>
      </trkpt>
      <trkpt lat="42.426986" lon="-8.65223">
        <ele>4.318258</ele>
        <time>2025-06-29T12:16:02.000Z</time>
      </trkpt>
      <trkpt lat="42.42703" lon="-8.652221">
        <ele>4.319689</ele>
        <time>2025-06-29T12:16:02.000Z</time>
      </trkpt>
      <trkpt lat="42.427863" lon="-8.651684">
        <ele>4.355849</ele>
        <time>2025-06-29T12:16:12.000Z</time>
      </trkpt>
      <trkpt lat="42.428084" lon="-8.651687">
        <ele>4.3336</ele>
        <time>2025-06-29T12:16:14.000Z</time>
      </trkpt>
      <trkpt lat="42.428359" lon="-8.651764">
        <ele>3.985224</ele>
        <time>2025-06-29T12:16:17.000Z</time>
      </trkpt>
      <trkpt lat="42.42838" lon="-8.651757">
        <ele>3.948197</ele>
        <time>2025-06-29T12:16:17.000Z</time>
      </trkpt>
      <trkpt lat="42.428421" lon="-8.651784">
        <ele>3.9028</ele>
        <time>2025-06-29T12:16:18.000Z</time>
      </trkpt>
      <trkpt lat="42.428557" lon="-8.651837">
        <ele>3.714929</ele>
        <time>2025-06-29T12:16:20.000Z</time>
      </trkpt>
      <trkpt lat="42.428624" lon="-8.65185">
        <ele>3.638469</ele>
        <time>2025-06-29T12:16:21.000Z</time>
      </trkpt>
      <trkpt lat="42.428782" lon="-8.651908">
        <ele>3.417046</ele>
        <time>2025-06-29T12:16:23.000Z</time>
      </trkpt>
      <trkpt lat="42.428839" lon="-8.651899">
        <ele>3.350997</ele>
        <time>2025-06-29T12:16:24.000Z</time>
      </trkpt>
      <trkpt lat="42.428892" lon="-8.651915">
        <ele>3.283281</ele>
        <time>2025-06-29T12:16:25.000Z</time>
      </trkpt>
      <trkpt lat="42.42894" lon="-8.651978">
        <ele>3.206728</ele>
        <time>2025-06-29T12:16:26.000Z</time>
      </trkpt>
      <trkpt lat="42.428947" lon="-8.652053">
        <ele>3.130872</ele>
        <time>2025-06-29T12:16:27.000Z</time>
      </trkpt>
      <trkpt lat="42.428931" lon="-8.652075">
        <ele>3.115823</ele>
        <time>2025-06-29T12:16:27.000Z</time>
      </trkpt>
      <trkpt lat="42.428981" lon="-8.652344">
        <ele>2.851556</ele>
        <time>2025-06-29T12:16:29.000Z</time>
      </trkpt>
      <trkpt lat="42.429017" lon="-8.652854">
        <ele>2.369331</ele>
        <time>2025-06-29T12:16:33.000Z</time>
      </trkpt>
      <trkpt lat="42.429069" lon="-8.653391">
        <ele>2.374978</ele>
        <time>2025-06-29T12:16:37.000Z</time>
      </trkpt>
      <trkpt lat="42.429081" lon="-8.653526">
        <ele>2.542985</ele>
        <time>2025-06-29T12:16:38.000Z</time>
      </trkpt>
      <trkpt lat="42.429244" lon="-8.65375">
        <ele>2.901613</ele>
        <time>2025-06-29T12:16:41.000Z</time>
      </trkpt>
      <trkpt lat="42.429336" lon="-8.653821">
        <ele>3.056289</ele>
        <time>2025-06-29T12:16:42.000Z</time>
      </trkpt>
      <trkpt lat="42.429518" lon="-8.653958">
        <ele>3.375551</ele>
        <time>2025-06-29T12:16:44.000Z</time>
      </trkpt>
      <trkpt lat="42.429845" lon="-8.653947">
        <ele>3.900058</ele>
        <time>2025-06-29T12:16:48.000Z</time>
      </trkpt>
      <trkpt lat="42.430037" lon="-8.653881">
        <ele>4.197617</ele>
        <time>2025-06-29T12:16:50.000Z</time>
      </trkpt>
      <trkpt lat="42.430361" lon="-8.653727">
        <ele>4.745378</ele>
        <time>2025-06-29T12:16:54.000Z</time>
      </trkpt>
      <trkpt lat="42.430775" lon="-8.653516">
        <ele>5.595305</ele>
        <time>2025-06-29T12:16:59.000Z</time>
      </trkpt>
      <trkpt lat="42.431308" lon="-8.653269">
        <ele>6.763252</ele>
        <time>2025-06-29T12:17:05.000Z</time>
      </trkpt>
      <trkpt lat="42.431577" lon="-8.653143">
        <ele>7.336314</ele>
        <time>2025-06-29T12:17:08.000Z</time>
      </trkpt>
      <trkpt lat="42.431776" lon="-8.653056">
        <ele>7.745753</ele>
        <time>2025-06-29T12:17:10.000Z</time>
      </trkpt>
      <trkpt lat="42.432044" lon="-8.652933">
        <ele>8.330348</ele>
        <time>2025-06-29T12:17:13.000Z</time>
      </trkpt>
      <trkpt lat="42.432302" lon="-8.652803">
        <ele>8.527683</ele>
        <time>2025-06-29T12:17:16.000Z</time>
      </trkpt>
      <trkpt lat="42.432462" lon="-8.652668">
        <ele>8.449274</ele>
        <time>2025-06-29T12:17:18.000Z</time>
      </trkpt>
      <trkpt lat="42.432514" lon="-8.6526">
        <ele>8.416148</ele>
        <time>2025-06-29T12:17:19.000Z</time>
      </trkpt>
      <trkpt lat="42.432652" lon="-8.652401">
        <ele>8.33598</ele>
        <time>2025-06-29T12:17:21.000Z</time>
      </trkpt>
      <trkpt lat="42.432849" lon="-8.652177">
        <ele>8.234006</ele>
        <time>2025-06-29T12:17:24.000Z</time>
      </trkpt>
      <trkpt lat="42.432972" lon="-8.651973">
        <ele>8.149819</ele>
        <time>2025-06-29T12:17:26.000Z</time>
      </trkpt>
      <trkpt lat="42.432983" lon="-8.651892">
        <ele>8.128414</ele>
        <time>2025-06-29T12:17:27.000Z</time>
      </trkpt>
      <trkpt lat="42.433017" lon="-8.651839">
        <ele>8.107349</ele>
        <time>2025-06-29T12:17:28.000Z</time>
      </trkpt>
      <trkpt lat="42.433059" lon="-8.651847">
        <ele>8.096355</ele>
        <time>2025-06-29T12:17:28.000Z</time>
      </trkpt>
      <trkpt lat="42.433083" lon="-8.651837">
        <ele>8.08535</ele>
        <time>2025-06-29T12:17:28.000Z</time>
      </trkpt>
      <trkpt lat="42.433594" lon="-8.651186">
        <ele>7.545057</ele>
        <time>2025-06-29T12:17:36.000Z</time>
      </trkpt>
      <trkpt lat="42.433694" lon="-8.651078">
        <ele>7.292817</ele>
        <time>2025-06-29T12:17:37.000Z</time>
      </trkpt>
      <trkpt lat="42.43437" lon="-8.650193">
        <ele>5.229575</ele>
        <time>2025-06-29T12:17:47.000Z</time>
      </trkpt>
      <trkpt lat="42.434366" lon="-8.650118">
        <ele>5.115549</ele>
        <time>2025-06-29T12:17:48.000Z</time>
      </trkpt>
      <trkpt lat="42.434378" lon="-8.650089">
        <ele>5.058625</ele>
        <time>2025-06-29T12:17:48.000Z</time>
      </trkpt>
      <trkpt lat="42.434416" lon="-8.650045">
        <ele>4.956049</ele>
        <time>2025-06-29T12:17:49.000Z</time>
      </trkpt>
      <trkpt lat="42.434481" lon="-8.650048">
        <ele>4.853813</ele>
        <time>2025-06-29T12:17:50.000Z</time>
      </trkpt>
      <trkpt lat="42.434545" lon="-8.649946">
        <ele>4.598924</ele>
        <time>2025-06-29T12:17:51.000Z</time>
      </trkpt>
      <trkpt lat="42.434847" lon="-8.649524">
        <ele>3.940782</ele>
        <time>2025-06-29T12:17:56.000Z</time>
      </trkpt>
      <trkpt lat="42.434927" lon="-8.649418">
        <ele>3.935516</ele>
        <time>2025-06-29T12:17:57.000Z</time>
      </trkpt>
      <trkpt lat="42.434976" lon="-8.649354">
        <ele>3.932108</ele>
        <time>2025-06-29T12:17:58.000Z</time>
      </trkpt>
      <trkpt lat="42.435564" lon="-8.648514">
        <ele>3.892499</ele>
        <time>2025-06-29T12:18:08.000Z</time>
      </trkpt>
      <trkpt lat="42.435622" lon="-8.648409">
        <ele>3.887831</ele>
        <time>2025-06-29T12:18:09.000Z</time>
      </trkpt>
      <trkpt lat="42.435796" lon="-8.64812">
        <ele>3.875819</ele>
        <time>2025-06-29T12:18:12.000Z</time>
      </trkpt>
      <trkpt lat="42.435781" lon="-8.648033">
        <ele>3.872613</ele>
        <time>2025-06-29T12:18:13.000Z</time>
      </trkpt>
      <trkpt lat="42.435793" lon="-8.648037">
        <ele>3.872508</ele>
        <time>2025-06-29T12:18:13.000Z</time>
      </trkpt>
      <trkpt lat="42.435815" lon="-8.647949">
        <ele>3.869252</ele>
        <time>2025-06-29T12:18:14.000Z</time>
      </trkpt>
      <trkpt lat="42.435838" lon="-8.647544">
        <ele>3.854936</ele>
        <time>2025-06-29T12:18:17.000Z</time>
      </trkpt>
      <trkpt lat="42.435824" lon="-8.64719">
        <ele>3.842056</ele>
        <time>2025-06-29T12:18:20.000Z</time>
      </trkpt>
      <trkpt lat="42.43579" lon="-8.646918">
        <ele>3.831994</ele>
        <time>2025-06-29T12:18:22.000Z</time>
      </trkpt>
      <trkpt lat="42.435748" lon="-8.646881">
        <ele>3.828789</ele>
        <time>2025-06-29T12:18:23.000Z</time>
      </trkpt>
      <trkpt lat="42.435744" lon="-8.646806">
        <ele>3.826375</ele>
        <time>2025-06-29T12:18:24.000Z</time>
      </trkpt>
      <trkpt lat="42.435753" lon="-8.646755">
        <ele>3.823979</ele>
        <time>2025-06-29T12:18:24.000Z</time>
      </trkpt>
      <trkpt lat="42.435366" lon="-8.645638">
        <ele>3.778711</ele>
        <time>2025-06-29T12:18:34.000Z</time>
      </trkpt>
      <trkpt lat="42.435021" lon="-8.644658">
        <ele>3.948864</ele>
        <time>2025-06-29T12:18:43.000Z</time>
      </trkpt>
      <trkpt lat="42.434721" lon="-8.644111">
        <ele>4.076392</ele>
        <time>2025-06-29T12:18:49.000Z</time>
      </trkpt>
      <trkpt lat="42.434609" lon="-8.643754">
        <ele>4.149647</ele>
        <time>2025-06-29T12:18:52.000Z</time>
      </trkpt>
      <trkpt lat="42.434424" lon="-8.643099">
        <ele>4.412795</ele>
        <time>2025-06-29T12:18:58.000Z</time>
      </trkpt>
      <trkpt lat="42.434195" lon="-8.642051">
        <ele>5.156329</ele>
        <time>2025-06-29T12:19:07.000Z</time>
      </trkpt>
      <trkpt lat="42.434136" lon="-8.641824">
        <ele>5.321334</ele>
        <time>2025-06-29T12:19:09.000Z</time>
      </trkpt>
      <trkpt lat="42.434088" lon="-8.641681">
        <ele>5.429025</ele>
        <time>2025-06-29T12:19:10.000Z</time>
      </trkpt>
      <trkpt lat="42.434103" lon="-8.641649">
        <ele>5.450685</ele>
        <time>2025-06-29T12:19:10.000Z</time>
      </trkpt>
      <trkpt lat="42.434116" lon="-8.641618">
        <ele>5.471531</ele>
        <time>2025-06-29T12:19:10.000Z</time>
      </trkpt>
      <trkpt lat="42.434078" lon="-8.641481">
        <ele>5.573959</ele>
        <time>2025-06-29T12:19:11.000Z</time>
      </trkpt>
      <trkpt lat="42.434053" lon="-8.641335">
        <ele>5.678381</ele>
        <time>2025-06-29T12:19:12.000Z</time>
      </trkpt>
      <trkpt lat="42.433855" lon="-8.640409">
        <ele>5.769561</ele>
        <time>2025-06-29T12:19:20.000Z</time>
      </trkpt>
      <trkpt lat="42.43382" lon="-8.640199">
        <ele>5.726315</ele>
        <time>2025-06-29T12:19:22.000Z</time>
      </trkpt>
      <trkpt lat="42.43371" lon="-8.639585">
        <ele>5.600372</ele>
        <time>2025-06-29T12:19:27.000Z</time>
      </trkpt>
      <trkpt lat="42.433689" lon="-8.639442">
        <ele>5.574978</ele>
        <time>2025-06-29T12:19:28.000Z</time>
      </trkpt>
      <trkpt lat="42.433405" lon="-8.638003">
        <ele>5.40677777849</ele>
        <time>2025-06-29T12:19:40.000Z</time>
      </trkpt>
      <trkpt lat="42.433298" lon="-8.637462">
        <ele>5.34353274678</ele>
        <time>2025-06-29T12:19:45.000Z</time>
      </trkpt>
      <trkpt lat="42.433267" lon="-8.637281">
        <ele>5.32255115322</ele>
        <time>2025-06-29T12:19:47.000Z</time>
      </trkpt>
      <trkpt lat="42.433251" lon="-8.637159">
        <ele>5.30855911754</ele>
        <time>2025-06-29T12:19:48.000Z</time>
      </trkpt>
      <trkpt lat="42.433247" lon="-8.636906">
        <ele>5.27998380127</ele>
        <time>2025-06-29T12:19:50.000Z</time>
      </trkpt>
      <trkpt lat="42.43325" lon="-8.636753">
        <ele>5.26270094397</ele>
        <time>2025-06-29T12:19:51.000Z</time>
      </trkpt>
      <trkpt lat="42.433236" lon="-8.636687">
        <ele>5.2549465315</ele>
        <time>2025-06-29T12:19:52.000Z</time>
      </trkpt>
      <trkpt lat="42.433227" lon="-8.636479">
        <ele>5.23141883549</ele>
        <time>2025-06-29T12:19:54.000Z</time>
      </trkpt>
      <trkpt lat="42.433155" lon="-8.63625">
        <ele>5.20331159743</ele>
        <time>2025-06-29T12:19:56.000Z</time>
      </trkpt>
      <trkpt lat="42.433107" lon="-8.636178">
        <ele>5.19235569504</ele>
        <time>2025-06-29T12:19:57.000Z</time>
      </trkpt>
      <trkpt lat="42.433058" lon="-8.63609">
        <ele>5.17990800566</ele>
        <time>2025-06-29T12:19:58.000Z</time>
      </trkpt>
      <trkpt lat="42.432636" lon="-8.635846">
        <ele>5.10971086161</ele>
        <time>2025-06-29T12:20:03.000Z</time>
      </trkpt>
    </trkseg>
  </trk>
</gpx>

<!--
Performance optimized by W3 Total Cache. Learn more: https://www.boldgrid.com/w3-total-cache/?utm_source=w3tc&utm_medium=footer_comment&utm_campaign=free_plugin

Page Caching using Disk: Enhanced{w3tc_pagecache_reject_reason} 

Served from: www.aquabike.world @ 2026-05-10 05:43:45 by W3 Total Cache
-->